<?xml version="1.0" encoding="UTF-8" standalone="no" ?>
<gpx xmlns="http://www.topografix.com/GPX/1/1" xmlns:xsi="http://www.w3.org/2001/XMLSchema-instance" xsi:schemaLocation="http://www.topografix.com/GPX/1/1 http://www.topografix.com/GPX/1/1/gpx.xsd" version="1.1" creator="VisuGPX - https://www.visugpx.com">
  <metadata>
    <name>Course à pied en soirée</name>
  </metadata>
  <trk>
    <name><![CDATA[Course à pied en soirée_1]]></name>
    <trkseg>
      <trkpt lat="43.66184" lon="1.38199">
        <ele>145</ele>
        <time>2024-03-21T17:38:11Z</time>
      </trkpt>
      <trkpt lat="43.66184" lon="1.38199">
        <ele>145</ele>
        <time>2024-03-21T17:38:12Z</time>
      </trkpt>
      <trkpt lat="43.66184" lon="1.38199">
        <ele>145</ele>
        <time>2024-03-21T17:38:13Z</time>
      </trkpt>
      <trkpt lat="43.66184" lon="1.38199">
        <ele>144</ele>
        <time>2024-03-21T17:38:14Z</time>
      </trkpt>
      <trkpt lat="43.66184" lon="1.38199">
        <ele>143</ele>
        <time>2024-03-21T17:38:15Z</time>
      </trkpt>
      <trkpt lat="43.66184" lon="1.38199">
        <ele>143</ele>
        <time>2024-03-21T17:38:16Z</time>
      </trkpt>
      <trkpt lat="43.66184" lon="1.38199">
        <ele>143</ele>
        <time>2024-03-21T17:38:17Z</time>
      </trkpt>
      <trkpt lat="43.66185" lon="1.38201">
        <ele>143</ele>
        <time>2024-03-21T17:38:18Z</time>
      </trkpt>
      <trkpt lat="43.66185" lon="1.38201">
        <ele>143</ele>
        <time>2024-03-21T17:38:19Z</time>
      </trkpt>
      <trkpt lat="43.66185" lon="1.38201">
        <ele>143</ele>
        <time>2024-03-21T17:38:20Z</time>
      </trkpt>
      <trkpt lat="43.66185" lon="1.38201">
        <ele>144</ele>
        <time>2024-03-21T17:38:21Z</time>
      </trkpt>
      <trkpt lat="43.66185" lon="1.38201">
        <ele>144</ele>
        <time>2024-03-21T17:38:22Z</time>
      </trkpt>
      <trkpt lat="43.66186" lon="1.38204">
        <ele>144</ele>
        <time>2024-03-21T17:38:23Z</time>
      </trkpt>
      <trkpt lat="43.66186" lon="1.38204">
        <ele>144</ele>
        <time>2024-03-21T17:38:24Z</time>
      </trkpt>
      <trkpt lat="43.66186" lon="1.38204">
        <ele>144</ele>
        <time>2024-03-21T17:38:25Z</time>
      </trkpt>
      <trkpt lat="43.66188" lon="1.38207">
        <ele>144</ele>
        <time>2024-03-21T17:38:26Z</time>
      </trkpt>
      <trkpt lat="43.66188" lon="1.38207">
        <ele>144</ele>
        <time>2024-03-21T17:38:27Z</time>
      </trkpt>
      <trkpt lat="43.6619" lon="1.3821">
        <ele>145</ele>
        <time>2024-03-21T17:38:28Z</time>
      </trkpt>
      <trkpt lat="43.66192" lon="1.38213">
        <ele>145</ele>
        <time>2024-03-21T17:38:29Z</time>
      </trkpt>
      <trkpt lat="43.66193" lon="1.38214">
        <ele>145</ele>
        <time>2024-03-21T17:38:30Z</time>
      </trkpt>
      <trkpt lat="43.66194" lon="1.38217">
        <ele>145</ele>
        <time>2024-03-21T17:38:31Z</time>
      </trkpt>
      <trkpt lat="43.66195" lon="1.3822">
        <ele>145</ele>
        <time>2024-03-21T17:38:32Z</time>
      </trkpt>
      <trkpt lat="43.66196" lon="1.38222">
        <ele>145</ele>
        <time>2024-03-21T17:38:33Z</time>
      </trkpt>
      <trkpt lat="43.66198" lon="1.38224">
        <ele>145</ele>
        <time>2024-03-21T17:38:34Z</time>
      </trkpt>
      <trkpt lat="43.662" lon="1.38225">
        <ele>145</ele>
        <time>2024-03-21T17:38:35Z</time>
      </trkpt>
      <trkpt lat="43.66203" lon="1.38226">
        <ele>145</ele>
        <time>2024-03-21T17:38:36Z</time>
      </trkpt>
      <trkpt lat="43.66205" lon="1.38226">
        <ele>145</ele>
        <time>2024-03-21T17:38:37Z</time>
      </trkpt>
      <trkpt lat="43.66207" lon="1.38227">
        <ele>145</ele>
        <time>2024-03-21T17:38:38Z</time>
      </trkpt>
      <trkpt lat="43.66209" lon="1.38229">
        <ele>145</ele>
        <time>2024-03-21T17:38:39Z</time>
      </trkpt>
      <trkpt lat="43.66211" lon="1.3823">
        <ele>145</ele>
        <time>2024-03-21T17:38:40Z</time>
      </trkpt>
      <trkpt lat="43.66212" lon="1.38232">
        <ele>145</ele>
        <time>2024-03-21T17:38:41Z</time>
      </trkpt>
      <trkpt lat="43.66214" lon="1.38234">
        <ele>145</ele>
        <time>2024-03-21T17:38:42Z</time>
      </trkpt>
      <trkpt lat="43.66215" lon="1.38237">
        <ele>145</ele>
        <time>2024-03-21T17:38:43Z</time>
      </trkpt>
      <trkpt lat="43.66217" lon="1.3824">
        <ele>144</ele>
        <time>2024-03-21T17:38:44Z</time>
      </trkpt>
      <trkpt lat="43.66217" lon="1.38243">
        <ele>144</ele>
        <time>2024-03-21T17:38:45Z</time>
      </trkpt>
      <trkpt lat="43.66218" lon="1.38248">
        <ele>144</ele>
        <time>2024-03-21T17:38:46Z</time>
      </trkpt>
      <trkpt lat="43.66218" lon="1.3825">
        <ele>143</ele>
        <time>2024-03-21T17:38:47Z</time>
      </trkpt>
      <trkpt lat="43.66219" lon="1.38255">
        <ele>143</ele>
        <time>2024-03-21T17:38:48Z</time>
      </trkpt>
      <trkpt lat="43.6622" lon="1.38257">
        <ele>143</ele>
        <time>2024-03-21T17:38:49Z</time>
      </trkpt>
      <trkpt lat="43.6622" lon="1.3826">
        <ele>143</ele>
        <time>2024-03-21T17:38:50Z</time>
      </trkpt>
      <trkpt lat="43.66221" lon="1.38263">
        <ele>143</ele>
        <time>2024-03-21T17:38:51Z</time>
      </trkpt>
      <trkpt lat="43.66222" lon="1.38266">
        <ele>143</ele>
        <time>2024-03-21T17:38:52Z</time>
      </trkpt>
      <trkpt lat="43.66222" lon="1.38269">
        <ele>143</ele>
        <time>2024-03-21T17:38:53Z</time>
      </trkpt>
      <trkpt lat="43.66223" lon="1.38272">
        <ele>143</ele>
        <time>2024-03-21T17:38:54Z</time>
      </trkpt>
      <trkpt lat="43.66224" lon="1.38275">
        <ele>143</ele>
        <time>2024-03-21T17:38:55Z</time>
      </trkpt>
      <trkpt lat="43.66224" lon="1.38278">
        <ele>144</ele>
        <time>2024-03-21T17:38:56Z</time>
      </trkpt>
      <trkpt lat="43.66225" lon="1.38281">
        <ele>144</ele>
        <time>2024-03-21T17:38:57Z</time>
      </trkpt>
      <trkpt lat="43.66226" lon="1.38284">
        <ele>144</ele>
        <time>2024-03-21T17:38:58Z</time>
      </trkpt>
      <trkpt lat="43.66226" lon="1.38287">
        <ele>144</ele>
        <time>2024-03-21T17:38:59Z</time>
      </trkpt>
      <trkpt lat="43.66227" lon="1.3829">
        <ele>143</ele>
        <time>2024-03-21T17:39:00Z</time>
      </trkpt>
      <trkpt lat="43.66228" lon="1.38293">
        <ele>143</ele>
        <time>2024-03-21T17:39:01Z</time>
      </trkpt>
      <trkpt lat="43.66228" lon="1.38296">
        <ele>143</ele>
        <time>2024-03-21T17:39:02Z</time>
      </trkpt>
      <trkpt lat="43.66229" lon="1.38299">
        <ele>143</ele>
        <time>2024-03-21T17:39:03Z</time>
      </trkpt>
      <trkpt lat="43.6623" lon="1.38302">
        <ele>143</ele>
        <time>2024-03-21T17:39:04Z</time>
      </trkpt>
      <trkpt lat="43.6623" lon="1.38305">
        <ele>143</ele>
        <time>2024-03-21T17:39:05Z</time>
      </trkpt>
      <trkpt lat="43.66231" lon="1.38308">
        <ele>143</ele>
        <time>2024-03-21T17:39:06Z</time>
      </trkpt>
      <trkpt lat="43.66231" lon="1.38311">
        <ele>143</ele>
        <time>2024-03-21T17:39:07Z</time>
      </trkpt>
      <trkpt lat="43.66231" lon="1.38314">
        <ele>143</ele>
        <time>2024-03-21T17:39:08Z</time>
      </trkpt>
      <trkpt lat="43.66231" lon="1.38317">
        <ele>143</ele>
        <time>2024-03-21T17:39:09Z</time>
      </trkpt>
      <trkpt lat="43.6623" lon="1.3832">
        <ele>143</ele>
        <time>2024-03-21T17:39:10Z</time>
      </trkpt>
      <trkpt lat="43.66228" lon="1.38323">
        <ele>144</ele>
        <time>2024-03-21T17:39:11Z</time>
      </trkpt>
      <trkpt lat="43.66227" lon="1.38326">
        <ele>144</ele>
        <time>2024-03-21T17:39:12Z</time>
      </trkpt>
      <trkpt lat="43.66225" lon="1.38328">
        <ele>144</ele>
        <time>2024-03-21T17:39:13Z</time>
      </trkpt>
      <trkpt lat="43.66223" lon="1.3833">
        <ele>144</ele>
        <time>2024-03-21T17:39:14Z</time>
      </trkpt>
      <trkpt lat="43.66221" lon="1.38332">
        <ele>144</ele>
        <time>2024-03-21T17:39:15Z</time>
      </trkpt>
      <trkpt lat="43.66219" lon="1.38334">
        <ele>143</ele>
        <time>2024-03-21T17:39:16Z</time>
      </trkpt>
      <trkpt lat="43.66216" lon="1.38335">
        <ele>143</ele>
        <time>2024-03-21T17:39:17Z</time>
      </trkpt>
      <trkpt lat="43.66215" lon="1.38337">
        <ele>143</ele>
        <time>2024-03-21T17:39:18Z</time>
      </trkpt>
      <trkpt lat="43.66213" lon="1.38339">
        <ele>143</ele>
        <time>2024-03-21T17:39:19Z</time>
      </trkpt>
      <trkpt lat="43.66211" lon="1.3834">
        <ele>143</ele>
        <time>2024-03-21T17:39:20Z</time>
      </trkpt>
      <trkpt lat="43.66209" lon="1.38342">
        <ele>143</ele>
        <time>2024-03-21T17:39:21Z</time>
      </trkpt>
      <trkpt lat="43.66207" lon="1.38343">
        <ele>143</ele>
        <time>2024-03-21T17:39:22Z</time>
      </trkpt>
      <trkpt lat="43.66205" lon="1.38345">
        <ele>143</ele>
        <time>2024-03-21T17:39:23Z</time>
      </trkpt>
      <trkpt lat="43.66202" lon="1.38346">
        <ele>143</ele>
        <time>2024-03-21T17:39:24Z</time>
      </trkpt>
      <trkpt lat="43.662" lon="1.38347">
        <ele>143</ele>
        <time>2024-03-21T17:39:25Z</time>
      </trkpt>
      <trkpt lat="43.66197" lon="1.38349">
        <ele>143</ele>
        <time>2024-03-21T17:39:26Z</time>
      </trkpt>
      <trkpt lat="43.66196" lon="1.3835">
        <ele>143</ele>
        <time>2024-03-21T17:39:27Z</time>
      </trkpt>
      <trkpt lat="43.66192" lon="1.38352">
        <ele>143</ele>
        <time>2024-03-21T17:39:28Z</time>
      </trkpt>
      <trkpt lat="43.66191" lon="1.38353">
        <ele>143</ele>
        <time>2024-03-21T17:39:29Z</time>
      </trkpt>
      <trkpt lat="43.66189" lon="1.38354">
        <ele>143</ele>
        <time>2024-03-21T17:39:30Z</time>
      </trkpt>
      <trkpt lat="43.66187" lon="1.38356">
        <ele>143</ele>
        <time>2024-03-21T17:39:31Z</time>
      </trkpt>
      <trkpt lat="43.66185" lon="1.38357">
        <ele>143</ele>
        <time>2024-03-21T17:39:32Z</time>
      </trkpt>
      <trkpt lat="43.66183" lon="1.38358">
        <ele>143</ele>
        <time>2024-03-21T17:39:33Z</time>
      </trkpt>
      <trkpt lat="43.66181" lon="1.3836">
        <ele>143</ele>
        <time>2024-03-21T17:39:34Z</time>
      </trkpt>
      <trkpt lat="43.66178" lon="1.38361">
        <ele>143</ele>
        <time>2024-03-21T17:39:35Z</time>
      </trkpt>
      <trkpt lat="43.66176" lon="1.38362">
        <ele>143</ele>
        <time>2024-03-21T17:39:36Z</time>
      </trkpt>
      <trkpt lat="43.66174" lon="1.38363">
        <ele>143</ele>
        <time>2024-03-21T17:39:37Z</time>
      </trkpt>
      <trkpt lat="43.66172" lon="1.38364">
        <ele>143</ele>
        <time>2024-03-21T17:39:38Z</time>
      </trkpt>
      <trkpt lat="43.66169" lon="1.38366">
        <ele>143</ele>
        <time>2024-03-21T17:39:39Z</time>
      </trkpt>
      <trkpt lat="43.66167" lon="1.38367">
        <ele>143</ele>
        <time>2024-03-21T17:39:40Z</time>
      </trkpt>
      <trkpt lat="43.66165" lon="1.38369">
        <ele>143</ele>
        <time>2024-03-21T17:39:41Z</time>
      </trkpt>
      <trkpt lat="43.66163" lon="1.38371">
        <ele>144</ele>
        <time>2024-03-21T17:39:42Z</time>
      </trkpt>
      <trkpt lat="43.66161" lon="1.38373">
        <ele>144</ele>
        <time>2024-03-21T17:39:43Z</time>
      </trkpt>
      <trkpt lat="43.6616" lon="1.38375">
        <ele>144</ele>
        <time>2024-03-21T17:39:44Z</time>
      </trkpt>
      <trkpt lat="43.66158" lon="1.38379">
        <ele>144</ele>
        <time>2024-03-21T17:39:45Z</time>
      </trkpt>
      <trkpt lat="43.66158" lon="1.3838">
        <ele>144</ele>
        <time>2024-03-21T17:39:46Z</time>
      </trkpt>
      <trkpt lat="43.66158" lon="1.38383">
        <ele>144</ele>
        <time>2024-03-21T17:39:47Z</time>
      </trkpt>
      <trkpt lat="43.66158" lon="1.38386">
        <ele>144</ele>
        <time>2024-03-21T17:39:48Z</time>
      </trkpt>
      <trkpt lat="43.66159" lon="1.38389">
        <ele>143</ele>
        <time>2024-03-21T17:39:49Z</time>
      </trkpt>
      <trkpt lat="43.66161" lon="1.38393">
        <ele>143</ele>
        <time>2024-03-21T17:39:50Z</time>
      </trkpt>
      <trkpt lat="43.66161" lon="1.38394">
        <ele>143</ele>
        <time>2024-03-21T17:39:51Z</time>
      </trkpt>
      <trkpt lat="43.66162" lon="1.38397">
        <ele>143</ele>
        <time>2024-03-21T17:39:52Z</time>
      </trkpt>
      <trkpt lat="43.66163" lon="1.384">
        <ele>142</ele>
        <time>2024-03-21T17:39:53Z</time>
      </trkpt>
      <trkpt lat="43.66164" lon="1.38402">
        <ele>143</ele>
        <time>2024-03-21T17:39:54Z</time>
      </trkpt>
      <trkpt lat="43.66165" lon="1.38405">
        <ele>143</ele>
        <time>2024-03-21T17:39:55Z</time>
      </trkpt>
      <trkpt lat="43.66166" lon="1.38408">
        <ele>143</ele>
        <time>2024-03-21T17:39:56Z</time>
      </trkpt>
      <trkpt lat="43.66167" lon="1.38411">
        <ele>143</ele>
        <time>2024-03-21T17:39:57Z</time>
      </trkpt>
      <trkpt lat="43.66168" lon="1.38413">
        <ele>143</ele>
        <time>2024-03-21T17:39:58Z</time>
      </trkpt>
      <trkpt lat="43.66169" lon="1.38416">
        <ele>143</ele>
        <time>2024-03-21T17:39:59Z</time>
      </trkpt>
      <trkpt lat="43.6617" lon="1.38419">
        <ele>143</ele>
        <time>2024-03-21T17:40:00Z</time>
      </trkpt>
      <trkpt lat="43.6617" lon="1.38422">
        <ele>143</ele>
        <time>2024-03-21T17:40:01Z</time>
      </trkpt>
      <trkpt lat="43.66171" lon="1.38425">
        <ele>143</ele>
        <time>2024-03-21T17:40:02Z</time>
      </trkpt>
      <trkpt lat="43.66171" lon="1.38428">
        <ele>143</ele>
        <time>2024-03-21T17:40:03Z</time>
      </trkpt>
      <trkpt lat="43.66172" lon="1.38433">
        <ele>143</ele>
        <time>2024-03-21T17:40:04Z</time>
      </trkpt>
      <trkpt lat="43.66172" lon="1.38434">
        <ele>143</ele>
        <time>2024-03-21T17:40:05Z</time>
      </trkpt>
      <trkpt lat="43.66171" lon="1.38437">
        <ele>143</ele>
        <time>2024-03-21T17:40:06Z</time>
      </trkpt>
      <trkpt lat="43.66171" lon="1.38441">
        <ele>143</ele>
        <time>2024-03-21T17:40:07Z</time>
      </trkpt>
      <trkpt lat="43.66169" lon="1.38443">
        <ele>143</ele>
        <time>2024-03-21T17:40:08Z</time>
      </trkpt>
      <trkpt lat="43.66168" lon="1.38446">
        <ele>143</ele>
        <time>2024-03-21T17:40:09Z</time>
      </trkpt>
      <trkpt lat="43.66166" lon="1.38448">
        <ele>143</ele>
        <time>2024-03-21T17:40:10Z</time>
      </trkpt>
      <trkpt lat="43.66164" lon="1.3845">
        <ele>143</ele>
        <time>2024-03-21T17:40:11Z</time>
      </trkpt>
      <trkpt lat="43.66161" lon="1.38453">
        <ele>143</ele>
        <time>2024-03-21T17:40:12Z</time>
      </trkpt>
      <trkpt lat="43.66159" lon="1.38454">
        <ele>143</ele>
        <time>2024-03-21T17:40:13Z</time>
      </trkpt>
      <trkpt lat="43.66157" lon="1.38456">
        <ele>143</ele>
        <time>2024-03-21T17:40:14Z</time>
      </trkpt>
      <trkpt lat="43.66155" lon="1.38457">
        <ele>143</ele>
        <time>2024-03-21T17:40:15Z</time>
      </trkpt>
      <trkpt lat="43.66153" lon="1.38458">
        <ele>143</ele>
        <time>2024-03-21T17:40:16Z</time>
      </trkpt>
      <trkpt lat="43.66151" lon="1.38459">
        <ele>143</ele>
        <time>2024-03-21T17:40:17Z</time>
      </trkpt>
      <trkpt lat="43.66148" lon="1.3846">
        <ele>143</ele>
        <time>2024-03-21T17:40:18Z</time>
      </trkpt>
      <trkpt lat="43.66146" lon="1.38461">
        <ele>143</ele>
        <time>2024-03-21T17:40:19Z</time>
      </trkpt>
      <trkpt lat="43.66144" lon="1.38462">
        <ele>144</ele>
        <time>2024-03-21T17:40:20Z</time>
      </trkpt>
      <trkpt lat="43.66142" lon="1.38463">
        <ele>144</ele>
        <time>2024-03-21T17:40:21Z</time>
      </trkpt>
      <trkpt lat="43.6614" lon="1.38464">
        <ele>143</ele>
        <time>2024-03-21T17:40:22Z</time>
      </trkpt>
      <trkpt lat="43.66137" lon="1.38467">
        <ele>143</ele>
        <time>2024-03-21T17:40:23Z</time>
      </trkpt>
      <trkpt lat="43.66136" lon="1.38468">
        <ele>143</ele>
        <time>2024-03-21T17:40:24Z</time>
      </trkpt>
      <trkpt lat="43.66135" lon="1.3847">
        <ele>143</ele>
        <time>2024-03-21T17:40:25Z</time>
      </trkpt>
      <trkpt lat="43.66135" lon="1.38473">
        <ele>143</ele>
        <time>2024-03-21T17:40:26Z</time>
      </trkpt>
      <trkpt lat="43.66135" lon="1.38476">
        <ele>143</ele>
        <time>2024-03-21T17:40:27Z</time>
      </trkpt>
      <trkpt lat="43.66135" lon="1.38478">
        <ele>143</ele>
        <time>2024-03-21T17:40:28Z</time>
      </trkpt>
      <trkpt lat="43.66136" lon="1.38481">
        <ele>143</ele>
        <time>2024-03-21T17:40:29Z</time>
      </trkpt>
      <trkpt lat="43.66137" lon="1.38484">
        <ele>143</ele>
        <time>2024-03-21T17:40:30Z</time>
      </trkpt>
      <trkpt lat="43.66138" lon="1.38486">
        <ele>143</ele>
        <time>2024-03-21T17:40:31Z</time>
      </trkpt>
      <trkpt lat="43.66139" lon="1.38489">
        <ele>143</ele>
        <time>2024-03-21T17:40:32Z</time>
      </trkpt>
      <trkpt lat="43.6614" lon="1.38492">
        <ele>143</ele>
        <time>2024-03-21T17:40:33Z</time>
      </trkpt>
      <trkpt lat="43.66141" lon="1.38494">
        <ele>143</ele>
        <time>2024-03-21T17:40:34Z</time>
      </trkpt>
      <trkpt lat="43.66142" lon="1.38497">
        <ele>143</ele>
        <time>2024-03-21T17:40:35Z</time>
      </trkpt>
      <trkpt lat="43.66143" lon="1.385">
        <ele>143</ele>
        <time>2024-03-21T17:40:36Z</time>
      </trkpt>
      <trkpt lat="43.66143" lon="1.38502">
        <ele>143</ele>
        <time>2024-03-21T17:40:37Z</time>
      </trkpt>
      <trkpt lat="43.66144" lon="1.38505">
        <ele>143</ele>
        <time>2024-03-21T17:40:38Z</time>
      </trkpt>
      <trkpt lat="43.66145" lon="1.38508">
        <ele>143</ele>
        <time>2024-03-21T17:40:39Z</time>
      </trkpt>
      <trkpt lat="43.66146" lon="1.38511">
        <ele>143</ele>
        <time>2024-03-21T17:40:40Z</time>
      </trkpt>
      <trkpt lat="43.66147" lon="1.38514">
        <ele>143</ele>
        <time>2024-03-21T17:40:41Z</time>
      </trkpt>
      <trkpt lat="43.66149" lon="1.38518">
        <ele>143</ele>
        <time>2024-03-21T17:40:42Z</time>
      </trkpt>
      <trkpt lat="43.66149" lon="1.3852">
        <ele>142</ele>
        <time>2024-03-21T17:40:43Z</time>
      </trkpt>
      <trkpt lat="43.6615" lon="1.38523">
        <ele>142</ele>
        <time>2024-03-21T17:40:44Z</time>
      </trkpt>
      <trkpt lat="43.66151" lon="1.38526">
        <ele>141</ele>
        <time>2024-03-21T17:40:45Z</time>
      </trkpt>
      <trkpt lat="43.66152" lon="1.38529">
        <ele>141</ele>
        <time>2024-03-21T17:40:46Z</time>
      </trkpt>
      <trkpt lat="43.66152" lon="1.38531">
        <ele>141</ele>
        <time>2024-03-21T17:40:47Z</time>
      </trkpt>
      <trkpt lat="43.66153" lon="1.38534">
        <ele>141</ele>
        <time>2024-03-21T17:40:48Z</time>
      </trkpt>
      <trkpt lat="43.66154" lon="1.38537">
        <ele>141</ele>
        <time>2024-03-21T17:40:49Z</time>
      </trkpt>
      <trkpt lat="43.66155" lon="1.3854">
        <ele>141</ele>
        <time>2024-03-21T17:40:50Z</time>
      </trkpt>
      <trkpt lat="43.66156" lon="1.38543">
        <ele>141</ele>
        <time>2024-03-21T17:40:51Z</time>
      </trkpt>
      <trkpt lat="43.66157" lon="1.38546">
        <ele>141</ele>
        <time>2024-03-21T17:40:52Z</time>
      </trkpt>
      <trkpt lat="43.66158" lon="1.38549">
        <ele>141</ele>
        <time>2024-03-21T17:40:53Z</time>
      </trkpt>
      <trkpt lat="43.66159" lon="1.38552">
        <ele>141</ele>
        <time>2024-03-21T17:40:54Z</time>
      </trkpt>
      <trkpt lat="43.6616" lon="1.38555">
        <ele>140</ele>
        <time>2024-03-21T17:40:55Z</time>
      </trkpt>
      <trkpt lat="43.66161" lon="1.3856">
        <ele>140</ele>
        <time>2024-03-21T17:40:56Z</time>
      </trkpt>
      <trkpt lat="43.66162" lon="1.38561">
        <ele>140</ele>
        <time>2024-03-21T17:40:57Z</time>
      </trkpt>
      <trkpt lat="43.66163" lon="1.38564">
        <ele>140</ele>
        <time>2024-03-21T17:40:58Z</time>
      </trkpt>
      <trkpt lat="43.66164" lon="1.38567">
        <ele>140</ele>
        <time>2024-03-21T17:40:59Z</time>
      </trkpt>
      <trkpt lat="43.66164" lon="1.3857">
        <ele>140</ele>
        <time>2024-03-21T17:41:00Z</time>
      </trkpt>
      <trkpt lat="43.66166" lon="1.38574">
        <ele>140</ele>
        <time>2024-03-21T17:41:01Z</time>
      </trkpt>
      <trkpt lat="43.66166" lon="1.38576">
        <ele>140</ele>
        <time>2024-03-21T17:41:02Z</time>
      </trkpt>
      <trkpt lat="43.66167" lon="1.38579">
        <ele>140</ele>
        <time>2024-03-21T17:41:03Z</time>
      </trkpt>
      <trkpt lat="43.66168" lon="1.38582">
        <ele>139</ele>
        <time>2024-03-21T17:41:04Z</time>
      </trkpt>
      <trkpt lat="43.66169" lon="1.38585">
        <ele>139</ele>
        <time>2024-03-21T17:41:05Z</time>
      </trkpt>
      <trkpt lat="43.6617" lon="1.38588">
        <ele>139</ele>
        <time>2024-03-21T17:41:06Z</time>
      </trkpt>
      <trkpt lat="43.66171" lon="1.38591">
        <ele>139</ele>
        <time>2024-03-21T17:41:07Z</time>
      </trkpt>
      <trkpt lat="43.66172" lon="1.38594">
        <ele>139</ele>
        <time>2024-03-21T17:41:08Z</time>
      </trkpt>
      <trkpt lat="43.66173" lon="1.38597">
        <ele>139</ele>
        <time>2024-03-21T17:41:09Z</time>
      </trkpt>
      <trkpt lat="43.66173" lon="1.386">
        <ele>139</ele>
        <time>2024-03-21T17:41:10Z</time>
      </trkpt>
      <trkpt lat="43.66174" lon="1.38603">
        <ele>139</ele>
        <time>2024-03-21T17:41:11Z</time>
      </trkpt>
      <trkpt lat="43.66174" lon="1.38605">
        <ele>139</ele>
        <time>2024-03-21T17:41:12Z</time>
      </trkpt>
      <trkpt lat="43.66175" lon="1.38608">
        <ele>139</ele>
        <time>2024-03-21T17:41:13Z</time>
      </trkpt>
      <trkpt lat="43.66176" lon="1.38611">
        <ele>139</ele>
        <time>2024-03-21T17:41:14Z</time>
      </trkpt>
      <trkpt lat="43.66177" lon="1.38614">
        <ele>139</ele>
        <time>2024-03-21T17:41:15Z</time>
      </trkpt>
      <trkpt lat="43.66178" lon="1.38616">
        <ele>139</ele>
        <time>2024-03-21T17:41:16Z</time>
      </trkpt>
      <trkpt lat="43.66179" lon="1.38619">
        <ele>139</ele>
        <time>2024-03-21T17:41:17Z</time>
      </trkpt>
      <trkpt lat="43.66182" lon="1.38623">
        <ele>139</ele>
        <time>2024-03-21T17:41:18Z</time>
      </trkpt>
      <trkpt lat="43.66182" lon="1.38624">
        <ele>139</ele>
        <time>2024-03-21T17:41:19Z</time>
      </trkpt>
      <trkpt lat="43.66185" lon="1.38628">
        <ele>139</ele>
        <time>2024-03-21T17:41:20Z</time>
      </trkpt>
      <trkpt lat="43.66186" lon="1.38629">
        <ele>138</ele>
        <time>2024-03-21T17:41:21Z</time>
      </trkpt>
      <trkpt lat="43.66188" lon="1.38631">
        <ele>138</ele>
        <time>2024-03-21T17:41:22Z</time>
      </trkpt>
      <trkpt lat="43.66189" lon="1.38633">
        <ele>138</ele>
        <time>2024-03-21T17:41:23Z</time>
      </trkpt>
      <trkpt lat="43.66191" lon="1.38636">
        <ele>138</ele>
        <time>2024-03-21T17:41:24Z</time>
      </trkpt>
      <trkpt lat="43.66193" lon="1.38639">
        <ele>138</ele>
        <time>2024-03-21T17:41:25Z</time>
      </trkpt>
      <trkpt lat="43.66194" lon="1.38642">
        <ele>138</ele>
        <time>2024-03-21T17:41:26Z</time>
      </trkpt>
      <trkpt lat="43.66195" lon="1.38644">
        <ele>138</ele>
        <time>2024-03-21T17:41:27Z</time>
      </trkpt>
      <trkpt lat="43.66197" lon="1.38647">
        <ele>138</ele>
        <time>2024-03-21T17:41:28Z</time>
      </trkpt>
      <trkpt lat="43.66198" lon="1.3865">
        <ele>138</ele>
        <time>2024-03-21T17:41:29Z</time>
      </trkpt>
      <trkpt lat="43.66199" lon="1.38653">
        <ele>138</ele>
        <time>2024-03-21T17:41:30Z</time>
      </trkpt>
      <trkpt lat="43.662" lon="1.38655">
        <ele>138</ele>
        <time>2024-03-21T17:41:31Z</time>
      </trkpt>
      <trkpt lat="43.66201" lon="1.38658">
        <ele>137</ele>
        <time>2024-03-21T17:41:32Z</time>
      </trkpt>
      <trkpt lat="43.66202" lon="1.38661">
        <ele>137</ele>
        <time>2024-03-21T17:41:33Z</time>
      </trkpt>
      <trkpt lat="43.66203" lon="1.38663">
        <ele>137</ele>
        <time>2024-03-21T17:41:34Z</time>
      </trkpt>
      <trkpt lat="43.66204" lon="1.38666">
        <ele>138</ele>
        <time>2024-03-21T17:41:35Z</time>
      </trkpt>
      <trkpt lat="43.66205" lon="1.38669">
        <ele>138</ele>
        <time>2024-03-21T17:41:36Z</time>
      </trkpt>
      <trkpt lat="43.66206" lon="1.38672">
        <ele>138</ele>
        <time>2024-03-21T17:41:37Z</time>
      </trkpt>
      <trkpt lat="43.66207" lon="1.38675">
        <ele>138</ele>
        <time>2024-03-21T17:41:38Z</time>
      </trkpt>
      <trkpt lat="43.66208" lon="1.38678">
        <ele>138</ele>
        <time>2024-03-21T17:41:39Z</time>
      </trkpt>
      <trkpt lat="43.66209" lon="1.38682">
        <ele>138</ele>
        <time>2024-03-21T17:41:40Z</time>
      </trkpt>
      <trkpt lat="43.6621" lon="1.38685">
        <ele>138</ele>
        <time>2024-03-21T17:41:41Z</time>
      </trkpt>
      <trkpt lat="43.66211" lon="1.38687">
        <ele>138</ele>
        <time>2024-03-21T17:41:42Z</time>
      </trkpt>
      <trkpt lat="43.66212" lon="1.3869">
        <ele>137</ele>
        <time>2024-03-21T17:41:43Z</time>
      </trkpt>
      <trkpt lat="43.66214" lon="1.38692">
        <ele>137</ele>
        <time>2024-03-21T17:41:44Z</time>
      </trkpt>
      <trkpt lat="43.66216" lon="1.38695">
        <ele>138</ele>
        <time>2024-03-21T17:41:45Z</time>
      </trkpt>
      <trkpt lat="43.66217" lon="1.38697">
        <ele>138</ele>
        <time>2024-03-21T17:41:46Z</time>
      </trkpt>
      <trkpt lat="43.66219" lon="1.387">
        <ele>138</ele>
        <time>2024-03-21T17:41:47Z</time>
      </trkpt>
      <trkpt lat="43.66221" lon="1.38702">
        <ele>137</ele>
        <time>2024-03-21T17:41:48Z</time>
      </trkpt>
      <trkpt lat="43.66222" lon="1.38705">
        <ele>137</ele>
        <time>2024-03-21T17:41:49Z</time>
      </trkpt>
      <trkpt lat="43.66223" lon="1.38708">
        <ele>137</ele>
        <time>2024-03-21T17:41:50Z</time>
      </trkpt>
      <trkpt lat="43.66224" lon="1.38711">
        <ele>137</ele>
        <time>2024-03-21T17:41:51Z</time>
      </trkpt>
      <trkpt lat="43.66225" lon="1.38713">
        <ele>137</ele>
        <time>2024-03-21T17:41:52Z</time>
      </trkpt>
      <trkpt lat="43.66226" lon="1.38716">
        <ele>138</ele>
        <time>2024-03-21T17:41:53Z</time>
      </trkpt>
      <trkpt lat="43.66228" lon="1.38719">
        <ele>138</ele>
        <time>2024-03-21T17:41:54Z</time>
      </trkpt>
      <trkpt lat="43.66229" lon="1.38722">
        <ele>137</ele>
        <time>2024-03-21T17:41:55Z</time>
      </trkpt>
      <trkpt lat="43.6623" lon="1.38724">
        <ele>137</ele>
        <time>2024-03-21T17:41:56Z</time>
      </trkpt>
      <trkpt lat="43.66231" lon="1.38728">
        <ele>137</ele>
        <time>2024-03-21T17:41:57Z</time>
      </trkpt>
      <trkpt lat="43.66233" lon="1.38732">
        <ele>137</ele>
        <time>2024-03-21T17:41:58Z</time>
      </trkpt>
      <trkpt lat="43.66233" lon="1.38733">
        <ele>137</ele>
        <time>2024-03-21T17:41:59Z</time>
      </trkpt>
      <trkpt lat="43.66234" lon="1.38736">
        <ele>137</ele>
        <time>2024-03-21T17:42:00Z</time>
      </trkpt>
      <trkpt lat="43.66235" lon="1.38738">
        <ele>137</ele>
        <time>2024-03-21T17:42:01Z</time>
      </trkpt>
      <trkpt lat="43.66236" lon="1.38741">
        <ele>137</ele>
        <time>2024-03-21T17:42:02Z</time>
      </trkpt>
      <trkpt lat="43.66237" lon="1.38744">
        <ele>137</ele>
        <time>2024-03-21T17:42:03Z</time>
      </trkpt>
      <trkpt lat="43.66238" lon="1.38747">
        <ele>137</ele>
        <time>2024-03-21T17:42:04Z</time>
      </trkpt>
      <trkpt lat="43.66239" lon="1.3875">
        <ele>137</ele>
        <time>2024-03-21T17:42:05Z</time>
      </trkpt>
      <trkpt lat="43.6624" lon="1.38752">
        <ele>137</ele>
        <time>2024-03-21T17:42:06Z</time>
      </trkpt>
      <trkpt lat="43.66241" lon="1.38755">
        <ele>137</ele>
        <time>2024-03-21T17:42:07Z</time>
      </trkpt>
      <trkpt lat="43.66242" lon="1.38757">
        <ele>137</ele>
        <time>2024-03-21T17:42:08Z</time>
      </trkpt>
      <trkpt lat="43.66243" lon="1.3876">
        <ele>137</ele>
        <time>2024-03-21T17:42:09Z</time>
      </trkpt>
      <trkpt lat="43.66244" lon="1.38763">
        <ele>137</ele>
        <time>2024-03-21T17:42:10Z</time>
      </trkpt>
      <trkpt lat="43.66245" lon="1.38766">
        <ele>137</ele>
        <time>2024-03-21T17:42:11Z</time>
      </trkpt>
      <trkpt lat="43.66246" lon="1.38768">
        <ele>137</ele>
        <time>2024-03-21T17:42:12Z</time>
      </trkpt>
      <trkpt lat="43.66247" lon="1.3877">
        <ele>137</ele>
        <time>2024-03-21T17:42:13Z</time>
      </trkpt>
      <trkpt lat="43.66248" lon="1.38773">
        <ele>137</ele>
        <time>2024-03-21T17:42:14Z</time>
      </trkpt>
      <trkpt lat="43.66248" lon="1.38775">
        <ele>137</ele>
        <time>2024-03-21T17:42:15Z</time>
      </trkpt>
      <trkpt lat="43.66248" lon="1.38779">
        <ele>137</ele>
        <time>2024-03-21T17:42:16Z</time>
      </trkpt>
      <trkpt lat="43.66248" lon="1.38784">
        <ele>137</ele>
        <time>2024-03-21T17:42:17Z</time>
      </trkpt>
      <trkpt lat="43.66247" lon="1.38785">
        <ele>137</ele>
        <time>2024-03-21T17:42:18Z</time>
      </trkpt>
      <trkpt lat="43.66246" lon="1.38789">
        <ele>137</ele>
        <time>2024-03-21T17:42:19Z</time>
      </trkpt>
      <trkpt lat="43.66245" lon="1.38792">
        <ele>137</ele>
        <time>2024-03-21T17:42:20Z</time>
      </trkpt>
      <trkpt lat="43.66244" lon="1.38795">
        <ele>138</ele>
        <time>2024-03-21T17:42:21Z</time>
      </trkpt>
      <trkpt lat="43.66243" lon="1.38798">
        <ele>138</ele>
        <time>2024-03-21T17:42:22Z</time>
      </trkpt>
      <trkpt lat="43.66241" lon="1.38802">
        <ele>138</ele>
        <time>2024-03-21T17:42:23Z</time>
      </trkpt>
      <trkpt lat="43.66241" lon="1.38804">
        <ele>138</ele>
        <time>2024-03-21T17:42:24Z</time>
      </trkpt>
      <trkpt lat="43.6624" lon="1.38806">
        <ele>138</ele>
        <time>2024-03-21T17:42:25Z</time>
      </trkpt>
      <trkpt lat="43.6624" lon="1.3881">
        <ele>138</ele>
        <time>2024-03-21T17:42:26Z</time>
      </trkpt>
      <trkpt lat="43.6624" lon="1.38813">
        <ele>138</ele>
        <time>2024-03-21T17:42:27Z</time>
      </trkpt>
      <trkpt lat="43.6624" lon="1.38816">
        <ele>138</ele>
        <time>2024-03-21T17:42:28Z</time>
      </trkpt>
      <trkpt lat="43.6624" lon="1.38819">
        <ele>138</ele>
        <time>2024-03-21T17:42:29Z</time>
      </trkpt>
      <trkpt lat="43.6624" lon="1.38822">
        <ele>138</ele>
        <time>2024-03-21T17:42:30Z</time>
      </trkpt>
      <trkpt lat="43.6624" lon="1.38826">
        <ele>138</ele>
        <time>2024-03-21T17:42:31Z</time>
      </trkpt>
      <trkpt lat="43.66241" lon="1.38828">
        <ele>138</ele>
        <time>2024-03-21T17:42:32Z</time>
      </trkpt>
      <trkpt lat="43.66242" lon="1.38831">
        <ele>138</ele>
        <time>2024-03-21T17:42:33Z</time>
      </trkpt>
      <trkpt lat="43.66243" lon="1.38833">
        <ele>138</ele>
        <time>2024-03-21T17:42:34Z</time>
      </trkpt>
      <trkpt lat="43.66245" lon="1.38836">
        <ele>138</ele>
        <time>2024-03-21T17:42:35Z</time>
      </trkpt>
      <trkpt lat="43.66247" lon="1.38838">
        <ele>138</ele>
        <time>2024-03-21T17:42:36Z</time>
      </trkpt>
      <trkpt lat="43.66248" lon="1.38839">
        <ele>138</ele>
        <time>2024-03-21T17:42:37Z</time>
      </trkpt>
      <trkpt lat="43.66249" lon="1.38841">
        <ele>138</ele>
        <time>2024-03-21T17:42:38Z</time>
      </trkpt>
      <trkpt lat="43.66251" lon="1.38844">
        <ele>138</ele>
        <time>2024-03-21T17:42:39Z</time>
      </trkpt>
      <trkpt lat="43.66252" lon="1.38846">
        <ele>137</ele>
        <time>2024-03-21T17:42:40Z</time>
      </trkpt>
      <trkpt lat="43.66254" lon="1.38848">
        <ele>137</ele>
        <time>2024-03-21T17:42:41Z</time>
      </trkpt>
      <trkpt lat="43.66255" lon="1.3885">
        <ele>137</ele>
        <time>2024-03-21T17:42:42Z</time>
      </trkpt>
      <trkpt lat="43.66257" lon="1.38852">
        <ele>138</ele>
        <time>2024-03-21T17:42:43Z</time>
      </trkpt>
      <trkpt lat="43.66258" lon="1.38855">
        <ele>138</ele>
        <time>2024-03-21T17:42:44Z</time>
      </trkpt>
      <trkpt lat="43.66259" lon="1.38858">
        <ele>138</ele>
        <time>2024-03-21T17:42:45Z</time>
      </trkpt>
      <trkpt lat="43.6626" lon="1.38859">
        <ele>137</ele>
        <time>2024-03-21T17:42:46Z</time>
      </trkpt>
      <trkpt lat="43.66262" lon="1.38862">
        <ele>137</ele>
        <time>2024-03-21T17:42:47Z</time>
      </trkpt>
      <trkpt lat="43.66263" lon="1.38864">
        <ele>137</ele>
        <time>2024-03-21T17:42:48Z</time>
      </trkpt>
      <trkpt lat="43.66264" lon="1.38866">
        <ele>137</ele>
        <time>2024-03-21T17:42:49Z</time>
      </trkpt>
      <trkpt lat="43.66266" lon="1.38868">
        <ele>137</ele>
        <time>2024-03-21T17:42:50Z</time>
      </trkpt>
      <trkpt lat="43.66268" lon="1.3887">
        <ele>137</ele>
        <time>2024-03-21T17:42:51Z</time>
      </trkpt>
      <trkpt lat="43.6627" lon="1.38873">
        <ele>137</ele>
        <time>2024-03-21T17:42:52Z</time>
      </trkpt>
      <trkpt lat="43.66271" lon="1.38875">
        <ele>137</ele>
        <time>2024-03-21T17:42:53Z</time>
      </trkpt>
      <trkpt lat="43.66273" lon="1.38877">
        <ele>137</ele>
        <time>2024-03-21T17:42:54Z</time>
      </trkpt>
      <trkpt lat="43.66275" lon="1.3888">
        <ele>137</ele>
        <time>2024-03-21T17:42:55Z</time>
      </trkpt>
      <trkpt lat="43.66276" lon="1.38881">
        <ele>137</ele>
        <time>2024-03-21T17:42:56Z</time>
      </trkpt>
      <trkpt lat="43.66278" lon="1.38884">
        <ele>137</ele>
        <time>2024-03-21T17:42:57Z</time>
      </trkpt>
      <trkpt lat="43.66279" lon="1.38887">
        <ele>137</ele>
        <time>2024-03-21T17:42:58Z</time>
      </trkpt>
      <trkpt lat="43.6628" lon="1.38889">
        <ele>137</ele>
        <time>2024-03-21T17:42:59Z</time>
      </trkpt>
      <trkpt lat="43.66282" lon="1.38891">
        <ele>137</ele>
        <time>2024-03-21T17:43:00Z</time>
      </trkpt>
      <trkpt lat="43.66283" lon="1.38894">
        <ele>137</ele>
        <time>2024-03-21T17:43:01Z</time>
      </trkpt>
      <trkpt lat="43.66284" lon="1.38896">
        <ele>137</ele>
        <time>2024-03-21T17:43:02Z</time>
      </trkpt>
      <trkpt lat="43.66286" lon="1.38899">
        <ele>137</ele>
        <time>2024-03-21T17:43:03Z</time>
      </trkpt>
      <trkpt lat="43.66287" lon="1.38901">
        <ele>137</ele>
        <time>2024-03-21T17:43:04Z</time>
      </trkpt>
      <trkpt lat="43.66288" lon="1.38904">
        <ele>137</ele>
        <time>2024-03-21T17:43:05Z</time>
      </trkpt>
      <trkpt lat="43.6629" lon="1.38907">
        <ele>137</ele>
        <time>2024-03-21T17:43:06Z</time>
      </trkpt>
      <trkpt lat="43.66291" lon="1.38912">
        <ele>137</ele>
        <time>2024-03-21T17:43:07Z</time>
      </trkpt>
      <trkpt lat="43.66291" lon="1.38913">
        <ele>137</ele>
        <time>2024-03-21T17:43:08Z</time>
      </trkpt>
      <trkpt lat="43.66291" lon="1.38913">
        <ele>137</ele>
        <time>2024-03-21T17:43:09Z</time>
      </trkpt>
      <trkpt lat="43.66292" lon="1.38917">
        <ele>137</ele>
        <time>2024-03-21T17:43:10Z</time>
      </trkpt>
      <trkpt lat="43.66292" lon="1.38917">
        <ele>137</ele>
        <time>2024-03-21T17:43:11Z</time>
      </trkpt>
      <trkpt lat="43.66291" lon="1.38922">
        <ele>137</ele>
        <time>2024-03-21T17:43:12Z</time>
      </trkpt>
      <trkpt lat="43.66291" lon="1.38925">
        <ele>136</ele>
        <time>2024-03-21T17:43:13Z</time>
      </trkpt>
      <trkpt lat="43.6629" lon="1.38929">
        <ele>136</ele>
        <time>2024-03-21T17:43:14Z</time>
      </trkpt>
      <trkpt lat="43.66289" lon="1.3893">
        <ele>136</ele>
        <time>2024-03-21T17:43:15Z</time>
      </trkpt>
      <trkpt lat="43.66288" lon="1.38932">
        <ele>136</ele>
        <time>2024-03-21T17:43:16Z</time>
      </trkpt>
      <trkpt lat="43.66286" lon="1.38935">
        <ele>136</ele>
        <time>2024-03-21T17:43:17Z</time>
      </trkpt>
      <trkpt lat="43.66284" lon="1.38937">
        <ele>136</ele>
        <time>2024-03-21T17:43:18Z</time>
      </trkpt>
      <trkpt lat="43.66282" lon="1.38939">
        <ele>136</ele>
        <time>2024-03-21T17:43:19Z</time>
      </trkpt>
      <trkpt lat="43.6628" lon="1.38941">
        <ele>136</ele>
        <time>2024-03-21T17:43:20Z</time>
      </trkpt>
      <trkpt lat="43.66278" lon="1.38944">
        <ele>136</ele>
        <time>2024-03-21T17:43:21Z</time>
      </trkpt>
      <trkpt lat="43.66277" lon="1.38947">
        <ele>136</ele>
        <time>2024-03-21T17:43:22Z</time>
      </trkpt>
      <trkpt lat="43.66276" lon="1.3895">
        <ele>136</ele>
        <time>2024-03-21T17:43:23Z</time>
      </trkpt>
      <trkpt lat="43.66275" lon="1.38952">
        <ele>136</ele>
        <time>2024-03-21T17:43:24Z</time>
      </trkpt>
      <trkpt lat="43.66273" lon="1.38955">
        <ele>136</ele>
        <time>2024-03-21T17:43:25Z</time>
      </trkpt>
      <trkpt lat="43.66272" lon="1.38958">
        <ele>135</ele>
        <time>2024-03-21T17:43:26Z</time>
      </trkpt>
      <trkpt lat="43.66271" lon="1.3896">
        <ele>135</ele>
        <time>2024-03-21T17:43:27Z</time>
      </trkpt>
      <trkpt lat="43.6627" lon="1.38963">
        <ele>135</ele>
        <time>2024-03-21T17:43:28Z</time>
      </trkpt>
      <trkpt lat="43.66269" lon="1.38965">
        <ele>135</ele>
        <time>2024-03-21T17:43:29Z</time>
      </trkpt>
      <trkpt lat="43.66267" lon="1.38969">
        <ele>135</ele>
        <time>2024-03-21T17:43:30Z</time>
      </trkpt>
      <trkpt lat="43.66266" lon="1.38971">
        <ele>134</ele>
        <time>2024-03-21T17:43:31Z</time>
      </trkpt>
      <trkpt lat="43.66265" lon="1.38973">
        <ele>134</ele>
        <time>2024-03-21T17:43:32Z</time>
      </trkpt>
      <trkpt lat="43.66263" lon="1.38978">
        <ele>134</ele>
        <time>2024-03-21T17:43:33Z</time>
      </trkpt>
      <trkpt lat="43.66262" lon="1.38979">
        <ele>134</ele>
        <time>2024-03-21T17:43:34Z</time>
      </trkpt>
      <trkpt lat="43.6626" lon="1.38981">
        <ele>134</ele>
        <time>2024-03-21T17:43:35Z</time>
      </trkpt>
      <trkpt lat="43.66259" lon="1.38984">
        <ele>134</ele>
        <time>2024-03-21T17:43:36Z</time>
      </trkpt>
      <trkpt lat="43.66257" lon="1.38986">
        <ele>134</ele>
        <time>2024-03-21T17:43:37Z</time>
      </trkpt>
      <trkpt lat="43.66256" lon="1.38989">
        <ele>134</ele>
        <time>2024-03-21T17:43:38Z</time>
      </trkpt>
      <trkpt lat="43.66254" lon="1.38992">
        <ele>134</ele>
        <time>2024-03-21T17:43:39Z</time>
      </trkpt>
      <trkpt lat="43.66253" lon="1.38994">
        <ele>134</ele>
        <time>2024-03-21T17:43:40Z</time>
      </trkpt>
      <trkpt lat="43.66252" lon="1.38997">
        <ele>134</ele>
        <time>2024-03-21T17:43:41Z</time>
      </trkpt>
      <trkpt lat="43.6625" lon="1.39">
        <ele>134</ele>
        <time>2024-03-21T17:43:42Z</time>
      </trkpt>
      <trkpt lat="43.66249" lon="1.39002">
        <ele>134</ele>
        <time>2024-03-21T17:43:43Z</time>
      </trkpt>
      <trkpt lat="43.66248" lon="1.39005">
        <ele>134</ele>
        <time>2024-03-21T17:43:44Z</time>
      </trkpt>
      <trkpt lat="43.66247" lon="1.39008">
        <ele>134</ele>
        <time>2024-03-21T17:43:45Z</time>
      </trkpt>
      <trkpt lat="43.66246" lon="1.39011">
        <ele>134</ele>
        <time>2024-03-21T17:43:46Z</time>
      </trkpt>
      <trkpt lat="43.66244" lon="1.39014">
        <ele>134</ele>
        <time>2024-03-21T17:43:47Z</time>
      </trkpt>
      <trkpt lat="43.66243" lon="1.39017">
        <ele>134</ele>
        <time>2024-03-21T17:43:48Z</time>
      </trkpt>
      <trkpt lat="43.66242" lon="1.39019">
        <ele>134</ele>
        <time>2024-03-21T17:43:49Z</time>
      </trkpt>
      <trkpt lat="43.66242" lon="1.39022">
        <ele>134</ele>
        <time>2024-03-21T17:43:50Z</time>
      </trkpt>
      <trkpt lat="43.66241" lon="1.39025">
        <ele>134</ele>
        <time>2024-03-21T17:43:51Z</time>
      </trkpt>
      <trkpt lat="43.6624" lon="1.39028">
        <ele>134</ele>
        <time>2024-03-21T17:43:52Z</time>
      </trkpt>
      <trkpt lat="43.66239" lon="1.39031">
        <ele>133</ele>
        <time>2024-03-21T17:43:53Z</time>
      </trkpt>
      <trkpt lat="43.66239" lon="1.39033">
        <ele>133</ele>
        <time>2024-03-21T17:43:54Z</time>
      </trkpt>
      <trkpt lat="43.66239" lon="1.39036">
        <ele>132</ele>
        <time>2024-03-21T17:43:55Z</time>
      </trkpt>
      <trkpt lat="43.66238" lon="1.39038">
        <ele>132</ele>
        <time>2024-03-21T17:43:56Z</time>
      </trkpt>
      <trkpt lat="43.66238" lon="1.39041">
        <ele>132</ele>
        <time>2024-03-21T17:43:57Z</time>
      </trkpt>
      <trkpt lat="43.66237" lon="1.39044">
        <ele>132</ele>
        <time>2024-03-21T17:43:58Z</time>
      </trkpt>
      <trkpt lat="43.66237" lon="1.39047">
        <ele>132</ele>
        <time>2024-03-21T17:43:59Z</time>
      </trkpt>
      <trkpt lat="43.66236" lon="1.3905">
        <ele>132</ele>
        <time>2024-03-21T17:44:00Z</time>
      </trkpt>
      <trkpt lat="43.66235" lon="1.39053">
        <ele>131</ele>
        <time>2024-03-21T17:44:01Z</time>
      </trkpt>
      <trkpt lat="43.66234" lon="1.39056">
        <ele>130</ele>
        <time>2024-03-21T17:44:02Z</time>
      </trkpt>
      <trkpt lat="43.66233" lon="1.39059">
        <ele>130</ele>
        <time>2024-03-21T17:44:03Z</time>
      </trkpt>
      <trkpt lat="43.66232" lon="1.39061">
        <ele>130</ele>
        <time>2024-03-21T17:44:04Z</time>
      </trkpt>
      <trkpt lat="43.66232" lon="1.39064">
        <ele>130</ele>
        <time>2024-03-21T17:44:05Z</time>
      </trkpt>
      <trkpt lat="43.6623" lon="1.39067">
        <ele>130</ele>
        <time>2024-03-21T17:44:06Z</time>
      </trkpt>
      <trkpt lat="43.66229" lon="1.39069">
        <ele>130</ele>
        <time>2024-03-21T17:44:07Z</time>
      </trkpt>
      <trkpt lat="43.66228" lon="1.39072">
        <ele>130</ele>
        <time>2024-03-21T17:44:08Z</time>
      </trkpt>
      <trkpt lat="43.66227" lon="1.39075">
        <ele>130</ele>
        <time>2024-03-21T17:44:09Z</time>
      </trkpt>
      <trkpt lat="43.66226" lon="1.39077">
        <ele>129</ele>
        <time>2024-03-21T17:44:10Z</time>
      </trkpt>
      <trkpt lat="43.66225" lon="1.39081">
        <ele>129</ele>
        <time>2024-03-21T17:44:11Z</time>
      </trkpt>
      <trkpt lat="43.66224" lon="1.39082">
        <ele>129</ele>
        <time>2024-03-21T17:44:12Z</time>
      </trkpt>
      <trkpt lat="43.66223" lon="1.39085">
        <ele>129</ele>
        <time>2024-03-21T17:44:13Z</time>
      </trkpt>
      <trkpt lat="43.66221" lon="1.39089">
        <ele>129</ele>
        <time>2024-03-21T17:44:14Z</time>
      </trkpt>
      <trkpt lat="43.66221" lon="1.3909">
        <ele>128</ele>
        <time>2024-03-21T17:44:15Z</time>
      </trkpt>
      <trkpt lat="43.6622" lon="1.39093">
        <ele>128</ele>
        <time>2024-03-21T17:44:16Z</time>
      </trkpt>
      <trkpt lat="43.6622" lon="1.39095">
        <ele>128</ele>
        <time>2024-03-21T17:44:17Z</time>
      </trkpt>
      <trkpt lat="43.66219" lon="1.39098">
        <ele>128</ele>
        <time>2024-03-21T17:44:18Z</time>
      </trkpt>
      <trkpt lat="43.66218" lon="1.39101">
        <ele>128</ele>
        <time>2024-03-21T17:44:19Z</time>
      </trkpt>
      <trkpt lat="43.66218" lon="1.39104">
        <ele>128</ele>
        <time>2024-03-21T17:44:20Z</time>
      </trkpt>
      <trkpt lat="43.66218" lon="1.39107">
        <ele>127</ele>
        <time>2024-03-21T17:44:21Z</time>
      </trkpt>
      <trkpt lat="43.66218" lon="1.3911">
        <ele>127</ele>
        <time>2024-03-21T17:44:22Z</time>
      </trkpt>
      <trkpt lat="43.66218" lon="1.39113">
        <ele>127</ele>
        <time>2024-03-21T17:44:23Z</time>
      </trkpt>
      <trkpt lat="43.66218" lon="1.39116">
        <ele>127</ele>
        <time>2024-03-21T17:44:24Z</time>
      </trkpt>
      <trkpt lat="43.66219" lon="1.39119">
        <ele>126</ele>
        <time>2024-03-21T17:44:25Z</time>
      </trkpt>
      <trkpt lat="43.66219" lon="1.39121">
        <ele>126</ele>
        <time>2024-03-21T17:44:26Z</time>
      </trkpt>
      <trkpt lat="43.66221" lon="1.39124">
        <ele>126</ele>
        <time>2024-03-21T17:44:27Z</time>
      </trkpt>
      <trkpt lat="43.66222" lon="1.39127">
        <ele>126</ele>
        <time>2024-03-21T17:44:28Z</time>
      </trkpt>
      <trkpt lat="43.66223" lon="1.3913">
        <ele>126</ele>
        <time>2024-03-21T17:44:29Z</time>
      </trkpt>
      <trkpt lat="43.66225" lon="1.39134">
        <ele>126</ele>
        <time>2024-03-21T17:44:30Z</time>
      </trkpt>
      <trkpt lat="43.66226" lon="1.39135">
        <ele>125</ele>
        <time>2024-03-21T17:44:31Z</time>
      </trkpt>
      <trkpt lat="43.66227" lon="1.39138">
        <ele>125</ele>
        <time>2024-03-21T17:44:32Z</time>
      </trkpt>
      <trkpt lat="43.66228" lon="1.39141">
        <ele>125</ele>
        <time>2024-03-21T17:44:33Z</time>
      </trkpt>
      <trkpt lat="43.66229" lon="1.39143">
        <ele>125</ele>
        <time>2024-03-21T17:44:34Z</time>
      </trkpt>
      <trkpt lat="43.6623" lon="1.39146">
        <ele>125</ele>
        <time>2024-03-21T17:44:35Z</time>
      </trkpt>
      <trkpt lat="43.66231" lon="1.39148">
        <ele>126</ele>
        <time>2024-03-21T17:44:36Z</time>
      </trkpt>
      <trkpt lat="43.66231" lon="1.39148">
        <ele>126</ele>
        <time>2024-03-21T17:44:37Z</time>
      </trkpt>
      <trkpt lat="43.66231" lon="1.39151">
        <ele>126</ele>
        <time>2024-03-21T17:44:38Z</time>
      </trkpt>
      <trkpt lat="43.66231" lon="1.39151">
        <ele>126</ele>
        <time>2024-03-21T17:44:39Z</time>
      </trkpt>
      <trkpt lat="43.66233" lon="1.39152">
        <ele>126</ele>
        <time>2024-03-21T17:44:40Z</time>
      </trkpt>
      <trkpt lat="43.66235" lon="1.39152">
        <ele>125</ele>
        <time>2024-03-21T17:44:41Z</time>
      </trkpt>
      <trkpt lat="43.66237" lon="1.39153">
        <ele>125</ele>
        <time>2024-03-21T17:44:42Z</time>
      </trkpt>
      <trkpt lat="43.66239" lon="1.39155">
        <ele>125</ele>
        <time>2024-03-21T17:44:43Z</time>
      </trkpt>
      <trkpt lat="43.66239" lon="1.39155">
        <ele>125</ele>
        <time>2024-03-21T17:44:44Z</time>
      </trkpt>
      <trkpt lat="43.66242" lon="1.39158">
        <ele>125</ele>
        <time>2024-03-21T17:44:45Z</time>
      </trkpt>
      <trkpt lat="43.66244" lon="1.3916">
        <ele>126</ele>
        <time>2024-03-21T17:44:46Z</time>
      </trkpt>
      <trkpt lat="43.66246" lon="1.39161">
        <ele>126</ele>
        <time>2024-03-21T17:44:47Z</time>
      </trkpt>
      <trkpt lat="43.66246" lon="1.39161">
        <ele>125</ele>
        <time>2024-03-21T17:44:48Z</time>
      </trkpt>
      <trkpt lat="43.66248" lon="1.39164">
        <ele>125</ele>
        <time>2024-03-21T17:44:49Z</time>
      </trkpt>
      <trkpt lat="43.66248" lon="1.39164">
        <ele>125</ele>
        <time>2024-03-21T17:44:50Z</time>
      </trkpt>
      <trkpt lat="43.6625" lon="1.39166">
        <ele>125</ele>
        <time>2024-03-21T17:44:51Z</time>
      </trkpt>
      <trkpt lat="43.6625" lon="1.39166">
        <ele>125</ele>
        <time>2024-03-21T17:44:52Z</time>
      </trkpt>
      <trkpt lat="43.6625" lon="1.39166">
        <ele>125</ele>
        <time>2024-03-21T17:44:53Z</time>
      </trkpt>
      <trkpt lat="43.66252" lon="1.39168">
        <ele>125</ele>
        <time>2024-03-21T17:44:54Z</time>
      </trkpt>
      <trkpt lat="43.66252" lon="1.39168">
        <ele>125</ele>
        <time>2024-03-21T17:44:55Z</time>
      </trkpt>
      <trkpt lat="43.66252" lon="1.39168">
        <ele>126</ele>
        <time>2024-03-21T17:44:56Z</time>
      </trkpt>
      <trkpt lat="43.66252" lon="1.39168">
        <ele>126</ele>
        <time>2024-03-21T17:44:57Z</time>
      </trkpt>
      <trkpt lat="43.66252" lon="1.39168">
        <ele>126</ele>
        <time>2024-03-21T17:44:58Z</time>
      </trkpt>
      <trkpt lat="43.66252" lon="1.39168">
        <ele>126</ele>
        <time>2024-03-21T17:44:59Z</time>
      </trkpt>
      <trkpt lat="43.66251" lon="1.39171">
        <ele>126</ele>
        <time>2024-03-21T17:45:00Z</time>
      </trkpt>
      <trkpt lat="43.66251" lon="1.39171">
        <ele>126</ele>
        <time>2024-03-21T17:45:01Z</time>
      </trkpt>
      <trkpt lat="43.66251" lon="1.39171">
        <ele>126</ele>
        <time>2024-03-21T17:45:02Z</time>
      </trkpt>
      <trkpt lat="43.66251" lon="1.39171">
        <ele>126</ele>
        <time>2024-03-21T17:45:03Z</time>
      </trkpt>
      <trkpt lat="43.66251" lon="1.39171">
        <ele>126</ele>
        <time>2024-03-21T17:45:04Z</time>
      </trkpt>
      <trkpt lat="43.66251" lon="1.39171">
        <ele>126</ele>
        <time>2024-03-21T17:45:05Z</time>
      </trkpt>
      <trkpt lat="43.66251" lon="1.39171">
        <ele>126</ele>
        <time>2024-03-21T17:45:06Z</time>
      </trkpt>
      <trkpt lat="43.66251" lon="1.39171">
        <ele>126</ele>
        <time>2024-03-21T17:45:07Z</time>
      </trkpt>
      <trkpt lat="43.66251" lon="1.39171">
        <ele>126</ele>
        <time>2024-03-21T17:45:09Z</time>
      </trkpt>
      <trkpt lat="43.66251" lon="1.39171">
        <ele>126</ele>
        <time>2024-03-21T17:45:10Z</time>
      </trkpt>
      <trkpt lat="43.66251" lon="1.39171">
        <ele>126</ele>
        <time>2024-03-21T17:45:11Z</time>
      </trkpt>
      <trkpt lat="43.66251" lon="1.39171">
        <ele>126</ele>
        <time>2024-03-21T17:45:12Z</time>
      </trkpt>
      <trkpt lat="43.66251" lon="1.39171">
        <ele>126</ele>
        <time>2024-03-21T17:45:13Z</time>
      </trkpt>
      <trkpt lat="43.66251" lon="1.39171">
        <ele>126</ele>
        <time>2024-03-21T17:45:14Z</time>
      </trkpt>
      <trkpt lat="43.66251" lon="1.39171">
        <ele>126</ele>
        <time>2024-03-21T17:45:15Z</time>
      </trkpt>
      <trkpt lat="43.66251" lon="1.39171">
        <ele>126</ele>
        <time>2024-03-21T17:45:16Z</time>
      </trkpt>
      <trkpt lat="43.66251" lon="1.39171">
        <ele>126</ele>
        <time>2024-03-21T17:45:17Z</time>
      </trkpt>
      <trkpt lat="43.66254" lon="1.39171">
        <ele>126</ele>
        <time>2024-03-21T17:45:18Z</time>
      </trkpt>
      <trkpt lat="43.66254" lon="1.39171">
        <ele>126</ele>
        <time>2024-03-21T17:45:19Z</time>
      </trkpt>
      <trkpt lat="43.66257" lon="1.39167">
        <ele>126</ele>
        <time>2024-03-21T17:45:20Z</time>
      </trkpt>
      <trkpt lat="43.66258" lon="1.39166">
        <ele>125</ele>
        <time>2024-03-21T17:45:21Z</time>
      </trkpt>
      <trkpt lat="43.6626" lon="1.39165">
        <ele>125</ele>
        <time>2024-03-21T17:45:22Z</time>
      </trkpt>
      <trkpt lat="43.66262" lon="1.39163">
        <ele>125</ele>
        <time>2024-03-21T17:45:23Z</time>
      </trkpt>
      <trkpt lat="43.66262" lon="1.39163">
        <ele>125</ele>
        <time>2024-03-21T17:45:24Z</time>
      </trkpt>
      <trkpt lat="43.66266" lon="1.39164">
        <ele>125</ele>
        <time>2024-03-21T17:45:25Z</time>
      </trkpt>
      <trkpt lat="43.66267" lon="1.39165">
        <ele>125</ele>
        <time>2024-03-21T17:45:26Z</time>
      </trkpt>
      <trkpt lat="43.66269" lon="1.39165">
        <ele>125</ele>
        <time>2024-03-21T17:45:27Z</time>
      </trkpt>
      <trkpt lat="43.66271" lon="1.39166">
        <ele>125</ele>
        <time>2024-03-21T17:45:28Z</time>
      </trkpt>
      <trkpt lat="43.66274" lon="1.39169">
        <ele>125</ele>
        <time>2024-03-21T17:45:29Z</time>
      </trkpt>
      <trkpt lat="43.66275" lon="1.3917">
        <ele>125</ele>
        <time>2024-03-21T17:45:30Z</time>
      </trkpt>
      <trkpt lat="43.66276" lon="1.39172">
        <ele>125</ele>
        <time>2024-03-21T17:45:31Z</time>
      </trkpt>
      <trkpt lat="43.66276" lon="1.39172">
        <ele>125</ele>
        <time>2024-03-21T17:45:32Z</time>
      </trkpt>
      <trkpt lat="43.66278" lon="1.39177">
        <ele>125</ele>
        <time>2024-03-21T17:45:33Z</time>
      </trkpt>
      <trkpt lat="43.66279" lon="1.3918">
        <ele>125</ele>
        <time>2024-03-21T17:45:34Z</time>
      </trkpt>
      <trkpt lat="43.6628" lon="1.39183">
        <ele>125</ele>
        <time>2024-03-21T17:45:35Z</time>
      </trkpt>
      <trkpt lat="43.66281" lon="1.39186">
        <ele>125</ele>
        <time>2024-03-21T17:45:36Z</time>
      </trkpt>
      <trkpt lat="43.66281" lon="1.39189">
        <ele>125</ele>
        <time>2024-03-21T17:45:37Z</time>
      </trkpt>
      <trkpt lat="43.66281" lon="1.39192">
        <ele>125</ele>
        <time>2024-03-21T17:45:38Z</time>
      </trkpt>
      <trkpt lat="43.66282" lon="1.39195">
        <ele>125</ele>
        <time>2024-03-21T17:45:39Z</time>
      </trkpt>
      <trkpt lat="43.66283" lon="1.39198">
        <ele>125</ele>
        <time>2024-03-21T17:45:40Z</time>
      </trkpt>
      <trkpt lat="43.66284" lon="1.392">
        <ele>125</ele>
        <time>2024-03-21T17:45:41Z</time>
      </trkpt>
      <trkpt lat="43.66285" lon="1.39203">
        <ele>125</ele>
        <time>2024-03-21T17:45:42Z</time>
      </trkpt>
      <trkpt lat="43.66285" lon="1.39206">
        <ele>125</ele>
        <time>2024-03-21T17:45:43Z</time>
      </trkpt>
      <trkpt lat="43.66286" lon="1.39209">
        <ele>125</ele>
        <time>2024-03-21T17:45:44Z</time>
      </trkpt>
      <trkpt lat="43.66287" lon="1.39212">
        <ele>125</ele>
        <time>2024-03-21T17:45:45Z</time>
      </trkpt>
      <trkpt lat="43.66288" lon="1.39216">
        <ele>125</ele>
        <time>2024-03-21T17:45:46Z</time>
      </trkpt>
      <trkpt lat="43.66288" lon="1.39218">
        <ele>125</ele>
        <time>2024-03-21T17:45:47Z</time>
      </trkpt>
      <trkpt lat="43.66289" lon="1.39221">
        <ele>125</ele>
        <time>2024-03-21T17:45:48Z</time>
      </trkpt>
      <trkpt lat="43.66289" lon="1.39224">
        <ele>125</ele>
        <time>2024-03-21T17:45:49Z</time>
      </trkpt>
      <trkpt lat="43.66289" lon="1.39224">
        <ele>125</ele>
        <time>2024-03-21T17:45:50Z</time>
      </trkpt>
      <trkpt lat="43.66289" lon="1.39229">
        <ele>125</ele>
        <time>2024-03-21T17:45:51Z</time>
      </trkpt>
      <trkpt lat="43.6629" lon="1.39235">
        <ele>125</ele>
        <time>2024-03-21T17:45:52Z</time>
      </trkpt>
      <trkpt lat="43.66291" lon="1.39236">
        <ele>125</ele>
        <time>2024-03-21T17:45:53Z</time>
      </trkpt>
      <trkpt lat="43.66293" lon="1.3924">
        <ele>125</ele>
        <time>2024-03-21T17:45:54Z</time>
      </trkpt>
      <trkpt lat="43.66294" lon="1.39243">
        <ele>125</ele>
        <time>2024-03-21T17:45:55Z</time>
      </trkpt>
      <trkpt lat="43.66296" lon="1.39247">
        <ele>125</ele>
        <time>2024-03-21T17:45:56Z</time>
      </trkpt>
      <trkpt lat="43.66298" lon="1.39249">
        <ele>125</ele>
        <time>2024-03-21T17:45:57Z</time>
      </trkpt>
      <trkpt lat="43.66299" lon="1.39252">
        <ele>125</ele>
        <time>2024-03-21T17:45:58Z</time>
      </trkpt>
      <trkpt lat="43.663" lon="1.39256">
        <ele>125</ele>
        <time>2024-03-21T17:45:59Z</time>
      </trkpt>
      <trkpt lat="43.66302" lon="1.39259">
        <ele>125</ele>
        <time>2024-03-21T17:46:00Z</time>
      </trkpt>
      <trkpt lat="43.66304" lon="1.39261">
        <ele>125</ele>
        <time>2024-03-21T17:46:01Z</time>
      </trkpt>
      <trkpt lat="43.66306" lon="1.39264">
        <ele>126</ele>
        <time>2024-03-21T17:46:02Z</time>
      </trkpt>
      <trkpt lat="43.66308" lon="1.39266">
        <ele>126</ele>
        <time>2024-03-21T17:46:03Z</time>
      </trkpt>
      <trkpt lat="43.6631" lon="1.39269">
        <ele>126</ele>
        <time>2024-03-21T17:46:04Z</time>
      </trkpt>
      <trkpt lat="43.66312" lon="1.39272">
        <ele>126</ele>
        <time>2024-03-21T17:46:05Z</time>
      </trkpt>
      <trkpt lat="43.66312" lon="1.39273">
        <ele>126</ele>
        <time>2024-03-21T17:46:06Z</time>
      </trkpt>
      <trkpt lat="43.66314" lon="1.39275">
        <ele>126</ele>
        <time>2024-03-21T17:46:07Z</time>
      </trkpt>
      <trkpt lat="43.66316" lon="1.39277">
        <ele>126</ele>
        <time>2024-03-21T17:46:08Z</time>
      </trkpt>
      <trkpt lat="43.66318" lon="1.39279">
        <ele>126</ele>
        <time>2024-03-21T17:46:09Z</time>
      </trkpt>
      <trkpt lat="43.6632" lon="1.3928">
        <ele>126</ele>
        <time>2024-03-21T17:46:10Z</time>
      </trkpt>
      <trkpt lat="43.66322" lon="1.3928">
        <ele>126</ele>
        <time>2024-03-21T17:46:11Z</time>
      </trkpt>
      <trkpt lat="43.66325" lon="1.39281">
        <ele>126</ele>
        <time>2024-03-21T17:46:12Z</time>
      </trkpt>
      <trkpt lat="43.66326" lon="1.39282">
        <ele>126</ele>
        <time>2024-03-21T17:46:13Z</time>
      </trkpt>
      <trkpt lat="43.66328" lon="1.39283">
        <ele>126</ele>
        <time>2024-03-21T17:46:14Z</time>
      </trkpt>
      <trkpt lat="43.66331" lon="1.39285">
        <ele>125</ele>
        <time>2024-03-21T17:46:15Z</time>
      </trkpt>
      <trkpt lat="43.66331" lon="1.39285">
        <ele>125</ele>
        <time>2024-03-21T17:46:16Z</time>
      </trkpt>
      <trkpt lat="43.66334" lon="1.39284">
        <ele>125</ele>
        <time>2024-03-21T17:46:17Z</time>
      </trkpt>
      <trkpt lat="43.66334" lon="1.39284">
        <ele>125</ele>
        <time>2024-03-21T17:46:18Z</time>
      </trkpt>
      <trkpt lat="43.66337" lon="1.39282">
        <ele>125</ele>
        <time>2024-03-21T17:46:19Z</time>
      </trkpt>
      <trkpt lat="43.66337" lon="1.39282">
        <ele>125</ele>
        <time>2024-03-21T17:46:20Z</time>
      </trkpt>
      <trkpt lat="43.6634" lon="1.39281">
        <ele>125</ele>
        <time>2024-03-21T17:46:21Z</time>
      </trkpt>
      <trkpt lat="43.6634" lon="1.39281">
        <ele>125</ele>
        <time>2024-03-21T17:46:22Z</time>
      </trkpt>
      <trkpt lat="43.66342" lon="1.39279">
        <ele>126</ele>
        <time>2024-03-21T17:46:23Z</time>
      </trkpt>
      <trkpt lat="43.66344" lon="1.39277">
        <ele>126</ele>
        <time>2024-03-21T17:46:24Z</time>
      </trkpt>
      <trkpt lat="43.66345" lon="1.39276">
        <ele>126</ele>
        <time>2024-03-21T17:46:25Z</time>
      </trkpt>
      <trkpt lat="43.66347" lon="1.39274">
        <ele>126</ele>
        <time>2024-03-21T17:46:26Z</time>
      </trkpt>
      <trkpt lat="43.66349" lon="1.39273">
        <ele>126</ele>
        <time>2024-03-21T17:46:27Z</time>
      </trkpt>
      <trkpt lat="43.66352" lon="1.39273">
        <ele>126</ele>
        <time>2024-03-21T17:46:28Z</time>
      </trkpt>
      <trkpt lat="43.66355" lon="1.39272">
        <ele>126</ele>
        <time>2024-03-21T17:46:29Z</time>
      </trkpt>
      <trkpt lat="43.66357" lon="1.39272">
        <ele>126</ele>
        <time>2024-03-21T17:46:30Z</time>
      </trkpt>
      <trkpt lat="43.6636" lon="1.39273">
        <ele>126</ele>
        <time>2024-03-21T17:46:31Z</time>
      </trkpt>
      <trkpt lat="43.66363" lon="1.39274">
        <ele>126</ele>
        <time>2024-03-21T17:46:32Z</time>
      </trkpt>
      <trkpt lat="43.66365" lon="1.39275">
        <ele>126</ele>
        <time>2024-03-21T17:46:33Z</time>
      </trkpt>
      <trkpt lat="43.66368" lon="1.39276">
        <ele>126</ele>
        <time>2024-03-21T17:46:34Z</time>
      </trkpt>
      <trkpt lat="43.66371" lon="1.39279">
        <ele>126</ele>
        <time>2024-03-21T17:46:35Z</time>
      </trkpt>
      <trkpt lat="43.66372" lon="1.3928">
        <ele>126</ele>
        <time>2024-03-21T17:46:36Z</time>
      </trkpt>
      <trkpt lat="43.66374" lon="1.39282">
        <ele>126</ele>
        <time>2024-03-21T17:46:37Z</time>
      </trkpt>
      <trkpt lat="43.66376" lon="1.39284">
        <ele>126</ele>
        <time>2024-03-21T17:46:38Z</time>
      </trkpt>
      <trkpt lat="43.66378" lon="1.39286">
        <ele>126</ele>
        <time>2024-03-21T17:46:39Z</time>
      </trkpt>
      <trkpt lat="43.6638" lon="1.39288">
        <ele>126</ele>
        <time>2024-03-21T17:46:40Z</time>
      </trkpt>
      <trkpt lat="43.66382" lon="1.3929">
        <ele>126</ele>
        <time>2024-03-21T17:46:41Z</time>
      </trkpt>
      <trkpt lat="43.66384" lon="1.39291">
        <ele>126</ele>
        <time>2024-03-21T17:46:42Z</time>
      </trkpt>
      <trkpt lat="43.66387" lon="1.39293">
        <ele>126</ele>
        <time>2024-03-21T17:46:43Z</time>
      </trkpt>
      <trkpt lat="43.66388" lon="1.39294">
        <ele>126</ele>
        <time>2024-03-21T17:46:44Z</time>
      </trkpt>
      <trkpt lat="43.6639" lon="1.39296">
        <ele>126</ele>
        <time>2024-03-21T17:46:45Z</time>
      </trkpt>
      <trkpt lat="43.66392" lon="1.39297">
        <ele>126</ele>
        <time>2024-03-21T17:46:46Z</time>
      </trkpt>
      <trkpt lat="43.66394" lon="1.39299">
        <ele>126</ele>
        <time>2024-03-21T17:46:47Z</time>
      </trkpt>
      <trkpt lat="43.66396" lon="1.39301">
        <ele>126</ele>
        <time>2024-03-21T17:46:48Z</time>
      </trkpt>
      <trkpt lat="43.66397" lon="1.39302">
        <ele>126</ele>
        <time>2024-03-21T17:46:49Z</time>
      </trkpt>
      <trkpt lat="43.66397" lon="1.39302">
        <ele>126</ele>
        <time>2024-03-21T17:46:50Z</time>
      </trkpt>
      <trkpt lat="43.664" lon="1.39304">
        <ele>126</ele>
        <time>2024-03-21T17:46:51Z</time>
      </trkpt>
      <trkpt lat="43.66402" lon="1.39306">
        <ele>126</ele>
        <time>2024-03-21T17:46:52Z</time>
      </trkpt>
      <trkpt lat="43.66404" lon="1.39308">
        <ele>126</ele>
        <time>2024-03-21T17:46:53Z</time>
      </trkpt>
      <trkpt lat="43.66406" lon="1.3931">
        <ele>126</ele>
        <time>2024-03-21T17:46:54Z</time>
      </trkpt>
      <trkpt lat="43.66408" lon="1.39311">
        <ele>126</ele>
        <time>2024-03-21T17:46:55Z</time>
      </trkpt>
      <trkpt lat="43.6641" lon="1.39312">
        <ele>126</ele>
        <time>2024-03-21T17:46:56Z</time>
      </trkpt>
      <trkpt lat="43.66413" lon="1.39313">
        <ele>126</ele>
        <time>2024-03-21T17:46:57Z</time>
      </trkpt>
      <trkpt lat="43.66414" lon="1.39314">
        <ele>126</ele>
        <time>2024-03-21T17:46:58Z</time>
      </trkpt>
      <trkpt lat="43.66416" lon="1.39315">
        <ele>126</ele>
        <time>2024-03-21T17:46:59Z</time>
      </trkpt>
      <trkpt lat="43.66418" lon="1.39316">
        <ele>126</ele>
        <time>2024-03-21T17:47:00Z</time>
      </trkpt>
      <trkpt lat="43.6642" lon="1.39317">
        <ele>125</ele>
        <time>2024-03-21T17:47:01Z</time>
      </trkpt>
      <trkpt lat="43.66424" lon="1.39318">
        <ele>125</ele>
        <time>2024-03-21T17:47:02Z</time>
      </trkpt>
      <trkpt lat="43.66426" lon="1.39319">
        <ele>126</ele>
        <time>2024-03-21T17:47:03Z</time>
      </trkpt>
      <trkpt lat="43.66428" lon="1.39319">
        <ele>126</ele>
        <time>2024-03-21T17:47:04Z</time>
      </trkpt>
      <trkpt lat="43.6643" lon="1.3932">
        <ele>126</ele>
        <time>2024-03-21T17:47:05Z</time>
      </trkpt>
      <trkpt lat="43.66433" lon="1.3932">
        <ele>126</ele>
        <time>2024-03-21T17:47:06Z</time>
      </trkpt>
      <trkpt lat="43.66435" lon="1.3932">
        <ele>126</ele>
        <time>2024-03-21T17:47:07Z</time>
      </trkpt>
      <trkpt lat="43.66438" lon="1.3932">
        <ele>126</ele>
        <time>2024-03-21T17:47:08Z</time>
      </trkpt>
      <trkpt lat="43.6644" lon="1.3932">
        <ele>126</ele>
        <time>2024-03-21T17:47:09Z</time>
      </trkpt>
      <trkpt lat="43.66442" lon="1.3932">
        <ele>126</ele>
        <time>2024-03-21T17:47:10Z</time>
      </trkpt>
      <trkpt lat="43.66444" lon="1.3932">
        <ele>126</ele>
        <time>2024-03-21T17:47:11Z</time>
      </trkpt>
      <trkpt lat="43.66446" lon="1.3932">
        <ele>126</ele>
        <time>2024-03-21T17:47:12Z</time>
      </trkpt>
      <trkpt lat="43.66448" lon="1.3932">
        <ele>126</ele>
        <time>2024-03-21T17:47:13Z</time>
      </trkpt>
      <trkpt lat="43.6645" lon="1.3932">
        <ele>126</ele>
        <time>2024-03-21T17:47:14Z</time>
      </trkpt>
      <trkpt lat="43.66452" lon="1.3932">
        <ele>126</ele>
        <time>2024-03-21T17:47:15Z</time>
      </trkpt>
      <trkpt lat="43.66454" lon="1.3932">
        <ele>126</ele>
        <time>2024-03-21T17:47:16Z</time>
      </trkpt>
      <trkpt lat="43.66457" lon="1.3932">
        <ele>126</ele>
        <time>2024-03-21T17:47:17Z</time>
      </trkpt>
      <trkpt lat="43.66459" lon="1.39319">
        <ele>126</ele>
        <time>2024-03-21T17:47:18Z</time>
      </trkpt>
      <trkpt lat="43.66463" lon="1.39318">
        <ele>126</ele>
        <time>2024-03-21T17:47:19Z</time>
      </trkpt>
      <trkpt lat="43.66464" lon="1.39318">
        <ele>126</ele>
        <time>2024-03-21T17:47:20Z</time>
      </trkpt>
      <trkpt lat="43.66467" lon="1.39318">
        <ele>126</ele>
        <time>2024-03-21T17:47:21Z</time>
      </trkpt>
      <trkpt lat="43.66469" lon="1.39317">
        <ele>126</ele>
        <time>2024-03-21T17:47:22Z</time>
      </trkpt>
      <trkpt lat="43.66471" lon="1.39317">
        <ele>126</ele>
        <time>2024-03-21T17:47:23Z</time>
      </trkpt>
      <trkpt lat="43.66473" lon="1.39316">
        <ele>126</ele>
        <time>2024-03-21T17:47:24Z</time>
      </trkpt>
      <trkpt lat="43.66475" lon="1.39315">
        <ele>126</ele>
        <time>2024-03-21T17:47:25Z</time>
      </trkpt>
      <trkpt lat="43.66478" lon="1.39313">
        <ele>126</ele>
        <time>2024-03-21T17:47:26Z</time>
      </trkpt>
      <trkpt lat="43.6648" lon="1.39312">
        <ele>126</ele>
        <time>2024-03-21T17:47:27Z</time>
      </trkpt>
      <trkpt lat="43.66482" lon="1.39311">
        <ele>126</ele>
        <time>2024-03-21T17:47:28Z</time>
      </trkpt>
      <trkpt lat="43.66484" lon="1.39309">
        <ele>126</ele>
        <time>2024-03-21T17:47:29Z</time>
      </trkpt>
      <trkpt lat="43.66486" lon="1.39308">
        <ele>126</ele>
        <time>2024-03-21T17:47:30Z</time>
      </trkpt>
      <trkpt lat="43.66488" lon="1.39307">
        <ele>126</ele>
        <time>2024-03-21T17:47:31Z</time>
      </trkpt>
      <trkpt lat="43.6649" lon="1.39306">
        <ele>126</ele>
        <time>2024-03-21T17:47:32Z</time>
      </trkpt>
      <trkpt lat="43.66492" lon="1.39304">
        <ele>126</ele>
        <time>2024-03-21T17:47:33Z</time>
      </trkpt>
      <trkpt lat="43.66493" lon="1.39302">
        <ele>125</ele>
        <time>2024-03-21T17:47:34Z</time>
      </trkpt>
      <trkpt lat="43.66494" lon="1.39299">
        <ele>125</ele>
        <time>2024-03-21T17:47:35Z</time>
      </trkpt>
      <trkpt lat="43.66496" lon="1.39297">
        <ele>125</ele>
        <time>2024-03-21T17:47:36Z</time>
      </trkpt>
      <trkpt lat="43.66498" lon="1.39294">
        <ele>125</ele>
        <time>2024-03-21T17:47:37Z</time>
      </trkpt>
      <trkpt lat="43.66499" lon="1.39292">
        <ele>125</ele>
        <time>2024-03-21T17:47:38Z</time>
      </trkpt>
      <trkpt lat="43.665" lon="1.39289">
        <ele>125</ele>
        <time>2024-03-21T17:47:39Z</time>
      </trkpt>
      <trkpt lat="43.66501" lon="1.39286">
        <ele>125</ele>
        <time>2024-03-21T17:47:40Z</time>
      </trkpt>
      <trkpt lat="43.66502" lon="1.39283">
        <ele>125</ele>
        <time>2024-03-21T17:47:41Z</time>
      </trkpt>
      <trkpt lat="43.66503" lon="1.39281">
        <ele>125</ele>
        <time>2024-03-21T17:47:42Z</time>
      </trkpt>
      <trkpt lat="43.66504" lon="1.39278">
        <ele>125</ele>
        <time>2024-03-21T17:47:43Z</time>
      </trkpt>
      <trkpt lat="43.66505" lon="1.39276">
        <ele>125</ele>
        <time>2024-03-21T17:47:44Z</time>
      </trkpt>
      <trkpt lat="43.66506" lon="1.39273">
        <ele>125</ele>
        <time>2024-03-21T17:47:45Z</time>
      </trkpt>
      <trkpt lat="43.66507" lon="1.3927">
        <ele>125</ele>
        <time>2024-03-21T17:47:46Z</time>
      </trkpt>
      <trkpt lat="43.66509" lon="1.39267">
        <ele>125</ele>
        <time>2024-03-21T17:47:47Z</time>
      </trkpt>
      <trkpt lat="43.66511" lon="1.39265">
        <ele>125</ele>
        <time>2024-03-21T17:47:48Z</time>
      </trkpt>
      <trkpt lat="43.66514" lon="1.39264">
        <ele>125</ele>
        <time>2024-03-21T17:47:49Z</time>
      </trkpt>
      <trkpt lat="43.66517" lon="1.39262">
        <ele>125</ele>
        <time>2024-03-21T17:47:50Z</time>
      </trkpt>
      <trkpt lat="43.66519" lon="1.39262">
        <ele>125</ele>
        <time>2024-03-21T17:47:51Z</time>
      </trkpt>
      <trkpt lat="43.66522" lon="1.39263">
        <ele>125</ele>
        <time>2024-03-21T17:47:52Z</time>
      </trkpt>
      <trkpt lat="43.66524" lon="1.39263">
        <ele>125</ele>
        <time>2024-03-21T17:47:53Z</time>
      </trkpt>
      <trkpt lat="43.66527" lon="1.39265">
        <ele>124</ele>
        <time>2024-03-21T17:47:54Z</time>
      </trkpt>
      <trkpt lat="43.6653" lon="1.39266">
        <ele>125</ele>
        <time>2024-03-21T17:47:55Z</time>
      </trkpt>
      <trkpt lat="43.66532" lon="1.39267">
        <ele>125</ele>
        <time>2024-03-21T17:47:56Z</time>
      </trkpt>
      <trkpt lat="43.66535" lon="1.39268">
        <ele>125</ele>
        <time>2024-03-21T17:47:57Z</time>
      </trkpt>
      <trkpt lat="43.66537" lon="1.39268">
        <ele>125</ele>
        <time>2024-03-21T17:47:58Z</time>
      </trkpt>
      <trkpt lat="43.6654" lon="1.39269">
        <ele>125</ele>
        <time>2024-03-21T17:47:59Z</time>
      </trkpt>
      <trkpt lat="43.66541" lon="1.39269">
        <ele>125</ele>
        <time>2024-03-21T17:48:00Z</time>
      </trkpt>
      <trkpt lat="43.66544" lon="1.39268">
        <ele>125</ele>
        <time>2024-03-21T17:48:01Z</time>
      </trkpt>
      <trkpt lat="43.66545" lon="1.39268">
        <ele>125</ele>
        <time>2024-03-21T17:48:02Z</time>
      </trkpt>
      <trkpt lat="43.66545" lon="1.39268">
        <ele>125</ele>
        <time>2024-03-21T17:48:03Z</time>
      </trkpt>
      <trkpt lat="43.66548" lon="1.39266">
        <ele>125</ele>
        <time>2024-03-21T17:48:04Z</time>
      </trkpt>
      <trkpt lat="43.66548" lon="1.39266">
        <ele>125</ele>
        <time>2024-03-21T17:48:05Z</time>
      </trkpt>
      <trkpt lat="43.66551" lon="1.39265">
        <ele>125</ele>
        <time>2024-03-21T17:48:06Z</time>
      </trkpt>
      <trkpt lat="43.66551" lon="1.39265">
        <ele>125</ele>
        <time>2024-03-21T17:48:07Z</time>
      </trkpt>
      <trkpt lat="43.66554" lon="1.39264">
        <ele>125</ele>
        <time>2024-03-21T17:48:08Z</time>
      </trkpt>
      <trkpt lat="43.66554" lon="1.39264">
        <ele>125</ele>
        <time>2024-03-21T17:48:09Z</time>
      </trkpt>
      <trkpt lat="43.66558" lon="1.39264">
        <ele>125</ele>
        <time>2024-03-21T17:48:10Z</time>
      </trkpt>
      <trkpt lat="43.6656" lon="1.39265">
        <ele>125</ele>
        <time>2024-03-21T17:48:11Z</time>
      </trkpt>
      <trkpt lat="43.66562" lon="1.39266">
        <ele>125</ele>
        <time>2024-03-21T17:48:12Z</time>
      </trkpt>
      <trkpt lat="43.66564" lon="1.39268">
        <ele>125</ele>
        <time>2024-03-21T17:48:13Z</time>
      </trkpt>
      <trkpt lat="43.66567" lon="1.3927">
        <ele>125</ele>
        <time>2024-03-21T17:48:14Z</time>
      </trkpt>
      <trkpt lat="43.66568" lon="1.39273">
        <ele>125</ele>
        <time>2024-03-21T17:48:15Z</time>
      </trkpt>
      <trkpt lat="43.6657" lon="1.39276">
        <ele>125</ele>
        <time>2024-03-21T17:48:16Z</time>
      </trkpt>
      <trkpt lat="43.66571" lon="1.39279">
        <ele>125</ele>
        <time>2024-03-21T17:48:17Z</time>
      </trkpt>
      <trkpt lat="43.66573" lon="1.39284">
        <ele>125</ele>
        <time>2024-03-21T17:48:18Z</time>
      </trkpt>
      <trkpt lat="43.66573" lon="1.39285">
        <ele>125</ele>
        <time>2024-03-21T17:48:19Z</time>
      </trkpt>
      <trkpt lat="43.66573" lon="1.39289">
        <ele>125</ele>
        <time>2024-03-21T17:48:20Z</time>
      </trkpt>
      <trkpt lat="43.66573" lon="1.39292">
        <ele>125</ele>
        <time>2024-03-21T17:48:21Z</time>
      </trkpt>
      <trkpt lat="43.66574" lon="1.39295">
        <ele>125</ele>
        <time>2024-03-21T17:48:22Z</time>
      </trkpt>
      <trkpt lat="43.66573" lon="1.39297">
        <ele>125</ele>
        <time>2024-03-21T17:48:23Z</time>
      </trkpt>
      <trkpt lat="43.66573" lon="1.393">
        <ele>126</ele>
        <time>2024-03-21T17:48:24Z</time>
      </trkpt>
      <trkpt lat="43.66573" lon="1.39304">
        <ele>126</ele>
        <time>2024-03-21T17:48:25Z</time>
      </trkpt>
      <trkpt lat="43.66573" lon="1.39306">
        <ele>126</ele>
        <time>2024-03-21T17:48:26Z</time>
      </trkpt>
      <trkpt lat="43.66573" lon="1.39309">
        <ele>126</ele>
        <time>2024-03-21T17:48:27Z</time>
      </trkpt>
      <trkpt lat="43.66573" lon="1.39312">
        <ele>126</ele>
        <time>2024-03-21T17:48:28Z</time>
      </trkpt>
      <trkpt lat="43.66573" lon="1.39315">
        <ele>126</ele>
        <time>2024-03-21T17:48:29Z</time>
      </trkpt>
      <trkpt lat="43.66573" lon="1.39318">
        <ele>126</ele>
        <time>2024-03-21T17:48:30Z</time>
      </trkpt>
      <trkpt lat="43.66574" lon="1.39321">
        <ele>126</ele>
        <time>2024-03-21T17:48:31Z</time>
      </trkpt>
      <trkpt lat="43.66575" lon="1.39324">
        <ele>126</ele>
        <time>2024-03-21T17:48:32Z</time>
      </trkpt>
      <trkpt lat="43.66575" lon="1.39327">
        <ele>126</ele>
        <time>2024-03-21T17:48:33Z</time>
      </trkpt>
      <trkpt lat="43.66576" lon="1.3933">
        <ele>126</ele>
        <time>2024-03-21T17:48:34Z</time>
      </trkpt>
      <trkpt lat="43.66576" lon="1.39333">
        <ele>126</ele>
        <time>2024-03-21T17:48:35Z</time>
      </trkpt>
      <trkpt lat="43.66577" lon="1.39336">
        <ele>126</ele>
        <time>2024-03-21T17:48:36Z</time>
      </trkpt>
      <trkpt lat="43.66578" lon="1.39341">
        <ele>126</ele>
        <time>2024-03-21T17:48:37Z</time>
      </trkpt>
      <trkpt lat="43.66578" lon="1.39343">
        <ele>126</ele>
        <time>2024-03-21T17:48:38Z</time>
      </trkpt>
      <trkpt lat="43.66577" lon="1.39346">
        <ele>126</ele>
        <time>2024-03-21T17:48:39Z</time>
      </trkpt>
      <trkpt lat="43.66577" lon="1.39349">
        <ele>126</ele>
        <time>2024-03-21T17:48:40Z</time>
      </trkpt>
      <trkpt lat="43.66576" lon="1.39353">
        <ele>126</ele>
        <time>2024-03-21T17:48:41Z</time>
      </trkpt>
      <trkpt lat="43.66577" lon="1.39356">
        <ele>126</ele>
        <time>2024-03-21T17:48:42Z</time>
      </trkpt>
      <trkpt lat="43.66577" lon="1.39359">
        <ele>125</ele>
        <time>2024-03-21T17:48:43Z</time>
      </trkpt>
      <trkpt lat="43.66578" lon="1.39363">
        <ele>125</ele>
        <time>2024-03-21T17:48:44Z</time>
      </trkpt>
      <trkpt lat="43.66578" lon="1.39366">
        <ele>125</ele>
        <time>2024-03-21T17:48:45Z</time>
      </trkpt>
      <trkpt lat="43.6658" lon="1.39371">
        <ele>125</ele>
        <time>2024-03-21T17:48:46Z</time>
      </trkpt>
      <trkpt lat="43.6658" lon="1.39372">
        <ele>125</ele>
        <time>2024-03-21T17:48:47Z</time>
      </trkpt>
      <trkpt lat="43.66581" lon="1.39375">
        <ele>125</ele>
        <time>2024-03-21T17:48:48Z</time>
      </trkpt>
      <trkpt lat="43.66581" lon="1.39379">
        <ele>125</ele>
        <time>2024-03-21T17:48:49Z</time>
      </trkpt>
      <trkpt lat="43.66582" lon="1.39382">
        <ele>125</ele>
        <time>2024-03-21T17:48:50Z</time>
      </trkpt>
      <trkpt lat="43.66582" lon="1.39385">
        <ele>125</ele>
        <time>2024-03-21T17:48:51Z</time>
      </trkpt>
      <trkpt lat="43.66581" lon="1.39388">
        <ele>125</ele>
        <time>2024-03-21T17:48:52Z</time>
      </trkpt>
      <trkpt lat="43.66581" lon="1.39391">
        <ele>125</ele>
        <time>2024-03-21T17:48:53Z</time>
      </trkpt>
      <trkpt lat="43.66581" lon="1.39394">
        <ele>125</ele>
        <time>2024-03-21T17:48:54Z</time>
      </trkpt>
      <trkpt lat="43.66582" lon="1.39397">
        <ele>125</ele>
        <time>2024-03-21T17:48:55Z</time>
      </trkpt>
      <trkpt lat="43.66582" lon="1.39402">
        <ele>125</ele>
        <time>2024-03-21T17:48:56Z</time>
      </trkpt>
      <trkpt lat="43.66582" lon="1.39403">
        <ele>125</ele>
        <time>2024-03-21T17:48:57Z</time>
      </trkpt>
      <trkpt lat="43.66582" lon="1.39406">
        <ele>125</ele>
        <time>2024-03-21T17:48:58Z</time>
      </trkpt>
      <trkpt lat="43.66583" lon="1.39409">
        <ele>125</ele>
        <time>2024-03-21T17:48:59Z</time>
      </trkpt>
      <trkpt lat="43.66583" lon="1.39413">
        <ele>125</ele>
        <time>2024-03-21T17:49:00Z</time>
      </trkpt>
      <trkpt lat="43.66584" lon="1.39416">
        <ele>125</ele>
        <time>2024-03-21T17:49:01Z</time>
      </trkpt>
      <trkpt lat="43.66584" lon="1.39418">
        <ele>125</ele>
        <time>2024-03-21T17:49:02Z</time>
      </trkpt>
      <trkpt lat="43.66584" lon="1.39421">
        <ele>125</ele>
        <time>2024-03-21T17:49:03Z</time>
      </trkpt>
      <trkpt lat="43.66585" lon="1.39424">
        <ele>125</ele>
        <time>2024-03-21T17:49:04Z</time>
      </trkpt>
      <trkpt lat="43.66585" lon="1.39428">
        <ele>125</ele>
        <time>2024-03-21T17:49:05Z</time>
      </trkpt>
      <trkpt lat="43.66585" lon="1.39431">
        <ele>125</ele>
        <time>2024-03-21T17:49:06Z</time>
      </trkpt>
      <trkpt lat="43.66586" lon="1.39434">
        <ele>125</ele>
        <time>2024-03-21T17:49:07Z</time>
      </trkpt>
      <trkpt lat="43.66587" lon="1.39439">
        <ele>125</ele>
        <time>2024-03-21T17:49:08Z</time>
      </trkpt>
      <trkpt lat="43.66588" lon="1.39441">
        <ele>126</ele>
        <time>2024-03-21T17:49:09Z</time>
      </trkpt>
      <trkpt lat="43.66588" lon="1.39444">
        <ele>126</ele>
        <time>2024-03-21T17:49:10Z</time>
      </trkpt>
      <trkpt lat="43.6659" lon="1.39448">
        <ele>126</ele>
        <time>2024-03-21T17:49:11Z</time>
      </trkpt>
      <trkpt lat="43.66591" lon="1.39451">
        <ele>126</ele>
        <time>2024-03-21T17:49:12Z</time>
      </trkpt>
      <trkpt lat="43.66592" lon="1.39455">
        <ele>126</ele>
        <time>2024-03-21T17:49:13Z</time>
      </trkpt>
      <trkpt lat="43.66593" lon="1.39458">
        <ele>126</ele>
        <time>2024-03-21T17:49:14Z</time>
      </trkpt>
      <trkpt lat="43.66594" lon="1.39463">
        <ele>126</ele>
        <time>2024-03-21T17:49:15Z</time>
      </trkpt>
      <trkpt lat="43.66595" lon="1.39465">
        <ele>125</ele>
        <time>2024-03-21T17:49:16Z</time>
      </trkpt>
      <trkpt lat="43.66595" lon="1.39468">
        <ele>125</ele>
        <time>2024-03-21T17:49:17Z</time>
      </trkpt>
      <trkpt lat="43.66596" lon="1.39471">
        <ele>126</ele>
        <time>2024-03-21T17:49:18Z</time>
      </trkpt>
      <trkpt lat="43.66597" lon="1.39474">
        <ele>126</ele>
        <time>2024-03-21T17:49:19Z</time>
      </trkpt>
      <trkpt lat="43.66598" lon="1.39477">
        <ele>126</ele>
        <time>2024-03-21T17:49:20Z</time>
      </trkpt>
      <trkpt lat="43.66599" lon="1.39479">
        <ele>126</ele>
        <time>2024-03-21T17:49:21Z</time>
      </trkpt>
      <trkpt lat="43.666" lon="1.39482">
        <ele>126</ele>
        <time>2024-03-21T17:49:22Z</time>
      </trkpt>
      <trkpt lat="43.66601" lon="1.39486">
        <ele>125</ele>
        <time>2024-03-21T17:49:23Z</time>
      </trkpt>
      <trkpt lat="43.66601" lon="1.39489">
        <ele>125</ele>
        <time>2024-03-21T17:49:24Z</time>
      </trkpt>
      <trkpt lat="43.66601" lon="1.39493">
        <ele>125</ele>
        <time>2024-03-21T17:49:25Z</time>
      </trkpt>
      <trkpt lat="43.66602" lon="1.39496">
        <ele>126</ele>
        <time>2024-03-21T17:49:26Z</time>
      </trkpt>
      <trkpt lat="43.66602" lon="1.395">
        <ele>126</ele>
        <time>2024-03-21T17:49:27Z</time>
      </trkpt>
      <trkpt lat="43.66602" lon="1.39506">
        <ele>126</ele>
        <time>2024-03-21T17:49:28Z</time>
      </trkpt>
      <trkpt lat="43.66602" lon="1.39508">
        <ele>125</ele>
        <time>2024-03-21T17:49:29Z</time>
      </trkpt>
      <trkpt lat="43.66602" lon="1.39511">
        <ele>125</ele>
        <time>2024-03-21T17:49:30Z</time>
      </trkpt>
      <trkpt lat="43.66602" lon="1.39515">
        <ele>125</ele>
        <time>2024-03-21T17:49:31Z</time>
      </trkpt>
      <trkpt lat="43.66601" lon="1.39518">
        <ele>125</ele>
        <time>2024-03-21T17:49:32Z</time>
      </trkpt>
      <trkpt lat="43.66602" lon="1.39522">
        <ele>124</ele>
        <time>2024-03-21T17:49:33Z</time>
      </trkpt>
      <trkpt lat="43.66602" lon="1.39527">
        <ele>124</ele>
        <time>2024-03-21T17:49:34Z</time>
      </trkpt>
      <trkpt lat="43.66602" lon="1.39529">
        <ele>124</ele>
        <time>2024-03-21T17:49:35Z</time>
      </trkpt>
      <trkpt lat="43.66602" lon="1.39533">
        <ele>124</ele>
        <time>2024-03-21T17:49:36Z</time>
      </trkpt>
      <trkpt lat="43.66603" lon="1.39536">
        <ele>124</ele>
        <time>2024-03-21T17:49:37Z</time>
      </trkpt>
      <trkpt lat="43.66604" lon="1.39539">
        <ele>125</ele>
        <time>2024-03-21T17:49:38Z</time>
      </trkpt>
      <trkpt lat="43.66604" lon="1.39542">
        <ele>125</ele>
        <time>2024-03-21T17:49:39Z</time>
      </trkpt>
      <trkpt lat="43.66605" lon="1.39544">
        <ele>125</ele>
        <time>2024-03-21T17:49:40Z</time>
      </trkpt>
      <trkpt lat="43.66606" lon="1.39547">
        <ele>125</ele>
        <time>2024-03-21T17:49:41Z</time>
      </trkpt>
      <trkpt lat="43.66608" lon="1.39549">
        <ele>125</ele>
        <time>2024-03-21T17:49:42Z</time>
      </trkpt>
      <trkpt lat="43.66609" lon="1.39552">
        <ele>125</ele>
        <time>2024-03-21T17:49:43Z</time>
      </trkpt>
      <trkpt lat="43.6661" lon="1.39554">
        <ele>125</ele>
        <time>2024-03-21T17:49:44Z</time>
      </trkpt>
      <trkpt lat="43.66611" lon="1.39557">
        <ele>125</ele>
        <time>2024-03-21T17:49:45Z</time>
      </trkpt>
      <trkpt lat="43.66612" lon="1.3956">
        <ele>125</ele>
        <time>2024-03-21T17:49:46Z</time>
      </trkpt>
      <trkpt lat="43.66612" lon="1.3956">
        <ele>125</ele>
        <time>2024-03-21T17:49:47Z</time>
      </trkpt>
      <trkpt lat="43.66613" lon="1.39564">
        <ele>126</ele>
        <time>2024-03-21T17:49:48Z</time>
      </trkpt>
      <trkpt lat="43.66613" lon="1.39567">
        <ele>126</ele>
        <time>2024-03-21T17:49:49Z</time>
      </trkpt>
      <trkpt lat="43.66613" lon="1.39569">
        <ele>126</ele>
        <time>2024-03-21T17:49:50Z</time>
      </trkpt>
      <trkpt lat="43.66614" lon="1.39572">
        <ele>126</ele>
        <time>2024-03-21T17:49:51Z</time>
      </trkpt>
      <trkpt lat="43.66614" lon="1.39575">
        <ele>126</ele>
        <time>2024-03-21T17:49:52Z</time>
      </trkpt>
      <trkpt lat="43.66615" lon="1.3958">
        <ele>126</ele>
        <time>2024-03-21T17:49:53Z</time>
      </trkpt>
      <trkpt lat="43.66614" lon="1.39581">
        <ele>126</ele>
        <time>2024-03-21T17:49:54Z</time>
      </trkpt>
      <trkpt lat="43.66614" lon="1.39585">
        <ele>126</ele>
        <time>2024-03-21T17:49:55Z</time>
      </trkpt>
      <trkpt lat="43.66614" lon="1.39589">
        <ele>126</ele>
        <time>2024-03-21T17:49:56Z</time>
      </trkpt>
      <trkpt lat="43.66614" lon="1.39592">
        <ele>126</ele>
        <time>2024-03-21T17:49:57Z</time>
      </trkpt>
      <trkpt lat="43.66615" lon="1.39595">
        <ele>126</ele>
        <time>2024-03-21T17:49:58Z</time>
      </trkpt>
      <trkpt lat="43.66616" lon="1.39598">
        <ele>126</ele>
        <time>2024-03-21T17:49:59Z</time>
      </trkpt>
      <trkpt lat="43.66617" lon="1.39601">
        <ele>126</ele>
        <time>2024-03-21T17:50:00Z</time>
      </trkpt>
      <trkpt lat="43.66618" lon="1.39604">
        <ele>126</ele>
        <time>2024-03-21T17:50:01Z</time>
      </trkpt>
      <trkpt lat="43.6662" lon="1.39607">
        <ele>126</ele>
        <time>2024-03-21T17:50:02Z</time>
      </trkpt>
      <trkpt lat="43.66621" lon="1.39611">
        <ele>126</ele>
        <time>2024-03-21T17:50:03Z</time>
      </trkpt>
      <trkpt lat="43.66623" lon="1.39615">
        <ele>126</ele>
        <time>2024-03-21T17:50:04Z</time>
      </trkpt>
      <trkpt lat="43.66624" lon="1.39619">
        <ele>126</ele>
        <time>2024-03-21T17:50:05Z</time>
      </trkpt>
      <trkpt lat="43.66625" lon="1.39622">
        <ele>125</ele>
        <time>2024-03-21T17:50:06Z</time>
      </trkpt>
      <trkpt lat="43.66626" lon="1.39624">
        <ele>125</ele>
        <time>2024-03-21T17:50:07Z</time>
      </trkpt>
      <trkpt lat="43.66626" lon="1.39627">
        <ele>125</ele>
        <time>2024-03-21T17:50:08Z</time>
      </trkpt>
      <trkpt lat="43.66626" lon="1.3963">
        <ele>124</ele>
        <time>2024-03-21T17:50:09Z</time>
      </trkpt>
      <trkpt lat="43.66627" lon="1.39636">
        <ele>124</ele>
        <time>2024-03-21T17:50:10Z</time>
      </trkpt>
      <trkpt lat="43.66627" lon="1.39638">
        <ele>125</ele>
        <time>2024-03-21T17:50:11Z</time>
      </trkpt>
      <trkpt lat="43.66627" lon="1.39643">
        <ele>125</ele>
        <time>2024-03-21T17:50:12Z</time>
      </trkpt>
      <trkpt lat="43.66628" lon="1.39645">
        <ele>125</ele>
        <time>2024-03-21T17:50:13Z</time>
      </trkpt>
      <trkpt lat="43.66627" lon="1.39649">
        <ele>125</ele>
        <time>2024-03-21T17:50:14Z</time>
      </trkpt>
      <trkpt lat="43.66627" lon="1.39653">
        <ele>125</ele>
        <time>2024-03-21T17:50:15Z</time>
      </trkpt>
      <trkpt lat="43.66627" lon="1.39656">
        <ele>126</ele>
        <time>2024-03-21T17:50:16Z</time>
      </trkpt>
      <trkpt lat="43.66627" lon="1.3966">
        <ele>126</ele>
        <time>2024-03-21T17:50:17Z</time>
      </trkpt>
      <trkpt lat="43.66628" lon="1.39663">
        <ele>126</ele>
        <time>2024-03-21T17:50:18Z</time>
      </trkpt>
      <trkpt lat="43.66629" lon="1.39665">
        <ele>126</ele>
        <time>2024-03-21T17:50:19Z</time>
      </trkpt>
      <trkpt lat="43.66631" lon="1.39668">
        <ele>126</ele>
        <time>2024-03-21T17:50:20Z</time>
      </trkpt>
      <trkpt lat="43.66632" lon="1.39671">
        <ele>126</ele>
        <time>2024-03-21T17:50:21Z</time>
      </trkpt>
      <trkpt lat="43.66633" lon="1.39675">
        <ele>126</ele>
        <time>2024-03-21T17:50:22Z</time>
      </trkpt>
      <trkpt lat="43.66634" lon="1.39678">
        <ele>126</ele>
        <time>2024-03-21T17:50:23Z</time>
      </trkpt>
      <trkpt lat="43.66635" lon="1.39682">
        <ele>126</ele>
        <time>2024-03-21T17:50:24Z</time>
      </trkpt>
      <trkpt lat="43.66635" lon="1.39686">
        <ele>126</ele>
        <time>2024-03-21T17:50:25Z</time>
      </trkpt>
      <trkpt lat="43.66636" lon="1.39689">
        <ele>125</ele>
        <time>2024-03-21T17:50:26Z</time>
      </trkpt>
      <trkpt lat="43.66636" lon="1.39693">
        <ele>125</ele>
        <time>2024-03-21T17:50:27Z</time>
      </trkpt>
      <trkpt lat="43.66636" lon="1.39696">
        <ele>125</ele>
        <time>2024-03-21T17:50:28Z</time>
      </trkpt>
      <trkpt lat="43.66636" lon="1.39701">
        <ele>125</ele>
        <time>2024-03-21T17:50:29Z</time>
      </trkpt>
      <trkpt lat="43.66636" lon="1.39703">
        <ele>125</ele>
        <time>2024-03-21T17:50:30Z</time>
      </trkpt>
      <trkpt lat="43.66637" lon="1.39707">
        <ele>125</ele>
        <time>2024-03-21T17:50:31Z</time>
      </trkpt>
      <trkpt lat="43.66637" lon="1.39708">
        <ele>125</ele>
        <time>2024-03-21T17:50:32Z</time>
      </trkpt>
      <trkpt lat="43.66637" lon="1.39712">
        <ele>125</ele>
        <time>2024-03-21T17:50:33Z</time>
      </trkpt>
      <trkpt lat="43.66638" lon="1.39715">
        <ele>125</ele>
        <time>2024-03-21T17:50:34Z</time>
      </trkpt>
      <trkpt lat="43.66638" lon="1.39718">
        <ele>125</ele>
        <time>2024-03-21T17:50:35Z</time>
      </trkpt>
      <trkpt lat="43.66638" lon="1.39722">
        <ele>125</ele>
        <time>2024-03-21T17:50:36Z</time>
      </trkpt>
      <trkpt lat="43.66638" lon="1.39724">
        <ele>125</ele>
        <time>2024-03-21T17:50:37Z</time>
      </trkpt>
      <trkpt lat="43.66639" lon="1.39727">
        <ele>125</ele>
        <time>2024-03-21T17:50:38Z</time>
      </trkpt>
      <trkpt lat="43.66639" lon="1.3973">
        <ele>126</ele>
        <time>2024-03-21T17:50:39Z</time>
      </trkpt>
      <trkpt lat="43.6664" lon="1.39735">
        <ele>126</ele>
        <time>2024-03-21T17:50:40Z</time>
      </trkpt>
      <trkpt lat="43.66639" lon="1.39736">
        <ele>126</ele>
        <time>2024-03-21T17:50:41Z</time>
      </trkpt>
      <trkpt lat="43.66639" lon="1.39739">
        <ele>126</ele>
        <time>2024-03-21T17:50:42Z</time>
      </trkpt>
      <trkpt lat="43.6664" lon="1.39742">
        <ele>126</ele>
        <time>2024-03-21T17:50:43Z</time>
      </trkpt>
      <trkpt lat="43.6664" lon="1.39745">
        <ele>126</ele>
        <time>2024-03-21T17:50:44Z</time>
      </trkpt>
      <trkpt lat="43.6664" lon="1.39748">
        <ele>126</ele>
        <time>2024-03-21T17:50:45Z</time>
      </trkpt>
      <trkpt lat="43.6664" lon="1.39751">
        <ele>126</ele>
        <time>2024-03-21T17:50:46Z</time>
      </trkpt>
      <trkpt lat="43.6664" lon="1.39755">
        <ele>126</ele>
        <time>2024-03-21T17:50:47Z</time>
      </trkpt>
      <trkpt lat="43.6664" lon="1.39759">
        <ele>126</ele>
        <time>2024-03-21T17:50:48Z</time>
      </trkpt>
      <trkpt lat="43.66639" lon="1.39763">
        <ele>126</ele>
        <time>2024-03-21T17:50:49Z</time>
      </trkpt>
      <trkpt lat="43.66637" lon="1.39768">
        <ele>126</ele>
        <time>2024-03-21T17:50:50Z</time>
      </trkpt>
      <trkpt lat="43.66637" lon="1.3977">
        <ele>126</ele>
        <time>2024-03-21T17:50:51Z</time>
      </trkpt>
      <trkpt lat="43.66636" lon="1.39773">
        <ele>126</ele>
        <time>2024-03-21T17:50:52Z</time>
      </trkpt>
      <trkpt lat="43.66636" lon="1.39776">
        <ele>126</ele>
        <time>2024-03-21T17:50:53Z</time>
      </trkpt>
      <trkpt lat="43.66636" lon="1.39779">
        <ele>126</ele>
        <time>2024-03-21T17:50:54Z</time>
      </trkpt>
      <trkpt lat="43.66637" lon="1.39782">
        <ele>126</ele>
        <time>2024-03-21T17:50:55Z</time>
      </trkpt>
      <trkpt lat="43.66637" lon="1.39786">
        <ele>126</ele>
        <time>2024-03-21T17:50:56Z</time>
      </trkpt>
      <trkpt lat="43.66637" lon="1.39789">
        <ele>126</ele>
        <time>2024-03-21T17:50:57Z</time>
      </trkpt>
      <trkpt lat="43.66636" lon="1.39792">
        <ele>126</ele>
        <time>2024-03-21T17:50:58Z</time>
      </trkpt>
      <trkpt lat="43.66635" lon="1.39794">
        <ele>126</ele>
        <time>2024-03-21T17:50:59Z</time>
      </trkpt>
      <trkpt lat="43.66633" lon="1.39797">
        <ele>126</ele>
        <time>2024-03-21T17:51:00Z</time>
      </trkpt>
      <trkpt lat="43.66633" lon="1.398">
        <ele>126</ele>
        <time>2024-03-21T17:51:01Z</time>
      </trkpt>
      <trkpt lat="43.66634" lon="1.39803">
        <ele>127</ele>
        <time>2024-03-21T17:51:02Z</time>
      </trkpt>
      <trkpt lat="43.66635" lon="1.39807">
        <ele>127</ele>
        <time>2024-03-21T17:51:03Z</time>
      </trkpt>
      <trkpt lat="43.66636" lon="1.3981">
        <ele>127</ele>
        <time>2024-03-21T17:51:04Z</time>
      </trkpt>
      <trkpt lat="43.66636" lon="1.39814">
        <ele>127</ele>
        <time>2024-03-21T17:51:05Z</time>
      </trkpt>
      <trkpt lat="43.66636" lon="1.39817">
        <ele>127</ele>
        <time>2024-03-21T17:51:06Z</time>
      </trkpt>
      <trkpt lat="43.66636" lon="1.3982">
        <ele>127</ele>
        <time>2024-03-21T17:51:07Z</time>
      </trkpt>
      <trkpt lat="43.66635" lon="1.39823">
        <ele>127</ele>
        <time>2024-03-21T17:51:08Z</time>
      </trkpt>
      <trkpt lat="43.66636" lon="1.39828">
        <ele>127</ele>
        <time>2024-03-21T17:51:09Z</time>
      </trkpt>
      <trkpt lat="43.66636" lon="1.3983">
        <ele>127</ele>
        <time>2024-03-21T17:51:10Z</time>
      </trkpt>
      <trkpt lat="43.66636" lon="1.39834">
        <ele>127</ele>
        <time>2024-03-21T17:51:11Z</time>
      </trkpt>
      <trkpt lat="43.66637" lon="1.39836">
        <ele>127</ele>
        <time>2024-03-21T17:51:12Z</time>
      </trkpt>
      <trkpt lat="43.66637" lon="1.39839">
        <ele>127</ele>
        <time>2024-03-21T17:51:13Z</time>
      </trkpt>
      <trkpt lat="43.66637" lon="1.39843">
        <ele>127</ele>
        <time>2024-03-21T17:51:14Z</time>
      </trkpt>
      <trkpt lat="43.66638" lon="1.39847">
        <ele>127</ele>
        <time>2024-03-21T17:51:15Z</time>
      </trkpt>
      <trkpt lat="43.66639" lon="1.39851">
        <ele>127</ele>
        <time>2024-03-21T17:51:16Z</time>
      </trkpt>
      <trkpt lat="43.66639" lon="1.39854">
        <ele>127</ele>
        <time>2024-03-21T17:51:17Z</time>
      </trkpt>
      <trkpt lat="43.66639" lon="1.39858">
        <ele>126</ele>
        <time>2024-03-21T17:51:18Z</time>
      </trkpt>
      <trkpt lat="43.66639" lon="1.39861">
        <ele>126</ele>
        <time>2024-03-21T17:51:19Z</time>
      </trkpt>
      <trkpt lat="43.66639" lon="1.39865">
        <ele>126</ele>
        <time>2024-03-21T17:51:20Z</time>
      </trkpt>
      <trkpt lat="43.66639" lon="1.39868">
        <ele>126</ele>
        <time>2024-03-21T17:51:21Z</time>
      </trkpt>
      <trkpt lat="43.66638" lon="1.39871">
        <ele>126</ele>
        <time>2024-03-21T17:51:22Z</time>
      </trkpt>
      <trkpt lat="43.66638" lon="1.39874">
        <ele>126</ele>
        <time>2024-03-21T17:51:23Z</time>
      </trkpt>
      <trkpt lat="43.66637" lon="1.39878">
        <ele>126</ele>
        <time>2024-03-21T17:51:24Z</time>
      </trkpt>
      <trkpt lat="43.66636" lon="1.3988">
        <ele>126</ele>
        <time>2024-03-21T17:51:25Z</time>
      </trkpt>
      <trkpt lat="43.66635" lon="1.39883">
        <ele>126</ele>
        <time>2024-03-21T17:51:26Z</time>
      </trkpt>
      <trkpt lat="43.66635" lon="1.39886">
        <ele>126</ele>
        <time>2024-03-21T17:51:27Z</time>
      </trkpt>
      <trkpt lat="43.66633" lon="1.39891">
        <ele>126</ele>
        <time>2024-03-21T17:51:28Z</time>
      </trkpt>
      <trkpt lat="43.66633" lon="1.39892">
        <ele>126</ele>
        <time>2024-03-21T17:51:29Z</time>
      </trkpt>
      <trkpt lat="43.66631" lon="1.39895">
        <ele>126</ele>
        <time>2024-03-21T17:51:30Z</time>
      </trkpt>
      <trkpt lat="43.66629" lon="1.399">
        <ele>126</ele>
        <time>2024-03-21T17:51:31Z</time>
      </trkpt>
      <trkpt lat="43.66629" lon="1.39902">
        <ele>126</ele>
        <time>2024-03-21T17:51:32Z</time>
      </trkpt>
      <trkpt lat="43.66627" lon="1.39905">
        <ele>126</ele>
        <time>2024-03-21T17:51:33Z</time>
      </trkpt>
      <trkpt lat="43.66626" lon="1.39907">
        <ele>126</ele>
        <time>2024-03-21T17:51:34Z</time>
      </trkpt>
      <trkpt lat="43.66625" lon="1.3991">
        <ele>126</ele>
        <time>2024-03-21T17:51:35Z</time>
      </trkpt>
      <trkpt lat="43.66624" lon="1.39913">
        <ele>126</ele>
        <time>2024-03-21T17:51:36Z</time>
      </trkpt>
      <trkpt lat="43.66623" lon="1.39916">
        <ele>126</ele>
        <time>2024-03-21T17:51:37Z</time>
      </trkpt>
      <trkpt lat="43.66622" lon="1.39919">
        <ele>126</ele>
        <time>2024-03-21T17:51:38Z</time>
      </trkpt>
      <trkpt lat="43.66622" lon="1.39921">
        <ele>126</ele>
        <time>2024-03-21T17:51:39Z</time>
      </trkpt>
      <trkpt lat="43.66622" lon="1.39921">
        <ele>126</ele>
        <time>2024-03-21T17:51:40Z</time>
      </trkpt>
      <trkpt lat="43.6662" lon="1.39925">
        <ele>126</ele>
        <time>2024-03-21T17:51:41Z</time>
      </trkpt>
      <trkpt lat="43.66619" lon="1.39928">
        <ele>126</ele>
        <time>2024-03-21T17:51:42Z</time>
      </trkpt>
      <trkpt lat="43.66619" lon="1.3993">
        <ele>126</ele>
        <time>2024-03-21T17:51:43Z</time>
      </trkpt>
      <trkpt lat="43.66618" lon="1.39933">
        <ele>126</ele>
        <time>2024-03-21T17:51:44Z</time>
      </trkpt>
      <trkpt lat="43.66617" lon="1.39936">
        <ele>126</ele>
        <time>2024-03-21T17:51:45Z</time>
      </trkpt>
      <trkpt lat="43.66617" lon="1.39939">
        <ele>126</ele>
        <time>2024-03-21T17:51:46Z</time>
      </trkpt>
      <trkpt lat="43.66617" lon="1.39944">
        <ele>126</ele>
        <time>2024-03-21T17:51:47Z</time>
      </trkpt>
      <trkpt lat="43.66616" lon="1.39945">
        <ele>126</ele>
        <time>2024-03-21T17:51:48Z</time>
      </trkpt>
      <trkpt lat="43.66615" lon="1.39948">
        <ele>126</ele>
        <time>2024-03-21T17:51:49Z</time>
      </trkpt>
      <trkpt lat="43.66614" lon="1.39951">
        <ele>126</ele>
        <time>2024-03-21T17:51:50Z</time>
      </trkpt>
      <trkpt lat="43.66613" lon="1.39954">
        <ele>126</ele>
        <time>2024-03-21T17:51:51Z</time>
      </trkpt>
      <trkpt lat="43.66612" lon="1.39957">
        <ele>127</ele>
        <time>2024-03-21T17:51:52Z</time>
      </trkpt>
      <trkpt lat="43.6661" lon="1.39962">
        <ele>127</ele>
        <time>2024-03-21T17:51:53Z</time>
      </trkpt>
      <trkpt lat="43.66609" lon="1.39964">
        <ele>127</ele>
        <time>2024-03-21T17:51:54Z</time>
      </trkpt>
      <trkpt lat="43.66608" lon="1.39967">
        <ele>127</ele>
        <time>2024-03-21T17:51:55Z</time>
      </trkpt>
      <trkpt lat="43.66607" lon="1.3997">
        <ele>127</ele>
        <time>2024-03-21T17:51:56Z</time>
      </trkpt>
      <trkpt lat="43.66606" lon="1.39973">
        <ele>127</ele>
        <time>2024-03-21T17:51:57Z</time>
      </trkpt>
      <trkpt lat="43.66606" lon="1.39973">
        <ele>127</ele>
        <time>2024-03-21T17:51:58Z</time>
      </trkpt>
      <trkpt lat="43.66605" lon="1.39977">
        <ele>127</ele>
        <time>2024-03-21T17:51:59Z</time>
      </trkpt>
      <trkpt lat="43.66603" lon="1.39979">
        <ele>127</ele>
        <time>2024-03-21T17:52:00Z</time>
      </trkpt>
      <trkpt lat="43.66601" lon="1.39981">
        <ele>127</ele>
        <time>2024-03-21T17:52:01Z</time>
      </trkpt>
      <trkpt lat="43.666" lon="1.39984">
        <ele>127</ele>
        <time>2024-03-21T17:52:02Z</time>
      </trkpt>
      <trkpt lat="43.66598" lon="1.39987">
        <ele>127</ele>
        <time>2024-03-21T17:52:03Z</time>
      </trkpt>
      <trkpt lat="43.66597" lon="1.39989">
        <ele>127</ele>
        <time>2024-03-21T17:52:04Z</time>
      </trkpt>
      <trkpt lat="43.66596" lon="1.39992">
        <ele>127</ele>
        <time>2024-03-21T17:52:05Z</time>
      </trkpt>
      <trkpt lat="43.66595" lon="1.39997">
        <ele>127</ele>
        <time>2024-03-21T17:52:06Z</time>
      </trkpt>
      <trkpt lat="43.66594" lon="1.39998">
        <ele>127</ele>
        <time>2024-03-21T17:52:07Z</time>
      </trkpt>
      <trkpt lat="43.66594" lon="1.40001">
        <ele>127</ele>
        <time>2024-03-21T17:52:08Z</time>
      </trkpt>
      <trkpt lat="43.66593" lon="1.40004">
        <ele>127</ele>
        <time>2024-03-21T17:52:09Z</time>
      </trkpt>
      <trkpt lat="43.66592" lon="1.40007">
        <ele>127</ele>
        <time>2024-03-21T17:52:10Z</time>
      </trkpt>
      <trkpt lat="43.66592" lon="1.40011">
        <ele>127</ele>
        <time>2024-03-21T17:52:11Z</time>
      </trkpt>
      <trkpt lat="43.66591" lon="1.40014">
        <ele>127</ele>
        <time>2024-03-21T17:52:12Z</time>
      </trkpt>
      <trkpt lat="43.66591" lon="1.40017">
        <ele>127</ele>
        <time>2024-03-21T17:52:13Z</time>
      </trkpt>
      <trkpt lat="43.6659" lon="1.4002">
        <ele>127</ele>
        <time>2024-03-21T17:52:14Z</time>
      </trkpt>
      <trkpt lat="43.66588" lon="1.40024">
        <ele>127</ele>
        <time>2024-03-21T17:52:15Z</time>
      </trkpt>
      <trkpt lat="43.66588" lon="1.40025">
        <ele>127</ele>
        <time>2024-03-21T17:52:16Z</time>
      </trkpt>
      <trkpt lat="43.66586" lon="1.40028">
        <ele>127</ele>
        <time>2024-03-21T17:52:17Z</time>
      </trkpt>
      <trkpt lat="43.66585" lon="1.40031">
        <ele>127</ele>
        <time>2024-03-21T17:52:18Z</time>
      </trkpt>
      <trkpt lat="43.66583" lon="1.40033">
        <ele>127</ele>
        <time>2024-03-21T17:52:19Z</time>
      </trkpt>
      <trkpt lat="43.66582" lon="1.40036">
        <ele>128</ele>
        <time>2024-03-21T17:52:20Z</time>
      </trkpt>
      <trkpt lat="43.6658" lon="1.40039">
        <ele>128</ele>
        <time>2024-03-21T17:52:21Z</time>
      </trkpt>
      <trkpt lat="43.66579" lon="1.40042">
        <ele>128</ele>
        <time>2024-03-21T17:52:22Z</time>
      </trkpt>
      <trkpt lat="43.66578" lon="1.40045">
        <ele>127</ele>
        <time>2024-03-21T17:52:23Z</time>
      </trkpt>
      <trkpt lat="43.66577" lon="1.40048">
        <ele>127</ele>
        <time>2024-03-21T17:52:24Z</time>
      </trkpt>
      <trkpt lat="43.66574" lon="1.40052">
        <ele>127</ele>
        <time>2024-03-21T17:52:25Z</time>
      </trkpt>
      <trkpt lat="43.66573" lon="1.40054">
        <ele>127</ele>
        <time>2024-03-21T17:52:26Z</time>
      </trkpt>
      <trkpt lat="43.66572" lon="1.40056">
        <ele>127</ele>
        <time>2024-03-21T17:52:27Z</time>
      </trkpt>
      <trkpt lat="43.66571" lon="1.40059">
        <ele>127</ele>
        <time>2024-03-21T17:52:28Z</time>
      </trkpt>
      <trkpt lat="43.66569" lon="1.40061">
        <ele>127</ele>
        <time>2024-03-21T17:52:29Z</time>
      </trkpt>
      <trkpt lat="43.66568" lon="1.40064">
        <ele>127</ele>
        <time>2024-03-21T17:52:30Z</time>
      </trkpt>
      <trkpt lat="43.66566" lon="1.40066">
        <ele>127</ele>
        <time>2024-03-21T17:52:31Z</time>
      </trkpt>
      <trkpt lat="43.66565" lon="1.40069">
        <ele>127</ele>
        <time>2024-03-21T17:52:32Z</time>
      </trkpt>
      <trkpt lat="43.66563" lon="1.40072">
        <ele>127</ele>
        <time>2024-03-21T17:52:33Z</time>
      </trkpt>
      <trkpt lat="43.66562" lon="1.40074">
        <ele>127</ele>
        <time>2024-03-21T17:52:34Z</time>
      </trkpt>
      <trkpt lat="43.66561" lon="1.40077">
        <ele>127</ele>
        <time>2024-03-21T17:52:35Z</time>
      </trkpt>
      <trkpt lat="43.66559" lon="1.4008">
        <ele>127</ele>
        <time>2024-03-21T17:52:36Z</time>
      </trkpt>
      <trkpt lat="43.66558" lon="1.40082">
        <ele>128</ele>
        <time>2024-03-21T17:52:37Z</time>
      </trkpt>
      <trkpt lat="43.66557" lon="1.40084">
        <ele>128</ele>
        <time>2024-03-21T17:52:38Z</time>
      </trkpt>
      <trkpt lat="43.66556" lon="1.40086">
        <ele>127</ele>
        <time>2024-03-21T17:52:39Z</time>
      </trkpt>
      <trkpt lat="43.66555" lon="1.40089">
        <ele>127</ele>
        <time>2024-03-21T17:52:40Z</time>
      </trkpt>
      <trkpt lat="43.66553" lon="1.40091">
        <ele>127</ele>
        <time>2024-03-21T17:52:41Z</time>
      </trkpt>
      <trkpt lat="43.66552" lon="1.40093">
        <ele>127</ele>
        <time>2024-03-21T17:52:42Z</time>
      </trkpt>
      <trkpt lat="43.6655" lon="1.40096">
        <ele>127</ele>
        <time>2024-03-21T17:52:43Z</time>
      </trkpt>
      <trkpt lat="43.66548" lon="1.40101">
        <ele>127</ele>
        <time>2024-03-21T17:52:44Z</time>
      </trkpt>
      <trkpt lat="43.66547" lon="1.40103">
        <ele>128</ele>
        <time>2024-03-21T17:52:45Z</time>
      </trkpt>
      <trkpt lat="43.66546" lon="1.40106">
        <ele>128</ele>
        <time>2024-03-21T17:52:46Z</time>
      </trkpt>
      <trkpt lat="43.66545" lon="1.40108">
        <ele>128</ele>
        <time>2024-03-21T17:52:47Z</time>
      </trkpt>
      <trkpt lat="43.66544" lon="1.40111">
        <ele>127</ele>
        <time>2024-03-21T17:52:48Z</time>
      </trkpt>
      <trkpt lat="43.66544" lon="1.40115">
        <ele>127</ele>
        <time>2024-03-21T17:52:49Z</time>
      </trkpt>
      <trkpt lat="43.66543" lon="1.40118">
        <ele>127</ele>
        <time>2024-03-21T17:52:50Z</time>
      </trkpt>
      <trkpt lat="43.66542" lon="1.40121">
        <ele>127</ele>
        <time>2024-03-21T17:52:51Z</time>
      </trkpt>
      <trkpt lat="43.6654" lon="1.40123">
        <ele>127</ele>
        <time>2024-03-21T17:52:52Z</time>
      </trkpt>
      <trkpt lat="43.66539" lon="1.40126">
        <ele>127</ele>
        <time>2024-03-21T17:52:53Z</time>
      </trkpt>
      <trkpt lat="43.66538" lon="1.40128">
        <ele>127</ele>
        <time>2024-03-21T17:52:54Z</time>
      </trkpt>
      <trkpt lat="43.66536" lon="1.4013">
        <ele>127</ele>
        <time>2024-03-21T17:52:55Z</time>
      </trkpt>
      <trkpt lat="43.66532" lon="1.40134">
        <ele>127</ele>
        <time>2024-03-21T17:52:56Z</time>
      </trkpt>
      <trkpt lat="43.66531" lon="1.40135">
        <ele>127</ele>
        <time>2024-03-21T17:52:57Z</time>
      </trkpt>
      <trkpt lat="43.66529" lon="1.40137">
        <ele>127</ele>
        <time>2024-03-21T17:52:58Z</time>
      </trkpt>
      <trkpt lat="43.66527" lon="1.4014">
        <ele>128</ele>
        <time>2024-03-21T17:52:59Z</time>
      </trkpt>
      <trkpt lat="43.66526" lon="1.40142">
        <ele>128</ele>
        <time>2024-03-21T17:53:00Z</time>
      </trkpt>
      <trkpt lat="43.66524" lon="1.40144">
        <ele>127</ele>
        <time>2024-03-21T17:53:01Z</time>
      </trkpt>
      <trkpt lat="43.66522" lon="1.40146">
        <ele>127</ele>
        <time>2024-03-21T17:53:02Z</time>
      </trkpt>
      <trkpt lat="43.6652" lon="1.4015">
        <ele>127</ele>
        <time>2024-03-21T17:53:03Z</time>
      </trkpt>
      <trkpt lat="43.66519" lon="1.40151">
        <ele>127</ele>
        <time>2024-03-21T17:53:04Z</time>
      </trkpt>
      <trkpt lat="43.66518" lon="1.40154">
        <ele>127</ele>
        <time>2024-03-21T17:53:05Z</time>
      </trkpt>
      <trkpt lat="43.66517" lon="1.40157">
        <ele>127</ele>
        <time>2024-03-21T17:53:06Z</time>
      </trkpt>
      <trkpt lat="43.66516" lon="1.4016">
        <ele>127</ele>
        <time>2024-03-21T17:53:07Z</time>
      </trkpt>
      <trkpt lat="43.66515" lon="1.40163">
        <ele>127</ele>
        <time>2024-03-21T17:53:08Z</time>
      </trkpt>
      <trkpt lat="43.66514" lon="1.40166">
        <ele>127</ele>
        <time>2024-03-21T17:53:09Z</time>
      </trkpt>
      <trkpt lat="43.66513" lon="1.40168">
        <ele>127</ele>
        <time>2024-03-21T17:53:10Z</time>
      </trkpt>
      <trkpt lat="43.66511" lon="1.40171">
        <ele>127</ele>
        <time>2024-03-21T17:53:11Z</time>
      </trkpt>
      <trkpt lat="43.6651" lon="1.40173">
        <ele>127</ele>
        <time>2024-03-21T17:53:12Z</time>
      </trkpt>
      <trkpt lat="43.66507" lon="1.40174">
        <ele>127</ele>
        <time>2024-03-21T17:53:13Z</time>
      </trkpt>
      <trkpt lat="43.66505" lon="1.40175">
        <ele>128</ele>
        <time>2024-03-21T17:53:14Z</time>
      </trkpt>
      <trkpt lat="43.66503" lon="1.40177">
        <ele>128</ele>
        <time>2024-03-21T17:53:15Z</time>
      </trkpt>
      <trkpt lat="43.66502" lon="1.4018">
        <ele>128</ele>
        <time>2024-03-21T17:53:16Z</time>
      </trkpt>
      <trkpt lat="43.66501" lon="1.40182">
        <ele>128</ele>
        <time>2024-03-21T17:53:17Z</time>
      </trkpt>
      <trkpt lat="43.665" lon="1.40185">
        <ele>128</ele>
        <time>2024-03-21T17:53:18Z</time>
      </trkpt>
      <trkpt lat="43.66498" lon="1.40187">
        <ele>127</ele>
        <time>2024-03-21T17:53:19Z</time>
      </trkpt>
      <trkpt lat="43.66497" lon="1.40189">
        <ele>127</ele>
        <time>2024-03-21T17:53:20Z</time>
      </trkpt>
      <trkpt lat="43.66495" lon="1.4019">
        <ele>128</ele>
        <time>2024-03-21T17:53:21Z</time>
      </trkpt>
      <trkpt lat="43.66492" lon="1.40194">
        <ele>128</ele>
        <time>2024-03-21T17:53:22Z</time>
      </trkpt>
      <trkpt lat="43.66491" lon="1.40195">
        <ele>128</ele>
        <time>2024-03-21T17:53:23Z</time>
      </trkpt>
      <trkpt lat="43.66488" lon="1.40197">
        <ele>128</ele>
        <time>2024-03-21T17:53:24Z</time>
      </trkpt>
      <trkpt lat="43.66486" lon="1.40198">
        <ele>128</ele>
        <time>2024-03-21T17:53:25Z</time>
      </trkpt>
      <trkpt lat="43.66484" lon="1.40199">
        <ele>128</ele>
        <time>2024-03-21T17:53:26Z</time>
      </trkpt>
      <trkpt lat="43.66484" lon="1.40199">
        <ele>128</ele>
        <time>2024-03-21T17:53:27Z</time>
      </trkpt>
      <trkpt lat="43.66481" lon="1.402">
        <ele>127</ele>
        <time>2024-03-21T17:53:28Z</time>
      </trkpt>
      <trkpt lat="43.66481" lon="1.402">
        <ele>127</ele>
        <time>2024-03-21T17:53:29Z</time>
      </trkpt>
      <trkpt lat="43.66478" lon="1.40198">
        <ele>127</ele>
        <time>2024-03-21T17:53:30Z</time>
      </trkpt>
      <trkpt lat="43.66478" lon="1.40198">
        <ele>127</ele>
        <time>2024-03-21T17:53:31Z</time>
      </trkpt>
      <trkpt lat="43.66476" lon="1.40197">
        <ele>126</ele>
        <time>2024-03-21T17:53:32Z</time>
      </trkpt>
      <trkpt lat="43.66476" lon="1.40197">
        <ele>126</ele>
        <time>2024-03-21T17:53:33Z</time>
      </trkpt>
      <trkpt lat="43.66476" lon="1.40197">
        <ele>126</ele>
        <time>2024-03-21T17:53:34Z</time>
      </trkpt>
      <trkpt lat="43.66474" lon="1.40195">
        <ele>126</ele>
        <time>2024-03-21T17:53:35Z</time>
      </trkpt>
      <trkpt lat="43.66474" lon="1.40195">
        <ele>126</ele>
        <time>2024-03-21T17:53:36Z</time>
      </trkpt>
      <trkpt lat="43.66474" lon="1.40195">
        <ele>126</ele>
        <time>2024-03-21T17:53:37Z</time>
      </trkpt>
      <trkpt lat="43.66474" lon="1.40195">
        <ele>126</ele>
        <time>2024-03-21T17:53:38Z</time>
      </trkpt>
      <trkpt lat="43.66474" lon="1.40195">
        <ele>126</ele>
        <time>2024-03-21T17:53:39Z</time>
      </trkpt>
      <trkpt lat="43.66474" lon="1.40195">
        <ele>126</ele>
        <time>2024-03-21T17:53:40Z</time>
      </trkpt>
      <trkpt lat="43.66474" lon="1.40195">
        <ele>126</ele>
        <time>2024-03-21T17:53:42Z</time>
      </trkpt>
      <trkpt lat="43.66474" lon="1.40195">
        <ele>126</ele>
        <time>2024-03-21T17:53:43Z</time>
      </trkpt>
      <trkpt lat="43.66474" lon="1.40195">
        <ele>126</ele>
        <time>2024-03-21T17:53:44Z</time>
      </trkpt>
      <trkpt lat="43.66474" lon="1.40195">
        <ele>126</ele>
        <time>2024-03-21T17:53:45Z</time>
      </trkpt>
      <trkpt lat="43.66474" lon="1.40195">
        <ele>126</ele>
        <time>2024-03-21T17:53:46Z</time>
      </trkpt>
      <trkpt lat="43.66474" lon="1.40195">
        <ele>126</ele>
        <time>2024-03-21T17:53:47Z</time>
      </trkpt>
      <trkpt lat="43.66474" lon="1.40195">
        <ele>126</ele>
        <time>2024-03-21T17:53:48Z</time>
      </trkpt>
      <trkpt lat="43.66474" lon="1.40195">
        <ele>126</ele>
        <time>2024-03-21T17:53:49Z</time>
      </trkpt>
      <trkpt lat="43.66474" lon="1.40195">
        <ele>126</ele>
        <time>2024-03-21T17:53:50Z</time>
      </trkpt>
      <trkpt lat="43.66474" lon="1.40195">
        <ele>126</ele>
        <time>2024-03-21T17:53:51Z</time>
      </trkpt>
      <trkpt lat="43.66474" lon="1.40195">
        <ele>126</ele>
        <time>2024-03-21T17:53:52Z</time>
      </trkpt>
      <trkpt lat="43.66474" lon="1.40195">
        <ele>126</ele>
        <time>2024-03-21T17:53:53Z</time>
      </trkpt>
      <trkpt lat="43.66474" lon="1.40195">
        <ele>125</ele>
        <time>2024-03-21T17:53:54Z</time>
      </trkpt>
      <trkpt lat="43.66474" lon="1.40195">
        <ele>126</ele>
        <time>2024-03-21T17:53:55Z</time>
      </trkpt>
      <trkpt lat="43.66474" lon="1.40195">
        <ele>126</ele>
        <time>2024-03-21T17:53:56Z</time>
      </trkpt>
      <trkpt lat="43.66474" lon="1.40195">
        <ele>126</ele>
        <time>2024-03-21T17:53:57Z</time>
      </trkpt>
      <trkpt lat="43.66474" lon="1.40195">
        <ele>126</ele>
        <time>2024-03-21T17:53:58Z</time>
      </trkpt>
      <trkpt lat="43.66474" lon="1.40195">
        <ele>126</ele>
        <time>2024-03-21T17:53:59Z</time>
      </trkpt>
      <trkpt lat="43.66474" lon="1.40195">
        <ele>126</ele>
        <time>2024-03-21T17:54:01Z</time>
      </trkpt>
      <trkpt lat="43.66474" lon="1.40195">
        <ele>126</ele>
        <time>2024-03-21T17:54:02Z</time>
      </trkpt>
      <trkpt lat="43.66474" lon="1.40195">
        <ele>126</ele>
        <time>2024-03-21T17:54:03Z</time>
      </trkpt>
      <trkpt lat="43.66474" lon="1.40195">
        <ele>126</ele>
        <time>2024-03-21T17:54:04Z</time>
      </trkpt>
      <trkpt lat="43.66474" lon="1.40195">
        <ele>126</ele>
        <time>2024-03-21T17:54:05Z</time>
      </trkpt>
      <trkpt lat="43.66474" lon="1.40195">
        <ele>126</ele>
        <time>2024-03-21T17:54:06Z</time>
      </trkpt>
      <trkpt lat="43.66474" lon="1.40195">
        <ele>126</ele>
        <time>2024-03-21T17:54:07Z</time>
      </trkpt>
      <trkpt lat="43.66474" lon="1.40195">
        <ele>126</ele>
        <time>2024-03-21T17:54:08Z</time>
      </trkpt>
      <trkpt lat="43.66474" lon="1.40195">
        <ele>126</ele>
        <time>2024-03-21T17:54:09Z</time>
      </trkpt>
      <trkpt lat="43.66474" lon="1.40195">
        <ele>126</ele>
        <time>2024-03-21T17:54:10Z</time>
      </trkpt>
      <trkpt lat="43.66474" lon="1.40195">
        <ele>126</ele>
        <time>2024-03-21T17:54:11Z</time>
      </trkpt>
      <trkpt lat="43.66476" lon="1.40194">
        <ele>126</ele>
        <time>2024-03-21T17:54:12Z</time>
      </trkpt>
      <trkpt lat="43.66476" lon="1.40194">
        <ele>126</ele>
        <time>2024-03-21T17:54:13Z</time>
      </trkpt>
      <trkpt lat="43.66476" lon="1.40194">
        <ele>126</ele>
        <time>2024-03-21T17:54:14Z</time>
      </trkpt>
      <trkpt lat="43.66476" lon="1.40194">
        <ele>126</ele>
        <time>2024-03-21T17:54:15Z</time>
      </trkpt>
      <trkpt lat="43.66476" lon="1.40194">
        <ele>127</ele>
        <time>2024-03-21T17:54:16Z</time>
      </trkpt>
      <trkpt lat="43.66476" lon="1.40194">
        <ele>127</ele>
        <time>2024-03-21T17:54:17Z</time>
      </trkpt>
      <trkpt lat="43.66476" lon="1.40194">
        <ele>127</ele>
        <time>2024-03-21T17:54:18Z</time>
      </trkpt>
      <trkpt lat="43.66476" lon="1.40194">
        <ele>126</ele>
        <time>2024-03-21T17:54:20Z</time>
      </trkpt>
      <trkpt lat="43.66476" lon="1.40194">
        <ele>126</ele>
        <time>2024-03-21T17:54:21Z</time>
      </trkpt>
      <trkpt lat="43.66476" lon="1.40194">
        <ele>126</ele>
        <time>2024-03-21T17:54:22Z</time>
      </trkpt>
      <trkpt lat="43.66476" lon="1.40194">
        <ele>126</ele>
        <time>2024-03-21T17:54:23Z</time>
      </trkpt>
      <trkpt lat="43.66476" lon="1.40194">
        <ele>126</ele>
        <time>2024-03-21T17:54:24Z</time>
      </trkpt>
      <trkpt lat="43.66476" lon="1.40194">
        <ele>126</ele>
        <time>2024-03-21T17:54:25Z</time>
      </trkpt>
      <trkpt lat="43.66476" lon="1.40194">
        <ele>126</ele>
        <time>2024-03-21T17:54:26Z</time>
      </trkpt>
      <trkpt lat="43.66477" lon="1.40191">
        <ele>126</ele>
        <time>2024-03-21T17:54:27Z</time>
      </trkpt>
      <trkpt lat="43.66477" lon="1.40191">
        <ele>126</ele>
        <time>2024-03-21T17:54:28Z</time>
      </trkpt>
      <trkpt lat="43.66478" lon="1.40188">
        <ele>126</ele>
        <time>2024-03-21T17:54:29Z</time>
      </trkpt>
      <trkpt lat="43.66478" lon="1.40188">
        <ele>126</ele>
        <time>2024-03-21T17:54:30Z</time>
      </trkpt>
      <trkpt lat="43.6648" lon="1.40185">
        <ele>126</ele>
        <time>2024-03-21T17:54:31Z</time>
      </trkpt>
      <trkpt lat="43.6648" lon="1.40185">
        <ele>126</ele>
        <time>2024-03-21T17:54:32Z</time>
      </trkpt>
      <trkpt lat="43.66481" lon="1.40181">
        <ele>126</ele>
        <time>2024-03-21T17:54:33Z</time>
      </trkpt>
      <trkpt lat="43.66481" lon="1.40181">
        <ele>126</ele>
        <time>2024-03-21T17:54:34Z</time>
      </trkpt>
      <trkpt lat="43.66482" lon="1.40176">
        <ele>126</ele>
        <time>2024-03-21T17:54:35Z</time>
      </trkpt>
      <trkpt lat="43.66484" lon="1.40172">
        <ele>126</ele>
        <time>2024-03-21T17:54:36Z</time>
      </trkpt>
      <trkpt lat="43.66484" lon="1.40171">
        <ele>126</ele>
        <time>2024-03-21T17:54:37Z</time>
      </trkpt>
      <trkpt lat="43.66487" lon="1.40167">
        <ele>126</ele>
        <time>2024-03-21T17:54:38Z</time>
      </trkpt>
      <trkpt lat="43.66487" lon="1.40166">
        <ele>126</ele>
        <time>2024-03-21T17:54:39Z</time>
      </trkpt>
      <trkpt lat="43.66488" lon="1.40163">
        <ele>126</ele>
        <time>2024-03-21T17:54:40Z</time>
      </trkpt>
      <trkpt lat="43.6649" lon="1.40161">
        <ele>125</ele>
        <time>2024-03-21T17:54:41Z</time>
      </trkpt>
      <trkpt lat="43.66492" lon="1.40159">
        <ele>125</ele>
        <time>2024-03-21T17:54:42Z</time>
      </trkpt>
      <trkpt lat="43.66493" lon="1.40157">
        <ele>125</ele>
        <time>2024-03-21T17:54:43Z</time>
      </trkpt>
      <trkpt lat="43.66495" lon="1.40154">
        <ele>125</ele>
        <time>2024-03-21T17:54:44Z</time>
      </trkpt>
      <trkpt lat="43.66497" lon="1.4015">
        <ele>125</ele>
        <time>2024-03-21T17:54:45Z</time>
      </trkpt>
      <trkpt lat="43.66498" lon="1.40147">
        <ele>125</ele>
        <time>2024-03-21T17:54:46Z</time>
      </trkpt>
      <trkpt lat="43.665" lon="1.40144">
        <ele>125</ele>
        <time>2024-03-21T17:54:47Z</time>
      </trkpt>
      <trkpt lat="43.66501" lon="1.40141">
        <ele>125</ele>
        <time>2024-03-21T17:54:48Z</time>
      </trkpt>
      <trkpt lat="43.66501" lon="1.40137">
        <ele>125</ele>
        <time>2024-03-21T17:54:49Z</time>
      </trkpt>
      <trkpt lat="43.66502" lon="1.40133">
        <ele>125</ele>
        <time>2024-03-21T17:54:50Z</time>
      </trkpt>
      <trkpt lat="43.66503" lon="1.4013">
        <ele>125</ele>
        <time>2024-03-21T17:54:51Z</time>
      </trkpt>
      <trkpt lat="43.66504" lon="1.40126">
        <ele>125</ele>
        <time>2024-03-21T17:54:52Z</time>
      </trkpt>
      <trkpt lat="43.66505" lon="1.40123">
        <ele>125</ele>
        <time>2024-03-21T17:54:53Z</time>
      </trkpt>
      <trkpt lat="43.66506" lon="1.40121">
        <ele>125</ele>
        <time>2024-03-21T17:54:54Z</time>
      </trkpt>
      <trkpt lat="43.66507" lon="1.40118">
        <ele>125</ele>
        <time>2024-03-21T17:54:55Z</time>
      </trkpt>
      <trkpt lat="43.66509" lon="1.40115">
        <ele>125</ele>
        <time>2024-03-21T17:54:56Z</time>
      </trkpt>
      <trkpt lat="43.6651" lon="1.40112">
        <ele>125</ele>
        <time>2024-03-21T17:54:57Z</time>
      </trkpt>
      <trkpt lat="43.66512" lon="1.4011">
        <ele>125</ele>
        <time>2024-03-21T17:54:58Z</time>
      </trkpt>
      <trkpt lat="43.66513" lon="1.40106">
        <ele>124</ele>
        <time>2024-03-21T17:54:59Z</time>
      </trkpt>
      <trkpt lat="43.66515" lon="1.40104">
        <ele>124</ele>
        <time>2024-03-21T17:55:00Z</time>
      </trkpt>
      <trkpt lat="43.66516" lon="1.40101">
        <ele>125</ele>
        <time>2024-03-21T17:55:01Z</time>
      </trkpt>
      <trkpt lat="43.66518" lon="1.40098">
        <ele>125</ele>
        <time>2024-03-21T17:55:02Z</time>
      </trkpt>
      <trkpt lat="43.6652" lon="1.40095">
        <ele>125</ele>
        <time>2024-03-21T17:55:03Z</time>
      </trkpt>
      <trkpt lat="43.66521" lon="1.40092">
        <ele>126</ele>
        <time>2024-03-21T17:55:04Z</time>
      </trkpt>
      <trkpt lat="43.66523" lon="1.4009">
        <ele>126</ele>
        <time>2024-03-21T17:55:05Z</time>
      </trkpt>
      <trkpt lat="43.66524" lon="1.40087">
        <ele>125</ele>
        <time>2024-03-21T17:55:06Z</time>
      </trkpt>
      <trkpt lat="43.66526" lon="1.40084">
        <ele>125</ele>
        <time>2024-03-21T17:55:07Z</time>
      </trkpt>
      <trkpt lat="43.66527" lon="1.40082">
        <ele>125</ele>
        <time>2024-03-21T17:55:08Z</time>
      </trkpt>
      <trkpt lat="43.66528" lon="1.40079">
        <ele>125</ele>
        <time>2024-03-21T17:55:09Z</time>
      </trkpt>
      <trkpt lat="43.66529" lon="1.40075">
        <ele>125</ele>
        <time>2024-03-21T17:55:10Z</time>
      </trkpt>
      <trkpt lat="43.6653" lon="1.40073">
        <ele>125</ele>
        <time>2024-03-21T17:55:11Z</time>
      </trkpt>
      <trkpt lat="43.6653" lon="1.40073">
        <ele>126</ele>
        <time>2024-03-21T17:55:12Z</time>
      </trkpt>
      <trkpt lat="43.66532" lon="1.40069">
        <ele>126</ele>
        <time>2024-03-21T17:55:13Z</time>
      </trkpt>
      <trkpt lat="43.66534" lon="1.40067">
        <ele>126</ele>
        <time>2024-03-21T17:55:14Z</time>
      </trkpt>
      <trkpt lat="43.66536" lon="1.40064">
        <ele>126</ele>
        <time>2024-03-21T17:55:15Z</time>
      </trkpt>
      <trkpt lat="43.66541" lon="1.40062">
        <ele>126</ele>
        <time>2024-03-21T17:55:17Z</time>
      </trkpt>
      <trkpt lat="43.66541" lon="1.40062">
        <ele>126</ele>
        <time>2024-03-21T17:55:18Z</time>
      </trkpt>
      <trkpt lat="43.66541" lon="1.4006">
        <ele>126</ele>
        <time>2024-03-21T17:55:19Z</time>
      </trkpt>
      <trkpt lat="43.66541" lon="1.4006">
        <ele>126</ele>
        <time>2024-03-21T17:55:20Z</time>
      </trkpt>
      <trkpt lat="43.6654" lon="1.40057">
        <ele>126</ele>
        <time>2024-03-21T17:55:21Z</time>
      </trkpt>
      <trkpt lat="43.6654" lon="1.40057">
        <ele>126</ele>
        <time>2024-03-21T17:55:22Z</time>
      </trkpt>
      <trkpt lat="43.66539" lon="1.40053">
        <ele>126</ele>
        <time>2024-03-21T17:55:23Z</time>
      </trkpt>
      <trkpt lat="43.66539" lon="1.40053">
        <ele>126</ele>
        <time>2024-03-21T17:55:24Z</time>
      </trkpt>
      <trkpt lat="43.6654" lon="1.40049">
        <ele>126</ele>
        <time>2024-03-21T17:55:25Z</time>
      </trkpt>
      <trkpt lat="43.6654" lon="1.40049">
        <ele>126</ele>
        <time>2024-03-21T17:55:26Z</time>
      </trkpt>
      <trkpt lat="43.66538" lon="1.40045">
        <ele>126</ele>
        <time>2024-03-21T17:55:27Z</time>
      </trkpt>
      <trkpt lat="43.66538" lon="1.40045">
        <ele>126</ele>
        <time>2024-03-21T17:55:28Z</time>
      </trkpt>
      <trkpt lat="43.66537" lon="1.40041">
        <ele>126</ele>
        <time>2024-03-21T17:55:29Z</time>
      </trkpt>
      <trkpt lat="43.66537" lon="1.40041">
        <ele>126</ele>
        <time>2024-03-21T17:55:30Z</time>
      </trkpt>
      <trkpt lat="43.66535" lon="1.40037">
        <ele>126</ele>
        <time>2024-03-21T17:55:31Z</time>
      </trkpt>
      <trkpt lat="43.66535" lon="1.40037">
        <ele>126</ele>
        <time>2024-03-21T17:55:32Z</time>
      </trkpt>
      <trkpt lat="43.66533" lon="1.40034">
        <ele>126</ele>
        <time>2024-03-21T17:55:33Z</time>
      </trkpt>
      <trkpt lat="43.66533" lon="1.40034">
        <ele>126</ele>
        <time>2024-03-21T17:55:34Z</time>
      </trkpt>
      <trkpt lat="43.66531" lon="1.4003">
        <ele>126</ele>
        <time>2024-03-21T17:55:35Z</time>
      </trkpt>
      <trkpt lat="43.66531" lon="1.4003">
        <ele>125</ele>
        <time>2024-03-21T17:55:36Z</time>
      </trkpt>
      <trkpt lat="43.66529" lon="1.40026">
        <ele>125</ele>
        <time>2024-03-21T17:55:37Z</time>
      </trkpt>
      <trkpt lat="43.66527" lon="1.40024">
        <ele>125</ele>
        <time>2024-03-21T17:55:38Z</time>
      </trkpt>
      <trkpt lat="43.66525" lon="1.40023">
        <ele>125</ele>
        <time>2024-03-21T17:55:39Z</time>
      </trkpt>
      <trkpt lat="43.66523" lon="1.40021">
        <ele>125</ele>
        <time>2024-03-21T17:55:40Z</time>
      </trkpt>
      <trkpt lat="43.66523" lon="1.40021">
        <ele>125</ele>
        <time>2024-03-21T17:55:41Z</time>
      </trkpt>
      <trkpt lat="43.6652" lon="1.40019">
        <ele>125</ele>
        <time>2024-03-21T17:55:42Z</time>
      </trkpt>
      <trkpt lat="43.66519" lon="1.40017">
        <ele>126</ele>
        <time>2024-03-21T17:55:43Z</time>
      </trkpt>
      <trkpt lat="43.66517" lon="1.40016">
        <ele>126</ele>
        <time>2024-03-21T17:55:44Z</time>
      </trkpt>
      <trkpt lat="43.66517" lon="1.40016">
        <ele>126</ele>
        <time>2024-03-21T17:55:45Z</time>
      </trkpt>
      <trkpt lat="43.66514" lon="1.40014">
        <ele>126</ele>
        <time>2024-03-21T17:55:46Z</time>
      </trkpt>
      <trkpt lat="43.66513" lon="1.40014">
        <ele>126</ele>
        <time>2024-03-21T17:55:47Z</time>
      </trkpt>
      <trkpt lat="43.66511" lon="1.40013">
        <ele>126</ele>
        <time>2024-03-21T17:55:48Z</time>
      </trkpt>
      <trkpt lat="43.66509" lon="1.40013">
        <ele>126</ele>
        <time>2024-03-21T17:55:49Z</time>
      </trkpt>
      <trkpt lat="43.66507" lon="1.40012">
        <ele>126</ele>
        <time>2024-03-21T17:55:50Z</time>
      </trkpt>
      <trkpt lat="43.66505" lon="1.40011">
        <ele>126</ele>
        <time>2024-03-21T17:55:51Z</time>
      </trkpt>
      <trkpt lat="43.66503" lon="1.4001">
        <ele>126</ele>
        <time>2024-03-21T17:55:52Z</time>
      </trkpt>
      <trkpt lat="43.66501" lon="1.40009">
        <ele>126</ele>
        <time>2024-03-21T17:55:53Z</time>
      </trkpt>
      <trkpt lat="43.66497" lon="1.40007">
        <ele>126</ele>
        <time>2024-03-21T17:55:54Z</time>
      </trkpt>
      <trkpt lat="43.66496" lon="1.40007">
        <ele>126</ele>
        <time>2024-03-21T17:55:55Z</time>
      </trkpt>
      <trkpt lat="43.66494" lon="1.40006">
        <ele>126</ele>
        <time>2024-03-21T17:55:56Z</time>
      </trkpt>
      <trkpt lat="43.66492" lon="1.40005">
        <ele>126</ele>
        <time>2024-03-21T17:55:57Z</time>
      </trkpt>
      <trkpt lat="43.6649" lon="1.40004">
        <ele>126</ele>
        <time>2024-03-21T17:55:58Z</time>
      </trkpt>
      <trkpt lat="43.66487" lon="1.40003">
        <ele>126</ele>
        <time>2024-03-21T17:55:59Z</time>
      </trkpt>
      <trkpt lat="43.66485" lon="1.40001">
        <ele>126</ele>
        <time>2024-03-21T17:56:00Z</time>
      </trkpt>
      <trkpt lat="43.66483" lon="1.4">
        <ele>126</ele>
        <time>2024-03-21T17:56:01Z</time>
      </trkpt>
      <trkpt lat="43.66482" lon="1.39998">
        <ele>126</ele>
        <time>2024-03-21T17:56:02Z</time>
      </trkpt>
      <trkpt lat="43.66482" lon="1.39998">
        <ele>126</ele>
        <time>2024-03-21T17:56:03Z</time>
      </trkpt>
      <trkpt lat="43.66479" lon="1.39995">
        <ele>126</ele>
        <time>2024-03-21T17:56:04Z</time>
      </trkpt>
      <trkpt lat="43.66479" lon="1.39995">
        <ele>126</ele>
        <time>2024-03-21T17:56:05Z</time>
      </trkpt>
      <trkpt lat="43.66476" lon="1.39992">
        <ele>126</ele>
        <time>2024-03-21T17:56:06Z</time>
      </trkpt>
      <trkpt lat="43.66475" lon="1.3999">
        <ele>126</ele>
        <time>2024-03-21T17:56:07Z</time>
      </trkpt>
      <trkpt lat="43.66473" lon="1.39988">
        <ele>125</ele>
        <time>2024-03-21T17:56:08Z</time>
      </trkpt>
      <trkpt lat="43.66472" lon="1.39985">
        <ele>126</ele>
        <time>2024-03-21T17:56:09Z</time>
      </trkpt>
      <trkpt lat="43.6647" lon="1.39983">
        <ele>126</ele>
        <time>2024-03-21T17:56:10Z</time>
      </trkpt>
      <trkpt lat="43.66468" lon="1.3998">
        <ele>125</ele>
        <time>2024-03-21T17:56:11Z</time>
      </trkpt>
      <trkpt lat="43.66467" lon="1.39978">
        <ele>125</ele>
        <time>2024-03-21T17:56:12Z</time>
      </trkpt>
      <trkpt lat="43.66466" lon="1.39974">
        <ele>125</ele>
        <time>2024-03-21T17:56:13Z</time>
      </trkpt>
      <trkpt lat="43.66465" lon="1.39973">
        <ele>125</ele>
        <time>2024-03-21T17:56:14Z</time>
      </trkpt>
      <trkpt lat="43.66464" lon="1.39971">
        <ele>125</ele>
        <time>2024-03-21T17:56:15Z</time>
      </trkpt>
      <trkpt lat="43.66464" lon="1.39971">
        <ele>125</ele>
        <time>2024-03-21T17:56:16Z</time>
      </trkpt>
      <trkpt lat="43.66462" lon="1.39967">
        <ele>125</ele>
        <time>2024-03-21T17:56:17Z</time>
      </trkpt>
      <trkpt lat="43.66462" lon="1.39967">
        <ele>126</ele>
        <time>2024-03-21T17:56:18Z</time>
      </trkpt>
      <trkpt lat="43.6646" lon="1.39962">
        <ele>126</ele>
        <time>2024-03-21T17:56:19Z</time>
      </trkpt>
      <trkpt lat="43.66459" lon="1.3996">
        <ele>126</ele>
        <time>2024-03-21T17:56:20Z</time>
      </trkpt>
      <trkpt lat="43.66458" lon="1.39957">
        <ele>126</ele>
        <time>2024-03-21T17:56:21Z</time>
      </trkpt>
      <trkpt lat="43.66456" lon="1.39955">
        <ele>126</ele>
        <time>2024-03-21T17:56:22Z</time>
      </trkpt>
      <trkpt lat="43.66455" lon="1.39953">
        <ele>126</ele>
        <time>2024-03-21T17:56:23Z</time>
      </trkpt>
      <trkpt lat="43.66454" lon="1.3995">
        <ele>126</ele>
        <time>2024-03-21T17:56:24Z</time>
      </trkpt>
      <trkpt lat="43.66453" lon="1.39946">
        <ele>126</ele>
        <time>2024-03-21T17:56:25Z</time>
      </trkpt>
      <trkpt lat="43.66452" lon="1.39944">
        <ele>126</ele>
        <time>2024-03-21T17:56:26Z</time>
      </trkpt>
      <trkpt lat="43.66451" lon="1.39941">
        <ele>126</ele>
        <time>2024-03-21T17:56:27Z</time>
      </trkpt>
      <trkpt lat="43.6645" lon="1.39939">
        <ele>126</ele>
        <time>2024-03-21T17:56:28Z</time>
      </trkpt>
      <trkpt lat="43.66448" lon="1.39936">
        <ele>126</ele>
        <time>2024-03-21T17:56:29Z</time>
      </trkpt>
      <trkpt lat="43.66447" lon="1.39933">
        <ele>126</ele>
        <time>2024-03-21T17:56:30Z</time>
      </trkpt>
      <trkpt lat="43.66446" lon="1.3993">
        <ele>126</ele>
        <time>2024-03-21T17:56:31Z</time>
      </trkpt>
      <trkpt lat="43.66444" lon="1.39926">
        <ele>126</ele>
        <time>2024-03-21T17:56:32Z</time>
      </trkpt>
      <trkpt lat="43.66443" lon="1.39925">
        <ele>126</ele>
        <time>2024-03-21T17:56:33Z</time>
      </trkpt>
      <trkpt lat="43.66441" lon="1.39921">
        <ele>126</ele>
        <time>2024-03-21T17:56:34Z</time>
      </trkpt>
      <trkpt lat="43.66441" lon="1.3992">
        <ele>126</ele>
        <time>2024-03-21T17:56:35Z</time>
      </trkpt>
      <trkpt lat="43.6644" lon="1.39917">
        <ele>126</ele>
        <time>2024-03-21T17:56:36Z</time>
      </trkpt>
      <trkpt lat="43.66438" lon="1.39915">
        <ele>126</ele>
        <time>2024-03-21T17:56:37Z</time>
      </trkpt>
      <trkpt lat="43.66437" lon="1.39913">
        <ele>126</ele>
        <time>2024-03-21T17:56:38Z</time>
      </trkpt>
      <trkpt lat="43.66436" lon="1.3991">
        <ele>126</ele>
        <time>2024-03-21T17:56:39Z</time>
      </trkpt>
      <trkpt lat="43.66435" lon="1.39907">
        <ele>126</ele>
        <time>2024-03-21T17:56:40Z</time>
      </trkpt>
      <trkpt lat="43.66434" lon="1.39904">
        <ele>126</ele>
        <time>2024-03-21T17:56:41Z</time>
      </trkpt>
      <trkpt lat="43.66432" lon="1.39901">
        <ele>126</ele>
        <time>2024-03-21T17:56:42Z</time>
      </trkpt>
      <trkpt lat="43.66431" lon="1.39899">
        <ele>126</ele>
        <time>2024-03-21T17:56:43Z</time>
      </trkpt>
      <trkpt lat="43.66429" lon="1.39896">
        <ele>126</ele>
        <time>2024-03-21T17:56:44Z</time>
      </trkpt>
      <trkpt lat="43.66428" lon="1.39893">
        <ele>126</ele>
        <time>2024-03-21T17:56:45Z</time>
      </trkpt>
      <trkpt lat="43.66427" lon="1.3989">
        <ele>126</ele>
        <time>2024-03-21T17:56:46Z</time>
      </trkpt>
      <trkpt lat="43.66425" lon="1.39887">
        <ele>126</ele>
        <time>2024-03-21T17:56:47Z</time>
      </trkpt>
      <trkpt lat="43.66423" lon="1.39883">
        <ele>126</ele>
        <time>2024-03-21T17:56:48Z</time>
      </trkpt>
      <trkpt lat="43.66421" lon="1.39879">
        <ele>126</ele>
        <time>2024-03-21T17:56:49Z</time>
      </trkpt>
      <trkpt lat="43.6642" lon="1.39876">
        <ele>126</ele>
        <time>2024-03-21T17:56:50Z</time>
      </trkpt>
      <trkpt lat="43.66417" lon="1.39871">
        <ele>126</ele>
        <time>2024-03-21T17:56:51Z</time>
      </trkpt>
      <trkpt lat="43.66417" lon="1.39869">
        <ele>126</ele>
        <time>2024-03-21T17:56:52Z</time>
      </trkpt>
      <trkpt lat="43.66415" lon="1.39866">
        <ele>126</ele>
        <time>2024-03-21T17:56:53Z</time>
      </trkpt>
      <trkpt lat="43.66414" lon="1.39862">
        <ele>126</ele>
        <time>2024-03-21T17:56:54Z</time>
      </trkpt>
      <trkpt lat="43.66413" lon="1.3986">
        <ele>126</ele>
        <time>2024-03-21T17:56:55Z</time>
      </trkpt>
      <trkpt lat="43.66412" lon="1.39857">
        <ele>126</ele>
        <time>2024-03-21T17:56:56Z</time>
      </trkpt>
      <trkpt lat="43.66412" lon="1.39855">
        <ele>126</ele>
        <time>2024-03-21T17:56:57Z</time>
      </trkpt>
      <trkpt lat="43.66411" lon="1.39852">
        <ele>126</ele>
        <time>2024-03-21T17:56:58Z</time>
      </trkpt>
      <trkpt lat="43.66411" lon="1.39848">
        <ele>127</ele>
        <time>2024-03-21T17:56:59Z</time>
      </trkpt>
      <trkpt lat="43.6641" lon="1.39845">
        <ele>127</ele>
        <time>2024-03-21T17:57:00Z</time>
      </trkpt>
      <trkpt lat="43.6641" lon="1.39841">
        <ele>127</ele>
        <time>2024-03-21T17:57:01Z</time>
      </trkpt>
      <trkpt lat="43.66409" lon="1.39838">
        <ele>127</ele>
        <time>2024-03-21T17:57:02Z</time>
      </trkpt>
      <trkpt lat="43.66408" lon="1.39835">
        <ele>127</ele>
        <time>2024-03-21T17:57:03Z</time>
      </trkpt>
      <trkpt lat="43.66408" lon="1.39832">
        <ele>127</ele>
        <time>2024-03-21T17:57:04Z</time>
      </trkpt>
      <trkpt lat="43.66407" lon="1.3983">
        <ele>127</ele>
        <time>2024-03-21T17:57:05Z</time>
      </trkpt>
      <trkpt lat="43.66407" lon="1.3983">
        <ele>127</ele>
        <time>2024-03-21T17:57:06Z</time>
      </trkpt>
      <trkpt lat="43.66405" lon="1.39826">
        <ele>127</ele>
        <time>2024-03-21T17:57:07Z</time>
      </trkpt>
      <trkpt lat="43.66404" lon="1.39824">
        <ele>127</ele>
        <time>2024-03-21T17:57:08Z</time>
      </trkpt>
      <trkpt lat="43.66403" lon="1.39821">
        <ele>126</ele>
        <time>2024-03-21T17:57:09Z</time>
      </trkpt>
      <trkpt lat="43.664" lon="1.39817">
        <ele>126</ele>
        <time>2024-03-21T17:57:10Z</time>
      </trkpt>
      <trkpt lat="43.66399" lon="1.39816">
        <ele>126</ele>
        <time>2024-03-21T17:57:11Z</time>
      </trkpt>
      <trkpt lat="43.66398" lon="1.39813">
        <ele>126</ele>
        <time>2024-03-21T17:57:12Z</time>
      </trkpt>
      <trkpt lat="43.66396" lon="1.39811">
        <ele>126</ele>
        <time>2024-03-21T17:57:13Z</time>
      </trkpt>
      <trkpt lat="43.66394" lon="1.39809">
        <ele>126</ele>
        <time>2024-03-21T17:57:14Z</time>
      </trkpt>
      <trkpt lat="43.66392" lon="1.39805">
        <ele>126</ele>
        <time>2024-03-21T17:57:15Z</time>
      </trkpt>
      <trkpt lat="43.66391" lon="1.39804">
        <ele>127</ele>
        <time>2024-03-21T17:57:16Z</time>
      </trkpt>
      <trkpt lat="43.6639" lon="1.39801">
        <ele>127</ele>
        <time>2024-03-21T17:57:17Z</time>
      </trkpt>
      <trkpt lat="43.66388" lon="1.39799">
        <ele>127</ele>
        <time>2024-03-21T17:57:18Z</time>
      </trkpt>
      <trkpt lat="43.66386" lon="1.39796">
        <ele>127</ele>
        <time>2024-03-21T17:57:19Z</time>
      </trkpt>
      <trkpt lat="43.66385" lon="1.39794">
        <ele>127</ele>
        <time>2024-03-21T17:57:20Z</time>
      </trkpt>
      <trkpt lat="43.66385" lon="1.39794">
        <ele>127</ele>
        <time>2024-03-21T17:57:21Z</time>
      </trkpt>
      <trkpt lat="43.66382" lon="1.39791">
        <ele>127</ele>
        <time>2024-03-21T17:57:22Z</time>
      </trkpt>
      <trkpt lat="43.6638" lon="1.3979">
        <ele>127</ele>
        <time>2024-03-21T17:57:23Z</time>
      </trkpt>
      <trkpt lat="43.66378" lon="1.3979">
        <ele>127</ele>
        <time>2024-03-21T17:57:24Z</time>
      </trkpt>
      <trkpt lat="43.66376" lon="1.39789">
        <ele>127</ele>
        <time>2024-03-21T17:57:25Z</time>
      </trkpt>
      <trkpt lat="43.66376" lon="1.39789">
        <ele>127</ele>
        <time>2024-03-21T17:57:26Z</time>
      </trkpt>
      <trkpt lat="43.66374" lon="1.3979">
        <ele>127</ele>
        <time>2024-03-21T17:57:27Z</time>
      </trkpt>
      <trkpt lat="43.66372" lon="1.39791">
        <ele>127</ele>
        <time>2024-03-21T17:57:28Z</time>
      </trkpt>
      <trkpt lat="43.66371" lon="1.39792">
        <ele>127</ele>
        <time>2024-03-21T17:57:29Z</time>
      </trkpt>
      <trkpt lat="43.66369" lon="1.39793">
        <ele>127</ele>
        <time>2024-03-21T17:57:30Z</time>
      </trkpt>
      <trkpt lat="43.66367" lon="1.39794">
        <ele>127</ele>
        <time>2024-03-21T17:57:31Z</time>
      </trkpt>
      <trkpt lat="43.66365" lon="1.39795">
        <ele>127</ele>
        <time>2024-03-21T17:57:32Z</time>
      </trkpt>
      <trkpt lat="43.66363" lon="1.39795">
        <ele>127</ele>
        <time>2024-03-21T17:57:33Z</time>
      </trkpt>
      <trkpt lat="43.6636" lon="1.39795">
        <ele>127</ele>
        <time>2024-03-21T17:57:34Z</time>
      </trkpt>
      <trkpt lat="43.66358" lon="1.39796">
        <ele>127</ele>
        <time>2024-03-21T17:57:35Z</time>
      </trkpt>
      <trkpt lat="43.66356" lon="1.39796">
        <ele>127</ele>
        <time>2024-03-21T17:57:36Z</time>
      </trkpt>
      <trkpt lat="43.66353" lon="1.39796">
        <ele>127</ele>
        <time>2024-03-21T17:57:37Z</time>
      </trkpt>
      <trkpt lat="43.66351" lon="1.39796">
        <ele>127</ele>
        <time>2024-03-21T17:57:38Z</time>
      </trkpt>
      <trkpt lat="43.66349" lon="1.39795">
        <ele>127</ele>
        <time>2024-03-21T17:57:39Z</time>
      </trkpt>
      <trkpt lat="43.66345" lon="1.39793">
        <ele>127</ele>
        <time>2024-03-21T17:57:40Z</time>
      </trkpt>
      <trkpt lat="43.66344" lon="1.39792">
        <ele>127</ele>
        <time>2024-03-21T17:57:41Z</time>
      </trkpt>
      <trkpt lat="43.66343" lon="1.39789">
        <ele>127</ele>
        <time>2024-03-21T17:57:42Z</time>
      </trkpt>
      <trkpt lat="43.66341" lon="1.39787">
        <ele>127</ele>
        <time>2024-03-21T17:57:43Z</time>
      </trkpt>
      <trkpt lat="43.6634" lon="1.39784">
        <ele>127</ele>
        <time>2024-03-21T17:57:44Z</time>
      </trkpt>
      <trkpt lat="43.66339" lon="1.39781">
        <ele>127</ele>
        <time>2024-03-21T17:57:45Z</time>
      </trkpt>
      <trkpt lat="43.66338" lon="1.39778">
        <ele>127</ele>
        <time>2024-03-21T17:57:46Z</time>
      </trkpt>
      <trkpt lat="43.66338" lon="1.39775">
        <ele>127</ele>
        <time>2024-03-21T17:57:47Z</time>
      </trkpt>
      <trkpt lat="43.66337" lon="1.39769">
        <ele>127</ele>
        <time>2024-03-21T17:57:48Z</time>
      </trkpt>
      <trkpt lat="43.66337" lon="1.39767">
        <ele>127</ele>
        <time>2024-03-21T17:57:49Z</time>
      </trkpt>
      <trkpt lat="43.66336" lon="1.39764">
        <ele>127</ele>
        <time>2024-03-21T17:57:50Z</time>
      </trkpt>
      <trkpt lat="43.66335" lon="1.3976">
        <ele>127</ele>
        <time>2024-03-21T17:57:51Z</time>
      </trkpt>
      <trkpt lat="43.66335" lon="1.39757">
        <ele>127</ele>
        <time>2024-03-21T17:57:52Z</time>
      </trkpt>
      <trkpt lat="43.66334" lon="1.39754">
        <ele>127</ele>
        <time>2024-03-21T17:57:53Z</time>
      </trkpt>
      <trkpt lat="43.66333" lon="1.3975">
        <ele>127</ele>
        <time>2024-03-21T17:57:54Z</time>
      </trkpt>
      <trkpt lat="43.66332" lon="1.39747">
        <ele>127</ele>
        <time>2024-03-21T17:57:55Z</time>
      </trkpt>
      <trkpt lat="43.66332" lon="1.39744">
        <ele>127</ele>
        <time>2024-03-21T17:57:56Z</time>
      </trkpt>
      <trkpt lat="43.66331" lon="1.3974">
        <ele>127</ele>
        <time>2024-03-21T17:57:57Z</time>
      </trkpt>
      <trkpt lat="43.6633" lon="1.39737">
        <ele>127</ele>
        <time>2024-03-21T17:57:58Z</time>
      </trkpt>
      <trkpt lat="43.66329" lon="1.39732">
        <ele>127</ele>
        <time>2024-03-21T17:57:59Z</time>
      </trkpt>
      <trkpt lat="43.66328" lon="1.3973">
        <ele>127</ele>
        <time>2024-03-21T17:58:00Z</time>
      </trkpt>
      <trkpt lat="43.66328" lon="1.39727">
        <ele>127</ele>
        <time>2024-03-21T17:58:01Z</time>
      </trkpt>
      <trkpt lat="43.66327" lon="1.39723">
        <ele>127</ele>
        <time>2024-03-21T17:58:02Z</time>
      </trkpt>
      <trkpt lat="43.66326" lon="1.3972">
        <ele>127</ele>
        <time>2024-03-21T17:58:03Z</time>
      </trkpt>
      <trkpt lat="43.66326" lon="1.39717">
        <ele>127</ele>
        <time>2024-03-21T17:58:04Z</time>
      </trkpt>
      <trkpt lat="43.66325" lon="1.39714">
        <ele>127</ele>
        <time>2024-03-21T17:58:05Z</time>
      </trkpt>
      <trkpt lat="43.66324" lon="1.39711">
        <ele>127</ele>
        <time>2024-03-21T17:58:06Z</time>
      </trkpt>
      <trkpt lat="43.66323" lon="1.39705">
        <ele>127</ele>
        <time>2024-03-21T17:58:07Z</time>
      </trkpt>
      <trkpt lat="43.66323" lon="1.39704">
        <ele>127</ele>
        <time>2024-03-21T17:58:08Z</time>
      </trkpt>
      <trkpt lat="43.66322" lon="1.397">
        <ele>127</ele>
        <time>2024-03-21T17:58:09Z</time>
      </trkpt>
      <trkpt lat="43.66321" lon="1.39695">
        <ele>127</ele>
        <time>2024-03-21T17:58:10Z</time>
      </trkpt>
      <trkpt lat="43.6632" lon="1.39694">
        <ele>127</ele>
        <time>2024-03-21T17:58:11Z</time>
      </trkpt>
      <trkpt lat="43.66319" lon="1.39691">
        <ele>127</ele>
        <time>2024-03-21T17:58:12Z</time>
      </trkpt>
      <trkpt lat="43.66318" lon="1.39687">
        <ele>127</ele>
        <time>2024-03-21T17:58:13Z</time>
      </trkpt>
      <trkpt lat="43.66318" lon="1.39684">
        <ele>127</ele>
        <time>2024-03-21T17:58:14Z</time>
      </trkpt>
      <trkpt lat="43.66317" lon="1.39681">
        <ele>127</ele>
        <time>2024-03-21T17:58:15Z</time>
      </trkpt>
      <trkpt lat="43.66315" lon="1.39677">
        <ele>127</ele>
        <time>2024-03-21T17:58:16Z</time>
      </trkpt>
      <trkpt lat="43.66315" lon="1.39674">
        <ele>127</ele>
        <time>2024-03-21T17:58:17Z</time>
      </trkpt>
      <trkpt lat="43.66313" lon="1.39671">
        <ele>127</ele>
        <time>2024-03-21T17:58:18Z</time>
      </trkpt>
      <trkpt lat="43.66312" lon="1.39668">
        <ele>127</ele>
        <time>2024-03-21T17:58:19Z</time>
      </trkpt>
      <trkpt lat="43.66311" lon="1.39665">
        <ele>127</ele>
        <time>2024-03-21T17:58:20Z</time>
      </trkpt>
      <trkpt lat="43.66311" lon="1.39662">
        <ele>127</ele>
        <time>2024-03-21T17:58:21Z</time>
      </trkpt>
      <trkpt lat="43.6631" lon="1.39659">
        <ele>127</ele>
        <time>2024-03-21T17:58:22Z</time>
      </trkpt>
      <trkpt lat="43.66309" lon="1.39656">
        <ele>127</ele>
        <time>2024-03-21T17:58:23Z</time>
      </trkpt>
      <trkpt lat="43.66309" lon="1.39653">
        <ele>127</ele>
        <time>2024-03-21T17:58:24Z</time>
      </trkpt>
      <trkpt lat="43.66308" lon="1.39651">
        <ele>127</ele>
        <time>2024-03-21T17:58:25Z</time>
      </trkpt>
      <trkpt lat="43.66308" lon="1.39646">
        <ele>127</ele>
        <time>2024-03-21T17:58:26Z</time>
      </trkpt>
      <trkpt lat="43.66307" lon="1.39645">
        <ele>127</ele>
        <time>2024-03-21T17:58:27Z</time>
      </trkpt>
      <trkpt lat="43.66307" lon="1.39642">
        <ele>127</ele>
        <time>2024-03-21T17:58:28Z</time>
      </trkpt>
      <trkpt lat="43.66306" lon="1.39639">
        <ele>127</ele>
        <time>2024-03-21T17:58:29Z</time>
      </trkpt>
      <trkpt lat="43.66305" lon="1.39635">
        <ele>127</ele>
        <time>2024-03-21T17:58:30Z</time>
      </trkpt>
      <trkpt lat="43.66305" lon="1.39632">
        <ele>127</ele>
        <time>2024-03-21T17:58:31Z</time>
      </trkpt>
      <trkpt lat="43.66304" lon="1.39628">
        <ele>127</ele>
        <time>2024-03-21T17:58:32Z</time>
      </trkpt>
      <trkpt lat="43.66304" lon="1.39625">
        <ele>128</ele>
        <time>2024-03-21T17:58:33Z</time>
      </trkpt>
      <trkpt lat="43.66303" lon="1.39622">
        <ele>128</ele>
        <time>2024-03-21T17:58:34Z</time>
      </trkpt>
      <trkpt lat="43.66303" lon="1.39619">
        <ele>128</ele>
        <time>2024-03-21T17:58:35Z</time>
      </trkpt>
      <trkpt lat="43.66302" lon="1.39616">
        <ele>128</ele>
        <time>2024-03-21T17:58:36Z</time>
      </trkpt>
      <trkpt lat="43.66301" lon="1.39614">
        <ele>128</ele>
        <time>2024-03-21T17:58:37Z</time>
      </trkpt>
      <trkpt lat="43.663" lon="1.39611">
        <ele>127</ele>
        <time>2024-03-21T17:58:38Z</time>
      </trkpt>
      <trkpt lat="43.66299" lon="1.39609">
        <ele>127</ele>
        <time>2024-03-21T17:58:39Z</time>
      </trkpt>
      <trkpt lat="43.66297" lon="1.39606">
        <ele>127</ele>
        <time>2024-03-21T17:58:40Z</time>
      </trkpt>
      <trkpt lat="43.66295" lon="1.39603">
        <ele>127</ele>
        <time>2024-03-21T17:58:41Z</time>
      </trkpt>
      <trkpt lat="43.66294" lon="1.39601">
        <ele>127</ele>
        <time>2024-03-21T17:58:42Z</time>
      </trkpt>
      <trkpt lat="43.66292" lon="1.39599">
        <ele>127</ele>
        <time>2024-03-21T17:58:43Z</time>
      </trkpt>
      <trkpt lat="43.6629" lon="1.39597">
        <ele>127</ele>
        <time>2024-03-21T17:58:44Z</time>
      </trkpt>
      <trkpt lat="43.66287" lon="1.39594">
        <ele>127</ele>
        <time>2024-03-21T17:58:45Z</time>
      </trkpt>
      <trkpt lat="43.66286" lon="1.39593">
        <ele>127</ele>
        <time>2024-03-21T17:58:46Z</time>
      </trkpt>
      <trkpt lat="43.66284" lon="1.39591">
        <ele>127</ele>
        <time>2024-03-21T17:58:47Z</time>
      </trkpt>
      <trkpt lat="43.66282" lon="1.39589">
        <ele>127</ele>
        <time>2024-03-21T17:58:48Z</time>
      </trkpt>
      <trkpt lat="43.66281" lon="1.39587">
        <ele>127</ele>
        <time>2024-03-21T17:58:49Z</time>
      </trkpt>
      <trkpt lat="43.66279" lon="1.39584">
        <ele>127</ele>
        <time>2024-03-21T17:58:50Z</time>
      </trkpt>
      <trkpt lat="43.66277" lon="1.39582">
        <ele>127</ele>
        <time>2024-03-21T17:58:51Z</time>
      </trkpt>
      <trkpt lat="43.66275" lon="1.39579">
        <ele>127</ele>
        <time>2024-03-21T17:58:52Z</time>
      </trkpt>
      <trkpt lat="43.66274" lon="1.39577">
        <ele>127</ele>
        <time>2024-03-21T17:58:53Z</time>
      </trkpt>
      <trkpt lat="43.66272" lon="1.39574">
        <ele>127</ele>
        <time>2024-03-21T17:58:54Z</time>
      </trkpt>
      <trkpt lat="43.66271" lon="1.39572">
        <ele>127</ele>
        <time>2024-03-21T17:58:55Z</time>
      </trkpt>
      <trkpt lat="43.66271" lon="1.39572">
        <ele>126</ele>
        <time>2024-03-21T17:58:56Z</time>
      </trkpt>
      <trkpt lat="43.66269" lon="1.39567">
        <ele>126</ele>
        <time>2024-03-21T17:58:57Z</time>
      </trkpt>
      <trkpt lat="43.66269" lon="1.39565">
        <ele>126</ele>
        <time>2024-03-21T17:58:58Z</time>
      </trkpt>
      <trkpt lat="43.66269" lon="1.39562">
        <ele>126</ele>
        <time>2024-03-21T17:58:59Z</time>
      </trkpt>
      <trkpt lat="43.66269" lon="1.39559">
        <ele>126</ele>
        <time>2024-03-21T17:59:00Z</time>
      </trkpt>
      <trkpt lat="43.66269" lon="1.39555">
        <ele>126</ele>
        <time>2024-03-21T17:59:01Z</time>
      </trkpt>
      <trkpt lat="43.6627" lon="1.39552">
        <ele>126</ele>
        <time>2024-03-21T17:59:02Z</time>
      </trkpt>
      <trkpt lat="43.66271" lon="1.39548">
        <ele>126</ele>
        <time>2024-03-21T17:59:03Z</time>
      </trkpt>
      <trkpt lat="43.66272" lon="1.39545">
        <ele>126</ele>
        <time>2024-03-21T17:59:04Z</time>
      </trkpt>
      <trkpt lat="43.66273" lon="1.39542">
        <ele>127</ele>
        <time>2024-03-21T17:59:05Z</time>
      </trkpt>
      <trkpt lat="43.66275" lon="1.39538">
        <ele>127</ele>
        <time>2024-03-21T17:59:06Z</time>
      </trkpt>
      <trkpt lat="43.66276" lon="1.39534">
        <ele>127</ele>
        <time>2024-03-21T17:59:07Z</time>
      </trkpt>
      <trkpt lat="43.66277" lon="1.3953">
        <ele>127</ele>
        <time>2024-03-21T17:59:08Z</time>
      </trkpt>
      <trkpt lat="43.66279" lon="1.39527">
        <ele>127</ele>
        <time>2024-03-21T17:59:09Z</time>
      </trkpt>
      <trkpt lat="43.6628" lon="1.39524">
        <ele>127</ele>
        <time>2024-03-21T17:59:10Z</time>
      </trkpt>
      <trkpt lat="43.66282" lon="1.39522">
        <ele>126</ele>
        <time>2024-03-21T17:59:11Z</time>
      </trkpt>
      <trkpt lat="43.66284" lon="1.39519">
        <ele>126</ele>
        <time>2024-03-21T17:59:12Z</time>
      </trkpt>
      <trkpt lat="43.66286" lon="1.39516">
        <ele>127</ele>
        <time>2024-03-21T17:59:13Z</time>
      </trkpt>
      <trkpt lat="43.66287" lon="1.39513">
        <ele>127</ele>
        <time>2024-03-21T17:59:14Z</time>
      </trkpt>
      <trkpt lat="43.66288" lon="1.3951">
        <ele>127</ele>
        <time>2024-03-21T17:59:15Z</time>
      </trkpt>
      <trkpt lat="43.66289" lon="1.39506">
        <ele>127</ele>
        <time>2024-03-21T17:59:16Z</time>
      </trkpt>
      <trkpt lat="43.6629" lon="1.39503">
        <ele>127</ele>
        <time>2024-03-21T17:59:17Z</time>
      </trkpt>
      <trkpt lat="43.66291" lon="1.39501">
        <ele>127</ele>
        <time>2024-03-21T17:59:18Z</time>
      </trkpt>
      <trkpt lat="43.66292" lon="1.39498">
        <ele>127</ele>
        <time>2024-03-21T17:59:19Z</time>
      </trkpt>
      <trkpt lat="43.66293" lon="1.39495">
        <ele>127</ele>
        <time>2024-03-21T17:59:20Z</time>
      </trkpt>
      <trkpt lat="43.66295" lon="1.39491">
        <ele>127</ele>
        <time>2024-03-21T17:59:21Z</time>
      </trkpt>
      <trkpt lat="43.66295" lon="1.3949">
        <ele>127</ele>
        <time>2024-03-21T17:59:22Z</time>
      </trkpt>
      <trkpt lat="43.66297" lon="1.39486">
        <ele>127</ele>
        <time>2024-03-21T17:59:23Z</time>
      </trkpt>
      <trkpt lat="43.66298" lon="1.39485">
        <ele>127</ele>
        <time>2024-03-21T17:59:24Z</time>
      </trkpt>
      <trkpt lat="43.66298" lon="1.39482">
        <ele>127</ele>
        <time>2024-03-21T17:59:25Z</time>
      </trkpt>
      <trkpt lat="43.66298" lon="1.39479">
        <ele>127</ele>
        <time>2024-03-21T17:59:26Z</time>
      </trkpt>
      <trkpt lat="43.66298" lon="1.39476">
        <ele>127</ele>
        <time>2024-03-21T17:59:27Z</time>
      </trkpt>
      <trkpt lat="43.66299" lon="1.39473">
        <ele>127</ele>
        <time>2024-03-21T17:59:28Z</time>
      </trkpt>
      <trkpt lat="43.663" lon="1.3947">
        <ele>127</ele>
        <time>2024-03-21T17:59:29Z</time>
      </trkpt>
      <trkpt lat="43.663" lon="1.39467">
        <ele>127</ele>
        <time>2024-03-21T17:59:30Z</time>
      </trkpt>
      <trkpt lat="43.66302" lon="1.39465">
        <ele>127</ele>
        <time>2024-03-21T17:59:31Z</time>
      </trkpt>
      <trkpt lat="43.66303" lon="1.39463">
        <ele>127</ele>
        <time>2024-03-21T17:59:32Z</time>
      </trkpt>
      <trkpt lat="43.66303" lon="1.39459">
        <ele>127</ele>
        <time>2024-03-21T17:59:33Z</time>
      </trkpt>
      <trkpt lat="43.66303" lon="1.39456">
        <ele>128</ele>
        <time>2024-03-21T17:59:34Z</time>
      </trkpt>
      <trkpt lat="43.66304" lon="1.39452">
        <ele>128</ele>
        <time>2024-03-21T17:59:35Z</time>
      </trkpt>
      <trkpt lat="43.66304" lon="1.39449">
        <ele>128</ele>
        <time>2024-03-21T17:59:36Z</time>
      </trkpt>
      <trkpt lat="43.66305" lon="1.39446">
        <ele>128</ele>
        <time>2024-03-21T17:59:37Z</time>
      </trkpt>
      <trkpt lat="43.66306" lon="1.39443">
        <ele>127</ele>
        <time>2024-03-21T17:59:38Z</time>
      </trkpt>
      <trkpt lat="43.66307" lon="1.3944">
        <ele>127</ele>
        <time>2024-03-21T17:59:39Z</time>
      </trkpt>
      <trkpt lat="43.66308" lon="1.39437">
        <ele>127</ele>
        <time>2024-03-21T17:59:40Z</time>
      </trkpt>
      <trkpt lat="43.66309" lon="1.39434">
        <ele>127</ele>
        <time>2024-03-21T17:59:41Z</time>
      </trkpt>
      <trkpt lat="43.6631" lon="1.39429">
        <ele>127</ele>
        <time>2024-03-21T17:59:42Z</time>
      </trkpt>
      <trkpt lat="43.6631" lon="1.39428">
        <ele>127</ele>
        <time>2024-03-21T17:59:43Z</time>
      </trkpt>
      <trkpt lat="43.66311" lon="1.39424">
        <ele>127</ele>
        <time>2024-03-21T17:59:44Z</time>
      </trkpt>
      <trkpt lat="43.66312" lon="1.39422">
        <ele>127</ele>
        <time>2024-03-21T17:59:45Z</time>
      </trkpt>
      <trkpt lat="43.66313" lon="1.39419">
        <ele>127</ele>
        <time>2024-03-21T17:59:46Z</time>
      </trkpt>
      <trkpt lat="43.66313" lon="1.39416">
        <ele>127</ele>
        <time>2024-03-21T17:59:47Z</time>
      </trkpt>
      <trkpt lat="43.66314" lon="1.39413">
        <ele>127</ele>
        <time>2024-03-21T17:59:48Z</time>
      </trkpt>
      <trkpt lat="43.66315" lon="1.3941">
        <ele>127</ele>
        <time>2024-03-21T17:59:49Z</time>
      </trkpt>
      <trkpt lat="43.66315" lon="1.39407">
        <ele>127</ele>
        <time>2024-03-21T17:59:50Z</time>
      </trkpt>
      <trkpt lat="43.66316" lon="1.39404">
        <ele>127</ele>
        <time>2024-03-21T17:59:51Z</time>
      </trkpt>
      <trkpt lat="43.66316" lon="1.39402">
        <ele>127</ele>
        <time>2024-03-21T17:59:52Z</time>
      </trkpt>
      <trkpt lat="43.66317" lon="1.39399">
        <ele>127</ele>
        <time>2024-03-21T17:59:53Z</time>
      </trkpt>
      <trkpt lat="43.66318" lon="1.39397">
        <ele>127</ele>
        <time>2024-03-21T17:59:54Z</time>
      </trkpt>
      <trkpt lat="43.66318" lon="1.39394">
        <ele>127</ele>
        <time>2024-03-21T17:59:55Z</time>
      </trkpt>
      <trkpt lat="43.66319" lon="1.39391">
        <ele>128</ele>
        <time>2024-03-21T17:59:56Z</time>
      </trkpt>
      <trkpt lat="43.66319" lon="1.39388">
        <ele>128</ele>
        <time>2024-03-21T17:59:57Z</time>
      </trkpt>
      <trkpt lat="43.66319" lon="1.39385">
        <ele>128</ele>
        <time>2024-03-21T17:59:58Z</time>
      </trkpt>
      <trkpt lat="43.66319" lon="1.39381">
        <ele>128</ele>
        <time>2024-03-21T17:59:59Z</time>
      </trkpt>
      <trkpt lat="43.66319" lon="1.39378">
        <ele>128</ele>
        <time>2024-03-21T18:00:00Z</time>
      </trkpt>
      <trkpt lat="43.66318" lon="1.39372">
        <ele>128</ele>
        <time>2024-03-21T18:00:01Z</time>
      </trkpt>
      <trkpt lat="43.66318" lon="1.39371">
        <ele>128</ele>
        <time>2024-03-21T18:00:02Z</time>
      </trkpt>
      <trkpt lat="43.66318" lon="1.39368">
        <ele>128</ele>
        <time>2024-03-21T18:00:03Z</time>
      </trkpt>
      <trkpt lat="43.66317" lon="1.39365">
        <ele>128</ele>
        <time>2024-03-21T18:00:04Z</time>
      </trkpt>
      <trkpt lat="43.66317" lon="1.39361">
        <ele>128</ele>
        <time>2024-03-21T18:00:05Z</time>
      </trkpt>
      <trkpt lat="43.66316" lon="1.39356">
        <ele>128</ele>
        <time>2024-03-21T18:00:06Z</time>
      </trkpt>
      <trkpt lat="43.66316" lon="1.39355">
        <ele>129</ele>
        <time>2024-03-21T18:00:07Z</time>
      </trkpt>
      <trkpt lat="43.66316" lon="1.39352">
        <ele>129</ele>
        <time>2024-03-21T18:00:08Z</time>
      </trkpt>
      <trkpt lat="43.66316" lon="1.39348">
        <ele>129</ele>
        <time>2024-03-21T18:00:09Z</time>
      </trkpt>
      <trkpt lat="43.66316" lon="1.39344">
        <ele>129</ele>
        <time>2024-03-21T18:00:10Z</time>
      </trkpt>
      <trkpt lat="43.66316" lon="1.39341">
        <ele>128</ele>
        <time>2024-03-21T18:00:11Z</time>
      </trkpt>
      <trkpt lat="43.66315" lon="1.39338">
        <ele>128</ele>
        <time>2024-03-21T18:00:12Z</time>
      </trkpt>
      <trkpt lat="43.66315" lon="1.39336">
        <ele>128</ele>
        <time>2024-03-21T18:00:13Z</time>
      </trkpt>
      <trkpt lat="43.66315" lon="1.39332">
        <ele>128</ele>
        <time>2024-03-21T18:00:14Z</time>
      </trkpt>
      <trkpt lat="43.66315" lon="1.39329">
        <ele>128</ele>
        <time>2024-03-21T18:00:15Z</time>
      </trkpt>
      <trkpt lat="43.66314" lon="1.39326">
        <ele>128</ele>
        <time>2024-03-21T18:00:16Z</time>
      </trkpt>
      <trkpt lat="43.66314" lon="1.39323">
        <ele>128</ele>
        <time>2024-03-21T18:00:17Z</time>
      </trkpt>
      <trkpt lat="43.66314" lon="1.39323">
        <ele>128</ele>
        <time>2024-03-21T18:00:18Z</time>
      </trkpt>
      <trkpt lat="43.66314" lon="1.39319">
        <ele>127</ele>
        <time>2024-03-21T18:00:19Z</time>
      </trkpt>
      <trkpt lat="43.66313" lon="1.39316">
        <ele>127</ele>
        <time>2024-03-21T18:00:21Z</time>
      </trkpt>
      <trkpt lat="43.66313" lon="1.39316">
        <ele>127</ele>
        <time>2024-03-21T18:00:22Z</time>
      </trkpt>
      <trkpt lat="43.66312" lon="1.39312">
        <ele>127</ele>
        <time>2024-03-21T18:00:23Z</time>
      </trkpt>
      <trkpt lat="43.66312" lon="1.39312">
        <ele>127</ele>
        <time>2024-03-21T18:00:24Z</time>
      </trkpt>
      <trkpt lat="43.6631" lon="1.3931">
        <ele>127</ele>
        <time>2024-03-21T18:00:25Z</time>
      </trkpt>
      <trkpt lat="43.6631" lon="1.3931">
        <ele>128</ele>
        <time>2024-03-21T18:00:26Z</time>
      </trkpt>
      <trkpt lat="43.66308" lon="1.39307">
        <ele>128</ele>
        <time>2024-03-21T18:00:27Z</time>
      </trkpt>
      <trkpt lat="43.66308" lon="1.39307">
        <ele>128</ele>
        <time>2024-03-21T18:00:28Z</time>
      </trkpt>
      <trkpt lat="43.66308" lon="1.39307">
        <ele>128</ele>
        <time>2024-03-21T18:00:29Z</time>
      </trkpt>
      <trkpt lat="43.66308" lon="1.39307">
        <ele>128</ele>
        <time>2024-03-21T18:00:30Z</time>
      </trkpt>
      <trkpt lat="43.66308" lon="1.39307">
        <ele>128</ele>
        <time>2024-03-21T18:00:31Z</time>
      </trkpt>
      <trkpt lat="43.66308" lon="1.39307">
        <ele>128</ele>
        <time>2024-03-21T18:00:32Z</time>
      </trkpt>
      <trkpt lat="43.66308" lon="1.39307">
        <ele>128</ele>
        <time>2024-03-21T18:00:33Z</time>
      </trkpt>
      <trkpt lat="43.66308" lon="1.39307">
        <ele>128</ele>
        <time>2024-03-21T18:00:34Z</time>
      </trkpt>
      <trkpt lat="43.66308" lon="1.39307">
        <ele>128</ele>
        <time>2024-03-21T18:00:35Z</time>
      </trkpt>
      <trkpt lat="43.66308" lon="1.39307">
        <ele>128</ele>
        <time>2024-03-21T18:00:36Z</time>
      </trkpt>
      <trkpt lat="43.66308" lon="1.39307">
        <ele>128</ele>
        <time>2024-03-21T18:00:37Z</time>
      </trkpt>
      <trkpt lat="43.66308" lon="1.39307">
        <ele>128</ele>
        <time>2024-03-21T18:00:38Z</time>
      </trkpt>
      <trkpt lat="43.66308" lon="1.39307">
        <ele>128</ele>
        <time>2024-03-21T18:00:40Z</time>
      </trkpt>
      <trkpt lat="43.66308" lon="1.39307">
        <ele>128</ele>
        <time>2024-03-21T18:00:41Z</time>
      </trkpt>
      <trkpt lat="43.66308" lon="1.39307">
        <ele>128</ele>
        <time>2024-03-21T18:00:42Z</time>
      </trkpt>
      <trkpt lat="43.66308" lon="1.39307">
        <ele>128</ele>
        <time>2024-03-21T18:00:43Z</time>
      </trkpt>
      <trkpt lat="43.66308" lon="1.39307">
        <ele>128</ele>
        <time>2024-03-21T18:00:44Z</time>
      </trkpt>
      <trkpt lat="43.66308" lon="1.39307">
        <ele>128</ele>
        <time>2024-03-21T18:00:45Z</time>
      </trkpt>
      <trkpt lat="43.66308" lon="1.39307">
        <ele>128</ele>
        <time>2024-03-21T18:00:46Z</time>
      </trkpt>
      <trkpt lat="43.66308" lon="1.39307">
        <ele>128</ele>
        <time>2024-03-21T18:00:47Z</time>
      </trkpt>
      <trkpt lat="43.66308" lon="1.39307">
        <ele>128</ele>
        <time>2024-03-21T18:00:48Z</time>
      </trkpt>
      <trkpt lat="43.66308" lon="1.39307">
        <ele>128</ele>
        <time>2024-03-21T18:00:49Z</time>
      </trkpt>
      <trkpt lat="43.66308" lon="1.39307">
        <ele>128</ele>
        <time>2024-03-21T18:00:50Z</time>
      </trkpt>
      <trkpt lat="43.66308" lon="1.39307">
        <ele>128</ele>
        <time>2024-03-21T18:00:51Z</time>
      </trkpt>
      <trkpt lat="43.66308" lon="1.39307">
        <ele>128</ele>
        <time>2024-03-21T18:00:52Z</time>
      </trkpt>
      <trkpt lat="43.66308" lon="1.39307">
        <ele>128</ele>
        <time>2024-03-21T18:00:53Z</time>
      </trkpt>
      <trkpt lat="43.66308" lon="1.39307">
        <ele>128</ele>
        <time>2024-03-21T18:00:54Z</time>
      </trkpt>
      <trkpt lat="43.66308" lon="1.39307">
        <ele>128</ele>
        <time>2024-03-21T18:00:55Z</time>
      </trkpt>
      <trkpt lat="43.66308" lon="1.39307">
        <ele>128</ele>
        <time>2024-03-21T18:00:56Z</time>
      </trkpt>
      <trkpt lat="43.66308" lon="1.39307">
        <ele>128</ele>
        <time>2024-03-21T18:00:57Z</time>
      </trkpt>
      <trkpt lat="43.66308" lon="1.39307">
        <ele>128</ele>
        <time>2024-03-21T18:00:59Z</time>
      </trkpt>
      <trkpt lat="43.66308" lon="1.39307">
        <ele>128</ele>
        <time>2024-03-21T18:01:00Z</time>
      </trkpt>
      <trkpt lat="43.66308" lon="1.39307">
        <ele>128</ele>
        <time>2024-03-21T18:01:01Z</time>
      </trkpt>
      <trkpt lat="43.66308" lon="1.39307">
        <ele>128</ele>
        <time>2024-03-21T18:01:02Z</time>
      </trkpt>
      <trkpt lat="43.66308" lon="1.39307">
        <ele>128</ele>
        <time>2024-03-21T18:01:03Z</time>
      </trkpt>
      <trkpt lat="43.66308" lon="1.39307">
        <ele>128</ele>
        <time>2024-03-21T18:01:04Z</time>
      </trkpt>
      <trkpt lat="43.66308" lon="1.39307">
        <ele>128</ele>
        <time>2024-03-21T18:01:05Z</time>
      </trkpt>
      <trkpt lat="43.66308" lon="1.39307">
        <ele>128</ele>
        <time>2024-03-21T18:01:06Z</time>
      </trkpt>
      <trkpt lat="43.66308" lon="1.39307">
        <ele>128</ele>
        <time>2024-03-21T18:01:07Z</time>
      </trkpt>
      <trkpt lat="43.66308" lon="1.39307">
        <ele>128</ele>
        <time>2024-03-21T18:01:08Z</time>
      </trkpt>
      <trkpt lat="43.66308" lon="1.39307">
        <ele>128</ele>
        <time>2024-03-21T18:01:09Z</time>
      </trkpt>
      <trkpt lat="43.66308" lon="1.39307">
        <ele>128</ele>
        <time>2024-03-21T18:01:10Z</time>
      </trkpt>
      <trkpt lat="43.66308" lon="1.39307">
        <ele>128</ele>
        <time>2024-03-21T18:01:11Z</time>
      </trkpt>
      <trkpt lat="43.66308" lon="1.39307">
        <ele>128</ele>
        <time>2024-03-21T18:01:12Z</time>
      </trkpt>
      <trkpt lat="43.66308" lon="1.39307">
        <ele>128</ele>
        <time>2024-03-21T18:01:13Z</time>
      </trkpt>
      <trkpt lat="43.66308" lon="1.39307">
        <ele>128</ele>
        <time>2024-03-21T18:01:14Z</time>
      </trkpt>
      <trkpt lat="43.66308" lon="1.39307">
        <ele>128</ele>
        <time>2024-03-21T18:01:15Z</time>
      </trkpt>
      <trkpt lat="43.66308" lon="1.39307">
        <ele>128</ele>
        <time>2024-03-21T18:01:16Z</time>
      </trkpt>
      <trkpt lat="43.66308" lon="1.39307">
        <ele>128</ele>
        <time>2024-03-21T18:01:18Z</time>
      </trkpt>
      <trkpt lat="43.66308" lon="1.39307">
        <ele>128</ele>
        <time>2024-03-21T18:01:19Z</time>
      </trkpt>
      <trkpt lat="43.66308" lon="1.39307">
        <ele>128</ele>
        <time>2024-03-21T18:01:20Z</time>
      </trkpt>
      <trkpt lat="43.66308" lon="1.39307">
        <ele>128</ele>
        <time>2024-03-21T18:01:21Z</time>
      </trkpt>
      <trkpt lat="43.66308" lon="1.39307">
        <ele>128</ele>
        <time>2024-03-21T18:01:22Z</time>
      </trkpt>
      <trkpt lat="43.66308" lon="1.39307">
        <ele>128</ele>
        <time>2024-03-21T18:01:23Z</time>
      </trkpt>
      <trkpt lat="43.66308" lon="1.39307">
        <ele>128</ele>
        <time>2024-03-21T18:01:24Z</time>
      </trkpt>
      <trkpt lat="43.66308" lon="1.39307">
        <ele>128</ele>
        <time>2024-03-21T18:01:25Z</time>
      </trkpt>
      <trkpt lat="43.6631" lon="1.39308">
        <ele>128</ele>
        <time>2024-03-21T18:01:26Z</time>
      </trkpt>
      <trkpt lat="43.6631" lon="1.39308">
        <ele>128</ele>
        <time>2024-03-21T18:01:27Z</time>
      </trkpt>
      <trkpt lat="43.6631" lon="1.39308">
        <ele>128</ele>
        <time>2024-03-21T18:01:28Z</time>
      </trkpt>
      <trkpt lat="43.6631" lon="1.39308">
        <ele>128</ele>
        <time>2024-03-21T18:01:29Z</time>
      </trkpt>
      <trkpt lat="43.66311" lon="1.39305">
        <ele>128</ele>
        <time>2024-03-21T18:01:30Z</time>
      </trkpt>
      <trkpt lat="43.66311" lon="1.39305">
        <ele>128</ele>
        <time>2024-03-21T18:01:31Z</time>
      </trkpt>
      <trkpt lat="43.66312" lon="1.39302">
        <ele>128</ele>
        <time>2024-03-21T18:01:32Z</time>
      </trkpt>
      <trkpt lat="43.66312" lon="1.39302">
        <ele>128</ele>
        <time>2024-03-21T18:01:33Z</time>
      </trkpt>
      <trkpt lat="43.66313" lon="1.393">
        <ele>128</ele>
        <time>2024-03-21T18:01:34Z</time>
      </trkpt>
      <trkpt lat="43.66313" lon="1.393">
        <ele>128</ele>
        <time>2024-03-21T18:01:35Z</time>
      </trkpt>
      <trkpt lat="43.66314" lon="1.39298">
        <ele>128</ele>
        <time>2024-03-21T18:01:37Z</time>
      </trkpt>
      <trkpt lat="43.66314" lon="1.39298">
        <ele>128</ele>
        <time>2024-03-21T18:01:38Z</time>
      </trkpt>
      <trkpt lat="43.66316" lon="1.39296">
        <ele>128</ele>
        <time>2024-03-21T18:01:39Z</time>
      </trkpt>
      <trkpt lat="43.66316" lon="1.39296">
        <ele>128</ele>
        <time>2024-03-21T18:01:40Z</time>
      </trkpt>
      <trkpt lat="43.66318" lon="1.39294">
        <ele>128</ele>
        <time>2024-03-21T18:01:41Z</time>
      </trkpt>
      <trkpt lat="43.66319" lon="1.39293">
        <ele>128</ele>
        <time>2024-03-21T18:01:42Z</time>
      </trkpt>
      <trkpt lat="43.66321" lon="1.39291">
        <ele>128</ele>
        <time>2024-03-21T18:01:43Z</time>
      </trkpt>
      <trkpt lat="43.66323" lon="1.3929">
        <ele>128</ele>
        <time>2024-03-21T18:01:44Z</time>
      </trkpt>
      <trkpt lat="43.66325" lon="1.39288">
        <ele>128</ele>
        <time>2024-03-21T18:01:45Z</time>
      </trkpt>
      <trkpt lat="43.66327" lon="1.39287">
        <ele>128</ele>
        <time>2024-03-21T18:01:46Z</time>
      </trkpt>
      <trkpt lat="43.66329" lon="1.39286">
        <ele>127</ele>
        <time>2024-03-21T18:01:47Z</time>
      </trkpt>
      <trkpt lat="43.66331" lon="1.39284">
        <ele>127</ele>
        <time>2024-03-21T18:01:48Z</time>
      </trkpt>
      <trkpt lat="43.66333" lon="1.39283">
        <ele>127</ele>
        <time>2024-03-21T18:01:49Z</time>
      </trkpt>
      <trkpt lat="43.66335" lon="1.39282">
        <ele>128</ele>
        <time>2024-03-21T18:01:50Z</time>
      </trkpt>
      <trkpt lat="43.66337" lon="1.39281">
        <ele>128</ele>
        <time>2024-03-21T18:01:51Z</time>
      </trkpt>
      <trkpt lat="43.66339" lon="1.3928">
        <ele>128</ele>
        <time>2024-03-21T18:01:52Z</time>
      </trkpt>
      <trkpt lat="43.66342" lon="1.39279">
        <ele>128</ele>
        <time>2024-03-21T18:01:53Z</time>
      </trkpt>
      <trkpt lat="43.66344" lon="1.39278">
        <ele>128</ele>
        <time>2024-03-21T18:01:54Z</time>
      </trkpt>
      <trkpt lat="43.66347" lon="1.39277">
        <ele>128</ele>
        <time>2024-03-21T18:01:55Z</time>
      </trkpt>
      <trkpt lat="43.66348" lon="1.39277">
        <ele>128</ele>
        <time>2024-03-21T18:01:56Z</time>
      </trkpt>
      <trkpt lat="43.6635" lon="1.39275">
        <ele>128</ele>
        <time>2024-03-21T18:01:57Z</time>
      </trkpt>
      <trkpt lat="43.66352" lon="1.39274">
        <ele>128</ele>
        <time>2024-03-21T18:01:58Z</time>
      </trkpt>
      <trkpt lat="43.66354" lon="1.39273">
        <ele>128</ele>
        <time>2024-03-21T18:01:59Z</time>
      </trkpt>
      <trkpt lat="43.66357" lon="1.39274">
        <ele>128</ele>
        <time>2024-03-21T18:02:00Z</time>
      </trkpt>
      <trkpt lat="43.66361" lon="1.39275">
        <ele>128</ele>
        <time>2024-03-21T18:02:01Z</time>
      </trkpt>
      <trkpt lat="43.66362" lon="1.39276">
        <ele>128</ele>
        <time>2024-03-21T18:02:02Z</time>
      </trkpt>
      <trkpt lat="43.66365" lon="1.39276">
        <ele>128</ele>
        <time>2024-03-21T18:02:03Z</time>
      </trkpt>
      <trkpt lat="43.66367" lon="1.39277">
        <ele>128</ele>
        <time>2024-03-21T18:02:04Z</time>
      </trkpt>
      <trkpt lat="43.6637" lon="1.39279">
        <ele>128</ele>
        <time>2024-03-21T18:02:05Z</time>
      </trkpt>
      <trkpt lat="43.66372" lon="1.39281">
        <ele>128</ele>
        <time>2024-03-21T18:02:06Z</time>
      </trkpt>
      <trkpt lat="43.66374" lon="1.39282">
        <ele>128</ele>
        <time>2024-03-21T18:02:07Z</time>
      </trkpt>
      <trkpt lat="43.66376" lon="1.39284">
        <ele>128</ele>
        <time>2024-03-21T18:02:08Z</time>
      </trkpt>
      <trkpt lat="43.66378" lon="1.39287">
        <ele>128</ele>
        <time>2024-03-21T18:02:09Z</time>
      </trkpt>
      <trkpt lat="43.6638" lon="1.39289">
        <ele>128</ele>
        <time>2024-03-21T18:02:10Z</time>
      </trkpt>
      <trkpt lat="43.6638" lon="1.39289">
        <ele>128</ele>
        <time>2024-03-21T18:02:11Z</time>
      </trkpt>
      <trkpt lat="43.66384" lon="1.39291">
        <ele>128</ele>
        <time>2024-03-21T18:02:12Z</time>
      </trkpt>
      <trkpt lat="43.66386" lon="1.39292">
        <ele>128</ele>
        <time>2024-03-21T18:02:13Z</time>
      </trkpt>
      <trkpt lat="43.66389" lon="1.39294">
        <ele>128</ele>
        <time>2024-03-21T18:02:14Z</time>
      </trkpt>
      <trkpt lat="43.6639" lon="1.39295">
        <ele>128</ele>
        <time>2024-03-21T18:02:15Z</time>
      </trkpt>
      <trkpt lat="43.66392" lon="1.39297">
        <ele>128</ele>
        <time>2024-03-21T18:02:16Z</time>
      </trkpt>
      <trkpt lat="43.66394" lon="1.39298">
        <ele>128</ele>
        <time>2024-03-21T18:02:17Z</time>
      </trkpt>
      <trkpt lat="43.66396" lon="1.39299">
        <ele>128</ele>
        <time>2024-03-21T18:02:18Z</time>
      </trkpt>
      <trkpt lat="43.66398" lon="1.39301">
        <ele>128</ele>
        <time>2024-03-21T18:02:19Z</time>
      </trkpt>
      <trkpt lat="43.664" lon="1.39304">
        <ele>128</ele>
        <time>2024-03-21T18:02:20Z</time>
      </trkpt>
      <trkpt lat="43.66402" lon="1.39306">
        <ele>128</ele>
        <time>2024-03-21T18:02:21Z</time>
      </trkpt>
      <trkpt lat="43.66405" lon="1.39308">
        <ele>128</ele>
        <time>2024-03-21T18:02:22Z</time>
      </trkpt>
      <trkpt lat="43.66406" lon="1.39309">
        <ele>128</ele>
        <time>2024-03-21T18:02:23Z</time>
      </trkpt>
      <trkpt lat="43.66408" lon="1.39311">
        <ele>128</ele>
        <time>2024-03-21T18:02:24Z</time>
      </trkpt>
      <trkpt lat="43.6641" lon="1.39312">
        <ele>128</ele>
        <time>2024-03-21T18:02:25Z</time>
      </trkpt>
      <trkpt lat="43.66412" lon="1.39312">
        <ele>128</ele>
        <time>2024-03-21T18:02:26Z</time>
      </trkpt>
      <trkpt lat="43.66414" lon="1.39313">
        <ele>128</ele>
        <time>2024-03-21T18:02:27Z</time>
      </trkpt>
      <trkpt lat="43.66415" lon="1.39313">
        <ele>128</ele>
        <time>2024-03-21T18:02:28Z</time>
      </trkpt>
      <trkpt lat="43.66417" lon="1.39315">
        <ele>128</ele>
        <time>2024-03-21T18:02:29Z</time>
      </trkpt>
      <trkpt lat="43.66419" lon="1.39315">
        <ele>128</ele>
        <time>2024-03-21T18:02:30Z</time>
      </trkpt>
      <trkpt lat="43.66421" lon="1.39316">
        <ele>128</ele>
        <time>2024-03-21T18:02:31Z</time>
      </trkpt>
      <trkpt lat="43.66423" lon="1.39316">
        <ele>128</ele>
        <time>2024-03-21T18:02:32Z</time>
      </trkpt>
      <trkpt lat="43.66427" lon="1.39317">
        <ele>128</ele>
        <time>2024-03-21T18:02:33Z</time>
      </trkpt>
      <trkpt lat="43.66428" lon="1.39317">
        <ele>128</ele>
        <time>2024-03-21T18:02:34Z</time>
      </trkpt>
      <trkpt lat="43.6643" lon="1.39318">
        <ele>128</ele>
        <time>2024-03-21T18:02:35Z</time>
      </trkpt>
      <trkpt lat="43.66433" lon="1.39318">
        <ele>128</ele>
        <time>2024-03-21T18:02:36Z</time>
      </trkpt>
      <trkpt lat="43.66435" lon="1.39319">
        <ele>128</ele>
        <time>2024-03-21T18:02:37Z</time>
      </trkpt>
      <trkpt lat="43.66437" lon="1.39319">
        <ele>128</ele>
        <time>2024-03-21T18:02:38Z</time>
      </trkpt>
      <trkpt lat="43.66439" lon="1.39319">
        <ele>128</ele>
        <time>2024-03-21T18:02:39Z</time>
      </trkpt>
      <trkpt lat="43.66442" lon="1.39319">
        <ele>128</ele>
        <time>2024-03-21T18:02:40Z</time>
      </trkpt>
      <trkpt lat="43.66444" lon="1.3932">
        <ele>128</ele>
        <time>2024-03-21T18:02:41Z</time>
      </trkpt>
      <trkpt lat="43.66446" lon="1.3932">
        <ele>128</ele>
        <time>2024-03-21T18:02:42Z</time>
      </trkpt>
      <trkpt lat="43.66448" lon="1.39321">
        <ele>128</ele>
        <time>2024-03-21T18:02:43Z</time>
      </trkpt>
      <trkpt lat="43.6645" lon="1.3932">
        <ele>128</ele>
        <time>2024-03-21T18:02:44Z</time>
      </trkpt>
      <trkpt lat="43.66453" lon="1.39319">
        <ele>128</ele>
        <time>2024-03-21T18:02:45Z</time>
      </trkpt>
      <trkpt lat="43.66454" lon="1.39319">
        <ele>128</ele>
        <time>2024-03-21T18:02:46Z</time>
      </trkpt>
      <trkpt lat="43.66456" lon="1.39319">
        <ele>128</ele>
        <time>2024-03-21T18:02:47Z</time>
      </trkpt>
      <trkpt lat="43.66458" lon="1.39319">
        <ele>128</ele>
        <time>2024-03-21T18:02:48Z</time>
      </trkpt>
      <trkpt lat="43.66461" lon="1.3932">
        <ele>128</ele>
        <time>2024-03-21T18:02:49Z</time>
      </trkpt>
      <trkpt lat="43.66463" lon="1.39319">
        <ele>128</ele>
        <time>2024-03-21T18:02:50Z</time>
      </trkpt>
      <trkpt lat="43.66465" lon="1.39319">
        <ele>128</ele>
        <time>2024-03-21T18:02:51Z</time>
      </trkpt>
      <trkpt lat="43.66467" lon="1.39318">
        <ele>128</ele>
        <time>2024-03-21T18:02:52Z</time>
      </trkpt>
      <trkpt lat="43.66469" lon="1.39317">
        <ele>128</ele>
        <time>2024-03-21T18:02:53Z</time>
      </trkpt>
      <trkpt lat="43.66472" lon="1.39316">
        <ele>128</ele>
        <time>2024-03-21T18:02:54Z</time>
      </trkpt>
      <trkpt lat="43.66474" lon="1.39315">
        <ele>128</ele>
        <time>2024-03-21T18:02:55Z</time>
      </trkpt>
      <trkpt lat="43.66476" lon="1.39314">
        <ele>128</ele>
        <time>2024-03-21T18:02:56Z</time>
      </trkpt>
      <trkpt lat="43.66478" lon="1.39313">
        <ele>128</ele>
        <time>2024-03-21T18:02:57Z</time>
      </trkpt>
      <trkpt lat="43.66481" lon="1.39312">
        <ele>128</ele>
        <time>2024-03-21T18:02:58Z</time>
      </trkpt>
      <trkpt lat="43.66483" lon="1.39311">
        <ele>128</ele>
        <time>2024-03-21T18:02:59Z</time>
      </trkpt>
      <trkpt lat="43.66485" lon="1.3931">
        <ele>128</ele>
        <time>2024-03-21T18:03:00Z</time>
      </trkpt>
      <trkpt lat="43.66487" lon="1.39308">
        <ele>128</ele>
        <time>2024-03-21T18:03:01Z</time>
      </trkpt>
      <trkpt lat="43.66488" lon="1.39307">
        <ele>128</ele>
        <time>2024-03-21T18:03:02Z</time>
      </trkpt>
      <trkpt lat="43.6649" lon="1.39306">
        <ele>128</ele>
        <time>2024-03-21T18:03:03Z</time>
      </trkpt>
      <trkpt lat="43.66492" lon="1.39305">
        <ele>128</ele>
        <time>2024-03-21T18:03:04Z</time>
      </trkpt>
      <trkpt lat="43.66494" lon="1.39302">
        <ele>128</ele>
        <time>2024-03-21T18:03:05Z</time>
      </trkpt>
      <trkpt lat="43.66495" lon="1.393">
        <ele>128</ele>
        <time>2024-03-21T18:03:06Z</time>
      </trkpt>
      <trkpt lat="43.66497" lon="1.39296">
        <ele>128</ele>
        <time>2024-03-21T18:03:07Z</time>
      </trkpt>
      <trkpt lat="43.66498" lon="1.39295">
        <ele>127</ele>
        <time>2024-03-21T18:03:08Z</time>
      </trkpt>
      <trkpt lat="43.66499" lon="1.39293">
        <ele>127</ele>
        <time>2024-03-21T18:03:09Z</time>
      </trkpt>
      <trkpt lat="43.665" lon="1.39291">
        <ele>127</ele>
        <time>2024-03-21T18:03:10Z</time>
      </trkpt>
      <trkpt lat="43.66501" lon="1.39289">
        <ele>127</ele>
        <time>2024-03-21T18:03:11Z</time>
      </trkpt>
      <trkpt lat="43.66502" lon="1.39287">
        <ele>127</ele>
        <time>2024-03-21T18:03:12Z</time>
      </trkpt>
      <trkpt lat="43.66503" lon="1.39285">
        <ele>127</ele>
        <time>2024-03-21T18:03:13Z</time>
      </trkpt>
      <trkpt lat="43.66504" lon="1.39283">
        <ele>127</ele>
        <time>2024-03-21T18:03:14Z</time>
      </trkpt>
      <trkpt lat="43.66505" lon="1.3928">
        <ele>127</ele>
        <time>2024-03-21T18:03:15Z</time>
      </trkpt>
      <trkpt lat="43.66506" lon="1.39277">
        <ele>127</ele>
        <time>2024-03-21T18:03:16Z</time>
      </trkpt>
      <trkpt lat="43.66507" lon="1.39274">
        <ele>127</ele>
        <time>2024-03-21T18:03:17Z</time>
      </trkpt>
      <trkpt lat="43.66508" lon="1.39272">
        <ele>127</ele>
        <time>2024-03-21T18:03:18Z</time>
      </trkpt>
      <trkpt lat="43.6651" lon="1.3927">
        <ele>127</ele>
        <time>2024-03-21T18:03:19Z</time>
      </trkpt>
      <trkpt lat="43.66513" lon="1.39268">
        <ele>127</ele>
        <time>2024-03-21T18:03:20Z</time>
      </trkpt>
      <trkpt lat="43.66515" lon="1.39266">
        <ele>127</ele>
        <time>2024-03-21T18:03:21Z</time>
      </trkpt>
      <trkpt lat="43.66518" lon="1.39264">
        <ele>126</ele>
        <time>2024-03-21T18:03:22Z</time>
      </trkpt>
      <trkpt lat="43.6652" lon="1.39262">
        <ele>126</ele>
        <time>2024-03-21T18:03:23Z</time>
      </trkpt>
      <trkpt lat="43.66523" lon="1.3926">
        <ele>126</ele>
        <time>2024-03-21T18:03:24Z</time>
      </trkpt>
      <trkpt lat="43.66526" lon="1.39259">
        <ele>127</ele>
        <time>2024-03-21T18:03:25Z</time>
      </trkpt>
      <trkpt lat="43.66528" lon="1.39258">
        <ele>127</ele>
        <time>2024-03-21T18:03:26Z</time>
      </trkpt>
      <trkpt lat="43.6653" lon="1.39256">
        <ele>127</ele>
        <time>2024-03-21T18:03:27Z</time>
      </trkpt>
      <trkpt lat="43.66534" lon="1.39253">
        <ele>127</ele>
        <time>2024-03-21T18:03:28Z</time>
      </trkpt>
      <trkpt lat="43.66535" lon="1.39252">
        <ele>127</ele>
        <time>2024-03-21T18:03:29Z</time>
      </trkpt>
      <trkpt lat="43.66537" lon="1.39248">
        <ele>127</ele>
        <time>2024-03-21T18:03:30Z</time>
      </trkpt>
      <trkpt lat="43.66538" lon="1.39247">
        <ele>127</ele>
        <time>2024-03-21T18:03:31Z</time>
      </trkpt>
      <trkpt lat="43.6654" lon="1.39244">
        <ele>127</ele>
        <time>2024-03-21T18:03:32Z</time>
      </trkpt>
      <trkpt lat="43.66541" lon="1.39241">
        <ele>127</ele>
        <time>2024-03-21T18:03:33Z</time>
      </trkpt>
      <trkpt lat="43.66543" lon="1.39238">
        <ele>127</ele>
        <time>2024-03-21T18:03:34Z</time>
      </trkpt>
      <trkpt lat="43.66545" lon="1.39236">
        <ele>127</ele>
        <time>2024-03-21T18:03:35Z</time>
      </trkpt>
      <trkpt lat="43.66546" lon="1.39233">
        <ele>127</ele>
        <time>2024-03-21T18:03:36Z</time>
      </trkpt>
      <trkpt lat="43.66547" lon="1.39231">
        <ele>127</ele>
        <time>2024-03-21T18:03:37Z</time>
      </trkpt>
      <trkpt lat="43.66548" lon="1.39228">
        <ele>127</ele>
        <time>2024-03-21T18:03:38Z</time>
      </trkpt>
      <trkpt lat="43.66549" lon="1.39225">
        <ele>127</ele>
        <time>2024-03-21T18:03:39Z</time>
      </trkpt>
      <trkpt lat="43.66549" lon="1.39222">
        <ele>127</ele>
        <time>2024-03-21T18:03:40Z</time>
      </trkpt>
      <trkpt lat="43.66551" lon="1.39219">
        <ele>127</ele>
        <time>2024-03-21T18:03:41Z</time>
      </trkpt>
      <trkpt lat="43.66552" lon="1.39216">
        <ele>127</ele>
        <time>2024-03-21T18:03:42Z</time>
      </trkpt>
      <trkpt lat="43.66553" lon="1.39214">
        <ele>128</ele>
        <time>2024-03-21T18:03:43Z</time>
      </trkpt>
      <trkpt lat="43.66553" lon="1.39211">
        <ele>128</ele>
        <time>2024-03-21T18:03:44Z</time>
      </trkpt>
      <trkpt lat="43.66555" lon="1.39209">
        <ele>128</ele>
        <time>2024-03-21T18:03:45Z</time>
      </trkpt>
      <trkpt lat="43.66556" lon="1.39207">
        <ele>128</ele>
        <time>2024-03-21T18:03:46Z</time>
      </trkpt>
      <trkpt lat="43.66557" lon="1.39205">
        <ele>128</ele>
        <time>2024-03-21T18:03:47Z</time>
      </trkpt>
      <trkpt lat="43.66559" lon="1.39202">
        <ele>128</ele>
        <time>2024-03-21T18:03:48Z</time>
      </trkpt>
      <trkpt lat="43.6656" lon="1.392">
        <ele>128</ele>
        <time>2024-03-21T18:03:49Z</time>
      </trkpt>
      <trkpt lat="43.66561" lon="1.39198">
        <ele>128</ele>
        <time>2024-03-21T18:03:50Z</time>
      </trkpt>
      <trkpt lat="43.66562" lon="1.39195">
        <ele>128</ele>
        <time>2024-03-21T18:03:51Z</time>
      </trkpt>
      <trkpt lat="43.66562" lon="1.39193">
        <ele>128</ele>
        <time>2024-03-21T18:03:52Z</time>
      </trkpt>
      <trkpt lat="43.66563" lon="1.3919">
        <ele>128</ele>
        <time>2024-03-21T18:03:53Z</time>
      </trkpt>
      <trkpt lat="43.66563" lon="1.39187">
        <ele>128</ele>
        <time>2024-03-21T18:03:54Z</time>
      </trkpt>
      <trkpt lat="43.66563" lon="1.39184">
        <ele>128</ele>
        <time>2024-03-21T18:03:55Z</time>
      </trkpt>
      <trkpt lat="43.66563" lon="1.39181">
        <ele>128</ele>
        <time>2024-03-21T18:03:56Z</time>
      </trkpt>
      <trkpt lat="43.66564" lon="1.39178">
        <ele>128</ele>
        <time>2024-03-21T18:03:57Z</time>
      </trkpt>
      <trkpt lat="43.66564" lon="1.39175">
        <ele>128</ele>
        <time>2024-03-21T18:03:58Z</time>
      </trkpt>
      <trkpt lat="43.66564" lon="1.39172">
        <ele>128</ele>
        <time>2024-03-21T18:03:59Z</time>
      </trkpt>
      <trkpt lat="43.66565" lon="1.39169">
        <ele>128</ele>
        <time>2024-03-21T18:04:00Z</time>
      </trkpt>
      <trkpt lat="43.66565" lon="1.39166">
        <ele>128</ele>
        <time>2024-03-21T18:04:01Z</time>
      </trkpt>
      <trkpt lat="43.66565" lon="1.39163">
        <ele>128</ele>
        <time>2024-03-21T18:04:02Z</time>
      </trkpt>
      <trkpt lat="43.66565" lon="1.3916">
        <ele>128</ele>
        <time>2024-03-21T18:04:03Z</time>
      </trkpt>
      <trkpt lat="43.66566" lon="1.39157">
        <ele>128</ele>
        <time>2024-03-21T18:04:04Z</time>
      </trkpt>
      <trkpt lat="43.66566" lon="1.39154">
        <ele>128</ele>
        <time>2024-03-21T18:04:05Z</time>
      </trkpt>
      <trkpt lat="43.66567" lon="1.39151">
        <ele>128</ele>
        <time>2024-03-21T18:04:06Z</time>
      </trkpt>
      <trkpt lat="43.66567" lon="1.39147">
        <ele>128</ele>
        <time>2024-03-21T18:04:07Z</time>
      </trkpt>
      <trkpt lat="43.66568" lon="1.39143">
        <ele>128</ele>
        <time>2024-03-21T18:04:08Z</time>
      </trkpt>
      <trkpt lat="43.66568" lon="1.39142">
        <ele>128</ele>
        <time>2024-03-21T18:04:09Z</time>
      </trkpt>
      <trkpt lat="43.66569" lon="1.39139">
        <ele>128</ele>
        <time>2024-03-21T18:04:10Z</time>
      </trkpt>
      <trkpt lat="43.6657" lon="1.39136">
        <ele>128</ele>
        <time>2024-03-21T18:04:11Z</time>
      </trkpt>
      <trkpt lat="43.6657" lon="1.39132">
        <ele>128</ele>
        <time>2024-03-21T18:04:12Z</time>
      </trkpt>
      <trkpt lat="43.66571" lon="1.39129">
        <ele>128</ele>
        <time>2024-03-21T18:04:13Z</time>
      </trkpt>
      <trkpt lat="43.66571" lon="1.39126">
        <ele>128</ele>
        <time>2024-03-21T18:04:14Z</time>
      </trkpt>
      <trkpt lat="43.66572" lon="1.39123">
        <ele>128</ele>
        <time>2024-03-21T18:04:15Z</time>
      </trkpt>
      <trkpt lat="43.66572" lon="1.3912">
        <ele>128</ele>
        <time>2024-03-21T18:04:16Z</time>
      </trkpt>
      <trkpt lat="43.66573" lon="1.39117">
        <ele>128</ele>
        <time>2024-03-21T18:04:17Z</time>
      </trkpt>
      <trkpt lat="43.66573" lon="1.39114">
        <ele>128</ele>
        <time>2024-03-21T18:04:18Z</time>
      </trkpt>
      <trkpt lat="43.66574" lon="1.3911">
        <ele>128</ele>
        <time>2024-03-21T18:04:19Z</time>
      </trkpt>
      <trkpt lat="43.66574" lon="1.39106">
        <ele>128</ele>
        <time>2024-03-21T18:04:20Z</time>
      </trkpt>
      <trkpt lat="43.66575" lon="1.39103">
        <ele>128</ele>
        <time>2024-03-21T18:04:21Z</time>
      </trkpt>
      <trkpt lat="43.66575" lon="1.391">
        <ele>128</ele>
        <time>2024-03-21T18:04:22Z</time>
      </trkpt>
      <trkpt lat="43.66576" lon="1.39097">
        <ele>128</ele>
        <time>2024-03-21T18:04:23Z</time>
      </trkpt>
      <trkpt lat="43.66577" lon="1.39094">
        <ele>128</ele>
        <time>2024-03-21T18:04:24Z</time>
      </trkpt>
      <trkpt lat="43.66577" lon="1.39091">
        <ele>128</ele>
        <time>2024-03-21T18:04:25Z</time>
      </trkpt>
      <trkpt lat="43.66578" lon="1.39088">
        <ele>128</ele>
        <time>2024-03-21T18:04:26Z</time>
      </trkpt>
      <trkpt lat="43.6658" lon="1.39083">
        <ele>128</ele>
        <time>2024-03-21T18:04:27Z</time>
      </trkpt>
      <trkpt lat="43.6658" lon="1.39082">
        <ele>128</ele>
        <time>2024-03-21T18:04:28Z</time>
      </trkpt>
      <trkpt lat="43.66581" lon="1.39079">
        <ele>128</ele>
        <time>2024-03-21T18:04:29Z</time>
      </trkpt>
      <trkpt lat="43.66581" lon="1.39076">
        <ele>128</ele>
        <time>2024-03-21T18:04:30Z</time>
      </trkpt>
      <trkpt lat="43.66582" lon="1.39073">
        <ele>128</ele>
        <time>2024-03-21T18:04:31Z</time>
      </trkpt>
      <trkpt lat="43.66583" lon="1.3907">
        <ele>128</ele>
        <time>2024-03-21T18:04:32Z</time>
      </trkpt>
      <trkpt lat="43.66584" lon="1.39067">
        <ele>128</ele>
        <time>2024-03-21T18:04:33Z</time>
      </trkpt>
      <trkpt lat="43.66585" lon="1.39062">
        <ele>128</ele>
        <time>2024-03-21T18:04:34Z</time>
      </trkpt>
      <trkpt lat="43.66586" lon="1.3906">
        <ele>128</ele>
        <time>2024-03-21T18:04:35Z</time>
      </trkpt>
      <trkpt lat="43.66587" lon="1.39057">
        <ele>128</ele>
        <time>2024-03-21T18:04:36Z</time>
      </trkpt>
      <trkpt lat="43.66588" lon="1.39054">
        <ele>128</ele>
        <time>2024-03-21T18:04:37Z</time>
      </trkpt>
      <trkpt lat="43.66589" lon="1.39051">
        <ele>128</ele>
        <time>2024-03-21T18:04:38Z</time>
      </trkpt>
      <trkpt lat="43.6659" lon="1.39048">
        <ele>128</ele>
        <time>2024-03-21T18:04:39Z</time>
      </trkpt>
      <trkpt lat="43.66591" lon="1.39045">
        <ele>128</ele>
        <time>2024-03-21T18:04:40Z</time>
      </trkpt>
      <trkpt lat="43.66591" lon="1.39042">
        <ele>128</ele>
        <time>2024-03-21T18:04:41Z</time>
      </trkpt>
      <trkpt lat="43.66592" lon="1.39039">
        <ele>128</ele>
        <time>2024-03-21T18:04:42Z</time>
      </trkpt>
      <trkpt lat="43.66593" lon="1.39036">
        <ele>128</ele>
        <time>2024-03-21T18:04:43Z</time>
      </trkpt>
      <trkpt lat="43.66594" lon="1.39033">
        <ele>128</ele>
        <time>2024-03-21T18:04:44Z</time>
      </trkpt>
      <trkpt lat="43.66594" lon="1.3903">
        <ele>128</ele>
        <time>2024-03-21T18:04:45Z</time>
      </trkpt>
      <trkpt lat="43.66595" lon="1.39025">
        <ele>128</ele>
        <time>2024-03-21T18:04:46Z</time>
      </trkpt>
      <trkpt lat="43.66596" lon="1.39024">
        <ele>128</ele>
        <time>2024-03-21T18:04:47Z</time>
      </trkpt>
      <trkpt lat="43.66596" lon="1.3902">
        <ele>128</ele>
        <time>2024-03-21T18:04:48Z</time>
      </trkpt>
      <trkpt lat="43.66597" lon="1.39017">
        <ele>128</ele>
        <time>2024-03-21T18:04:49Z</time>
      </trkpt>
      <trkpt lat="43.66597" lon="1.39014">
        <ele>128</ele>
        <time>2024-03-21T18:04:50Z</time>
      </trkpt>
      <trkpt lat="43.66598" lon="1.39011">
        <ele>128</ele>
        <time>2024-03-21T18:04:51Z</time>
      </trkpt>
      <trkpt lat="43.66598" lon="1.39008">
        <ele>128</ele>
        <time>2024-03-21T18:04:52Z</time>
      </trkpt>
      <trkpt lat="43.66599" lon="1.39005">
        <ele>128</ele>
        <time>2024-03-21T18:04:53Z</time>
      </trkpt>
      <trkpt lat="43.666" lon="1.39003">
        <ele>128</ele>
        <time>2024-03-21T18:04:54Z</time>
      </trkpt>
      <trkpt lat="43.666" lon="1.39">
        <ele>128</ele>
        <time>2024-03-21T18:04:55Z</time>
      </trkpt>
      <trkpt lat="43.666" lon="1.38996">
        <ele>128</ele>
        <time>2024-03-21T18:04:56Z</time>
      </trkpt>
      <trkpt lat="43.666" lon="1.38994">
        <ele>128</ele>
        <time>2024-03-21T18:04:57Z</time>
      </trkpt>
      <trkpt lat="43.666" lon="1.38991">
        <ele>128</ele>
        <time>2024-03-21T18:04:58Z</time>
      </trkpt>
      <trkpt lat="43.666" lon="1.38988">
        <ele>128</ele>
        <time>2024-03-21T18:04:59Z</time>
      </trkpt>
      <trkpt lat="43.666" lon="1.38984">
        <ele>128</ele>
        <time>2024-03-21T18:05:00Z</time>
      </trkpt>
      <trkpt lat="43.666" lon="1.38981">
        <ele>127</ele>
        <time>2024-03-21T18:05:01Z</time>
      </trkpt>
      <trkpt lat="43.66601" lon="1.38978">
        <ele>127</ele>
        <time>2024-03-21T18:05:02Z</time>
      </trkpt>
      <trkpt lat="43.66601" lon="1.38975">
        <ele>127</ele>
        <time>2024-03-21T18:05:03Z</time>
      </trkpt>
      <trkpt lat="43.66601" lon="1.38971">
        <ele>128</ele>
        <time>2024-03-21T18:05:04Z</time>
      </trkpt>
      <trkpt lat="43.66601" lon="1.38967">
        <ele>128</ele>
        <time>2024-03-21T18:05:05Z</time>
      </trkpt>
      <trkpt lat="43.66601" lon="1.38965">
        <ele>128</ele>
        <time>2024-03-21T18:05:06Z</time>
      </trkpt>
      <trkpt lat="43.66601" lon="1.38961">
        <ele>128</ele>
        <time>2024-03-21T18:05:07Z</time>
      </trkpt>
      <trkpt lat="43.66602" lon="1.38958">
        <ele>128</ele>
        <time>2024-03-21T18:05:08Z</time>
      </trkpt>
      <trkpt lat="43.66602" lon="1.38955">
        <ele>128</ele>
        <time>2024-03-21T18:05:09Z</time>
      </trkpt>
      <trkpt lat="43.66603" lon="1.38952">
        <ele>128</ele>
        <time>2024-03-21T18:05:10Z</time>
      </trkpt>
      <trkpt lat="43.66603" lon="1.38948">
        <ele>128</ele>
        <time>2024-03-21T18:05:11Z</time>
      </trkpt>
      <trkpt lat="43.66603" lon="1.38946">
        <ele>128</ele>
        <time>2024-03-21T18:05:12Z</time>
      </trkpt>
      <trkpt lat="43.66603" lon="1.38943">
        <ele>128</ele>
        <time>2024-03-21T18:05:13Z</time>
      </trkpt>
      <trkpt lat="43.66603" lon="1.38939">
        <ele>128</ele>
        <time>2024-03-21T18:05:14Z</time>
      </trkpt>
      <trkpt lat="43.66603" lon="1.38936">
        <ele>128</ele>
        <time>2024-03-21T18:05:15Z</time>
      </trkpt>
      <trkpt lat="43.66603" lon="1.38932">
        <ele>128</ele>
        <time>2024-03-21T18:05:16Z</time>
      </trkpt>
      <trkpt lat="43.66603" lon="1.38927">
        <ele>128</ele>
        <time>2024-03-21T18:05:17Z</time>
      </trkpt>
      <trkpt lat="43.66603" lon="1.38926">
        <ele>128</ele>
        <time>2024-03-21T18:05:18Z</time>
      </trkpt>
      <trkpt lat="43.66604" lon="1.38923">
        <ele>128</ele>
        <time>2024-03-21T18:05:19Z</time>
      </trkpt>
      <trkpt lat="43.66604" lon="1.3892">
        <ele>128</ele>
        <time>2024-03-21T18:05:20Z</time>
      </trkpt>
      <trkpt lat="43.66604" lon="1.38918">
        <ele>128</ele>
        <time>2024-03-21T18:05:21Z</time>
      </trkpt>
      <trkpt lat="43.66605" lon="1.38915">
        <ele>128</ele>
        <time>2024-03-21T18:05:22Z</time>
      </trkpt>
      <trkpt lat="43.66606" lon="1.38912">
        <ele>128</ele>
        <time>2024-03-21T18:05:23Z</time>
      </trkpt>
      <trkpt lat="43.66606" lon="1.38907">
        <ele>128</ele>
        <time>2024-03-21T18:05:24Z</time>
      </trkpt>
      <trkpt lat="43.66606" lon="1.38905">
        <ele>128</ele>
        <time>2024-03-21T18:05:25Z</time>
      </trkpt>
      <trkpt lat="43.66606" lon="1.38902">
        <ele>128</ele>
        <time>2024-03-21T18:05:26Z</time>
      </trkpt>
      <trkpt lat="43.66606" lon="1.38898">
        <ele>128</ele>
        <time>2024-03-21T18:05:27Z</time>
      </trkpt>
      <trkpt lat="43.66606" lon="1.38894">
        <ele>128</ele>
        <time>2024-03-21T18:05:28Z</time>
      </trkpt>
      <trkpt lat="43.66606" lon="1.38891">
        <ele>128</ele>
        <time>2024-03-21T18:05:29Z</time>
      </trkpt>
      <trkpt lat="43.66606" lon="1.38887">
        <ele>128</ele>
        <time>2024-03-21T18:05:30Z</time>
      </trkpt>
      <trkpt lat="43.66607" lon="1.38884">
        <ele>128</ele>
        <time>2024-03-21T18:05:31Z</time>
      </trkpt>
      <trkpt lat="43.66607" lon="1.38881">
        <ele>128</ele>
        <time>2024-03-21T18:05:32Z</time>
      </trkpt>
      <trkpt lat="43.66608" lon="1.38878">
        <ele>128</ele>
        <time>2024-03-21T18:05:33Z</time>
      </trkpt>
      <trkpt lat="43.66609" lon="1.38875">
        <ele>128</ele>
        <time>2024-03-21T18:05:34Z</time>
      </trkpt>
      <trkpt lat="43.66609" lon="1.38872">
        <ele>128</ele>
        <time>2024-03-21T18:05:35Z</time>
      </trkpt>
      <trkpt lat="43.66609" lon="1.38869">
        <ele>128</ele>
        <time>2024-03-21T18:05:36Z</time>
      </trkpt>
      <trkpt lat="43.66609" lon="1.38865">
        <ele>128</ele>
        <time>2024-03-21T18:05:37Z</time>
      </trkpt>
      <trkpt lat="43.66609" lon="1.38861">
        <ele>128</ele>
        <time>2024-03-21T18:05:38Z</time>
      </trkpt>
      <trkpt lat="43.66609" lon="1.38859">
        <ele>127</ele>
        <time>2024-03-21T18:05:39Z</time>
      </trkpt>
      <trkpt lat="43.66608" lon="1.38854">
        <ele>127</ele>
        <time>2024-03-21T18:05:40Z</time>
      </trkpt>
      <trkpt lat="43.66608" lon="1.38852">
        <ele>128</ele>
        <time>2024-03-21T18:05:41Z</time>
      </trkpt>
      <trkpt lat="43.66608" lon="1.38849">
        <ele>128</ele>
        <time>2024-03-21T18:05:42Z</time>
      </trkpt>
      <trkpt lat="43.66607" lon="1.38844">
        <ele>128</ele>
        <time>2024-03-21T18:05:43Z</time>
      </trkpt>
      <trkpt lat="43.66607" lon="1.38842">
        <ele>127</ele>
        <time>2024-03-21T18:05:44Z</time>
      </trkpt>
      <trkpt lat="43.66607" lon="1.38839">
        <ele>127</ele>
        <time>2024-03-21T18:05:45Z</time>
      </trkpt>
      <trkpt lat="43.66607" lon="1.38836">
        <ele>127</ele>
        <time>2024-03-21T18:05:46Z</time>
      </trkpt>
      <trkpt lat="43.66606" lon="1.38833">
        <ele>127</ele>
        <time>2024-03-21T18:05:47Z</time>
      </trkpt>
      <trkpt lat="43.66606" lon="1.38831">
        <ele>127</ele>
        <time>2024-03-21T18:05:48Z</time>
      </trkpt>
      <trkpt lat="43.66605" lon="1.38828">
        <ele>127</ele>
        <time>2024-03-21T18:05:49Z</time>
      </trkpt>
      <trkpt lat="43.66605" lon="1.38824">
        <ele>127</ele>
        <time>2024-03-21T18:05:50Z</time>
      </trkpt>
      <trkpt lat="43.66605" lon="1.38821">
        <ele>127</ele>
        <time>2024-03-21T18:05:51Z</time>
      </trkpt>
      <trkpt lat="43.66604" lon="1.38818">
        <ele>127</ele>
        <time>2024-03-21T18:05:52Z</time>
      </trkpt>
      <trkpt lat="43.66603" lon="1.38815">
        <ele>127</ele>
        <time>2024-03-21T18:05:53Z</time>
      </trkpt>
      <trkpt lat="43.66602" lon="1.38811">
        <ele>127</ele>
        <time>2024-03-21T18:05:54Z</time>
      </trkpt>
      <trkpt lat="43.66601" lon="1.38808">
        <ele>127</ele>
        <time>2024-03-21T18:05:55Z</time>
      </trkpt>
      <trkpt lat="43.666" lon="1.38805">
        <ele>127</ele>
        <time>2024-03-21T18:05:56Z</time>
      </trkpt>
      <trkpt lat="43.66599" lon="1.38802">
        <ele>127</ele>
        <time>2024-03-21T18:05:57Z</time>
      </trkpt>
      <trkpt lat="43.66598" lon="1.38799">
        <ele>127</ele>
        <time>2024-03-21T18:05:58Z</time>
      </trkpt>
      <trkpt lat="43.66598" lon="1.38796">
        <ele>127</ele>
        <time>2024-03-21T18:05:59Z</time>
      </trkpt>
      <trkpt lat="43.66596" lon="1.38793">
        <ele>127</ele>
        <time>2024-03-21T18:06:00Z</time>
      </trkpt>
      <trkpt lat="43.66596" lon="1.38791">
        <ele>127</ele>
        <time>2024-03-21T18:06:01Z</time>
      </trkpt>
      <trkpt lat="43.66595" lon="1.38786">
        <ele>127</ele>
        <time>2024-03-21T18:06:02Z</time>
      </trkpt>
      <trkpt lat="43.66594" lon="1.38785">
        <ele>127</ele>
        <time>2024-03-21T18:06:03Z</time>
      </trkpt>
      <trkpt lat="43.66594" lon="1.38782">
        <ele>127</ele>
        <time>2024-03-21T18:06:04Z</time>
      </trkpt>
      <trkpt lat="43.66593" lon="1.38779">
        <ele>127</ele>
        <time>2024-03-21T18:06:05Z</time>
      </trkpt>
      <trkpt lat="43.66592" lon="1.38776">
        <ele>127</ele>
        <time>2024-03-21T18:06:06Z</time>
      </trkpt>
      <trkpt lat="43.6659" lon="1.38773">
        <ele>127</ele>
        <time>2024-03-21T18:06:07Z</time>
      </trkpt>
      <trkpt lat="43.66589" lon="1.3877">
        <ele>127</ele>
        <time>2024-03-21T18:06:08Z</time>
      </trkpt>
      <trkpt lat="43.66587" lon="1.38767">
        <ele>127</ele>
        <time>2024-03-21T18:06:09Z</time>
      </trkpt>
      <trkpt lat="43.66586" lon="1.38764">
        <ele>127</ele>
        <time>2024-03-21T18:06:10Z</time>
      </trkpt>
      <trkpt lat="43.66585" lon="1.38761">
        <ele>127</ele>
        <time>2024-03-21T18:06:11Z</time>
      </trkpt>
      <trkpt lat="43.66583" lon="1.38759">
        <ele>127</ele>
        <time>2024-03-21T18:06:12Z</time>
      </trkpt>
      <trkpt lat="43.66582" lon="1.38756">
        <ele>127</ele>
        <time>2024-03-21T18:06:13Z</time>
      </trkpt>
      <trkpt lat="43.6658" lon="1.38754">
        <ele>127</ele>
        <time>2024-03-21T18:06:14Z</time>
      </trkpt>
      <trkpt lat="43.66579" lon="1.38751">
        <ele>127</ele>
        <time>2024-03-21T18:06:15Z</time>
      </trkpt>
      <trkpt lat="43.66577" lon="1.38749">
        <ele>127</ele>
        <time>2024-03-21T18:06:16Z</time>
      </trkpt>
      <trkpt lat="43.66576" lon="1.38746">
        <ele>127</ele>
        <time>2024-03-21T18:06:17Z</time>
      </trkpt>
      <trkpt lat="43.66574" lon="1.38744">
        <ele>127</ele>
        <time>2024-03-21T18:06:18Z</time>
      </trkpt>
      <trkpt lat="43.66573" lon="1.38741">
        <ele>127</ele>
        <time>2024-03-21T18:06:19Z</time>
      </trkpt>
      <trkpt lat="43.66571" lon="1.38739">
        <ele>127</ele>
        <time>2024-03-21T18:06:20Z</time>
      </trkpt>
      <trkpt lat="43.66569" lon="1.38735">
        <ele>127</ele>
        <time>2024-03-21T18:06:21Z</time>
      </trkpt>
      <trkpt lat="43.66568" lon="1.38734">
        <ele>126</ele>
        <time>2024-03-21T18:06:22Z</time>
      </trkpt>
      <trkpt lat="43.66567" lon="1.38731">
        <ele>126</ele>
        <time>2024-03-21T18:06:23Z</time>
      </trkpt>
      <trkpt lat="43.66565" lon="1.38728">
        <ele>126</ele>
        <time>2024-03-21T18:06:24Z</time>
      </trkpt>
      <trkpt lat="43.66564" lon="1.38726">
        <ele>126</ele>
        <time>2024-03-21T18:06:25Z</time>
      </trkpt>
      <trkpt lat="43.66563" lon="1.38723">
        <ele>126</ele>
        <time>2024-03-21T18:06:26Z</time>
      </trkpt>
      <trkpt lat="43.66562" lon="1.3872">
        <ele>126</ele>
        <time>2024-03-21T18:06:27Z</time>
      </trkpt>
      <trkpt lat="43.66561" lon="1.38718">
        <ele>126</ele>
        <time>2024-03-21T18:06:28Z</time>
      </trkpt>
      <trkpt lat="43.6656" lon="1.38715">
        <ele>126</ele>
        <time>2024-03-21T18:06:29Z</time>
      </trkpt>
      <trkpt lat="43.66558" lon="1.38712">
        <ele>126</ele>
        <time>2024-03-21T18:06:30Z</time>
      </trkpt>
      <trkpt lat="43.66557" lon="1.3871">
        <ele>127</ele>
        <time>2024-03-21T18:06:31Z</time>
      </trkpt>
      <trkpt lat="43.66557" lon="1.38707">
        <ele>127</ele>
        <time>2024-03-21T18:06:32Z</time>
      </trkpt>
      <trkpt lat="43.66556" lon="1.38704">
        <ele>127</ele>
        <time>2024-03-21T18:06:33Z</time>
      </trkpt>
      <trkpt lat="43.66554" lon="1.38701">
        <ele>127</ele>
        <time>2024-03-21T18:06:34Z</time>
      </trkpt>
      <trkpt lat="43.66553" lon="1.38698">
        <ele>127</ele>
        <time>2024-03-21T18:06:35Z</time>
      </trkpt>
      <trkpt lat="43.66552" lon="1.38695">
        <ele>127</ele>
        <time>2024-03-21T18:06:36Z</time>
      </trkpt>
      <trkpt lat="43.6655" lon="1.38692">
        <ele>127</ele>
        <time>2024-03-21T18:06:37Z</time>
      </trkpt>
      <trkpt lat="43.66549" lon="1.3869">
        <ele>127</ele>
        <time>2024-03-21T18:06:38Z</time>
      </trkpt>
      <trkpt lat="43.66547" lon="1.38688">
        <ele>126</ele>
        <time>2024-03-21T18:06:39Z</time>
      </trkpt>
      <trkpt lat="43.66546" lon="1.38686">
        <ele>126</ele>
        <time>2024-03-21T18:06:40Z</time>
      </trkpt>
      <trkpt lat="43.66544" lon="1.38685">
        <ele>126</ele>
        <time>2024-03-21T18:06:41Z</time>
      </trkpt>
      <trkpt lat="43.66543" lon="1.38682">
        <ele>126</ele>
        <time>2024-03-21T18:06:42Z</time>
      </trkpt>
      <trkpt lat="43.66543" lon="1.38678">
        <ele>126</ele>
        <time>2024-03-21T18:06:43Z</time>
      </trkpt>
      <trkpt lat="43.66543" lon="1.38676">
        <ele>126</ele>
        <time>2024-03-21T18:06:44Z</time>
      </trkpt>
      <trkpt lat="43.66544" lon="1.38673">
        <ele>125</ele>
        <time>2024-03-21T18:06:45Z</time>
      </trkpt>
      <trkpt lat="43.66545" lon="1.3867">
        <ele>125</ele>
        <time>2024-03-21T18:06:46Z</time>
      </trkpt>
      <trkpt lat="43.66546" lon="1.38667">
        <ele>125</ele>
        <time>2024-03-21T18:06:47Z</time>
      </trkpt>
      <trkpt lat="43.66547" lon="1.38664">
        <ele>125</ele>
        <time>2024-03-21T18:06:48Z</time>
      </trkpt>
      <trkpt lat="43.66548" lon="1.38661">
        <ele>125</ele>
        <time>2024-03-21T18:06:49Z</time>
      </trkpt>
      <trkpt lat="43.66549" lon="1.38657">
        <ele>125</ele>
        <time>2024-03-21T18:06:50Z</time>
      </trkpt>
      <trkpt lat="43.66551" lon="1.38655">
        <ele>125</ele>
        <time>2024-03-21T18:06:51Z</time>
      </trkpt>
      <trkpt lat="43.66553" lon="1.38652">
        <ele>126</ele>
        <time>2024-03-21T18:06:52Z</time>
      </trkpt>
      <trkpt lat="43.66554" lon="1.38649">
        <ele>126</ele>
        <time>2024-03-21T18:06:53Z</time>
      </trkpt>
      <trkpt lat="43.66555" lon="1.38646">
        <ele>126</ele>
        <time>2024-03-21T18:06:54Z</time>
      </trkpt>
      <trkpt lat="43.66557" lon="1.38644">
        <ele>126</ele>
        <time>2024-03-21T18:06:55Z</time>
      </trkpt>
      <trkpt lat="43.66559" lon="1.38641">
        <ele>126</ele>
        <time>2024-03-21T18:06:56Z</time>
      </trkpt>
      <trkpt lat="43.6656" lon="1.38638">
        <ele>126</ele>
        <time>2024-03-21T18:06:57Z</time>
      </trkpt>
      <trkpt lat="43.66561" lon="1.38635">
        <ele>126</ele>
        <time>2024-03-21T18:06:58Z</time>
      </trkpt>
      <trkpt lat="43.66563" lon="1.3863">
        <ele>126</ele>
        <time>2024-03-21T18:06:59Z</time>
      </trkpt>
      <trkpt lat="43.66564" lon="1.38629">
        <ele>126</ele>
        <time>2024-03-21T18:07:00Z</time>
      </trkpt>
      <trkpt lat="43.66565" lon="1.38625">
        <ele>126</ele>
        <time>2024-03-21T18:07:01Z</time>
      </trkpt>
      <trkpt lat="43.66568" lon="1.38621">
        <ele>126</ele>
        <time>2024-03-21T18:07:02Z</time>
      </trkpt>
      <trkpt lat="43.66569" lon="1.38619">
        <ele>126</ele>
        <time>2024-03-21T18:07:03Z</time>
      </trkpt>
      <trkpt lat="43.6657" lon="1.38616">
        <ele>126</ele>
        <time>2024-03-21T18:07:04Z</time>
      </trkpt>
      <trkpt lat="43.66572" lon="1.38613">
        <ele>126</ele>
        <time>2024-03-21T18:07:05Z</time>
      </trkpt>
      <trkpt lat="43.66573" lon="1.3861">
        <ele>126</ele>
        <time>2024-03-21T18:07:06Z</time>
      </trkpt>
      <trkpt lat="43.66574" lon="1.38607">
        <ele>127</ele>
        <time>2024-03-21T18:07:07Z</time>
      </trkpt>
      <trkpt lat="43.66576" lon="1.38605">
        <ele>127</ele>
        <time>2024-03-21T18:07:08Z</time>
      </trkpt>
      <trkpt lat="43.66577" lon="1.38602">
        <ele>127</ele>
        <time>2024-03-21T18:07:09Z</time>
      </trkpt>
      <trkpt lat="43.66578" lon="1.386">
        <ele>127</ele>
        <time>2024-03-21T18:07:10Z</time>
      </trkpt>
      <trkpt lat="43.6658" lon="1.38597">
        <ele>127</ele>
        <time>2024-03-21T18:07:11Z</time>
      </trkpt>
      <trkpt lat="43.66581" lon="1.38595">
        <ele>127</ele>
        <time>2024-03-21T18:07:12Z</time>
      </trkpt>
      <trkpt lat="43.66583" lon="1.38593">
        <ele>127</ele>
        <time>2024-03-21T18:07:13Z</time>
      </trkpt>
      <trkpt lat="43.66584" lon="1.3859">
        <ele>127</ele>
        <time>2024-03-21T18:07:14Z</time>
      </trkpt>
      <trkpt lat="43.66586" lon="1.38588">
        <ele>127</ele>
        <time>2024-03-21T18:07:15Z</time>
      </trkpt>
      <trkpt lat="43.66587" lon="1.38586">
        <ele>127</ele>
        <time>2024-03-21T18:07:16Z</time>
      </trkpt>
      <trkpt lat="43.66589" lon="1.38583">
        <ele>127</ele>
        <time>2024-03-21T18:07:17Z</time>
      </trkpt>
      <trkpt lat="43.66591" lon="1.38579">
        <ele>127</ele>
        <time>2024-03-21T18:07:18Z</time>
      </trkpt>
      <trkpt lat="43.66592" lon="1.38577">
        <ele>127</ele>
        <time>2024-03-21T18:07:19Z</time>
      </trkpt>
      <trkpt lat="43.66593" lon="1.38575">
        <ele>127</ele>
        <time>2024-03-21T18:07:20Z</time>
      </trkpt>
      <trkpt lat="43.66594" lon="1.38572">
        <ele>128</ele>
        <time>2024-03-21T18:07:21Z</time>
      </trkpt>
      <trkpt lat="43.66596" lon="1.3857">
        <ele>128</ele>
        <time>2024-03-21T18:07:22Z</time>
      </trkpt>
      <trkpt lat="43.66599" lon="1.38566">
        <ele>128</ele>
        <time>2024-03-21T18:07:23Z</time>
      </trkpt>
      <trkpt lat="43.666" lon="1.38565">
        <ele>128</ele>
        <time>2024-03-21T18:07:24Z</time>
      </trkpt>
      <trkpt lat="43.66602" lon="1.38564">
        <ele>128</ele>
        <time>2024-03-21T18:07:25Z</time>
      </trkpt>
      <trkpt lat="43.66603" lon="1.38561">
        <ele>128</ele>
        <time>2024-03-21T18:07:26Z</time>
      </trkpt>
      <trkpt lat="43.66605" lon="1.38559">
        <ele>128</ele>
        <time>2024-03-21T18:07:27Z</time>
      </trkpt>
      <trkpt lat="43.66607" lon="1.38557">
        <ele>128</ele>
        <time>2024-03-21T18:07:28Z</time>
      </trkpt>
      <trkpt lat="43.66608" lon="1.38554">
        <ele>128</ele>
        <time>2024-03-21T18:07:29Z</time>
      </trkpt>
      <trkpt lat="43.6661" lon="1.38551">
        <ele>128</ele>
        <time>2024-03-21T18:07:30Z</time>
      </trkpt>
      <trkpt lat="43.66612" lon="1.38549">
        <ele>128</ele>
        <time>2024-03-21T18:07:31Z</time>
      </trkpt>
      <trkpt lat="43.66614" lon="1.38546">
        <ele>128</ele>
        <time>2024-03-21T18:07:32Z</time>
      </trkpt>
      <trkpt lat="43.66615" lon="1.38544">
        <ele>128</ele>
        <time>2024-03-21T18:07:33Z</time>
      </trkpt>
      <trkpt lat="43.66617" lon="1.38541">
        <ele>128</ele>
        <time>2024-03-21T18:07:34Z</time>
      </trkpt>
      <trkpt lat="43.66619" lon="1.38538">
        <ele>128</ele>
        <time>2024-03-21T18:07:35Z</time>
      </trkpt>
      <trkpt lat="43.6662" lon="1.38536">
        <ele>128</ele>
        <time>2024-03-21T18:07:36Z</time>
      </trkpt>
      <trkpt lat="43.66623" lon="1.38532">
        <ele>128</ele>
        <time>2024-03-21T18:07:37Z</time>
      </trkpt>
      <trkpt lat="43.66624" lon="1.38531">
        <ele>128</ele>
        <time>2024-03-21T18:07:38Z</time>
      </trkpt>
      <trkpt lat="43.66625" lon="1.38528">
        <ele>128</ele>
        <time>2024-03-21T18:07:39Z</time>
      </trkpt>
      <trkpt lat="43.66627" lon="1.38526">
        <ele>128</ele>
        <time>2024-03-21T18:07:40Z</time>
      </trkpt>
      <trkpt lat="43.66628" lon="1.38523">
        <ele>128</ele>
        <time>2024-03-21T18:07:41Z</time>
      </trkpt>
      <trkpt lat="43.6663" lon="1.3852">
        <ele>128</ele>
        <time>2024-03-21T18:07:42Z</time>
      </trkpt>
      <trkpt lat="43.66632" lon="1.38518">
        <ele>128</ele>
        <time>2024-03-21T18:07:43Z</time>
      </trkpt>
      <trkpt lat="43.66634" lon="1.38515">
        <ele>128</ele>
        <time>2024-03-21T18:07:44Z</time>
      </trkpt>
      <trkpt lat="43.66635" lon="1.38514">
        <ele>129</ele>
        <time>2024-03-21T18:07:45Z</time>
      </trkpt>
      <trkpt lat="43.66637" lon="1.38511">
        <ele>129</ele>
        <time>2024-03-21T18:07:46Z</time>
      </trkpt>
      <trkpt lat="43.66638" lon="1.38508">
        <ele>129</ele>
        <time>2024-03-21T18:07:47Z</time>
      </trkpt>
      <trkpt lat="43.6664" lon="1.38506">
        <ele>129</ele>
        <time>2024-03-21T18:07:48Z</time>
      </trkpt>
      <trkpt lat="43.66641" lon="1.38504">
        <ele>129</ele>
        <time>2024-03-21T18:07:49Z</time>
      </trkpt>
      <trkpt lat="43.66643" lon="1.38502">
        <ele>129</ele>
        <time>2024-03-21T18:07:50Z</time>
      </trkpt>
      <trkpt lat="43.66644" lon="1.385">
        <ele>129</ele>
        <time>2024-03-21T18:07:51Z</time>
      </trkpt>
      <trkpt lat="43.66645" lon="1.38498">
        <ele>130</ele>
        <time>2024-03-21T18:07:52Z</time>
      </trkpt>
      <trkpt lat="43.66646" lon="1.38495">
        <ele>130</ele>
        <time>2024-03-21T18:07:53Z</time>
      </trkpt>
      <trkpt lat="43.66647" lon="1.38492">
        <ele>130</ele>
        <time>2024-03-21T18:07:54Z</time>
      </trkpt>
      <trkpt lat="43.66648" lon="1.3849">
        <ele>131</ele>
        <time>2024-03-21T18:07:55Z</time>
      </trkpt>
      <trkpt lat="43.66649" lon="1.38485">
        <ele>131</ele>
        <time>2024-03-21T18:07:57Z</time>
      </trkpt>
      <trkpt lat="43.6665" lon="1.38483">
        <ele>131</ele>
        <time>2024-03-21T18:07:58Z</time>
      </trkpt>
      <trkpt lat="43.6665" lon="1.38483">
        <ele>132</ele>
        <time>2024-03-21T18:07:59Z</time>
      </trkpt>
      <trkpt lat="43.6665" lon="1.38478">
        <ele>133</ele>
        <time>2024-03-21T18:08:00Z</time>
      </trkpt>
      <trkpt lat="43.66649" lon="1.38475">
        <ele>133</ele>
        <time>2024-03-21T18:08:01Z</time>
      </trkpt>
      <trkpt lat="43.66649" lon="1.38473">
        <ele>133</ele>
        <time>2024-03-21T18:08:02Z</time>
      </trkpt>
      <trkpt lat="43.66649" lon="1.3847">
        <ele>133</ele>
        <time>2024-03-21T18:08:03Z</time>
      </trkpt>
      <trkpt lat="43.66648" lon="1.38467">
        <ele>134</ele>
        <time>2024-03-21T18:08:04Z</time>
      </trkpt>
      <trkpt lat="43.66647" lon="1.38465">
        <ele>134</ele>
        <time>2024-03-21T18:08:05Z</time>
      </trkpt>
      <trkpt lat="43.66645" lon="1.38463">
        <ele>134</ele>
        <time>2024-03-21T18:08:06Z</time>
      </trkpt>
      <trkpt lat="43.66643" lon="1.38461">
        <ele>135</ele>
        <time>2024-03-21T18:08:07Z</time>
      </trkpt>
      <trkpt lat="43.66642" lon="1.38459">
        <ele>135</ele>
        <time>2024-03-21T18:08:08Z</time>
      </trkpt>
      <trkpt lat="43.66641" lon="1.38458">
        <ele>136</ele>
        <time>2024-03-21T18:08:09Z</time>
      </trkpt>
      <trkpt lat="43.66639" lon="1.38456">
        <ele>137</ele>
        <time>2024-03-21T18:08:10Z</time>
      </trkpt>
      <trkpt lat="43.66637" lon="1.38454">
        <ele>137</ele>
        <time>2024-03-21T18:08:11Z</time>
      </trkpt>
      <trkpt lat="43.66636" lon="1.38452">
        <ele>137</ele>
        <time>2024-03-21T18:08:12Z</time>
      </trkpt>
      <trkpt lat="43.66634" lon="1.3845">
        <ele>137</ele>
        <time>2024-03-21T18:08:13Z</time>
      </trkpt>
      <trkpt lat="43.66632" lon="1.38448">
        <ele>137</ele>
        <time>2024-03-21T18:08:14Z</time>
      </trkpt>
      <trkpt lat="43.6663" lon="1.38445">
        <ele>137</ele>
        <time>2024-03-21T18:08:16Z</time>
      </trkpt>
      <trkpt lat="43.6663" lon="1.38445">
        <ele>137</ele>
        <time>2024-03-21T18:08:17Z</time>
      </trkpt>
      <trkpt lat="43.66629" lon="1.38443">
        <ele>138</ele>
        <time>2024-03-21T18:08:18Z</time>
      </trkpt>
      <trkpt lat="43.66629" lon="1.38443">
        <ele>138</ele>
        <time>2024-03-21T18:08:19Z</time>
      </trkpt>
      <trkpt lat="43.66628" lon="1.38442">
        <ele>138</ele>
        <time>2024-03-21T18:08:20Z</time>
      </trkpt>
      <trkpt lat="43.66626" lon="1.38436">
        <ele>138</ele>
        <time>2024-03-21T18:09:38Z</time>
      </trkpt>
      <trkpt lat="43.66626" lon="1.38436">
        <ele>138</ele>
        <time>2024-03-21T18:09:39Z</time>
      </trkpt>
      <trkpt lat="43.66627" lon="1.38434">
        <ele>138</ele>
        <time>2024-03-21T18:09:40Z</time>
      </trkpt>
      <trkpt lat="43.66627" lon="1.38434">
        <ele>138</ele>
        <time>2024-03-21T18:09:41Z</time>
      </trkpt>
      <trkpt lat="43.6663" lon="1.3843">
        <ele>138</ele>
        <time>2024-03-21T18:09:42Z</time>
      </trkpt>
      <trkpt lat="43.66632" lon="1.38428">
        <ele>138</ele>
        <time>2024-03-21T18:09:43Z</time>
      </trkpt>
      <trkpt lat="43.66634" lon="1.38425">
        <ele>138</ele>
        <time>2024-03-21T18:09:44Z</time>
      </trkpt>
      <trkpt lat="43.66635" lon="1.38423">
        <ele>138</ele>
        <time>2024-03-21T18:09:45Z</time>
      </trkpt>
      <trkpt lat="43.66637" lon="1.3842">
        <ele>138</ele>
        <time>2024-03-21T18:09:46Z</time>
      </trkpt>
      <trkpt lat="43.66638" lon="1.38417">
        <ele>138</ele>
        <time>2024-03-21T18:09:47Z</time>
      </trkpt>
      <trkpt lat="43.6664" lon="1.38415">
        <ele>138</ele>
        <time>2024-03-21T18:09:48Z</time>
      </trkpt>
      <trkpt lat="43.66642" lon="1.38413">
        <ele>138</ele>
        <time>2024-03-21T18:09:49Z</time>
      </trkpt>
      <trkpt lat="43.66644" lon="1.3841">
        <ele>138</ele>
        <time>2024-03-21T18:09:50Z</time>
      </trkpt>
      <trkpt lat="43.66645" lon="1.38408">
        <ele>138</ele>
        <time>2024-03-21T18:09:51Z</time>
      </trkpt>
      <trkpt lat="43.66647" lon="1.38405">
        <ele>138</ele>
        <time>2024-03-21T18:09:52Z</time>
      </trkpt>
      <trkpt lat="43.66649" lon="1.38401">
        <ele>138</ele>
        <time>2024-03-21T18:09:53Z</time>
      </trkpt>
      <trkpt lat="43.6665" lon="1.384">
        <ele>138</ele>
        <time>2024-03-21T18:09:54Z</time>
      </trkpt>
      <trkpt lat="43.66651" lon="1.38397">
        <ele>138</ele>
        <time>2024-03-21T18:09:55Z</time>
      </trkpt>
      <trkpt lat="43.66653" lon="1.38394">
        <ele>138</ele>
        <time>2024-03-21T18:09:56Z</time>
      </trkpt>
      <trkpt lat="43.66656" lon="1.3839">
        <ele>138</ele>
        <time>2024-03-21T18:09:57Z</time>
      </trkpt>
      <trkpt lat="43.66657" lon="1.38389">
        <ele>138</ele>
        <time>2024-03-21T18:09:58Z</time>
      </trkpt>
      <trkpt lat="43.66658" lon="1.38386">
        <ele>138</ele>
        <time>2024-03-21T18:09:59Z</time>
      </trkpt>
      <trkpt lat="43.6666" lon="1.38383">
        <ele>138</ele>
        <time>2024-03-21T18:10:00Z</time>
      </trkpt>
      <trkpt lat="43.66662" lon="1.3838">
        <ele>139</ele>
        <time>2024-03-21T18:10:01Z</time>
      </trkpt>
      <trkpt lat="43.66664" lon="1.38377">
        <ele>139</ele>
        <time>2024-03-21T18:10:02Z</time>
      </trkpt>
      <trkpt lat="43.66666" lon="1.38374">
        <ele>139</ele>
        <time>2024-03-21T18:10:03Z</time>
      </trkpt>
      <trkpt lat="43.66667" lon="1.38372">
        <ele>139</ele>
        <time>2024-03-21T18:10:04Z</time>
      </trkpt>
      <trkpt lat="43.66669" lon="1.38369">
        <ele>139</ele>
        <time>2024-03-21T18:10:05Z</time>
      </trkpt>
      <trkpt lat="43.6667" lon="1.38366">
        <ele>139</ele>
        <time>2024-03-21T18:10:06Z</time>
      </trkpt>
      <trkpt lat="43.66672" lon="1.38364">
        <ele>139</ele>
        <time>2024-03-21T18:10:07Z</time>
      </trkpt>
      <trkpt lat="43.66674" lon="1.38361">
        <ele>139</ele>
        <time>2024-03-21T18:10:08Z</time>
      </trkpt>
      <trkpt lat="43.66675" lon="1.38358">
        <ele>138</ele>
        <time>2024-03-21T18:10:09Z</time>
      </trkpt>
      <trkpt lat="43.66677" lon="1.38356">
        <ele>138</ele>
        <time>2024-03-21T18:10:10Z</time>
      </trkpt>
      <trkpt lat="43.66679" lon="1.38353">
        <ele>138</ele>
        <time>2024-03-21T18:10:11Z</time>
      </trkpt>
      <trkpt lat="43.66681" lon="1.38349">
        <ele>138</ele>
        <time>2024-03-21T18:10:12Z</time>
      </trkpt>
      <trkpt lat="43.66682" lon="1.38348">
        <ele>139</ele>
        <time>2024-03-21T18:10:13Z</time>
      </trkpt>
      <trkpt lat="43.66683" lon="1.38345">
        <ele>139</ele>
        <time>2024-03-21T18:10:14Z</time>
      </trkpt>
      <trkpt lat="43.66685" lon="1.38343">
        <ele>139</ele>
        <time>2024-03-21T18:10:15Z</time>
      </trkpt>
      <trkpt lat="43.66687" lon="1.38338">
        <ele>139</ele>
        <time>2024-03-21T18:10:16Z</time>
      </trkpt>
      <trkpt lat="43.66688" lon="1.38337">
        <ele>139</ele>
        <time>2024-03-21T18:10:17Z</time>
      </trkpt>
      <trkpt lat="43.6669" lon="1.38334">
        <ele>139</ele>
        <time>2024-03-21T18:10:18Z</time>
      </trkpt>
      <trkpt lat="43.66691" lon="1.38331">
        <ele>140</ele>
        <time>2024-03-21T18:10:19Z</time>
      </trkpt>
      <trkpt lat="43.66692" lon="1.38328">
        <ele>140</ele>
        <time>2024-03-21T18:10:20Z</time>
      </trkpt>
      <trkpt lat="43.66694" lon="1.38326">
        <ele>140</ele>
        <time>2024-03-21T18:10:21Z</time>
      </trkpt>
      <trkpt lat="43.66695" lon="1.38323">
        <ele>140</ele>
        <time>2024-03-21T18:10:22Z</time>
      </trkpt>
      <trkpt lat="43.66697" lon="1.3832">
        <ele>140</ele>
        <time>2024-03-21T18:10:23Z</time>
      </trkpt>
      <trkpt lat="43.66698" lon="1.38317">
        <ele>140</ele>
        <time>2024-03-21T18:10:24Z</time>
      </trkpt>
      <trkpt lat="43.66699" lon="1.38314">
        <ele>140</ele>
        <time>2024-03-21T18:10:25Z</time>
      </trkpt>
      <trkpt lat="43.667" lon="1.38311">
        <ele>140</ele>
        <time>2024-03-21T18:10:26Z</time>
      </trkpt>
      <trkpt lat="43.66702" lon="1.38308">
        <ele>140</ele>
        <time>2024-03-21T18:10:27Z</time>
      </trkpt>
      <trkpt lat="43.66703" lon="1.38305">
        <ele>141</ele>
        <time>2024-03-21T18:10:28Z</time>
      </trkpt>
      <trkpt lat="43.66704" lon="1.38302">
        <ele>141</ele>
        <time>2024-03-21T18:10:29Z</time>
      </trkpt>
      <trkpt lat="43.66705" lon="1.38299">
        <ele>141</ele>
        <time>2024-03-21T18:10:30Z</time>
      </trkpt>
      <trkpt lat="43.66706" lon="1.38296">
        <ele>141</ele>
        <time>2024-03-21T18:10:31Z</time>
      </trkpt>
      <trkpt lat="43.66708" lon="1.38291">
        <ele>141</ele>
        <time>2024-03-21T18:10:32Z</time>
      </trkpt>
      <trkpt lat="43.66708" lon="1.3829">
        <ele>141</ele>
        <time>2024-03-21T18:10:33Z</time>
      </trkpt>
      <trkpt lat="43.66709" lon="1.38287">
        <ele>142</ele>
        <time>2024-03-21T18:10:34Z</time>
      </trkpt>
      <trkpt lat="43.66711" lon="1.38282">
        <ele>142</ele>
        <time>2024-03-21T18:10:35Z</time>
      </trkpt>
      <trkpt lat="43.66711" lon="1.38281">
        <ele>142</ele>
        <time>2024-03-21T18:10:36Z</time>
      </trkpt>
      <trkpt lat="43.66712" lon="1.38278">
        <ele>142</ele>
        <time>2024-03-21T18:10:37Z</time>
      </trkpt>
      <trkpt lat="43.66713" lon="1.38275">
        <ele>142</ele>
        <time>2024-03-21T18:10:38Z</time>
      </trkpt>
      <trkpt lat="43.66715" lon="1.38272">
        <ele>143</ele>
        <time>2024-03-21T18:10:39Z</time>
      </trkpt>
      <trkpt lat="43.66716" lon="1.38269">
        <ele>143</ele>
        <time>2024-03-21T18:10:40Z</time>
      </trkpt>
      <trkpt lat="43.66717" lon="1.38266">
        <ele>143</ele>
        <time>2024-03-21T18:10:41Z</time>
      </trkpt>
      <trkpt lat="43.66717" lon="1.38263">
        <ele>143</ele>
        <time>2024-03-21T18:10:42Z</time>
      </trkpt>
      <trkpt lat="43.66718" lon="1.38259">
        <ele>143</ele>
        <time>2024-03-21T18:10:43Z</time>
      </trkpt>
      <trkpt lat="43.66719" lon="1.38256">
        <ele>143</ele>
        <time>2024-03-21T18:10:44Z</time>
      </trkpt>
      <trkpt lat="43.66719" lon="1.38253">
        <ele>144</ele>
        <time>2024-03-21T18:10:45Z</time>
      </trkpt>
      <trkpt lat="43.66719" lon="1.38249">
        <ele>144</ele>
        <time>2024-03-21T18:10:46Z</time>
      </trkpt>
      <trkpt lat="43.6672" lon="1.38246">
        <ele>144</ele>
        <time>2024-03-21T18:10:47Z</time>
      </trkpt>
      <trkpt lat="43.66721" lon="1.38243">
        <ele>144</ele>
        <time>2024-03-21T18:10:48Z</time>
      </trkpt>
      <trkpt lat="43.66721" lon="1.38239">
        <ele>144</ele>
        <time>2024-03-21T18:10:49Z</time>
      </trkpt>
      <trkpt lat="43.66721" lon="1.38236">
        <ele>144</ele>
        <time>2024-03-21T18:10:50Z</time>
      </trkpt>
      <trkpt lat="43.66722" lon="1.38233">
        <ele>144</ele>
        <time>2024-03-21T18:10:51Z</time>
      </trkpt>
      <trkpt lat="43.66722" lon="1.38228">
        <ele>144</ele>
        <time>2024-03-21T18:10:52Z</time>
      </trkpt>
      <trkpt lat="43.66722" lon="1.38226">
        <ele>144</ele>
        <time>2024-03-21T18:10:53Z</time>
      </trkpt>
      <trkpt lat="43.66722" lon="1.38221">
        <ele>144</ele>
        <time>2024-03-21T18:10:54Z</time>
      </trkpt>
      <trkpt lat="43.66722" lon="1.38219">
        <ele>144</ele>
        <time>2024-03-21T18:10:55Z</time>
      </trkpt>
      <trkpt lat="43.66723" lon="1.38216">
        <ele>144</ele>
        <time>2024-03-21T18:10:56Z</time>
      </trkpt>
      <trkpt lat="43.66723" lon="1.38212">
        <ele>144</ele>
        <time>2024-03-21T18:10:57Z</time>
      </trkpt>
      <trkpt lat="43.66723" lon="1.38209">
        <ele>144</ele>
        <time>2024-03-21T18:10:58Z</time>
      </trkpt>
      <trkpt lat="43.66723" lon="1.38206">
        <ele>144</ele>
        <time>2024-03-21T18:10:59Z</time>
      </trkpt>
      <trkpt lat="43.66723" lon="1.38203">
        <ele>144</ele>
        <time>2024-03-21T18:11:00Z</time>
      </trkpt>
      <trkpt lat="43.66723" lon="1.382">
        <ele>144</ele>
        <time>2024-03-21T18:11:01Z</time>
      </trkpt>
      <trkpt lat="43.66723" lon="1.38197">
        <ele>144</ele>
        <time>2024-03-21T18:11:02Z</time>
      </trkpt>
      <trkpt lat="43.66723" lon="1.38193">
        <ele>144</ele>
        <time>2024-03-21T18:11:03Z</time>
      </trkpt>
      <trkpt lat="43.66723" lon="1.38191">
        <ele>144</ele>
        <time>2024-03-21T18:11:04Z</time>
      </trkpt>
      <trkpt lat="43.66723" lon="1.38188">
        <ele>144</ele>
        <time>2024-03-21T18:11:05Z</time>
      </trkpt>
      <trkpt lat="43.66724" lon="1.38185">
        <ele>144</ele>
        <time>2024-03-21T18:11:06Z</time>
      </trkpt>
      <trkpt lat="43.66724" lon="1.38182">
        <ele>144</ele>
        <time>2024-03-21T18:11:07Z</time>
      </trkpt>
      <trkpt lat="43.66725" lon="1.38178">
        <ele>144</ele>
        <time>2024-03-21T18:11:08Z</time>
      </trkpt>
      <trkpt lat="43.66725" lon="1.38175">
        <ele>144</ele>
        <time>2024-03-21T18:11:09Z</time>
      </trkpt>
      <trkpt lat="43.66725" lon="1.38171">
        <ele>144</ele>
        <time>2024-03-21T18:11:10Z</time>
      </trkpt>
      <trkpt lat="43.66725" lon="1.38168">
        <ele>144</ele>
        <time>2024-03-21T18:11:11Z</time>
      </trkpt>
      <trkpt lat="43.66725" lon="1.38165">
        <ele>144</ele>
        <time>2024-03-21T18:11:12Z</time>
      </trkpt>
      <trkpt lat="43.66725" lon="1.38162">
        <ele>144</ele>
        <time>2024-03-21T18:11:13Z</time>
      </trkpt>
      <trkpt lat="43.66725" lon="1.38159">
        <ele>144</ele>
        <time>2024-03-21T18:11:14Z</time>
      </trkpt>
      <trkpt lat="43.66726" lon="1.38156">
        <ele>144</ele>
        <time>2024-03-21T18:11:15Z</time>
      </trkpt>
      <trkpt lat="43.66726" lon="1.38152">
        <ele>144</ele>
        <time>2024-03-21T18:11:16Z</time>
      </trkpt>
      <trkpt lat="43.66726" lon="1.3815">
        <ele>144</ele>
        <time>2024-03-21T18:11:17Z</time>
      </trkpt>
      <trkpt lat="43.66726" lon="1.38146">
        <ele>144</ele>
        <time>2024-03-21T18:11:18Z</time>
      </trkpt>
      <trkpt lat="43.66727" lon="1.38143">
        <ele>144</ele>
        <time>2024-03-21T18:11:19Z</time>
      </trkpt>
      <trkpt lat="43.66726" lon="1.3814">
        <ele>144</ele>
        <time>2024-03-21T18:11:20Z</time>
      </trkpt>
      <trkpt lat="43.66726" lon="1.38136">
        <ele>144</ele>
        <time>2024-03-21T18:11:21Z</time>
      </trkpt>
      <trkpt lat="43.66727" lon="1.38133">
        <ele>144</ele>
        <time>2024-03-21T18:11:22Z</time>
      </trkpt>
      <trkpt lat="43.66727" lon="1.3813">
        <ele>144</ele>
        <time>2024-03-21T18:11:23Z</time>
      </trkpt>
      <trkpt lat="43.66727" lon="1.38127">
        <ele>144</ele>
        <time>2024-03-21T18:11:24Z</time>
      </trkpt>
      <trkpt lat="43.66727" lon="1.38124">
        <ele>144</ele>
        <time>2024-03-21T18:11:25Z</time>
      </trkpt>
      <trkpt lat="43.66727" lon="1.3812">
        <ele>144</ele>
        <time>2024-03-21T18:11:26Z</time>
      </trkpt>
      <trkpt lat="43.66728" lon="1.38117">
        <ele>144</ele>
        <time>2024-03-21T18:11:27Z</time>
      </trkpt>
      <trkpt lat="43.66728" lon="1.38114">
        <ele>144</ele>
        <time>2024-03-21T18:11:28Z</time>
      </trkpt>
      <trkpt lat="43.66728" lon="1.38111">
        <ele>144</ele>
        <time>2024-03-21T18:11:29Z</time>
      </trkpt>
      <trkpt lat="43.66727" lon="1.38107">
        <ele>144</ele>
        <time>2024-03-21T18:11:30Z</time>
      </trkpt>
      <trkpt lat="43.66728" lon="1.38104">
        <ele>144</ele>
        <time>2024-03-21T18:11:31Z</time>
      </trkpt>
      <trkpt lat="43.66728" lon="1.381">
        <ele>144</ele>
        <time>2024-03-21T18:11:32Z</time>
      </trkpt>
      <trkpt lat="43.66728" lon="1.38098">
        <ele>144</ele>
        <time>2024-03-21T18:11:33Z</time>
      </trkpt>
      <trkpt lat="43.66729" lon="1.38095">
        <ele>144</ele>
        <time>2024-03-21T18:11:34Z</time>
      </trkpt>
      <trkpt lat="43.66729" lon="1.3809">
        <ele>144</ele>
        <time>2024-03-21T18:11:35Z</time>
      </trkpt>
      <trkpt lat="43.66729" lon="1.38088">
        <ele>144</ele>
        <time>2024-03-21T18:11:36Z</time>
      </trkpt>
      <trkpt lat="43.6673" lon="1.38085">
        <ele>144</ele>
        <time>2024-03-21T18:11:37Z</time>
      </trkpt>
      <trkpt lat="43.6673" lon="1.38081">
        <ele>144</ele>
        <time>2024-03-21T18:11:38Z</time>
      </trkpt>
      <trkpt lat="43.6673" lon="1.38078">
        <ele>144</ele>
        <time>2024-03-21T18:11:39Z</time>
      </trkpt>
      <trkpt lat="43.6673" lon="1.38075">
        <ele>144</ele>
        <time>2024-03-21T18:11:40Z</time>
      </trkpt>
      <trkpt lat="43.66731" lon="1.38072">
        <ele>144</ele>
        <time>2024-03-21T18:11:41Z</time>
      </trkpt>
      <trkpt lat="43.66731" lon="1.38069">
        <ele>144</ele>
        <time>2024-03-21T18:11:42Z</time>
      </trkpt>
      <trkpt lat="43.66732" lon="1.38065">
        <ele>144</ele>
        <time>2024-03-21T18:11:43Z</time>
      </trkpt>
      <trkpt lat="43.66732" lon="1.38062">
        <ele>144</ele>
        <time>2024-03-21T18:11:44Z</time>
      </trkpt>
      <trkpt lat="43.66732" lon="1.38059">
        <ele>144</ele>
        <time>2024-03-21T18:11:45Z</time>
      </trkpt>
      <trkpt lat="43.66732" lon="1.38056">
        <ele>144</ele>
        <time>2024-03-21T18:11:46Z</time>
      </trkpt>
      <trkpt lat="43.66732" lon="1.38053">
        <ele>144</ele>
        <time>2024-03-21T18:11:47Z</time>
      </trkpt>
      <trkpt lat="43.66732" lon="1.3805">
        <ele>144</ele>
        <time>2024-03-21T18:11:48Z</time>
      </trkpt>
      <trkpt lat="43.66733" lon="1.38048">
        <ele>143</ele>
        <time>2024-03-21T18:11:49Z</time>
      </trkpt>
      <trkpt lat="43.66734" lon="1.38045">
        <ele>143</ele>
        <time>2024-03-21T18:11:50Z</time>
      </trkpt>
      <trkpt lat="43.66735" lon="1.38041">
        <ele>143</ele>
        <time>2024-03-21T18:11:51Z</time>
      </trkpt>
      <trkpt lat="43.66736" lon="1.38039">
        <ele>143</ele>
        <time>2024-03-21T18:11:52Z</time>
      </trkpt>
      <trkpt lat="43.66738" lon="1.38037">
        <ele>143</ele>
        <time>2024-03-21T18:11:53Z</time>
      </trkpt>
      <trkpt lat="43.6674" lon="1.38034">
        <ele>142</ele>
        <time>2024-03-21T18:11:54Z</time>
      </trkpt>
      <trkpt lat="43.66742" lon="1.38032">
        <ele>142</ele>
        <time>2024-03-21T18:11:55Z</time>
      </trkpt>
      <trkpt lat="43.66744" lon="1.38031">
        <ele>141</ele>
        <time>2024-03-21T18:11:56Z</time>
      </trkpt>
      <trkpt lat="43.66747" lon="1.38028">
        <ele>141</ele>
        <time>2024-03-21T18:11:57Z</time>
      </trkpt>
      <trkpt lat="43.66748" lon="1.38028">
        <ele>140</ele>
        <time>2024-03-21T18:11:58Z</time>
      </trkpt>
      <trkpt lat="43.66749" lon="1.38026">
        <ele>139</ele>
        <time>2024-03-21T18:11:59Z</time>
      </trkpt>
      <trkpt lat="43.66751" lon="1.38024">
        <ele>139</ele>
        <time>2024-03-21T18:12:00Z</time>
      </trkpt>
      <trkpt lat="43.66753" lon="1.38022">
        <ele>139</ele>
        <time>2024-03-21T18:12:01Z</time>
      </trkpt>
      <trkpt lat="43.66756" lon="1.3802">
        <ele>138</ele>
        <time>2024-03-21T18:12:02Z</time>
      </trkpt>
      <trkpt lat="43.66759" lon="1.38019">
        <ele>138</ele>
        <time>2024-03-21T18:12:03Z</time>
      </trkpt>
      <trkpt lat="43.66761" lon="1.38018">
        <ele>138</ele>
        <time>2024-03-21T18:12:04Z</time>
      </trkpt>
      <trkpt lat="43.66764" lon="1.38016">
        <ele>138</ele>
        <time>2024-03-21T18:12:05Z</time>
      </trkpt>
      <trkpt lat="43.66766" lon="1.38013">
        <ele>138</ele>
        <time>2024-03-21T18:12:06Z</time>
      </trkpt>
      <trkpt lat="43.66769" lon="1.38011">
        <ele>138</ele>
        <time>2024-03-21T18:12:07Z</time>
      </trkpt>
      <trkpt lat="43.66771" lon="1.38009">
        <ele>137</ele>
        <time>2024-03-21T18:12:08Z</time>
      </trkpt>
      <trkpt lat="43.66773" lon="1.38008">
        <ele>137</ele>
        <time>2024-03-21T18:12:09Z</time>
      </trkpt>
      <trkpt lat="43.66776" lon="1.38007">
        <ele>137</ele>
        <time>2024-03-21T18:12:10Z</time>
      </trkpt>
      <trkpt lat="43.66778" lon="1.38006">
        <ele>137</ele>
        <time>2024-03-21T18:12:11Z</time>
      </trkpt>
      <trkpt lat="43.6678" lon="1.38005">
        <ele>137</ele>
        <time>2024-03-21T18:12:12Z</time>
      </trkpt>
      <trkpt lat="43.66782" lon="1.38005">
        <ele>137</ele>
        <time>2024-03-21T18:12:13Z</time>
      </trkpt>
      <trkpt lat="43.66784" lon="1.38006">
        <ele>137</ele>
        <time>2024-03-21T18:12:14Z</time>
      </trkpt>
      <trkpt lat="43.66786" lon="1.38007">
        <ele>137</ele>
        <time>2024-03-21T18:12:15Z</time>
      </trkpt>
      <trkpt lat="43.66789" lon="1.38007">
        <ele>137</ele>
        <time>2024-03-21T18:12:16Z</time>
      </trkpt>
      <trkpt lat="43.66792" lon="1.38008">
        <ele>137</ele>
        <time>2024-03-21T18:12:17Z</time>
      </trkpt>
      <trkpt lat="43.66793" lon="1.38008">
        <ele>137</ele>
        <time>2024-03-21T18:12:18Z</time>
      </trkpt>
      <trkpt lat="43.66795" lon="1.38008">
        <ele>138</ele>
        <time>2024-03-21T18:12:19Z</time>
      </trkpt>
      <trkpt lat="43.66797" lon="1.38009">
        <ele>138</ele>
        <time>2024-03-21T18:12:20Z</time>
      </trkpt>
      <trkpt lat="43.66799" lon="1.38009">
        <ele>138</ele>
        <time>2024-03-21T18:12:21Z</time>
      </trkpt>
      <trkpt lat="43.66802" lon="1.38007">
        <ele>138</ele>
        <time>2024-03-21T18:12:22Z</time>
      </trkpt>
      <trkpt lat="43.66803" lon="1.38006">
        <ele>138</ele>
        <time>2024-03-21T18:12:23Z</time>
      </trkpt>
      <trkpt lat="43.66805" lon="1.38005">
        <ele>138</ele>
        <time>2024-03-21T18:12:24Z</time>
      </trkpt>
      <trkpt lat="43.66808" lon="1.38003">
        <ele>138</ele>
        <time>2024-03-21T18:12:25Z</time>
      </trkpt>
      <trkpt lat="43.6681" lon="1.38002">
        <ele>138</ele>
        <time>2024-03-21T18:12:26Z</time>
      </trkpt>
      <trkpt lat="43.66813" lon="1.38">
        <ele>138</ele>
        <time>2024-03-21T18:12:27Z</time>
      </trkpt>
      <trkpt lat="43.66815" lon="1.37999">
        <ele>138</ele>
        <time>2024-03-21T18:12:28Z</time>
      </trkpt>
      <trkpt lat="43.66819" lon="1.37999">
        <ele>138</ele>
        <time>2024-03-21T18:12:29Z</time>
      </trkpt>
      <trkpt lat="43.66821" lon="1.37999">
        <ele>140</ele>
        <time>2024-03-21T18:12:30Z</time>
      </trkpt>
      <trkpt lat="43.66823" lon="1.38001">
        <ele>140</ele>
        <time>2024-03-21T18:12:31Z</time>
      </trkpt>
      <trkpt lat="43.66824" lon="1.38003">
        <ele>140</ele>
        <time>2024-03-21T18:12:32Z</time>
      </trkpt>
      <trkpt lat="43.66826" lon="1.38005">
        <ele>140</ele>
        <time>2024-03-21T18:12:33Z</time>
      </trkpt>
      <trkpt lat="43.66827" lon="1.38007">
        <ele>140</ele>
        <time>2024-03-21T18:12:34Z</time>
      </trkpt>
      <trkpt lat="43.66827" lon="1.38007">
        <ele>140</ele>
        <time>2024-03-21T18:12:35Z</time>
      </trkpt>
      <trkpt lat="43.66829" lon="1.38011">
        <ele>140</ele>
        <time>2024-03-21T18:12:36Z</time>
      </trkpt>
      <trkpt lat="43.66829" lon="1.38011">
        <ele>140</ele>
        <time>2024-03-21T18:12:37Z</time>
      </trkpt>
      <trkpt lat="43.66831" lon="1.38015">
        <ele>140</ele>
        <time>2024-03-21T18:12:38Z</time>
      </trkpt>
      <trkpt lat="43.66831" lon="1.38015">
        <ele>140</ele>
        <time>2024-03-21T18:12:39Z</time>
      </trkpt>
      <trkpt lat="43.66832" lon="1.38017">
        <ele>140</ele>
        <time>2024-03-21T18:12:40Z</time>
      </trkpt>
      <trkpt lat="43.66832" lon="1.38017">
        <ele>140</ele>
        <time>2024-03-21T18:12:41Z</time>
      </trkpt>
      <trkpt lat="43.66832" lon="1.38017">
        <ele>139</ele>
        <time>2024-03-21T18:12:42Z</time>
      </trkpt>
      <trkpt lat="43.66832" lon="1.38017">
        <ele>139</ele>
        <time>2024-03-21T18:12:43Z</time>
      </trkpt>
      <trkpt lat="43.66832" lon="1.38017">
        <ele>138</ele>
        <time>2024-03-21T18:12:44Z</time>
      </trkpt>
      <trkpt lat="43.66832" lon="1.38017">
        <ele>138</ele>
        <time>2024-03-21T18:12:45Z</time>
      </trkpt>
      <trkpt lat="43.66832" lon="1.38017">
        <ele>139</ele>
        <time>2024-03-21T18:12:46Z</time>
      </trkpt>
      <trkpt lat="43.66832" lon="1.38017">
        <ele>139</ele>
        <time>2024-03-21T18:12:47Z</time>
      </trkpt>
      <trkpt lat="43.66834" lon="1.38019">
        <ele>139</ele>
        <time>2024-03-21T18:12:49Z</time>
      </trkpt>
      <trkpt lat="43.66834" lon="1.38019">
        <ele>139</ele>
        <time>2024-03-21T18:12:50Z</time>
      </trkpt>
      <trkpt lat="43.66834" lon="1.38019">
        <ele>139</ele>
        <time>2024-03-21T18:12:51Z</time>
      </trkpt>
      <trkpt lat="43.66834" lon="1.38019">
        <ele>139</ele>
        <time>2024-03-21T18:12:52Z</time>
      </trkpt>
      <trkpt lat="43.66834" lon="1.38019">
        <ele>139</ele>
        <time>2024-03-21T18:12:53Z</time>
      </trkpt>
      <trkpt lat="43.66834" lon="1.38019">
        <ele>139</ele>
        <time>2024-03-21T18:12:54Z</time>
      </trkpt>
      <trkpt lat="43.66834" lon="1.38019">
        <ele>139</ele>
        <time>2024-03-21T18:12:55Z</time>
      </trkpt>
      <trkpt lat="43.66834" lon="1.38019">
        <ele>139</ele>
        <time>2024-03-21T18:12:56Z</time>
      </trkpt>
      <trkpt lat="43.66834" lon="1.38019">
        <ele>139</ele>
        <time>2024-03-21T18:12:57Z</time>
      </trkpt>
      <trkpt lat="43.66834" lon="1.38019">
        <ele>139</ele>
        <time>2024-03-21T18:12:58Z</time>
      </trkpt>
      <trkpt lat="43.66834" lon="1.38019">
        <ele>139</ele>
        <time>2024-03-21T18:12:59Z</time>
      </trkpt>
      <trkpt lat="43.66834" lon="1.38019">
        <ele>139</ele>
        <time>2024-03-21T18:13:00Z</time>
      </trkpt>
      <trkpt lat="43.66834" lon="1.38019">
        <ele>139</ele>
        <time>2024-03-21T18:13:01Z</time>
      </trkpt>
      <trkpt lat="43.66834" lon="1.38019">
        <ele>139</ele>
        <time>2024-03-21T18:13:02Z</time>
      </trkpt>
      <trkpt lat="43.66834" lon="1.38019">
        <ele>139</ele>
        <time>2024-03-21T18:13:03Z</time>
      </trkpt>
      <trkpt lat="43.66834" lon="1.38019">
        <ele>139</ele>
        <time>2024-03-21T18:13:04Z</time>
      </trkpt>
      <trkpt lat="43.66834" lon="1.38019">
        <ele>139</ele>
        <time>2024-03-21T18:13:05Z</time>
      </trkpt>
      <trkpt lat="43.66834" lon="1.38019">
        <ele>139</ele>
        <time>2024-03-21T18:13:06Z</time>
      </trkpt>
      <trkpt lat="43.66834" lon="1.38019">
        <ele>139</ele>
        <time>2024-03-21T18:13:08Z</time>
      </trkpt>
      <trkpt lat="43.66834" lon="1.38019">
        <ele>139</ele>
        <time>2024-03-21T18:13:09Z</time>
      </trkpt>
      <trkpt lat="43.66834" lon="1.38019">
        <ele>139</ele>
        <time>2024-03-21T18:13:11Z</time>
      </trkpt>
      <trkpt lat="43.66834" lon="1.38019">
        <ele>139</ele>
        <time>2024-03-21T18:13:12Z</time>
      </trkpt>
      <trkpt lat="43.66834" lon="1.38019">
        <ele>139</ele>
        <time>2024-03-21T18:13:13Z</time>
      </trkpt>
      <trkpt lat="43.66834" lon="1.38019">
        <ele>139</ele>
        <time>2024-03-21T18:13:14Z</time>
      </trkpt>
      <trkpt lat="43.66834" lon="1.38019">
        <ele>139</ele>
        <time>2024-03-21T18:13:15Z</time>
      </trkpt>
      <trkpt lat="43.66834" lon="1.38019">
        <ele>139</ele>
        <time>2024-03-21T18:13:16Z</time>
      </trkpt>
      <trkpt lat="43.66834" lon="1.38019">
        <ele>139</ele>
        <time>2024-03-21T18:13:17Z</time>
      </trkpt>
      <trkpt lat="43.66834" lon="1.38019">
        <ele>139</ele>
        <time>2024-03-21T18:13:18Z</time>
      </trkpt>
      <trkpt lat="43.66834" lon="1.38019">
        <ele>139</ele>
        <time>2024-03-21T18:13:19Z</time>
      </trkpt>
      <trkpt lat="43.66834" lon="1.38019">
        <ele>139</ele>
        <time>2024-03-21T18:13:20Z</time>
      </trkpt>
      <trkpt lat="43.66834" lon="1.38019">
        <ele>139</ele>
        <time>2024-03-21T18:13:21Z</time>
      </trkpt>
      <trkpt lat="43.66834" lon="1.38019">
        <ele>139</ele>
        <time>2024-03-21T18:13:22Z</time>
      </trkpt>
      <trkpt lat="43.66834" lon="1.38019">
        <ele>139</ele>
        <time>2024-03-21T18:13:23Z</time>
      </trkpt>
      <trkpt lat="43.66834" lon="1.38019">
        <ele>139</ele>
        <time>2024-03-21T18:13:24Z</time>
      </trkpt>
      <trkpt lat="43.66834" lon="1.38019">
        <ele>139</ele>
        <time>2024-03-21T18:13:25Z</time>
      </trkpt>
      <trkpt lat="43.66834" lon="1.38019">
        <ele>139</ele>
        <time>2024-03-21T18:13:27Z</time>
      </trkpt>
      <trkpt lat="43.66834" lon="1.38019">
        <ele>139</ele>
        <time>2024-03-21T18:13:28Z</time>
      </trkpt>
      <trkpt lat="43.66834" lon="1.38019">
        <ele>139</ele>
        <time>2024-03-21T18:13:29Z</time>
      </trkpt>
      <trkpt lat="43.66834" lon="1.38019">
        <ele>139</ele>
        <time>2024-03-21T18:13:30Z</time>
      </trkpt>
      <trkpt lat="43.66834" lon="1.38019">
        <ele>139</ele>
        <time>2024-03-21T18:13:31Z</time>
      </trkpt>
      <trkpt lat="43.66834" lon="1.38019">
        <ele>139</ele>
        <time>2024-03-21T18:13:32Z</time>
      </trkpt>
      <trkpt lat="43.66834" lon="1.38019">
        <ele>139</ele>
        <time>2024-03-21T18:13:33Z</time>
      </trkpt>
      <trkpt lat="43.66834" lon="1.38019">
        <ele>139</ele>
        <time>2024-03-21T18:13:34Z</time>
      </trkpt>
      <trkpt lat="43.66834" lon="1.38019">
        <ele>139</ele>
        <time>2024-03-21T18:13:35Z</time>
      </trkpt>
      <trkpt lat="43.66834" lon="1.38019">
        <ele>139</ele>
        <time>2024-03-21T18:13:36Z</time>
      </trkpt>
      <trkpt lat="43.66834" lon="1.38019">
        <ele>139</ele>
        <time>2024-03-21T18:13:37Z</time>
      </trkpt>
      <trkpt lat="43.66834" lon="1.38019">
        <ele>139</ele>
        <time>2024-03-21T18:13:38Z</time>
      </trkpt>
      <trkpt lat="43.66834" lon="1.38019">
        <ele>139</ele>
        <time>2024-03-21T18:13:39Z</time>
      </trkpt>
      <trkpt lat="43.66834" lon="1.38019">
        <ele>139</ele>
        <time>2024-03-21T18:13:40Z</time>
      </trkpt>
      <trkpt lat="43.66834" lon="1.38019">
        <ele>139</ele>
        <time>2024-03-21T18:13:41Z</time>
      </trkpt>
      <trkpt lat="43.66834" lon="1.38019">
        <ele>139</ele>
        <time>2024-03-21T18:13:42Z</time>
      </trkpt>
      <trkpt lat="43.66834" lon="1.38019">
        <ele>139</ele>
        <time>2024-03-21T18:13:43Z</time>
      </trkpt>
      <trkpt lat="43.66834" lon="1.38019">
        <ele>139</ele>
        <time>2024-03-21T18:13:44Z</time>
      </trkpt>
      <trkpt lat="43.66834" lon="1.38019">
        <ele>139</ele>
        <time>2024-03-21T18:13:46Z</time>
      </trkpt>
      <trkpt lat="43.66834" lon="1.38019">
        <ele>139</ele>
        <time>2024-03-21T18:13:47Z</time>
      </trkpt>
      <trkpt lat="43.66834" lon="1.38019">
        <ele>139</ele>
        <time>2024-03-21T18:13:48Z</time>
      </trkpt>
      <trkpt lat="43.66834" lon="1.38019">
        <ele>139</ele>
        <time>2024-03-21T18:13:49Z</time>
      </trkpt>
      <trkpt lat="43.66834" lon="1.38019">
        <ele>140</ele>
        <time>2024-03-21T18:13:50Z</time>
      </trkpt>
      <trkpt lat="43.66834" lon="1.38019">
        <ele>140</ele>
        <time>2024-03-21T18:13:51Z</time>
      </trkpt>
      <trkpt lat="43.66834" lon="1.38022">
        <ele>140</ele>
        <time>2024-03-21T18:13:52Z</time>
      </trkpt>
      <trkpt lat="43.66834" lon="1.38022">
        <ele>140</ele>
        <time>2024-03-21T18:13:53Z</time>
      </trkpt>
      <trkpt lat="43.66834" lon="1.38022">
        <ele>140</ele>
        <time>2024-03-21T18:13:54Z</time>
      </trkpt>
      <trkpt lat="43.66834" lon="1.38022">
        <ele>140</ele>
        <time>2024-03-21T18:13:55Z</time>
      </trkpt>
      <trkpt lat="43.66834" lon="1.38022">
        <ele>140</ele>
        <time>2024-03-21T18:13:56Z</time>
      </trkpt>
      <trkpt lat="43.66834" lon="1.38022">
        <ele>140</ele>
        <time>2024-03-21T18:13:57Z</time>
      </trkpt>
      <trkpt lat="43.66834" lon="1.38022">
        <ele>140</ele>
        <time>2024-03-21T18:13:58Z</time>
      </trkpt>
      <trkpt lat="43.66834" lon="1.38022">
        <ele>140</ele>
        <time>2024-03-21T18:13:59Z</time>
      </trkpt>
      <trkpt lat="43.66834" lon="1.38022">
        <ele>140</ele>
        <time>2024-03-21T18:14:00Z</time>
      </trkpt>
      <trkpt lat="43.66834" lon="1.38022">
        <ele>140</ele>
        <time>2024-03-21T18:14:01Z</time>
      </trkpt>
      <trkpt lat="43.66834" lon="1.38022">
        <ele>140</ele>
        <time>2024-03-21T18:14:02Z</time>
      </trkpt>
      <trkpt lat="43.66834" lon="1.38022">
        <ele>140</ele>
        <time>2024-03-21T18:14:03Z</time>
      </trkpt>
      <trkpt lat="43.66834" lon="1.38022">
        <ele>140</ele>
        <time>2024-03-21T18:14:05Z</time>
      </trkpt>
      <trkpt lat="43.66834" lon="1.38022">
        <ele>140</ele>
        <time>2024-03-21T18:14:06Z</time>
      </trkpt>
      <trkpt lat="43.66834" lon="1.38022">
        <ele>140</ele>
        <time>2024-03-21T18:14:07Z</time>
      </trkpt>
      <trkpt lat="43.66834" lon="1.38022">
        <ele>139</ele>
        <time>2024-03-21T18:14:08Z</time>
      </trkpt>
      <trkpt lat="43.66834" lon="1.38022">
        <ele>139</ele>
        <time>2024-03-21T18:14:09Z</time>
      </trkpt>
      <trkpt lat="43.66834" lon="1.38022">
        <ele>139</ele>
        <time>2024-03-21T18:14:10Z</time>
      </trkpt>
      <trkpt lat="43.66834" lon="1.38022">
        <ele>139</ele>
        <time>2024-03-21T18:14:11Z</time>
      </trkpt>
      <trkpt lat="43.66834" lon="1.38022">
        <ele>139</ele>
        <time>2024-03-21T18:14:12Z</time>
      </trkpt>
      <trkpt lat="43.66834" lon="1.38022">
        <ele>139</ele>
        <time>2024-03-21T18:14:13Z</time>
      </trkpt>
      <trkpt lat="43.66834" lon="1.38022">
        <ele>139</ele>
        <time>2024-03-21T18:14:14Z</time>
      </trkpt>
      <trkpt lat="43.66834" lon="1.38022">
        <ele>139</ele>
        <time>2024-03-21T18:14:15Z</time>
      </trkpt>
      <trkpt lat="43.66833" lon="1.38024">
        <ele>139</ele>
        <time>2024-03-21T18:14:16Z</time>
      </trkpt>
      <trkpt lat="43.66833" lon="1.38024">
        <ele>139</ele>
        <time>2024-03-21T18:14:17Z</time>
      </trkpt>
      <trkpt lat="43.66833" lon="1.38024">
        <ele>139</ele>
        <time>2024-03-21T18:14:18Z</time>
      </trkpt>
      <trkpt lat="43.66833" lon="1.38024">
        <ele>139</ele>
        <time>2024-03-21T18:14:19Z</time>
      </trkpt>
      <trkpt lat="43.66833" lon="1.38024">
        <ele>139</ele>
        <time>2024-03-21T18:14:20Z</time>
      </trkpt>
      <trkpt lat="43.66833" lon="1.38024">
        <ele>139</ele>
        <time>2024-03-21T18:14:21Z</time>
      </trkpt>
      <trkpt lat="43.66833" lon="1.38024">
        <ele>139</ele>
        <time>2024-03-21T18:14:22Z</time>
      </trkpt>
      <trkpt lat="43.66833" lon="1.38024">
        <ele>139</ele>
        <time>2024-03-21T18:14:24Z</time>
      </trkpt>
      <trkpt lat="43.66835" lon="1.38026">
        <ele>139</ele>
        <time>2024-03-21T18:14:25Z</time>
      </trkpt>
      <trkpt lat="43.66835" lon="1.38026">
        <ele>139</ele>
        <time>2024-03-21T18:14:26Z</time>
      </trkpt>
      <trkpt lat="43.66835" lon="1.38026">
        <ele>139</ele>
        <time>2024-03-21T18:14:27Z</time>
      </trkpt>
      <trkpt lat="43.66835" lon="1.38029">
        <ele>139</ele>
        <time>2024-03-21T18:14:28Z</time>
      </trkpt>
      <trkpt lat="43.66835" lon="1.38029">
        <ele>139</ele>
        <time>2024-03-21T18:14:29Z</time>
      </trkpt>
      <trkpt lat="43.66835" lon="1.38029">
        <ele>139</ele>
        <time>2024-03-21T18:14:30Z</time>
      </trkpt>
      <trkpt lat="43.66835" lon="1.38029">
        <ele>138</ele>
        <time>2024-03-21T18:14:31Z</time>
      </trkpt>
      <trkpt lat="43.66835" lon="1.38029">
        <ele>138</ele>
        <time>2024-03-21T18:14:32Z</time>
      </trkpt>
      <trkpt lat="43.66835" lon="1.38029">
        <ele>138</ele>
        <time>2024-03-21T18:14:33Z</time>
      </trkpt>
      <trkpt lat="43.66835" lon="1.38029">
        <ele>138</ele>
        <time>2024-03-21T18:14:34Z</time>
      </trkpt>
      <trkpt lat="43.66835" lon="1.38029">
        <ele>138</ele>
        <time>2024-03-21T18:14:35Z</time>
      </trkpt>
      <trkpt lat="43.66835" lon="1.38029">
        <ele>138</ele>
        <time>2024-03-21T18:14:36Z</time>
      </trkpt>
      <trkpt lat="43.66835" lon="1.38029">
        <ele>138</ele>
        <time>2024-03-21T18:14:37Z</time>
      </trkpt>
      <trkpt lat="43.66835" lon="1.38029">
        <ele>138</ele>
        <time>2024-03-21T18:14:38Z</time>
      </trkpt>
      <trkpt lat="43.66835" lon="1.38029">
        <ele>138</ele>
        <time>2024-03-21T18:14:39Z</time>
      </trkpt>
      <trkpt lat="43.66835" lon="1.38029">
        <ele>138</ele>
        <time>2024-03-21T18:14:40Z</time>
      </trkpt>
      <trkpt lat="43.66835" lon="1.38029">
        <ele>138</ele>
        <time>2024-03-21T18:14:41Z</time>
      </trkpt>
      <trkpt lat="43.66835" lon="1.38029">
        <ele>138</ele>
        <time>2024-03-21T18:14:43Z</time>
      </trkpt>
      <trkpt lat="43.66835" lon="1.38029">
        <ele>138</ele>
        <time>2024-03-21T18:14:44Z</time>
      </trkpt>
      <trkpt lat="43.66835" lon="1.38029">
        <ele>138</ele>
        <time>2024-03-21T18:14:45Z</time>
      </trkpt>
      <trkpt lat="43.66835" lon="1.38029">
        <ele>138</ele>
        <time>2024-03-21T18:14:46Z</time>
      </trkpt>
      <trkpt lat="43.66835" lon="1.38029">
        <ele>138</ele>
        <time>2024-03-21T18:14:47Z</time>
      </trkpt>
      <trkpt lat="43.66835" lon="1.38029">
        <ele>138</ele>
        <time>2024-03-21T18:14:48Z</time>
      </trkpt>
      <trkpt lat="43.66835" lon="1.38029">
        <ele>138</ele>
        <time>2024-03-21T18:14:49Z</time>
      </trkpt>
      <trkpt lat="43.66835" lon="1.38029">
        <ele>138</ele>
        <time>2024-03-21T18:14:50Z</time>
      </trkpt>
      <trkpt lat="43.66835" lon="1.38029">
        <ele>138</ele>
        <time>2024-03-21T18:14:51Z</time>
      </trkpt>
      <trkpt lat="43.66835" lon="1.38029">
        <ele>138</ele>
        <time>2024-03-21T18:14:52Z</time>
      </trkpt>
      <trkpt lat="43.66835" lon="1.38029">
        <ele>138</ele>
        <time>2024-03-21T18:14:53Z</time>
      </trkpt>
      <trkpt lat="43.66835" lon="1.38029">
        <ele>138</ele>
        <time>2024-03-21T18:14:54Z</time>
      </trkpt>
      <trkpt lat="43.66835" lon="1.38029">
        <ele>138</ele>
        <time>2024-03-21T18:14:55Z</time>
      </trkpt>
      <trkpt lat="43.66835" lon="1.38029">
        <ele>138</ele>
        <time>2024-03-21T18:14:56Z</time>
      </trkpt>
      <trkpt lat="43.66835" lon="1.38029">
        <ele>138</ele>
        <time>2024-03-21T18:14:57Z</time>
      </trkpt>
      <trkpt lat="43.66835" lon="1.38029">
        <ele>138</ele>
        <time>2024-03-21T18:14:58Z</time>
      </trkpt>
      <trkpt lat="43.66835" lon="1.38029">
        <ele>138</ele>
        <time>2024-03-21T18:14:59Z</time>
      </trkpt>
      <trkpt lat="43.66835" lon="1.38029">
        <ele>138</ele>
        <time>2024-03-21T18:15:00Z</time>
      </trkpt>
      <trkpt lat="43.66835" lon="1.38029">
        <ele>138</ele>
        <time>2024-03-21T18:15:02Z</time>
      </trkpt>
      <trkpt lat="43.66835" lon="1.38029">
        <ele>139</ele>
        <time>2024-03-21T18:15:03Z</time>
      </trkpt>
      <trkpt lat="43.66835" lon="1.38029">
        <ele>139</ele>
        <time>2024-03-21T18:15:04Z</time>
      </trkpt>
      <trkpt lat="43.66833" lon="1.38026">
        <ele>139</ele>
        <time>2024-03-21T18:15:05Z</time>
      </trkpt>
      <trkpt lat="43.66833" lon="1.38026">
        <ele>138</ele>
        <time>2024-03-21T18:15:06Z</time>
      </trkpt>
      <trkpt lat="43.66831" lon="1.38027">
        <ele>138</ele>
        <time>2024-03-21T18:15:07Z</time>
      </trkpt>
      <trkpt lat="43.66831" lon="1.38027">
        <ele>138</ele>
        <time>2024-03-21T18:15:08Z</time>
      </trkpt>
      <trkpt lat="43.66831" lon="1.38027">
        <ele>138</ele>
        <time>2024-03-21T18:15:09Z</time>
      </trkpt>
      <trkpt lat="43.66829" lon="1.38028">
        <ele>138</ele>
        <time>2024-03-21T18:15:10Z</time>
      </trkpt>
      <trkpt lat="43.66829" lon="1.38028">
        <ele>138</ele>
        <time>2024-03-21T18:15:11Z</time>
      </trkpt>
      <trkpt lat="43.66829" lon="1.38028">
        <ele>138</ele>
        <time>2024-03-21T18:15:12Z</time>
      </trkpt>
      <trkpt lat="43.66829" lon="1.38028">
        <ele>138</ele>
        <time>2024-03-21T18:15:13Z</time>
      </trkpt>
      <trkpt lat="43.66829" lon="1.38028">
        <ele>138</ele>
        <time>2024-03-21T18:15:14Z</time>
      </trkpt>
      <trkpt lat="43.66829" lon="1.38028">
        <ele>138</ele>
        <time>2024-03-21T18:15:15Z</time>
      </trkpt>
      <trkpt lat="43.66829" lon="1.38028">
        <ele>138</ele>
        <time>2024-03-21T18:15:16Z</time>
      </trkpt>
      <trkpt lat="43.66829" lon="1.38028">
        <ele>138</ele>
        <time>2024-03-21T18:15:17Z</time>
      </trkpt>
      <trkpt lat="43.66829" lon="1.38028">
        <ele>138</ele>
        <time>2024-03-21T18:15:18Z</time>
      </trkpt>
      <trkpt lat="43.66831" lon="1.38031">
        <ele>138</ele>
        <time>2024-03-21T18:15:19Z</time>
      </trkpt>
      <trkpt lat="43.66831" lon="1.38031">
        <ele>138</ele>
        <time>2024-03-21T18:15:21Z</time>
      </trkpt>
      <trkpt lat="43.66831" lon="1.38031">
        <ele>138</ele>
        <time>2024-03-21T18:15:22Z</time>
      </trkpt>
      <trkpt lat="43.66832" lon="1.38033">
        <ele>138</ele>
        <time>2024-03-21T18:15:23Z</time>
      </trkpt>
      <trkpt lat="43.66832" lon="1.38033">
        <ele>138</ele>
        <time>2024-03-21T18:15:24Z</time>
      </trkpt>
      <trkpt lat="43.66832" lon="1.38033">
        <ele>138</ele>
        <time>2024-03-21T18:15:25Z</time>
      </trkpt>
      <trkpt lat="43.66832" lon="1.38033">
        <ele>138</ele>
        <time>2024-03-21T18:15:26Z</time>
      </trkpt>
      <trkpt lat="43.66834" lon="1.38034">
        <ele>138</ele>
        <time>2024-03-21T18:15:27Z</time>
      </trkpt>
      <trkpt lat="43.66834" lon="1.38034">
        <ele>138</ele>
        <time>2024-03-21T18:15:28Z</time>
      </trkpt>
      <trkpt lat="43.66834" lon="1.38034">
        <ele>138</ele>
        <time>2024-03-21T18:15:29Z</time>
      </trkpt>
      <trkpt lat="43.66834" lon="1.38034">
        <ele>138</ele>
        <time>2024-03-21T18:15:30Z</time>
      </trkpt>
      <trkpt lat="43.66834" lon="1.38034">
        <ele>138</ele>
        <time>2024-03-21T18:15:31Z</time>
      </trkpt>
      <trkpt lat="43.66834" lon="1.38034">
        <ele>138</ele>
        <time>2024-03-21T18:15:32Z</time>
      </trkpt>
      <trkpt lat="43.66834" lon="1.38034">
        <ele>138</ele>
        <time>2024-03-21T18:15:33Z</time>
      </trkpt>
      <trkpt lat="43.66834" lon="1.38034">
        <ele>138</ele>
        <time>2024-03-21T18:15:34Z</time>
      </trkpt>
      <trkpt lat="43.66834" lon="1.38034">
        <ele>138</ele>
        <time>2024-03-21T18:15:35Z</time>
      </trkpt>
      <trkpt lat="43.66834" lon="1.38034">
        <ele>138</ele>
        <time>2024-03-21T18:15:36Z</time>
      </trkpt>
      <trkpt lat="43.66834" lon="1.38034">
        <ele>138</ele>
        <time>2024-03-21T18:15:37Z</time>
      </trkpt>
      <trkpt lat="43.66834" lon="1.38034">
        <ele>138</ele>
        <time>2024-03-21T18:15:38Z</time>
      </trkpt>
      <trkpt lat="43.66834" lon="1.38034">
        <ele>138</ele>
        <time>2024-03-21T18:15:40Z</time>
      </trkpt>
      <trkpt lat="43.66834" lon="1.38034">
        <ele>139</ele>
        <time>2024-03-21T18:15:41Z</time>
      </trkpt>
      <trkpt lat="43.66836" lon="1.38036">
        <ele>139</ele>
        <time>2024-03-21T18:15:42Z</time>
      </trkpt>
      <trkpt lat="43.66836" lon="1.38036">
        <ele>139</ele>
        <time>2024-03-21T18:15:43Z</time>
      </trkpt>
      <trkpt lat="43.66836" lon="1.38036">
        <ele>138</ele>
        <time>2024-03-21T18:15:44Z</time>
      </trkpt>
      <trkpt lat="43.66837" lon="1.38039">
        <ele>138</ele>
        <time>2024-03-21T18:15:45Z</time>
      </trkpt>
      <trkpt lat="43.66837" lon="1.38039">
        <ele>138</ele>
        <time>2024-03-21T18:15:46Z</time>
      </trkpt>
      <trkpt lat="43.66838" lon="1.38041">
        <ele>138</ele>
        <time>2024-03-21T18:15:47Z</time>
      </trkpt>
      <trkpt lat="43.66838" lon="1.38041">
        <ele>138</ele>
        <time>2024-03-21T18:15:48Z</time>
      </trkpt>
      <trkpt lat="43.66838" lon="1.38044">
        <ele>138</ele>
        <time>2024-03-21T18:15:49Z</time>
      </trkpt>
      <trkpt lat="43.66838" lon="1.38044">
        <ele>138</ele>
        <time>2024-03-21T18:15:50Z</time>
      </trkpt>
      <trkpt lat="43.66838" lon="1.38044">
        <ele>138</ele>
        <time>2024-03-21T18:15:51Z</time>
      </trkpt>
      <trkpt lat="43.66839" lon="1.38046">
        <ele>137</ele>
        <time>2024-03-21T18:15:52Z</time>
      </trkpt>
      <trkpt lat="43.66839" lon="1.38046">
        <ele>137</ele>
        <time>2024-03-21T18:15:53Z</time>
      </trkpt>
      <trkpt lat="43.6684" lon="1.38049">
        <ele>137</ele>
        <time>2024-03-21T18:15:54Z</time>
      </trkpt>
      <trkpt lat="43.6684" lon="1.38049">
        <ele>137</ele>
        <time>2024-03-21T18:15:55Z</time>
      </trkpt>
      <trkpt lat="43.66841" lon="1.38052">
        <ele>137</ele>
        <time>2024-03-21T18:15:56Z</time>
      </trkpt>
      <trkpt lat="43.66841" lon="1.38052">
        <ele>137</ele>
        <time>2024-03-21T18:15:57Z</time>
      </trkpt>
      <trkpt lat="43.6684" lon="1.38055">
        <ele>137</ele>
        <time>2024-03-21T18:15:58Z</time>
      </trkpt>
      <trkpt lat="43.6684" lon="1.38055">
        <ele>137</ele>
        <time>2024-03-21T18:15:59Z</time>
      </trkpt>
      <trkpt lat="43.6684" lon="1.38055">
        <ele>137</ele>
        <time>2024-03-21T18:16:00Z</time>
      </trkpt>
      <trkpt lat="43.66841" lon="1.38058">
        <ele>137</ele>
        <time>2024-03-21T18:16:01Z</time>
      </trkpt>
      <trkpt lat="43.66841" lon="1.38058">
        <ele>137</ele>
        <time>2024-03-21T18:16:02Z</time>
      </trkpt>
      <trkpt lat="43.66841" lon="1.38058">
        <ele>136</ele>
        <time>2024-03-21T18:16:03Z</time>
      </trkpt>
      <trkpt lat="43.66842" lon="1.38061">
        <ele>136</ele>
        <time>2024-03-21T18:16:04Z</time>
      </trkpt>
      <trkpt lat="43.66842" lon="1.38061">
        <ele>136</ele>
        <time>2024-03-21T18:16:05Z</time>
      </trkpt>
      <trkpt lat="43.66843" lon="1.38064">
        <ele>136</ele>
        <time>2024-03-21T18:16:06Z</time>
      </trkpt>
      <trkpt lat="43.66843" lon="1.38064">
        <ele>136</ele>
        <time>2024-03-21T18:16:07Z</time>
      </trkpt>
      <trkpt lat="43.66843" lon="1.38064">
        <ele>136</ele>
        <time>2024-03-21T18:16:08Z</time>
      </trkpt>
      <trkpt lat="43.66844" lon="1.38067">
        <ele>136</ele>
        <time>2024-03-21T18:16:09Z</time>
      </trkpt>
      <trkpt lat="43.66844" lon="1.38067">
        <ele>135</ele>
        <time>2024-03-21T18:16:10Z</time>
      </trkpt>
      <trkpt lat="43.66844" lon="1.38067">
        <ele>135</ele>
        <time>2024-03-21T18:16:11Z</time>
      </trkpt>
      <trkpt lat="43.66844" lon="1.38067">
        <ele>134</ele>
        <time>2024-03-21T18:16:12Z</time>
      </trkpt>
      <trkpt lat="43.66845" lon="1.3807">
        <ele>134</ele>
        <time>2024-03-21T18:16:13Z</time>
      </trkpt>
      <trkpt lat="43.66845" lon="1.3807">
        <ele>134</ele>
        <time>2024-03-21T18:16:14Z</time>
      </trkpt>
      <trkpt lat="43.66845" lon="1.38072">
        <ele>134</ele>
        <time>2024-03-21T18:16:15Z</time>
      </trkpt>
      <trkpt lat="43.66845" lon="1.38072">
        <ele>134</ele>
        <time>2024-03-21T18:16:16Z</time>
      </trkpt>
      <trkpt lat="43.66846" lon="1.38075">
        <ele>134</ele>
        <time>2024-03-21T18:16:17Z</time>
      </trkpt>
      <trkpt lat="43.66846" lon="1.38075">
        <ele>134</ele>
        <time>2024-03-21T18:16:18Z</time>
      </trkpt>
      <trkpt lat="43.66846" lon="1.38075">
        <ele>134</ele>
        <time>2024-03-21T18:16:19Z</time>
      </trkpt>
      <trkpt lat="43.66847" lon="1.38078">
        <ele>134</ele>
        <time>2024-03-21T18:16:20Z</time>
      </trkpt>
      <trkpt lat="43.66847" lon="1.38078">
        <ele>134</ele>
        <time>2024-03-21T18:16:21Z</time>
      </trkpt>
      <trkpt lat="43.66847" lon="1.38081">
        <ele>134</ele>
        <time>2024-03-21T18:16:22Z</time>
      </trkpt>
      <trkpt lat="43.66847" lon="1.38081">
        <ele>134</ele>
        <time>2024-03-21T18:16:23Z</time>
      </trkpt>
      <trkpt lat="43.66847" lon="1.38084">
        <ele>134</ele>
        <time>2024-03-21T18:16:24Z</time>
      </trkpt>
      <trkpt lat="43.66847" lon="1.38084">
        <ele>133</ele>
        <time>2024-03-21T18:16:25Z</time>
      </trkpt>
      <trkpt lat="43.66848" lon="1.38087">
        <ele>133</ele>
        <time>2024-03-21T18:16:26Z</time>
      </trkpt>
      <trkpt lat="43.66848" lon="1.38087">
        <ele>133</ele>
        <time>2024-03-21T18:16:27Z</time>
      </trkpt>
      <trkpt lat="43.66849" lon="1.3809">
        <ele>133</ele>
        <time>2024-03-21T18:16:28Z</time>
      </trkpt>
      <trkpt lat="43.66849" lon="1.3809">
        <ele>133</ele>
        <time>2024-03-21T18:16:29Z</time>
      </trkpt>
      <trkpt lat="43.66851" lon="1.38093">
        <ele>133</ele>
        <time>2024-03-21T18:16:30Z</time>
      </trkpt>
      <trkpt lat="43.66851" lon="1.38093">
        <ele>132</ele>
        <time>2024-03-21T18:16:31Z</time>
      </trkpt>
      <trkpt lat="43.66852" lon="1.38096">
        <ele>132</ele>
        <time>2024-03-21T18:16:32Z</time>
      </trkpt>
      <trkpt lat="43.66852" lon="1.38096">
        <ele>132</ele>
        <time>2024-03-21T18:16:33Z</time>
      </trkpt>
      <trkpt lat="43.66853" lon="1.38099">
        <ele>132</ele>
        <time>2024-03-21T18:16:34Z</time>
      </trkpt>
      <trkpt lat="43.66853" lon="1.38099">
        <ele>132</ele>
        <time>2024-03-21T18:16:35Z</time>
      </trkpt>
      <trkpt lat="43.66854" lon="1.38102">
        <ele>132</ele>
        <time>2024-03-21T18:16:36Z</time>
      </trkpt>
      <trkpt lat="43.66854" lon="1.38102">
        <ele>132</ele>
        <time>2024-03-21T18:16:37Z</time>
      </trkpt>
      <trkpt lat="43.66856" lon="1.38105">
        <ele>132</ele>
        <time>2024-03-21T18:16:38Z</time>
      </trkpt>
      <trkpt lat="43.66856" lon="1.38105">
        <ele>132</ele>
        <time>2024-03-21T18:16:39Z</time>
      </trkpt>
      <trkpt lat="43.66856" lon="1.38109">
        <ele>131</ele>
        <time>2024-03-21T18:16:40Z</time>
      </trkpt>
      <trkpt lat="43.66856" lon="1.38109">
        <ele>131</ele>
        <time>2024-03-21T18:16:41Z</time>
      </trkpt>
      <trkpt lat="43.66857" lon="1.38112">
        <ele>131</ele>
        <time>2024-03-21T18:16:42Z</time>
      </trkpt>
      <trkpt lat="43.66857" lon="1.38112">
        <ele>131</ele>
        <time>2024-03-21T18:16:43Z</time>
      </trkpt>
      <trkpt lat="43.66858" lon="1.38115">
        <ele>131</ele>
        <time>2024-03-21T18:16:44Z</time>
      </trkpt>
      <trkpt lat="43.66858" lon="1.38115">
        <ele>131</ele>
        <time>2024-03-21T18:16:45Z</time>
      </trkpt>
      <trkpt lat="43.66859" lon="1.38117">
        <ele>131</ele>
        <time>2024-03-21T18:16:46Z</time>
      </trkpt>
      <trkpt lat="43.66859" lon="1.38117">
        <ele>131</ele>
        <time>2024-03-21T18:16:47Z</time>
      </trkpt>
      <trkpt lat="43.66861" lon="1.3812">
        <ele>131</ele>
        <time>2024-03-21T18:16:48Z</time>
      </trkpt>
      <trkpt lat="43.66861" lon="1.3812">
        <ele>130</ele>
        <time>2024-03-21T18:16:49Z</time>
      </trkpt>
      <trkpt lat="43.66863" lon="1.38124">
        <ele>130</ele>
        <time>2024-03-21T18:16:50Z</time>
      </trkpt>
      <trkpt lat="43.66863" lon="1.38124">
        <ele>130</ele>
        <time>2024-03-21T18:16:51Z</time>
      </trkpt>
      <trkpt lat="43.66864" lon="1.38126">
        <ele>130</ele>
        <time>2024-03-21T18:16:52Z</time>
      </trkpt>
      <trkpt lat="43.66864" lon="1.38126">
        <ele>129</ele>
        <time>2024-03-21T18:16:53Z</time>
      </trkpt>
      <trkpt lat="43.66866" lon="1.38128">
        <ele>129</ele>
        <time>2024-03-21T18:16:54Z</time>
      </trkpt>
      <trkpt lat="43.66866" lon="1.38128">
        <ele>129</ele>
        <time>2024-03-21T18:16:55Z</time>
      </trkpt>
      <trkpt lat="43.66866" lon="1.38128">
        <ele>129</ele>
        <time>2024-03-21T18:16:56Z</time>
      </trkpt>
      <trkpt lat="43.66867" lon="1.38131">
        <ele>129</ele>
        <time>2024-03-21T18:16:57Z</time>
      </trkpt>
      <trkpt lat="43.66867" lon="1.38131">
        <ele>129</ele>
        <time>2024-03-21T18:16:58Z</time>
      </trkpt>
      <trkpt lat="43.66867" lon="1.38131">
        <ele>129</ele>
        <time>2024-03-21T18:16:59Z</time>
      </trkpt>
      <trkpt lat="43.66867" lon="1.38131">
        <ele>129</ele>
        <time>2024-03-21T18:17:00Z</time>
      </trkpt>
      <trkpt lat="43.66867" lon="1.38131">
        <ele>129</ele>
        <time>2024-03-21T18:17:01Z</time>
      </trkpt>
      <trkpt lat="43.66867" lon="1.38131">
        <ele>129</ele>
        <time>2024-03-21T18:17:02Z</time>
      </trkpt>
      <trkpt lat="43.66867" lon="1.38131">
        <ele>129</ele>
        <time>2024-03-21T18:17:03Z</time>
      </trkpt>
      <trkpt lat="43.66865" lon="1.38132">
        <ele>129</ele>
        <time>2024-03-21T18:17:04Z</time>
      </trkpt>
      <trkpt lat="43.66865" lon="1.38132">
        <ele>129</ele>
        <time>2024-03-21T18:17:05Z</time>
      </trkpt>
      <trkpt lat="43.66865" lon="1.38132">
        <ele>129</ele>
        <time>2024-03-21T18:17:06Z</time>
      </trkpt>
      <trkpt lat="43.66865" lon="1.38132">
        <ele>129</ele>
        <time>2024-03-21T18:17:07Z</time>
      </trkpt>
      <trkpt lat="43.66865" lon="1.38132">
        <ele>129</ele>
        <time>2024-03-21T18:17:08Z</time>
      </trkpt>
      <trkpt lat="43.66865" lon="1.38132">
        <ele>129</ele>
        <time>2024-03-21T18:17:09Z</time>
      </trkpt>
      <trkpt lat="43.66865" lon="1.38132">
        <ele>129</ele>
        <time>2024-03-21T18:17:10Z</time>
      </trkpt>
      <trkpt lat="43.66865" lon="1.38132">
        <ele>129</ele>
        <time>2024-03-21T18:17:11Z</time>
      </trkpt>
      <trkpt lat="43.66865" lon="1.38132">
        <ele>129</ele>
        <time>2024-03-21T18:17:12Z</time>
      </trkpt>
      <trkpt lat="43.66865" lon="1.38132">
        <ele>129</ele>
        <time>2024-03-21T18:17:13Z</time>
      </trkpt>
      <trkpt lat="43.66865" lon="1.38132">
        <ele>129</ele>
        <time>2024-03-21T18:17:15Z</time>
      </trkpt>
      <trkpt lat="43.66865" lon="1.38132">
        <ele>129</ele>
        <time>2024-03-21T18:17:16Z</time>
      </trkpt>
      <trkpt lat="43.66865" lon="1.38132">
        <ele>129</ele>
        <time>2024-03-21T18:17:17Z</time>
      </trkpt>
      <trkpt lat="43.66865" lon="1.38132">
        <ele>129</ele>
        <time>2024-03-21T18:17:18Z</time>
      </trkpt>
      <trkpt lat="43.66865" lon="1.38132">
        <ele>129</ele>
        <time>2024-03-21T18:17:19Z</time>
      </trkpt>
      <trkpt lat="43.66865" lon="1.38132">
        <ele>129</ele>
        <time>2024-03-21T18:17:20Z</time>
      </trkpt>
      <trkpt lat="43.66865" lon="1.38132">
        <ele>129</ele>
        <time>2024-03-21T18:17:21Z</time>
      </trkpt>
      <trkpt lat="43.66865" lon="1.38132">
        <ele>129</ele>
        <time>2024-03-21T18:17:22Z</time>
      </trkpt>
      <trkpt lat="43.66865" lon="1.38132">
        <ele>129</ele>
        <time>2024-03-21T18:17:23Z</time>
      </trkpt>
      <trkpt lat="43.66865" lon="1.38132">
        <ele>129</ele>
        <time>2024-03-21T18:17:24Z</time>
      </trkpt>
      <trkpt lat="43.66864" lon="1.38131">
        <ele>129</ele>
        <time>2024-03-21T18:17:25Z</time>
      </trkpt>
      <trkpt lat="43.66864" lon="1.38131">
        <ele>129</ele>
        <time>2024-03-21T18:17:26Z</time>
      </trkpt>
      <trkpt lat="43.66864" lon="1.38131">
        <ele>129</ele>
        <time>2024-03-21T18:17:27Z</time>
      </trkpt>
      <trkpt lat="43.66864" lon="1.38131">
        <ele>129</ele>
        <time>2024-03-21T18:17:28Z</time>
      </trkpt>
      <trkpt lat="43.66864" lon="1.38131">
        <ele>130</ele>
        <time>2024-03-21T18:17:29Z</time>
      </trkpt>
      <trkpt lat="43.66864" lon="1.38131">
        <ele>130</ele>
        <time>2024-03-21T18:17:30Z</time>
      </trkpt>
      <trkpt lat="43.66864" lon="1.38131">
        <ele>130</ele>
        <time>2024-03-21T18:17:31Z</time>
      </trkpt>
      <trkpt lat="43.66864" lon="1.38131">
        <ele>130</ele>
        <time>2024-03-21T18:17:32Z</time>
      </trkpt>
      <trkpt lat="43.66864" lon="1.38131">
        <ele>130</ele>
        <time>2024-03-21T18:17:34Z</time>
      </trkpt>
      <trkpt lat="43.66864" lon="1.38131">
        <ele>130</ele>
        <time>2024-03-21T18:17:35Z</time>
      </trkpt>
      <trkpt lat="43.66864" lon="1.38131">
        <ele>130</ele>
        <time>2024-03-21T18:17:36Z</time>
      </trkpt>
      <trkpt lat="43.66862" lon="1.38129">
        <ele>129</ele>
        <time>2024-03-21T18:17:37Z</time>
      </trkpt>
      <trkpt lat="43.66862" lon="1.38129">
        <ele>129</ele>
        <time>2024-03-21T18:17:38Z</time>
      </trkpt>
      <trkpt lat="43.66862" lon="1.38129">
        <ele>129</ele>
        <time>2024-03-21T18:17:39Z</time>
      </trkpt>
      <trkpt lat="43.66862" lon="1.38129">
        <ele>129</ele>
        <time>2024-03-21T18:17:40Z</time>
      </trkpt>
      <trkpt lat="43.66862" lon="1.38129">
        <ele>129</ele>
        <time>2024-03-21T18:17:41Z</time>
      </trkpt>
      <trkpt lat="43.66862" lon="1.38129">
        <ele>129</ele>
        <time>2024-03-21T18:17:42Z</time>
      </trkpt>
      <trkpt lat="43.66862" lon="1.38129">
        <ele>129</ele>
        <time>2024-03-21T18:17:43Z</time>
      </trkpt>
      <trkpt lat="43.66862" lon="1.38129">
        <ele>129</ele>
        <time>2024-03-21T18:17:44Z</time>
      </trkpt>
      <trkpt lat="43.66862" lon="1.38129">
        <ele>129</ele>
        <time>2024-03-21T18:17:45Z</time>
      </trkpt>
      <trkpt lat="43.66862" lon="1.38129">
        <ele>129</ele>
        <time>2024-03-21T18:17:46Z</time>
      </trkpt>
      <trkpt lat="43.66862" lon="1.38129">
        <ele>129</ele>
        <time>2024-03-21T18:17:47Z</time>
      </trkpt>
      <trkpt lat="43.66862" lon="1.38129">
        <ele>129</ele>
        <time>2024-03-21T18:17:48Z</time>
      </trkpt>
      <trkpt lat="43.66862" lon="1.38129">
        <ele>129</ele>
        <time>2024-03-21T18:17:49Z</time>
      </trkpt>
      <trkpt lat="43.66862" lon="1.38129">
        <ele>129</ele>
        <time>2024-03-21T18:17:50Z</time>
      </trkpt>
      <trkpt lat="43.66862" lon="1.38129">
        <ele>129</ele>
        <time>2024-03-21T18:17:51Z</time>
      </trkpt>
      <trkpt lat="43.66862" lon="1.38129">
        <ele>129</ele>
        <time>2024-03-21T18:17:53Z</time>
      </trkpt>
      <trkpt lat="43.66862" lon="1.38129">
        <ele>129</ele>
        <time>2024-03-21T18:17:54Z</time>
      </trkpt>
      <trkpt lat="43.66862" lon="1.38129">
        <ele>129</ele>
        <time>2024-03-21T18:17:55Z</time>
      </trkpt>
      <trkpt lat="43.66862" lon="1.38129">
        <ele>129</ele>
        <time>2024-03-21T18:17:56Z</time>
      </trkpt>
      <trkpt lat="43.66862" lon="1.38129">
        <ele>129</ele>
        <time>2024-03-21T18:17:57Z</time>
      </trkpt>
      <trkpt lat="43.66862" lon="1.38129">
        <ele>129</ele>
        <time>2024-03-21T18:17:58Z</time>
      </trkpt>
      <trkpt lat="43.66862" lon="1.38129">
        <ele>129</ele>
        <time>2024-03-21T18:17:59Z</time>
      </trkpt>
      <trkpt lat="43.66862" lon="1.38129">
        <ele>129</ele>
        <time>2024-03-21T18:18:00Z</time>
      </trkpt>
      <trkpt lat="43.66862" lon="1.38129">
        <ele>129</ele>
        <time>2024-03-21T18:18:01Z</time>
      </trkpt>
      <trkpt lat="43.66862" lon="1.38129">
        <ele>129</ele>
        <time>2024-03-21T18:18:02Z</time>
      </trkpt>
      <trkpt lat="43.66862" lon="1.38129">
        <ele>129</ele>
        <time>2024-03-21T18:18:03Z</time>
      </trkpt>
      <trkpt lat="43.66862" lon="1.38129">
        <ele>129</ele>
        <time>2024-03-21T18:18:04Z</time>
      </trkpt>
      <trkpt lat="43.66862" lon="1.38129">
        <ele>129</ele>
        <time>2024-03-21T18:18:05Z</time>
      </trkpt>
      <trkpt lat="43.66862" lon="1.38129">
        <ele>129</ele>
        <time>2024-03-21T18:18:06Z</time>
      </trkpt>
      <trkpt lat="43.66862" lon="1.38129">
        <ele>129</ele>
        <time>2024-03-21T18:18:07Z</time>
      </trkpt>
      <trkpt lat="43.66862" lon="1.38129">
        <ele>129</ele>
        <time>2024-03-21T18:18:08Z</time>
      </trkpt>
      <trkpt lat="43.66862" lon="1.38129">
        <ele>129</ele>
        <time>2024-03-21T18:18:09Z</time>
      </trkpt>
      <trkpt lat="43.66862" lon="1.38129">
        <ele>130</ele>
        <time>2024-03-21T18:18:10Z</time>
      </trkpt>
      <trkpt lat="43.66862" lon="1.38129">
        <ele>130</ele>
        <time>2024-03-21T18:18:12Z</time>
      </trkpt>
      <trkpt lat="43.66862" lon="1.38129">
        <ele>130</ele>
        <time>2024-03-21T18:18:13Z</time>
      </trkpt>
      <trkpt lat="43.66862" lon="1.38129">
        <ele>130</ele>
        <time>2024-03-21T18:18:14Z</time>
      </trkpt>
      <trkpt lat="43.66862" lon="1.38129">
        <ele>130</ele>
        <time>2024-03-21T18:18:15Z</time>
      </trkpt>
      <trkpt lat="43.66862" lon="1.38129">
        <ele>130</ele>
        <time>2024-03-21T18:18:16Z</time>
      </trkpt>
      <trkpt lat="43.66862" lon="1.38129">
        <ele>130</ele>
        <time>2024-03-21T18:18:17Z</time>
      </trkpt>
      <trkpt lat="43.66862" lon="1.38129">
        <ele>130</ele>
        <time>2024-03-21T18:18:18Z</time>
      </trkpt>
      <trkpt lat="43.66862" lon="1.38129">
        <ele>130</ele>
        <time>2024-03-21T18:18:19Z</time>
      </trkpt>
      <trkpt lat="43.66862" lon="1.38129">
        <ele>130</ele>
        <time>2024-03-21T18:18:20Z</time>
      </trkpt>
      <trkpt lat="43.66862" lon="1.38129">
        <ele>130</ele>
        <time>2024-03-21T18:18:21Z</time>
      </trkpt>
      <trkpt lat="43.66862" lon="1.38129">
        <ele>130</ele>
        <time>2024-03-21T18:18:22Z</time>
      </trkpt>
      <trkpt lat="43.66862" lon="1.38129">
        <ele>130</ele>
        <time>2024-03-21T18:18:23Z</time>
      </trkpt>
      <trkpt lat="43.66862" lon="1.38129">
        <ele>130</ele>
        <time>2024-03-21T18:18:24Z</time>
      </trkpt>
      <trkpt lat="43.66862" lon="1.38129">
        <ele>129</ele>
        <time>2024-03-21T18:18:25Z</time>
      </trkpt>
      <trkpt lat="43.66862" lon="1.38129">
        <ele>129</ele>
        <time>2024-03-21T18:18:26Z</time>
      </trkpt>
      <trkpt lat="43.66862" lon="1.38129">
        <ele>129</ele>
        <time>2024-03-21T18:18:27Z</time>
      </trkpt>
      <trkpt lat="43.66862" lon="1.38129">
        <ele>129</ele>
        <time>2024-03-21T18:18:28Z</time>
      </trkpt>
      <trkpt lat="43.66862" lon="1.38129">
        <ele>129</ele>
        <time>2024-03-21T18:18:29Z</time>
      </trkpt>
      <trkpt lat="43.66862" lon="1.38129">
        <ele>129</ele>
        <time>2024-03-21T18:18:31Z</time>
      </trkpt>
      <trkpt lat="43.66862" lon="1.38129">
        <ele>129</ele>
        <time>2024-03-21T18:18:32Z</time>
      </trkpt>
      <trkpt lat="43.66862" lon="1.38129">
        <ele>129</ele>
        <time>2024-03-21T18:18:33Z</time>
      </trkpt>
      <trkpt lat="43.66862" lon="1.38129">
        <ele>129</ele>
        <time>2024-03-21T18:18:34Z</time>
      </trkpt>
      <trkpt lat="43.66862" lon="1.38129">
        <ele>129</ele>
        <time>2024-03-21T18:18:35Z</time>
      </trkpt>
      <trkpt lat="43.66862" lon="1.38129">
        <ele>129</ele>
        <time>2024-03-21T18:18:36Z</time>
      </trkpt>
      <trkpt lat="43.66862" lon="1.38129">
        <ele>129</ele>
        <time>2024-03-21T18:18:37Z</time>
      </trkpt>
      <trkpt lat="43.66862" lon="1.38129">
        <ele>129</ele>
        <time>2024-03-21T18:18:38Z</time>
      </trkpt>
      <trkpt lat="43.66862" lon="1.38129">
        <ele>129</ele>
        <time>2024-03-21T18:18:39Z</time>
      </trkpt>
      <trkpt lat="43.66862" lon="1.38129">
        <ele>129</ele>
        <time>2024-03-21T18:18:40Z</time>
      </trkpt>
      <trkpt lat="43.66862" lon="1.38129">
        <ele>129</ele>
        <time>2024-03-21T18:18:41Z</time>
      </trkpt>
      <trkpt lat="43.66862" lon="1.38129">
        <ele>129</ele>
        <time>2024-03-21T18:18:42Z</time>
      </trkpt>
      <trkpt lat="43.66862" lon="1.38129">
        <ele>129</ele>
        <time>2024-03-21T18:18:43Z</time>
      </trkpt>
      <trkpt lat="43.66862" lon="1.38129">
        <ele>129</ele>
        <time>2024-03-21T18:18:44Z</time>
      </trkpt>
      <trkpt lat="43.66862" lon="1.38129">
        <ele>129</ele>
        <time>2024-03-21T18:18:45Z</time>
      </trkpt>
      <trkpt lat="43.66862" lon="1.38129">
        <ele>129</ele>
        <time>2024-03-21T18:18:46Z</time>
      </trkpt>
      <trkpt lat="43.66862" lon="1.38129">
        <ele>129</ele>
        <time>2024-03-21T18:18:47Z</time>
      </trkpt>
      <trkpt lat="43.66862" lon="1.38129">
        <ele>129</ele>
        <time>2024-03-21T18:18:48Z</time>
      </trkpt>
      <trkpt lat="43.66862" lon="1.38129">
        <ele>129</ele>
        <time>2024-03-21T18:18:50Z</time>
      </trkpt>
      <trkpt lat="43.66862" lon="1.38129">
        <ele>129</ele>
        <time>2024-03-21T18:18:51Z</time>
      </trkpt>
      <trkpt lat="43.66862" lon="1.38129">
        <ele>129</ele>
        <time>2024-03-21T18:18:52Z</time>
      </trkpt>
      <trkpt lat="43.66862" lon="1.38129">
        <ele>129</ele>
        <time>2024-03-21T18:18:53Z</time>
      </trkpt>
      <trkpt lat="43.66862" lon="1.38129">
        <ele>129</ele>
        <time>2024-03-21T18:18:54Z</time>
      </trkpt>
      <trkpt lat="43.6686" lon="1.38126">
        <ele>129</ele>
        <time>2024-03-21T18:18:55Z</time>
      </trkpt>
      <trkpt lat="43.66858" lon="1.38122">
        <ele>128</ele>
        <time>2024-03-21T18:18:56Z</time>
      </trkpt>
      <trkpt lat="43.66857" lon="1.38118">
        <ele>128</ele>
        <time>2024-03-21T18:18:57Z</time>
      </trkpt>
      <trkpt lat="43.66855" lon="1.38114">
        <ele>129</ele>
        <time>2024-03-21T18:18:58Z</time>
      </trkpt>
      <trkpt lat="43.66853" lon="1.38109">
        <ele>129</ele>
        <time>2024-03-21T18:18:59Z</time>
      </trkpt>
      <trkpt lat="43.66851" lon="1.38105">
        <ele>130</ele>
        <time>2024-03-21T18:19:00Z</time>
      </trkpt>
      <trkpt lat="43.6685" lon="1.38101">
        <ele>131</ele>
        <time>2024-03-21T18:19:01Z</time>
      </trkpt>
      <trkpt lat="43.66848" lon="1.38096">
        <ele>131</ele>
        <time>2024-03-21T18:19:02Z</time>
      </trkpt>
      <trkpt lat="43.66846" lon="1.38091">
        <ele>132</ele>
        <time>2024-03-21T18:19:03Z</time>
      </trkpt>
      <trkpt lat="43.66844" lon="1.38085">
        <ele>132</ele>
        <time>2024-03-21T18:19:04Z</time>
      </trkpt>
      <trkpt lat="43.66843" lon="1.38081">
        <ele>133</ele>
        <time>2024-03-21T18:19:05Z</time>
      </trkpt>
      <trkpt lat="43.66841" lon="1.38074">
        <ele>133</ele>
        <time>2024-03-21T18:19:06Z</time>
      </trkpt>
      <trkpt lat="43.6684" lon="1.38072">
        <ele>134</ele>
        <time>2024-03-21T18:19:07Z</time>
      </trkpt>
      <trkpt lat="43.66838" lon="1.38067">
        <ele>134</ele>
        <time>2024-03-21T18:19:08Z</time>
      </trkpt>
      <trkpt lat="43.66838" lon="1.38065">
        <ele>134</ele>
        <time>2024-03-21T18:19:09Z</time>
      </trkpt>
      <trkpt lat="43.66838" lon="1.38065">
        <ele>134</ele>
        <time>2024-03-21T18:19:10Z</time>
      </trkpt>
      <trkpt lat="43.66838" lon="1.38065">
        <ele>134</ele>
        <time>2024-03-21T18:19:11Z</time>
      </trkpt>
      <trkpt lat="43.66839" lon="1.38068">
        <ele>134</ele>
        <time>2024-03-21T18:19:12Z</time>
      </trkpt>
      <trkpt lat="43.66839" lon="1.38068">
        <ele>134</ele>
        <time>2024-03-21T18:19:13Z</time>
      </trkpt>
      <trkpt lat="43.66842" lon="1.38071">
        <ele>134</ele>
        <time>2024-03-21T18:19:14Z</time>
      </trkpt>
      <trkpt lat="43.66842" lon="1.38071">
        <ele>134</ele>
        <time>2024-03-21T18:19:15Z</time>
      </trkpt>
      <trkpt lat="43.66844" lon="1.38074">
        <ele>134</ele>
        <time>2024-03-21T18:19:16Z</time>
      </trkpt>
      <trkpt lat="43.66845" lon="1.38077">
        <ele>134</ele>
        <time>2024-03-21T18:19:17Z</time>
      </trkpt>
      <trkpt lat="43.66847" lon="1.38079">
        <ele>134</ele>
        <time>2024-03-21T18:19:18Z</time>
      </trkpt>
      <trkpt lat="43.66848" lon="1.38081">
        <ele>133</ele>
        <time>2024-03-21T18:19:19Z</time>
      </trkpt>
      <trkpt lat="43.66848" lon="1.38081">
        <ele>133</ele>
        <time>2024-03-21T18:19:20Z</time>
      </trkpt>
      <trkpt lat="43.6685" lon="1.38085">
        <ele>133</ele>
        <time>2024-03-21T18:19:21Z</time>
      </trkpt>
      <trkpt lat="43.66851" lon="1.38088">
        <ele>133</ele>
        <time>2024-03-21T18:19:22Z</time>
      </trkpt>
      <trkpt lat="43.66852" lon="1.38091">
        <ele>133</ele>
        <time>2024-03-21T18:19:23Z</time>
      </trkpt>
      <trkpt lat="43.66854" lon="1.38093">
        <ele>132</ele>
        <time>2024-03-21T18:19:24Z</time>
      </trkpt>
      <trkpt lat="43.66855" lon="1.38096">
        <ele>132</ele>
        <time>2024-03-21T18:19:25Z</time>
      </trkpt>
      <trkpt lat="43.66856" lon="1.38098">
        <ele>131</ele>
        <time>2024-03-21T18:19:26Z</time>
      </trkpt>
      <trkpt lat="43.66857" lon="1.38101">
        <ele>131</ele>
        <time>2024-03-21T18:19:27Z</time>
      </trkpt>
      <trkpt lat="43.66857" lon="1.38101">
        <ele>131</ele>
        <time>2024-03-21T18:19:28Z</time>
      </trkpt>
      <trkpt lat="43.66859" lon="1.38104">
        <ele>131</ele>
        <time>2024-03-21T18:19:29Z</time>
      </trkpt>
      <trkpt lat="43.6686" lon="1.38106">
        <ele>131</ele>
        <time>2024-03-21T18:19:30Z</time>
      </trkpt>
      <trkpt lat="43.66862" lon="1.38109">
        <ele>131</ele>
        <time>2024-03-21T18:19:31Z</time>
      </trkpt>
      <trkpt lat="43.66863" lon="1.3811">
        <ele>130</ele>
        <time>2024-03-21T18:19:32Z</time>
      </trkpt>
      <trkpt lat="43.66864" lon="1.38113">
        <ele>129</ele>
        <time>2024-03-21T18:19:33Z</time>
      </trkpt>
      <trkpt lat="43.66864" lon="1.38113">
        <ele>129</ele>
        <time>2024-03-21T18:19:34Z</time>
      </trkpt>
      <trkpt lat="43.66864" lon="1.38113">
        <ele>129</ele>
        <time>2024-03-21T18:19:35Z</time>
      </trkpt>
      <trkpt lat="43.66864" lon="1.38113">
        <ele>129</ele>
        <time>2024-03-21T18:19:36Z</time>
      </trkpt>
      <trkpt lat="43.66863" lon="1.38114">
        <ele>129</ele>
        <time>2024-03-21T18:19:37Z</time>
      </trkpt>
      <trkpt lat="43.6686" lon="1.38113">
        <ele>129</ele>
        <time>2024-03-21T18:19:38Z</time>
      </trkpt>
      <trkpt lat="43.66857" lon="1.3811">
        <ele>129</ele>
        <time>2024-03-21T18:19:39Z</time>
      </trkpt>
      <trkpt lat="43.66854" lon="1.38107">
        <ele>129</ele>
        <time>2024-03-21T18:19:40Z</time>
      </trkpt>
      <trkpt lat="43.66851" lon="1.38103">
        <ele>129</ele>
        <time>2024-03-21T18:19:41Z</time>
      </trkpt>
      <trkpt lat="43.66848" lon="1.38099">
        <ele>130</ele>
        <time>2024-03-21T18:19:42Z</time>
      </trkpt>
      <trkpt lat="43.66846" lon="1.38096">
        <ele>131</ele>
        <time>2024-03-21T18:19:43Z</time>
      </trkpt>
      <trkpt lat="43.66845" lon="1.38092">
        <ele>131</ele>
        <time>2024-03-21T18:19:44Z</time>
      </trkpt>
      <trkpt lat="43.66843" lon="1.38088">
        <ele>132</ele>
        <time>2024-03-21T18:19:45Z</time>
      </trkpt>
      <trkpt lat="43.66842" lon="1.38083">
        <ele>132</ele>
        <time>2024-03-21T18:19:46Z</time>
      </trkpt>
      <trkpt lat="43.66841" lon="1.38081">
        <ele>133</ele>
        <time>2024-03-21T18:19:47Z</time>
      </trkpt>
      <trkpt lat="43.6684" lon="1.38076">
        <ele>133</ele>
        <time>2024-03-21T18:19:48Z</time>
      </trkpt>
      <trkpt lat="43.66839" lon="1.38073">
        <ele>133</ele>
        <time>2024-03-21T18:19:49Z</time>
      </trkpt>
      <trkpt lat="43.66838" lon="1.38069">
        <ele>134</ele>
        <time>2024-03-21T18:19:50Z</time>
      </trkpt>
      <trkpt lat="43.66837" lon="1.38066">
        <ele>134</ele>
        <time>2024-03-21T18:19:51Z</time>
      </trkpt>
      <trkpt lat="43.66837" lon="1.38066">
        <ele>134</ele>
        <time>2024-03-21T18:19:52Z</time>
      </trkpt>
      <trkpt lat="43.66837" lon="1.38066">
        <ele>134</ele>
        <time>2024-03-21T18:19:53Z</time>
      </trkpt>
      <trkpt lat="43.66838" lon="1.38068">
        <ele>134</ele>
        <time>2024-03-21T18:19:54Z</time>
      </trkpt>
      <trkpt lat="43.66838" lon="1.38068">
        <ele>134</ele>
        <time>2024-03-21T18:19:55Z</time>
      </trkpt>
      <trkpt lat="43.6684" lon="1.38072">
        <ele>134</ele>
        <time>2024-03-21T18:19:56Z</time>
      </trkpt>
      <trkpt lat="43.66841" lon="1.38074">
        <ele>134</ele>
        <time>2024-03-21T18:19:57Z</time>
      </trkpt>
      <trkpt lat="43.66843" lon="1.38076">
        <ele>134</ele>
        <time>2024-03-21T18:19:58Z</time>
      </trkpt>
      <trkpt lat="43.66844" lon="1.38079">
        <ele>134</ele>
        <time>2024-03-21T18:19:59Z</time>
      </trkpt>
      <trkpt lat="43.66846" lon="1.38081">
        <ele>134</ele>
        <time>2024-03-21T18:20:00Z</time>
      </trkpt>
      <trkpt lat="43.66848" lon="1.38083">
        <ele>133</ele>
        <time>2024-03-21T18:20:01Z</time>
      </trkpt>
      <trkpt lat="43.6685" lon="1.38085">
        <ele>133</ele>
        <time>2024-03-21T18:20:02Z</time>
      </trkpt>
      <trkpt lat="43.66851" lon="1.38088">
        <ele>133</ele>
        <time>2024-03-21T18:20:03Z</time>
      </trkpt>
      <trkpt lat="43.66852" lon="1.3809">
        <ele>132</ele>
        <time>2024-03-21T18:20:04Z</time>
      </trkpt>
      <trkpt lat="43.66853" lon="1.38092">
        <ele>132</ele>
        <time>2024-03-21T18:20:05Z</time>
      </trkpt>
      <trkpt lat="43.66855" lon="1.38095">
        <ele>132</ele>
        <time>2024-03-21T18:20:06Z</time>
      </trkpt>
      <trkpt lat="43.66855" lon="1.38098">
        <ele>132</ele>
        <time>2024-03-21T18:20:07Z</time>
      </trkpt>
      <trkpt lat="43.66856" lon="1.38102">
        <ele>131</ele>
        <time>2024-03-21T18:20:08Z</time>
      </trkpt>
      <trkpt lat="43.66857" lon="1.38104">
        <ele>131</ele>
        <time>2024-03-21T18:20:09Z</time>
      </trkpt>
      <trkpt lat="43.66858" lon="1.38107">
        <ele>131</ele>
        <time>2024-03-21T18:20:10Z</time>
      </trkpt>
      <trkpt lat="43.6686" lon="1.38109">
        <ele>130</ele>
        <time>2024-03-21T18:20:11Z</time>
      </trkpt>
      <trkpt lat="43.66861" lon="1.38112">
        <ele>130</ele>
        <time>2024-03-21T18:20:12Z</time>
      </trkpt>
      <trkpt lat="43.66863" lon="1.38114">
        <ele>130</ele>
        <time>2024-03-21T18:20:13Z</time>
      </trkpt>
      <trkpt lat="43.66864" lon="1.38116">
        <ele>129</ele>
        <time>2024-03-21T18:20:14Z</time>
      </trkpt>
      <trkpt lat="43.66865" lon="1.38118">
        <ele>128</ele>
        <time>2024-03-21T18:20:15Z</time>
      </trkpt>
      <trkpt lat="43.66863" lon="1.38117">
        <ele>128</ele>
        <time>2024-03-21T18:20:16Z</time>
      </trkpt>
      <trkpt lat="43.66862" lon="1.38116">
        <ele>128</ele>
        <time>2024-03-21T18:20:17Z</time>
      </trkpt>
      <trkpt lat="43.6686" lon="1.38116">
        <ele>128</ele>
        <time>2024-03-21T18:20:18Z</time>
      </trkpt>
      <trkpt lat="43.66859" lon="1.38115">
        <ele>128</ele>
        <time>2024-03-21T18:20:19Z</time>
      </trkpt>
      <trkpt lat="43.66857" lon="1.38114">
        <ele>129</ele>
        <time>2024-03-21T18:20:20Z</time>
      </trkpt>
      <trkpt lat="43.66854" lon="1.38112">
        <ele>129</ele>
        <time>2024-03-21T18:20:21Z</time>
      </trkpt>
      <trkpt lat="43.66852" lon="1.3811">
        <ele>129</ele>
        <time>2024-03-21T18:20:22Z</time>
      </trkpt>
      <trkpt lat="43.66849" lon="1.38107">
        <ele>129</ele>
        <time>2024-03-21T18:20:23Z</time>
      </trkpt>
      <trkpt lat="43.66846" lon="1.38101">
        <ele>129</ele>
        <time>2024-03-21T18:20:24Z</time>
      </trkpt>
      <trkpt lat="43.66845" lon="1.38099">
        <ele>130</ele>
        <time>2024-03-21T18:20:25Z</time>
      </trkpt>
      <trkpt lat="43.66842" lon="1.38096">
        <ele>130</ele>
        <time>2024-03-21T18:20:26Z</time>
      </trkpt>
      <trkpt lat="43.6684" lon="1.38092">
        <ele>131</ele>
        <time>2024-03-21T18:20:27Z</time>
      </trkpt>
      <trkpt lat="43.66839" lon="1.38088">
        <ele>132</ele>
        <time>2024-03-21T18:20:28Z</time>
      </trkpt>
      <trkpt lat="43.66838" lon="1.38084">
        <ele>133</ele>
        <time>2024-03-21T18:20:29Z</time>
      </trkpt>
      <trkpt lat="43.66837" lon="1.38081">
        <ele>133</ele>
        <time>2024-03-21T18:20:30Z</time>
      </trkpt>
      <trkpt lat="43.66836" lon="1.38077">
        <ele>134</ele>
        <time>2024-03-21T18:20:31Z</time>
      </trkpt>
      <trkpt lat="43.66836" lon="1.38073">
        <ele>134</ele>
        <time>2024-03-21T18:20:32Z</time>
      </trkpt>
      <trkpt lat="43.66836" lon="1.38073">
        <ele>134</ele>
        <time>2024-03-21T18:20:33Z</time>
      </trkpt>
      <trkpt lat="43.66835" lon="1.38071">
        <ele>134</ele>
        <time>2024-03-21T18:20:34Z</time>
      </trkpt>
      <trkpt lat="43.66835" lon="1.38071">
        <ele>134</ele>
        <time>2024-03-21T18:20:35Z</time>
      </trkpt>
      <trkpt lat="43.66838" lon="1.38071">
        <ele>134</ele>
        <time>2024-03-21T18:20:36Z</time>
      </trkpt>
      <trkpt lat="43.6684" lon="1.38074">
        <ele>134</ele>
        <time>2024-03-21T18:20:37Z</time>
      </trkpt>
      <trkpt lat="43.66841" lon="1.38075">
        <ele>134</ele>
        <time>2024-03-21T18:20:38Z</time>
      </trkpt>
      <trkpt lat="43.66843" lon="1.38077">
        <ele>134</ele>
        <time>2024-03-21T18:20:39Z</time>
      </trkpt>
      <trkpt lat="43.66845" lon="1.3808">
        <ele>134</ele>
        <time>2024-03-21T18:20:40Z</time>
      </trkpt>
      <trkpt lat="43.66846" lon="1.38082">
        <ele>134</ele>
        <time>2024-03-21T18:20:41Z</time>
      </trkpt>
      <trkpt lat="43.66847" lon="1.38084">
        <ele>134</ele>
        <time>2024-03-21T18:20:42Z</time>
      </trkpt>
      <trkpt lat="43.66848" lon="1.38086">
        <ele>133</ele>
        <time>2024-03-21T18:20:43Z</time>
      </trkpt>
      <trkpt lat="43.66849" lon="1.38088">
        <ele>133</ele>
        <time>2024-03-21T18:20:44Z</time>
      </trkpt>
      <trkpt lat="43.66851" lon="1.3809">
        <ele>133</ele>
        <time>2024-03-21T18:20:45Z</time>
      </trkpt>
      <trkpt lat="43.66852" lon="1.38092">
        <ele>132</ele>
        <time>2024-03-21T18:20:46Z</time>
      </trkpt>
      <trkpt lat="43.66853" lon="1.38094">
        <ele>132</ele>
        <time>2024-03-21T18:20:47Z</time>
      </trkpt>
      <trkpt lat="43.66854" lon="1.38097">
        <ele>131</ele>
        <time>2024-03-21T18:20:48Z</time>
      </trkpt>
      <trkpt lat="43.66855" lon="1.381">
        <ele>131</ele>
        <time>2024-03-21T18:20:49Z</time>
      </trkpt>
      <trkpt lat="43.66856" lon="1.38102">
        <ele>131</ele>
        <time>2024-03-21T18:20:50Z</time>
      </trkpt>
      <trkpt lat="43.66857" lon="1.38105">
        <ele>130</ele>
        <time>2024-03-21T18:20:51Z</time>
      </trkpt>
      <trkpt lat="43.66859" lon="1.38108">
        <ele>130</ele>
        <time>2024-03-21T18:20:52Z</time>
      </trkpt>
      <trkpt lat="43.6686" lon="1.3811">
        <ele>130</ele>
        <time>2024-03-21T18:20:53Z</time>
      </trkpt>
      <trkpt lat="43.66862" lon="1.38113">
        <ele>130</ele>
        <time>2024-03-21T18:20:54Z</time>
      </trkpt>
      <trkpt lat="43.66864" lon="1.38115">
        <ele>129</ele>
        <time>2024-03-21T18:20:55Z</time>
      </trkpt>
      <trkpt lat="43.66865" lon="1.38116">
        <ele>129</ele>
        <time>2024-03-21T18:20:56Z</time>
      </trkpt>
      <trkpt lat="43.66865" lon="1.38116">
        <ele>129</ele>
        <time>2024-03-21T18:20:57Z</time>
      </trkpt>
      <trkpt lat="43.66865" lon="1.38116">
        <ele>128</ele>
        <time>2024-03-21T18:20:58Z</time>
      </trkpt>
      <trkpt lat="43.66863" lon="1.38115">
        <ele>128</ele>
        <time>2024-03-21T18:20:59Z</time>
      </trkpt>
      <trkpt lat="43.66861" lon="1.38113">
        <ele>128</ele>
        <time>2024-03-21T18:21:00Z</time>
      </trkpt>
      <trkpt lat="43.66858" lon="1.38111">
        <ele>128</ele>
        <time>2024-03-21T18:21:01Z</time>
      </trkpt>
      <trkpt lat="43.66856" lon="1.38108">
        <ele>128</ele>
        <time>2024-03-21T18:21:02Z</time>
      </trkpt>
      <trkpt lat="43.66853" lon="1.38106">
        <ele>129</ele>
        <time>2024-03-21T18:21:03Z</time>
      </trkpt>
      <trkpt lat="43.66851" lon="1.38103">
        <ele>129</ele>
        <time>2024-03-21T18:21:04Z</time>
      </trkpt>
      <trkpt lat="43.66849" lon="1.38099">
        <ele>130</ele>
        <time>2024-03-21T18:21:05Z</time>
      </trkpt>
      <trkpt lat="43.66847" lon="1.38095">
        <ele>130</ele>
        <time>2024-03-21T18:21:06Z</time>
      </trkpt>
      <trkpt lat="43.66846" lon="1.38092">
        <ele>130</ele>
        <time>2024-03-21T18:21:07Z</time>
      </trkpt>
      <trkpt lat="43.66844" lon="1.38089">
        <ele>130</ele>
        <time>2024-03-21T18:21:08Z</time>
      </trkpt>
      <trkpt lat="43.66843" lon="1.38086">
        <ele>131</ele>
        <time>2024-03-21T18:21:09Z</time>
      </trkpt>
      <trkpt lat="43.66842" lon="1.38082">
        <ele>132</ele>
        <time>2024-03-21T18:21:10Z</time>
      </trkpt>
      <trkpt lat="43.6684" lon="1.38078">
        <ele>133</ele>
        <time>2024-03-21T18:21:11Z</time>
      </trkpt>
      <trkpt lat="43.66839" lon="1.38074">
        <ele>133</ele>
        <time>2024-03-21T18:21:12Z</time>
      </trkpt>
      <trkpt lat="43.66838" lon="1.38071">
        <ele>134</ele>
        <time>2024-03-21T18:21:13Z</time>
      </trkpt>
      <trkpt lat="43.66838" lon="1.38071">
        <ele>134</ele>
        <time>2024-03-21T18:21:14Z</time>
      </trkpt>
      <trkpt lat="43.66838" lon="1.38071">
        <ele>134</ele>
        <time>2024-03-21T18:21:15Z</time>
      </trkpt>
      <trkpt lat="43.66838" lon="1.38071">
        <ele>134</ele>
        <time>2024-03-21T18:21:16Z</time>
      </trkpt>
      <trkpt lat="43.66838" lon="1.38071">
        <ele>134</ele>
        <time>2024-03-21T18:21:17Z</time>
      </trkpt>
      <trkpt lat="43.66838" lon="1.38071">
        <ele>134</ele>
        <time>2024-03-21T18:21:18Z</time>
      </trkpt>
      <trkpt lat="43.6684" lon="1.38074">
        <ele>134</ele>
        <time>2024-03-21T18:21:19Z</time>
      </trkpt>
      <trkpt lat="43.66841" lon="1.38076">
        <ele>134</ele>
        <time>2024-03-21T18:21:20Z</time>
      </trkpt>
      <trkpt lat="43.66843" lon="1.38079">
        <ele>134</ele>
        <time>2024-03-21T18:21:21Z</time>
      </trkpt>
      <trkpt lat="43.66844" lon="1.38081">
        <ele>134</ele>
        <time>2024-03-21T18:21:22Z</time>
      </trkpt>
      <trkpt lat="43.66845" lon="1.38084">
        <ele>134</ele>
        <time>2024-03-21T18:21:23Z</time>
      </trkpt>
      <trkpt lat="43.66846" lon="1.38086">
        <ele>134</ele>
        <time>2024-03-21T18:21:24Z</time>
      </trkpt>
      <trkpt lat="43.66847" lon="1.38088">
        <ele>133</ele>
        <time>2024-03-21T18:21:25Z</time>
      </trkpt>
      <trkpt lat="43.66848" lon="1.3809">
        <ele>133</ele>
        <time>2024-03-21T18:21:26Z</time>
      </trkpt>
      <trkpt lat="43.6685" lon="1.38093">
        <ele>133</ele>
        <time>2024-03-21T18:21:27Z</time>
      </trkpt>
      <trkpt lat="43.66851" lon="1.38095">
        <ele>132</ele>
        <time>2024-03-21T18:21:28Z</time>
      </trkpt>
      <trkpt lat="43.66853" lon="1.38097">
        <ele>132</ele>
        <time>2024-03-21T18:21:29Z</time>
      </trkpt>
      <trkpt lat="43.66854" lon="1.38099">
        <ele>131</ele>
        <time>2024-03-21T18:21:30Z</time>
      </trkpt>
      <trkpt lat="43.66855" lon="1.38101">
        <ele>130</ele>
        <time>2024-03-21T18:21:31Z</time>
      </trkpt>
      <trkpt lat="43.66856" lon="1.38104">
        <ele>130</ele>
        <time>2024-03-21T18:21:32Z</time>
      </trkpt>
      <trkpt lat="43.66858" lon="1.38106">
        <ele>130</ele>
        <time>2024-03-21T18:21:33Z</time>
      </trkpt>
      <trkpt lat="43.66859" lon="1.38108">
        <ele>130</ele>
        <time>2024-03-21T18:21:34Z</time>
      </trkpt>
      <trkpt lat="43.6686" lon="1.3811">
        <ele>130</ele>
        <time>2024-03-21T18:21:35Z</time>
      </trkpt>
      <trkpt lat="43.66862" lon="1.38112">
        <ele>130</ele>
        <time>2024-03-21T18:21:36Z</time>
      </trkpt>
      <trkpt lat="43.66862" lon="1.38112">
        <ele>129</ele>
        <time>2024-03-21T18:21:37Z</time>
      </trkpt>
      <trkpt lat="43.66863" lon="1.38114">
        <ele>129</ele>
        <time>2024-03-21T18:21:38Z</time>
      </trkpt>
      <trkpt lat="43.66863" lon="1.38114">
        <ele>129</ele>
        <time>2024-03-21T18:21:39Z</time>
      </trkpt>
      <trkpt lat="43.66862" lon="1.38113">
        <ele>128</ele>
        <time>2024-03-21T18:21:41Z</time>
      </trkpt>
      <trkpt lat="43.66861" lon="1.38112">
        <ele>128</ele>
        <time>2024-03-21T18:21:42Z</time>
      </trkpt>
      <trkpt lat="43.6686" lon="1.38111">
        <ele>128</ele>
        <time>2024-03-21T18:21:43Z</time>
      </trkpt>
      <trkpt lat="43.66859" lon="1.3811">
        <ele>129</ele>
        <time>2024-03-21T18:21:44Z</time>
      </trkpt>
      <trkpt lat="43.66852" lon="1.38102">
        <ele>129</ele>
        <time>2024-03-21T18:21:45Z</time>
      </trkpt>
      <trkpt lat="43.6685" lon="1.38099">
        <ele>130</ele>
        <time>2024-03-21T18:21:46Z</time>
      </trkpt>
      <trkpt lat="43.66848" lon="1.38096">
        <ele>130</ele>
        <time>2024-03-21T18:21:47Z</time>
      </trkpt>
      <trkpt lat="43.66847" lon="1.38092">
        <ele>131</ele>
        <time>2024-03-21T18:21:48Z</time>
      </trkpt>
      <trkpt lat="43.66845" lon="1.38089">
        <ele>131</ele>
        <time>2024-03-21T18:21:49Z</time>
      </trkpt>
      <trkpt lat="43.66844" lon="1.38086">
        <ele>131</ele>
        <time>2024-03-21T18:21:50Z</time>
      </trkpt>
      <trkpt lat="43.66842" lon="1.38083">
        <ele>131</ele>
        <time>2024-03-21T18:21:51Z</time>
      </trkpt>
      <trkpt lat="43.66841" lon="1.38079">
        <ele>132</ele>
        <time>2024-03-21T18:21:52Z</time>
      </trkpt>
      <trkpt lat="43.6684" lon="1.38075">
        <ele>132</ele>
        <time>2024-03-21T18:21:53Z</time>
      </trkpt>
      <trkpt lat="43.66838" lon="1.38071">
        <ele>133</ele>
        <time>2024-03-21T18:21:54Z</time>
      </trkpt>
      <trkpt lat="43.66836" lon="1.38067">
        <ele>134</ele>
        <time>2024-03-21T18:21:55Z</time>
      </trkpt>
      <trkpt lat="43.66834" lon="1.38064">
        <ele>134</ele>
        <time>2024-03-21T18:21:56Z</time>
      </trkpt>
      <trkpt lat="43.66832" lon="1.3806">
        <ele>134</ele>
        <time>2024-03-21T18:21:57Z</time>
      </trkpt>
      <trkpt lat="43.6683" lon="1.38057">
        <ele>134</ele>
        <time>2024-03-21T18:21:58Z</time>
      </trkpt>
      <trkpt lat="43.66827" lon="1.38053">
        <ele>134</ele>
        <time>2024-03-21T18:21:59Z</time>
      </trkpt>
      <trkpt lat="43.66827" lon="1.38052">
        <ele>135</ele>
        <time>2024-03-21T18:22:00Z</time>
      </trkpt>
      <trkpt lat="43.66825" lon="1.38048">
        <ele>135</ele>
        <time>2024-03-21T18:22:01Z</time>
      </trkpt>
      <trkpt lat="43.66823" lon="1.38045">
        <ele>135</ele>
        <time>2024-03-21T18:22:02Z</time>
      </trkpt>
      <trkpt lat="43.66821" lon="1.38042">
        <ele>135</ele>
        <time>2024-03-21T18:22:03Z</time>
      </trkpt>
      <trkpt lat="43.66819" lon="1.38039">
        <ele>135</ele>
        <time>2024-03-21T18:22:04Z</time>
      </trkpt>
      <trkpt lat="43.66815" lon="1.38034">
        <ele>135</ele>
        <time>2024-03-21T18:22:05Z</time>
      </trkpt>
      <trkpt lat="43.66815" lon="1.38033">
        <ele>136</ele>
        <time>2024-03-21T18:22:06Z</time>
      </trkpt>
      <trkpt lat="43.66813" lon="1.38031">
        <ele>136</ele>
        <time>2024-03-21T18:22:07Z</time>
      </trkpt>
      <trkpt lat="43.66813" lon="1.38031">
        <ele>136</ele>
        <time>2024-03-21T18:22:08Z</time>
      </trkpt>
      <trkpt lat="43.66811" lon="1.38029">
        <ele>136</ele>
        <time>2024-03-21T18:22:09Z</time>
      </trkpt>
      <trkpt lat="43.66811" lon="1.38029">
        <ele>136</ele>
        <time>2024-03-21T18:22:10Z</time>
      </trkpt>
      <trkpt lat="43.66811" lon="1.38029">
        <ele>136</ele>
        <time>2024-03-21T18:22:11Z</time>
      </trkpt>
      <trkpt lat="43.66814" lon="1.38029">
        <ele>136</ele>
        <time>2024-03-21T18:22:12Z</time>
      </trkpt>
      <trkpt lat="43.66814" lon="1.38029">
        <ele>136</ele>
        <time>2024-03-21T18:22:13Z</time>
      </trkpt>
      <trkpt lat="43.66816" lon="1.38031">
        <ele>136</ele>
        <time>2024-03-21T18:22:14Z</time>
      </trkpt>
      <trkpt lat="43.66816" lon="1.38031">
        <ele>136</ele>
        <time>2024-03-21T18:22:15Z</time>
      </trkpt>
      <trkpt lat="43.66818" lon="1.38033">
        <ele>136</ele>
        <time>2024-03-21T18:22:16Z</time>
      </trkpt>
      <trkpt lat="43.66819" lon="1.38035">
        <ele>136</ele>
        <time>2024-03-21T18:22:17Z</time>
      </trkpt>
      <trkpt lat="43.6682" lon="1.38036">
        <ele>136</ele>
        <time>2024-03-21T18:22:18Z</time>
      </trkpt>
      <trkpt lat="43.66821" lon="1.38038">
        <ele>136</ele>
        <time>2024-03-21T18:22:19Z</time>
      </trkpt>
      <trkpt lat="43.66822" lon="1.3804">
        <ele>136</ele>
        <time>2024-03-21T18:22:20Z</time>
      </trkpt>
      <trkpt lat="43.66823" lon="1.38043">
        <ele>136</ele>
        <time>2024-03-21T18:22:21Z</time>
      </trkpt>
      <trkpt lat="43.66825" lon="1.38046">
        <ele>135</ele>
        <time>2024-03-21T18:22:22Z</time>
      </trkpt>
      <trkpt lat="43.66828" lon="1.38049">
        <ele>135</ele>
        <time>2024-03-21T18:22:23Z</time>
      </trkpt>
      <trkpt lat="43.66829" lon="1.38052">
        <ele>135</ele>
        <time>2024-03-21T18:22:24Z</time>
      </trkpt>
      <trkpt lat="43.66829" lon="1.38052">
        <ele>135</ele>
        <time>2024-03-21T18:22:25Z</time>
      </trkpt>
      <trkpt lat="43.6683" lon="1.38056">
        <ele>135</ele>
        <time>2024-03-21T18:22:26Z</time>
      </trkpt>
      <trkpt lat="43.6683" lon="1.38056">
        <ele>135</ele>
        <time>2024-03-21T18:22:27Z</time>
      </trkpt>
      <trkpt lat="43.6683" lon="1.38056">
        <ele>135</ele>
        <time>2024-03-21T18:22:28Z</time>
      </trkpt>
      <trkpt lat="43.6683" lon="1.38056">
        <ele>135</ele>
        <time>2024-03-21T18:22:29Z</time>
      </trkpt>
      <trkpt lat="43.6683" lon="1.38056">
        <ele>135</ele>
        <time>2024-03-21T18:22:30Z</time>
      </trkpt>
      <trkpt lat="43.6683" lon="1.38056">
        <ele>135</ele>
        <time>2024-03-21T18:22:31Z</time>
      </trkpt>
      <trkpt lat="43.6683" lon="1.38056">
        <ele>135</ele>
        <time>2024-03-21T18:22:32Z</time>
      </trkpt>
      <trkpt lat="43.6683" lon="1.38056">
        <ele>135</ele>
        <time>2024-03-21T18:22:33Z</time>
      </trkpt>
      <trkpt lat="43.6683" lon="1.38056">
        <ele>135</ele>
        <time>2024-03-21T18:22:34Z</time>
      </trkpt>
      <trkpt lat="43.6683" lon="1.38056">
        <ele>135</ele>
        <time>2024-03-21T18:22:35Z</time>
      </trkpt>
      <trkpt lat="43.6683" lon="1.38056">
        <ele>135</ele>
        <time>2024-03-21T18:22:36Z</time>
      </trkpt>
      <trkpt lat="43.6683" lon="1.38056">
        <ele>135</ele>
        <time>2024-03-21T18:22:38Z</time>
      </trkpt>
      <trkpt lat="43.6683" lon="1.38056">
        <ele>135</ele>
        <time>2024-03-21T18:22:39Z</time>
      </trkpt>
      <trkpt lat="43.6683" lon="1.38056">
        <ele>135</ele>
        <time>2024-03-21T18:22:40Z</time>
      </trkpt>
      <trkpt lat="43.6683" lon="1.38056">
        <ele>135</ele>
        <time>2024-03-21T18:22:41Z</time>
      </trkpt>
      <trkpt lat="43.6683" lon="1.38056">
        <ele>135</ele>
        <time>2024-03-21T18:22:42Z</time>
      </trkpt>
      <trkpt lat="43.6683" lon="1.38056">
        <ele>135</ele>
        <time>2024-03-21T18:22:43Z</time>
      </trkpt>
      <trkpt lat="43.6683" lon="1.38056">
        <ele>135</ele>
        <time>2024-03-21T18:22:44Z</time>
      </trkpt>
      <trkpt lat="43.6683" lon="1.38056">
        <ele>135</ele>
        <time>2024-03-21T18:22:45Z</time>
      </trkpt>
      <trkpt lat="43.6683" lon="1.38056">
        <ele>135</ele>
        <time>2024-03-21T18:22:46Z</time>
      </trkpt>
      <trkpt lat="43.6683" lon="1.38056">
        <ele>135</ele>
        <time>2024-03-21T18:22:47Z</time>
      </trkpt>
      <trkpt lat="43.6683" lon="1.38056">
        <ele>135</ele>
        <time>2024-03-21T18:22:48Z</time>
      </trkpt>
      <trkpt lat="43.6683" lon="1.38056">
        <ele>135</ele>
        <time>2024-03-21T18:22:49Z</time>
      </trkpt>
      <trkpt lat="43.6683" lon="1.38056">
        <ele>135</ele>
        <time>2024-03-21T18:22:50Z</time>
      </trkpt>
      <trkpt lat="43.6683" lon="1.38056">
        <ele>135</ele>
        <time>2024-03-21T18:22:51Z</time>
      </trkpt>
      <trkpt lat="43.6683" lon="1.38056">
        <ele>135</ele>
        <time>2024-03-21T18:22:52Z</time>
      </trkpt>
      <trkpt lat="43.6683" lon="1.38056">
        <ele>135</ele>
        <time>2024-03-21T18:22:53Z</time>
      </trkpt>
      <trkpt lat="43.6683" lon="1.38056">
        <ele>136</ele>
        <time>2024-03-21T18:22:54Z</time>
      </trkpt>
      <trkpt lat="43.6683" lon="1.38056">
        <ele>136</ele>
        <time>2024-03-21T18:22:55Z</time>
      </trkpt>
      <trkpt lat="43.66829" lon="1.38054">
        <ele>136</ele>
        <time>2024-03-21T18:22:56Z</time>
      </trkpt>
      <trkpt lat="43.66829" lon="1.38054">
        <ele>135</ele>
        <time>2024-03-21T18:22:57Z</time>
      </trkpt>
      <trkpt lat="43.66832" lon="1.3805">
        <ele>135</ele>
        <time>2024-03-21T18:22:58Z</time>
      </trkpt>
      <trkpt lat="43.66832" lon="1.3805">
        <ele>135</ele>
        <time>2024-03-21T18:22:59Z</time>
      </trkpt>
      <trkpt lat="43.66835" lon="1.38049">
        <ele>135</ele>
        <time>2024-03-21T18:23:00Z</time>
      </trkpt>
      <trkpt lat="43.66835" lon="1.38049">
        <ele>135</ele>
        <time>2024-03-21T18:23:01Z</time>
      </trkpt>
      <trkpt lat="43.66839" lon="1.38051">
        <ele>135</ele>
        <time>2024-03-21T18:23:02Z</time>
      </trkpt>
      <trkpt lat="43.66842" lon="1.38056">
        <ele>135</ele>
        <time>2024-03-21T18:23:03Z</time>
      </trkpt>
      <trkpt lat="43.66843" lon="1.38058">
        <ele>134</ele>
        <time>2024-03-21T18:23:04Z</time>
      </trkpt>
      <trkpt lat="43.66845" lon="1.38062">
        <ele>134</ele>
        <time>2024-03-21T18:23:05Z</time>
      </trkpt>
      <trkpt lat="43.66846" lon="1.38066">
        <ele>134</ele>
        <time>2024-03-21T18:23:06Z</time>
      </trkpt>
      <trkpt lat="43.66848" lon="1.3807">
        <ele>134</ele>
        <time>2024-03-21T18:23:07Z</time>
      </trkpt>
      <trkpt lat="43.66849" lon="1.38075">
        <ele>134</ele>
        <time>2024-03-21T18:23:08Z</time>
      </trkpt>
      <trkpt lat="43.6685" lon="1.38078">
        <ele>133</ele>
        <time>2024-03-21T18:23:09Z</time>
      </trkpt>
      <trkpt lat="43.66852" lon="1.38082">
        <ele>133</ele>
        <time>2024-03-21T18:23:10Z</time>
      </trkpt>
      <trkpt lat="43.66854" lon="1.38086">
        <ele>133</ele>
        <time>2024-03-21T18:23:11Z</time>
      </trkpt>
      <trkpt lat="43.66856" lon="1.38089">
        <ele>132</ele>
        <time>2024-03-21T18:23:12Z</time>
      </trkpt>
      <trkpt lat="43.66857" lon="1.38093">
        <ele>132</ele>
        <time>2024-03-21T18:23:13Z</time>
      </trkpt>
      <trkpt lat="43.66858" lon="1.38097">
        <ele>131</ele>
        <time>2024-03-21T18:23:14Z</time>
      </trkpt>
      <trkpt lat="43.6686" lon="1.381">
        <ele>131</ele>
        <time>2024-03-21T18:23:15Z</time>
      </trkpt>
      <trkpt lat="43.66861" lon="1.38103">
        <ele>130</ele>
        <time>2024-03-21T18:23:16Z</time>
      </trkpt>
      <trkpt lat="43.66862" lon="1.38105">
        <ele>130</ele>
        <time>2024-03-21T18:23:17Z</time>
      </trkpt>
      <trkpt lat="43.66863" lon="1.38108">
        <ele>130</ele>
        <time>2024-03-21T18:23:18Z</time>
      </trkpt>
      <trkpt lat="43.66865" lon="1.38112">
        <ele>130</ele>
        <time>2024-03-21T18:23:19Z</time>
      </trkpt>
      <trkpt lat="43.66865" lon="1.38113">
        <ele>129</ele>
        <time>2024-03-21T18:23:20Z</time>
      </trkpt>
      <trkpt lat="43.66865" lon="1.38113">
        <ele>129</ele>
        <time>2024-03-21T18:23:21Z</time>
      </trkpt>
      <trkpt lat="43.66867" lon="1.38117">
        <ele>129</ele>
        <time>2024-03-21T18:23:22Z</time>
      </trkpt>
      <trkpt lat="43.66867" lon="1.38117">
        <ele>129</ele>
        <time>2024-03-21T18:23:23Z</time>
      </trkpt>
      <trkpt lat="43.66868" lon="1.3812">
        <ele>129</ele>
        <time>2024-03-21T18:23:24Z</time>
      </trkpt>
      <trkpt lat="43.66868" lon="1.3812">
        <ele>128</ele>
        <time>2024-03-21T18:23:25Z</time>
      </trkpt>
      <trkpt lat="43.66868" lon="1.38123">
        <ele>128</ele>
        <time>2024-03-21T18:23:26Z</time>
      </trkpt>
      <trkpt lat="43.66868" lon="1.38123">
        <ele>129</ele>
        <time>2024-03-21T18:23:27Z</time>
      </trkpt>
      <trkpt lat="43.66867" lon="1.38125">
        <ele>129</ele>
        <time>2024-03-21T18:23:28Z</time>
      </trkpt>
      <trkpt lat="43.66867" lon="1.38125">
        <ele>129</ele>
        <time>2024-03-21T18:23:29Z</time>
      </trkpt>
      <trkpt lat="43.66867" lon="1.38125">
        <ele>129</ele>
        <time>2024-03-21T18:23:30Z</time>
      </trkpt>
      <trkpt lat="43.66867" lon="1.38125">
        <ele>129</ele>
        <time>2024-03-21T18:23:31Z</time>
      </trkpt>
      <trkpt lat="43.66867" lon="1.38125">
        <ele>129</ele>
        <time>2024-03-21T18:23:32Z</time>
      </trkpt>
      <trkpt lat="43.66867" lon="1.38125">
        <ele>129</ele>
        <time>2024-03-21T18:23:33Z</time>
      </trkpt>
      <trkpt lat="43.66867" lon="1.38125">
        <ele>129</ele>
        <time>2024-03-21T18:23:34Z</time>
      </trkpt>
      <trkpt lat="43.66867" lon="1.38125">
        <ele>129</ele>
        <time>2024-03-21T18:23:35Z</time>
      </trkpt>
      <trkpt lat="43.66867" lon="1.38125">
        <ele>129</ele>
        <time>2024-03-21T18:23:36Z</time>
      </trkpt>
      <trkpt lat="43.66867" lon="1.38125">
        <ele>129</ele>
        <time>2024-03-21T18:23:37Z</time>
      </trkpt>
      <trkpt lat="43.66867" lon="1.38125">
        <ele>129</ele>
        <time>2024-03-21T18:23:38Z</time>
      </trkpt>
      <trkpt lat="43.66867" lon="1.38125">
        <ele>129</ele>
        <time>2024-03-21T18:23:39Z</time>
      </trkpt>
      <trkpt lat="43.66867" lon="1.38125">
        <ele>129</ele>
        <time>2024-03-21T18:23:40Z</time>
      </trkpt>
      <trkpt lat="43.66867" lon="1.38125">
        <ele>129</ele>
        <time>2024-03-21T18:23:41Z</time>
      </trkpt>
      <trkpt lat="43.66867" lon="1.38125">
        <ele>129</ele>
        <time>2024-03-21T18:23:42Z</time>
      </trkpt>
      <trkpt lat="43.66867" lon="1.38125">
        <ele>129</ele>
        <time>2024-03-21T18:23:43Z</time>
      </trkpt>
      <trkpt lat="43.66865" lon="1.38123">
        <ele>129</ele>
        <time>2024-03-21T18:23:44Z</time>
      </trkpt>
      <trkpt lat="43.66865" lon="1.38123">
        <ele>129</ele>
        <time>2024-03-21T18:23:45Z</time>
      </trkpt>
      <trkpt lat="43.66865" lon="1.38123">
        <ele>129</ele>
        <time>2024-03-21T18:23:46Z</time>
      </trkpt>
      <trkpt lat="43.66865" lon="1.38123">
        <ele>129</ele>
        <time>2024-03-21T18:23:47Z</time>
      </trkpt>
      <trkpt lat="43.66865" lon="1.38123">
        <ele>129</ele>
        <time>2024-03-21T18:23:48Z</time>
      </trkpt>
      <trkpt lat="43.66865" lon="1.38123">
        <ele>129</ele>
        <time>2024-03-21T18:23:49Z</time>
      </trkpt>
      <trkpt lat="43.66865" lon="1.38123">
        <ele>129</ele>
        <time>2024-03-21T18:23:50Z</time>
      </trkpt>
      <trkpt lat="43.66865" lon="1.38123">
        <ele>129</ele>
        <time>2024-03-21T18:23:51Z</time>
      </trkpt>
      <trkpt lat="43.66865" lon="1.38123">
        <ele>129</ele>
        <time>2024-03-21T18:23:52Z</time>
      </trkpt>
      <trkpt lat="43.66865" lon="1.38123">
        <ele>129</ele>
        <time>2024-03-21T18:23:54Z</time>
      </trkpt>
      <trkpt lat="43.66865" lon="1.38123">
        <ele>129</ele>
        <time>2024-03-21T18:23:55Z</time>
      </trkpt>
      <trkpt lat="43.66863" lon="1.38122">
        <ele>129</ele>
        <time>2024-03-21T18:23:56Z</time>
      </trkpt>
      <trkpt lat="43.66863" lon="1.38122">
        <ele>129</ele>
        <time>2024-03-21T18:23:57Z</time>
      </trkpt>
      <trkpt lat="43.66863" lon="1.38122">
        <ele>129</ele>
        <time>2024-03-21T18:23:58Z</time>
      </trkpt>
      <trkpt lat="43.6686" lon="1.38119">
        <ele>129</ele>
        <time>2024-03-21T18:23:59Z</time>
      </trkpt>
      <trkpt lat="43.66859" lon="1.38116">
        <ele>129</ele>
        <time>2024-03-21T18:24:00Z</time>
      </trkpt>
      <trkpt lat="43.66857" lon="1.38113">
        <ele>129</ele>
        <time>2024-03-21T18:24:01Z</time>
      </trkpt>
      <trkpt lat="43.66854" lon="1.3811">
        <ele>129</ele>
        <time>2024-03-21T18:24:02Z</time>
      </trkpt>
      <trkpt lat="43.66852" lon="1.38107">
        <ele>129</ele>
        <time>2024-03-21T18:24:03Z</time>
      </trkpt>
      <trkpt lat="43.6685" lon="1.38102">
        <ele>130</ele>
        <time>2024-03-21T18:24:04Z</time>
      </trkpt>
      <trkpt lat="43.66847" lon="1.38098">
        <ele>130</ele>
        <time>2024-03-21T18:24:05Z</time>
      </trkpt>
      <trkpt lat="43.66846" lon="1.38094">
        <ele>130</ele>
        <time>2024-03-21T18:24:06Z</time>
      </trkpt>
      <trkpt lat="43.66844" lon="1.38089">
        <ele>130</ele>
        <time>2024-03-21T18:24:07Z</time>
      </trkpt>
      <trkpt lat="43.66842" lon="1.38083">
        <ele>130</ele>
        <time>2024-03-21T18:24:08Z</time>
      </trkpt>
      <trkpt lat="43.66842" lon="1.3808">
        <ele>131</ele>
        <time>2024-03-21T18:24:09Z</time>
      </trkpt>
      <trkpt lat="43.66841" lon="1.38075">
        <ele>132</ele>
        <time>2024-03-21T18:24:10Z</time>
      </trkpt>
      <trkpt lat="43.6684" lon="1.38071">
        <ele>133</ele>
        <time>2024-03-21T18:24:11Z</time>
      </trkpt>
      <trkpt lat="43.66837" lon="1.38064">
        <ele>133</ele>
        <time>2024-03-21T18:24:12Z</time>
      </trkpt>
      <trkpt lat="43.66837" lon="1.38062">
        <ele>133</ele>
        <time>2024-03-21T18:24:13Z</time>
      </trkpt>
      <trkpt lat="43.66835" lon="1.38058">
        <ele>133</ele>
        <time>2024-03-21T18:24:14Z</time>
      </trkpt>
      <trkpt lat="43.66833" lon="1.38055">
        <ele>134</ele>
        <time>2024-03-21T18:24:15Z</time>
      </trkpt>
      <trkpt lat="43.66831" lon="1.38053">
        <ele>135</ele>
        <time>2024-03-21T18:24:16Z</time>
      </trkpt>
      <trkpt lat="43.66828" lon="1.38051">
        <ele>136</ele>
        <time>2024-03-21T18:24:17Z</time>
      </trkpt>
      <trkpt lat="43.66825" lon="1.38049">
        <ele>136</ele>
        <time>2024-03-21T18:24:18Z</time>
      </trkpt>
      <trkpt lat="43.66823" lon="1.38046">
        <ele>136</ele>
        <time>2024-03-21T18:24:19Z</time>
      </trkpt>
      <trkpt lat="43.6682" lon="1.38043">
        <ele>136</ele>
        <time>2024-03-21T18:24:20Z</time>
      </trkpt>
      <trkpt lat="43.66818" lon="1.3804">
        <ele>136</ele>
        <time>2024-03-21T18:24:21Z</time>
      </trkpt>
      <trkpt lat="43.66815" lon="1.38038">
        <ele>136</ele>
        <time>2024-03-21T18:24:22Z</time>
      </trkpt>
      <trkpt lat="43.66813" lon="1.38034">
        <ele>136</ele>
        <time>2024-03-21T18:24:23Z</time>
      </trkpt>
      <trkpt lat="43.66811" lon="1.38031">
        <ele>136</ele>
        <time>2024-03-21T18:24:24Z</time>
      </trkpt>
      <trkpt lat="43.66809" lon="1.38029">
        <ele>136</ele>
        <time>2024-03-21T18:24:25Z</time>
      </trkpt>
      <trkpt lat="43.66809" lon="1.38029">
        <ele>136</ele>
        <time>2024-03-21T18:24:26Z</time>
      </trkpt>
      <trkpt lat="43.66808" lon="1.38026">
        <ele>136</ele>
        <time>2024-03-21T18:24:27Z</time>
      </trkpt>
      <trkpt lat="43.66808" lon="1.38026">
        <ele>136</ele>
        <time>2024-03-21T18:24:28Z</time>
      </trkpt>
      <trkpt lat="43.66809" lon="1.38028">
        <ele>136</ele>
        <time>2024-03-21T18:24:29Z</time>
      </trkpt>
      <trkpt lat="43.6681" lon="1.3803">
        <ele>136</ele>
        <time>2024-03-21T18:24:30Z</time>
      </trkpt>
      <trkpt lat="43.66813" lon="1.38033">
        <ele>136</ele>
        <time>2024-03-21T18:24:31Z</time>
      </trkpt>
      <trkpt lat="43.66814" lon="1.38033">
        <ele>136</ele>
        <time>2024-03-21T18:24:32Z</time>
      </trkpt>
      <trkpt lat="43.66816" lon="1.38035">
        <ele>136</ele>
        <time>2024-03-21T18:24:33Z</time>
      </trkpt>
      <trkpt lat="43.66818" lon="1.38037">
        <ele>136</ele>
        <time>2024-03-21T18:24:34Z</time>
      </trkpt>
      <trkpt lat="43.6682" lon="1.38038">
        <ele>136</ele>
        <time>2024-03-21T18:24:35Z</time>
      </trkpt>
      <trkpt lat="43.66821" lon="1.3804">
        <ele>136</ele>
        <time>2024-03-21T18:24:36Z</time>
      </trkpt>
      <trkpt lat="43.66823" lon="1.38042">
        <ele>136</ele>
        <time>2024-03-21T18:24:37Z</time>
      </trkpt>
      <trkpt lat="43.66825" lon="1.38043">
        <ele>136</ele>
        <time>2024-03-21T18:24:38Z</time>
      </trkpt>
      <trkpt lat="43.66828" lon="1.38044">
        <ele>136</ele>
        <time>2024-03-21T18:24:39Z</time>
      </trkpt>
      <trkpt lat="43.6683" lon="1.38045">
        <ele>136</ele>
        <time>2024-03-21T18:24:40Z</time>
      </trkpt>
      <trkpt lat="43.66832" lon="1.38046">
        <ele>136</ele>
        <time>2024-03-21T18:24:41Z</time>
      </trkpt>
      <trkpt lat="43.66834" lon="1.38047">
        <ele>136</ele>
        <time>2024-03-21T18:24:42Z</time>
      </trkpt>
      <trkpt lat="43.66836" lon="1.38048">
        <ele>136</ele>
        <time>2024-03-21T18:24:43Z</time>
      </trkpt>
      <trkpt lat="43.66838" lon="1.3805">
        <ele>136</ele>
        <time>2024-03-21T18:24:44Z</time>
      </trkpt>
      <trkpt lat="43.6684" lon="1.38052">
        <ele>136</ele>
        <time>2024-03-21T18:24:45Z</time>
      </trkpt>
      <trkpt lat="43.66841" lon="1.38055">
        <ele>136</ele>
        <time>2024-03-21T18:24:46Z</time>
      </trkpt>
      <trkpt lat="43.66843" lon="1.38058">
        <ele>136</ele>
        <time>2024-03-21T18:24:47Z</time>
      </trkpt>
      <trkpt lat="43.66844" lon="1.38062">
        <ele>136</ele>
        <time>2024-03-21T18:24:48Z</time>
      </trkpt>
      <trkpt lat="43.66844" lon="1.38065">
        <ele>135</ele>
        <time>2024-03-21T18:24:49Z</time>
      </trkpt>
      <trkpt lat="43.66845" lon="1.38069">
        <ele>135</ele>
        <time>2024-03-21T18:24:50Z</time>
      </trkpt>
      <trkpt lat="43.66846" lon="1.38071">
        <ele>134</ele>
        <time>2024-03-21T18:24:51Z</time>
      </trkpt>
      <trkpt lat="43.66847" lon="1.38074">
        <ele>134</ele>
        <time>2024-03-21T18:24:52Z</time>
      </trkpt>
      <trkpt lat="43.66848" lon="1.38077">
        <ele>134</ele>
        <time>2024-03-21T18:24:53Z</time>
      </trkpt>
      <trkpt lat="43.66848" lon="1.3808">
        <ele>133</ele>
        <time>2024-03-21T18:24:54Z</time>
      </trkpt>
      <trkpt lat="43.66849" lon="1.38083">
        <ele>133</ele>
        <time>2024-03-21T18:24:55Z</time>
      </trkpt>
      <trkpt lat="43.6685" lon="1.38086">
        <ele>133</ele>
        <time>2024-03-21T18:24:56Z</time>
      </trkpt>
      <trkpt lat="43.66851" lon="1.38089">
        <ele>133</ele>
        <time>2024-03-21T18:24:57Z</time>
      </trkpt>
      <trkpt lat="43.66852" lon="1.38093">
        <ele>132</ele>
        <time>2024-03-21T18:24:58Z</time>
      </trkpt>
      <trkpt lat="43.66852" lon="1.38096">
        <ele>131</ele>
        <time>2024-03-21T18:24:59Z</time>
      </trkpt>
      <trkpt lat="43.66853" lon="1.38099">
        <ele>131</ele>
        <time>2024-03-21T18:25:00Z</time>
      </trkpt>
      <trkpt lat="43.66853" lon="1.38102">
        <ele>130</ele>
        <time>2024-03-21T18:25:01Z</time>
      </trkpt>
      <trkpt lat="43.66854" lon="1.38106">
        <ele>130</ele>
        <time>2024-03-21T18:25:02Z</time>
      </trkpt>
      <trkpt lat="43.66855" lon="1.38109">
        <ele>130</ele>
        <time>2024-03-21T18:25:03Z</time>
      </trkpt>
      <trkpt lat="43.66856" lon="1.38113">
        <ele>130</ele>
        <time>2024-03-21T18:25:04Z</time>
      </trkpt>
      <trkpt lat="43.66857" lon="1.38116">
        <ele>130</ele>
        <time>2024-03-21T18:25:05Z</time>
      </trkpt>
      <trkpt lat="43.66858" lon="1.3812">
        <ele>129</ele>
        <time>2024-03-21T18:25:06Z</time>
      </trkpt>
      <trkpt lat="43.6686" lon="1.38123">
        <ele>129</ele>
        <time>2024-03-21T18:25:07Z</time>
      </trkpt>
      <trkpt lat="43.6686" lon="1.38122">
        <ele>129</ele>
        <time>2024-03-21T18:25:08Z</time>
      </trkpt>
      <trkpt lat="43.6686" lon="1.38122">
        <ele>129</ele>
        <time>2024-03-21T18:25:09Z</time>
      </trkpt>
      <trkpt lat="43.66861" lon="1.38122">
        <ele>129</ele>
        <time>2024-03-21T18:25:10Z</time>
      </trkpt>
      <trkpt lat="43.66858" lon="1.38119">
        <ele>129</ele>
        <time>2024-03-21T18:25:11Z</time>
      </trkpt>
      <trkpt lat="43.66856" lon="1.38116">
        <ele>129</ele>
        <time>2024-03-21T18:25:12Z</time>
      </trkpt>
      <trkpt lat="43.66853" lon="1.38113">
        <ele>129</ele>
        <time>2024-03-21T18:25:13Z</time>
      </trkpt>
      <trkpt lat="43.66851" lon="1.38108">
        <ele>129</ele>
        <time>2024-03-21T18:25:14Z</time>
      </trkpt>
      <trkpt lat="43.66849" lon="1.38103">
        <ele>130</ele>
        <time>2024-03-21T18:25:15Z</time>
      </trkpt>
      <trkpt lat="43.66847" lon="1.38098">
        <ele>130</ele>
        <time>2024-03-21T18:25:16Z</time>
      </trkpt>
      <trkpt lat="43.66846" lon="1.38094">
        <ele>130</ele>
        <time>2024-03-21T18:25:17Z</time>
      </trkpt>
      <trkpt lat="43.66845" lon="1.38089">
        <ele>130</ele>
        <time>2024-03-21T18:25:18Z</time>
      </trkpt>
      <trkpt lat="43.66844" lon="1.38085">
        <ele>130</ele>
        <time>2024-03-21T18:25:19Z</time>
      </trkpt>
      <trkpt lat="43.66843" lon="1.38081">
        <ele>131</ele>
        <time>2024-03-21T18:25:20Z</time>
      </trkpt>
      <trkpt lat="43.66842" lon="1.38077">
        <ele>131</ele>
        <time>2024-03-21T18:25:21Z</time>
      </trkpt>
      <trkpt lat="43.66841" lon="1.38073">
        <ele>132</ele>
        <time>2024-03-21T18:25:22Z</time>
      </trkpt>
      <trkpt lat="43.66839" lon="1.38069">
        <ele>133</ele>
        <time>2024-03-21T18:25:23Z</time>
      </trkpt>
      <trkpt lat="43.66836" lon="1.38063">
        <ele>133</ele>
        <time>2024-03-21T18:25:24Z</time>
      </trkpt>
      <trkpt lat="43.66835" lon="1.38061">
        <ele>133</ele>
        <time>2024-03-21T18:25:25Z</time>
      </trkpt>
      <trkpt lat="43.66833" lon="1.38057">
        <ele>133</ele>
        <time>2024-03-21T18:25:26Z</time>
      </trkpt>
      <trkpt lat="43.66831" lon="1.38055">
        <ele>134</ele>
        <time>2024-03-21T18:25:27Z</time>
      </trkpt>
      <trkpt lat="43.66827" lon="1.38051">
        <ele>134</ele>
        <time>2024-03-21T18:25:28Z</time>
      </trkpt>
      <trkpt lat="43.66826" lon="1.3805">
        <ele>135</ele>
        <time>2024-03-21T18:25:29Z</time>
      </trkpt>
      <trkpt lat="43.66823" lon="1.38047">
        <ele>135</ele>
        <time>2024-03-21T18:25:30Z</time>
      </trkpt>
      <trkpt lat="43.66821" lon="1.38043">
        <ele>136</ele>
        <time>2024-03-21T18:25:31Z</time>
      </trkpt>
      <trkpt lat="43.66818" lon="1.3804">
        <ele>136</ele>
        <time>2024-03-21T18:25:32Z</time>
      </trkpt>
      <trkpt lat="43.66816" lon="1.38037">
        <ele>136</ele>
        <time>2024-03-21T18:25:33Z</time>
      </trkpt>
      <trkpt lat="43.66813" lon="1.38034">
        <ele>136</ele>
        <time>2024-03-21T18:25:34Z</time>
      </trkpt>
      <trkpt lat="43.66811" lon="1.3803">
        <ele>136</ele>
        <time>2024-03-21T18:25:35Z</time>
      </trkpt>
      <trkpt lat="43.66808" lon="1.38028">
        <ele>136</ele>
        <time>2024-03-21T18:25:36Z</time>
      </trkpt>
      <trkpt lat="43.66806" lon="1.38026">
        <ele>136</ele>
        <time>2024-03-21T18:25:37Z</time>
      </trkpt>
      <trkpt lat="43.66806" lon="1.38026">
        <ele>136</ele>
        <time>2024-03-21T18:25:38Z</time>
      </trkpt>
      <trkpt lat="43.66806" lon="1.38026">
        <ele>136</ele>
        <time>2024-03-21T18:25:39Z</time>
      </trkpt>
      <trkpt lat="43.66806" lon="1.38026">
        <ele>136</ele>
        <time>2024-03-21T18:25:40Z</time>
      </trkpt>
      <trkpt lat="43.66808" lon="1.38028">
        <ele>136</ele>
        <time>2024-03-21T18:25:41Z</time>
      </trkpt>
      <trkpt lat="43.66808" lon="1.38028">
        <ele>136</ele>
        <time>2024-03-21T18:25:42Z</time>
      </trkpt>
      <trkpt lat="43.66811" lon="1.38029">
        <ele>136</ele>
        <time>2024-03-21T18:25:43Z</time>
      </trkpt>
      <trkpt lat="43.66812" lon="1.38031">
        <ele>136</ele>
        <time>2024-03-21T18:25:44Z</time>
      </trkpt>
      <trkpt lat="43.66814" lon="1.38032">
        <ele>136</ele>
        <time>2024-03-21T18:25:45Z</time>
      </trkpt>
      <trkpt lat="43.66816" lon="1.38034">
        <ele>136</ele>
        <time>2024-03-21T18:25:46Z</time>
      </trkpt>
      <trkpt lat="43.66817" lon="1.38035">
        <ele>136</ele>
        <time>2024-03-21T18:25:47Z</time>
      </trkpt>
      <trkpt lat="43.66819" lon="1.38037">
        <ele>136</ele>
        <time>2024-03-21T18:25:48Z</time>
      </trkpt>
      <trkpt lat="43.66821" lon="1.38039">
        <ele>136</ele>
        <time>2024-03-21T18:25:49Z</time>
      </trkpt>
      <trkpt lat="43.66822" lon="1.3804">
        <ele>136</ele>
        <time>2024-03-21T18:25:50Z</time>
      </trkpt>
      <trkpt lat="43.66824" lon="1.38042">
        <ele>136</ele>
        <time>2024-03-21T18:25:51Z</time>
      </trkpt>
      <trkpt lat="43.66825" lon="1.38044">
        <ele>136</ele>
        <time>2024-03-21T18:25:52Z</time>
      </trkpt>
      <trkpt lat="43.66828" lon="1.38045">
        <ele>136</ele>
        <time>2024-03-21T18:25:53Z</time>
      </trkpt>
      <trkpt lat="43.66829" lon="1.38046">
        <ele>136</ele>
        <time>2024-03-21T18:25:54Z</time>
      </trkpt>
      <trkpt lat="43.66831" lon="1.38047">
        <ele>136</ele>
        <time>2024-03-21T18:25:55Z</time>
      </trkpt>
      <trkpt lat="43.66833" lon="1.38048">
        <ele>136</ele>
        <time>2024-03-21T18:25:56Z</time>
      </trkpt>
      <trkpt lat="43.66835" lon="1.3805">
        <ele>136</ele>
        <time>2024-03-21T18:25:57Z</time>
      </trkpt>
      <trkpt lat="43.66836" lon="1.38053">
        <ele>136</ele>
        <time>2024-03-21T18:25:58Z</time>
      </trkpt>
      <trkpt lat="43.66838" lon="1.38056">
        <ele>135</ele>
        <time>2024-03-21T18:25:59Z</time>
      </trkpt>
      <trkpt lat="43.66839" lon="1.38058">
        <ele>135</ele>
        <time>2024-03-21T18:26:00Z</time>
      </trkpt>
      <trkpt lat="43.66841" lon="1.3806">
        <ele>135</ele>
        <time>2024-03-21T18:26:01Z</time>
      </trkpt>
      <trkpt lat="43.66841" lon="1.3806">
        <ele>135</ele>
        <time>2024-03-21T18:26:02Z</time>
      </trkpt>
      <trkpt lat="43.66843" lon="1.38064">
        <ele>135</ele>
        <time>2024-03-21T18:26:03Z</time>
      </trkpt>
      <trkpt lat="43.66845" lon="1.38067">
        <ele>134</ele>
        <time>2024-03-21T18:26:04Z</time>
      </trkpt>
      <trkpt lat="43.66846" lon="1.38069">
        <ele>134</ele>
        <time>2024-03-21T18:26:05Z</time>
      </trkpt>
      <trkpt lat="43.66847" lon="1.38072">
        <ele>134</ele>
        <time>2024-03-21T18:26:06Z</time>
      </trkpt>
      <trkpt lat="43.66849" lon="1.38075">
        <ele>134</ele>
        <time>2024-03-21T18:26:07Z</time>
      </trkpt>
      <trkpt lat="43.6685" lon="1.38078">
        <ele>134</ele>
        <time>2024-03-21T18:26:08Z</time>
      </trkpt>
      <trkpt lat="43.66851" lon="1.3808">
        <ele>132</ele>
        <time>2024-03-21T18:26:09Z</time>
      </trkpt>
      <trkpt lat="43.66852" lon="1.38083">
        <ele>131</ele>
        <time>2024-03-21T18:26:10Z</time>
      </trkpt>
      <trkpt lat="43.66853" lon="1.38085">
        <ele>131</ele>
        <time>2024-03-21T18:26:11Z</time>
      </trkpt>
      <trkpt lat="43.66854" lon="1.38088">
        <ele>131</ele>
        <time>2024-03-21T18:26:12Z</time>
      </trkpt>
      <trkpt lat="43.66855" lon="1.38091">
        <ele>131</ele>
        <time>2024-03-21T18:26:13Z</time>
      </trkpt>
      <trkpt lat="43.66857" lon="1.38093">
        <ele>131</ele>
        <time>2024-03-21T18:26:14Z</time>
      </trkpt>
      <trkpt lat="43.66858" lon="1.38097">
        <ele>130</ele>
        <time>2024-03-21T18:26:15Z</time>
      </trkpt>
      <trkpt lat="43.66859" lon="1.38099">
        <ele>130</ele>
        <time>2024-03-21T18:26:16Z</time>
      </trkpt>
      <trkpt lat="43.66861" lon="1.38102">
        <ele>130</ele>
        <time>2024-03-21T18:26:17Z</time>
      </trkpt>
      <trkpt lat="43.66862" lon="1.38105">
        <ele>130</ele>
        <time>2024-03-21T18:26:18Z</time>
      </trkpt>
      <trkpt lat="43.66863" lon="1.38108">
        <ele>130</ele>
        <time>2024-03-21T18:26:19Z</time>
      </trkpt>
      <trkpt lat="43.66864" lon="1.38111">
        <ele>130</ele>
        <time>2024-03-21T18:26:20Z</time>
      </trkpt>
      <trkpt lat="43.66866" lon="1.38113">
        <ele>130</ele>
        <time>2024-03-21T18:26:21Z</time>
      </trkpt>
      <trkpt lat="43.66867" lon="1.38116">
        <ele>129</ele>
        <time>2024-03-21T18:26:22Z</time>
      </trkpt>
      <trkpt lat="43.66867" lon="1.38116">
        <ele>129</ele>
        <time>2024-03-21T18:26:23Z</time>
      </trkpt>
      <trkpt lat="43.66867" lon="1.38116">
        <ele>129</ele>
        <time>2024-03-21T18:26:24Z</time>
      </trkpt>
      <trkpt lat="43.66863" lon="1.38115">
        <ele>128</ele>
        <time>2024-03-21T18:26:26Z</time>
      </trkpt>
      <trkpt lat="43.66861" lon="1.38113">
        <ele>128</ele>
        <time>2024-03-21T18:26:27Z</time>
      </trkpt>
      <trkpt lat="43.66858" lon="1.38111">
        <ele>128</ele>
        <time>2024-03-21T18:26:28Z</time>
      </trkpt>
      <trkpt lat="43.66855" lon="1.38109">
        <ele>129</ele>
        <time>2024-03-21T18:26:29Z</time>
      </trkpt>
      <trkpt lat="43.6685" lon="1.38104">
        <ele>129</ele>
        <time>2024-03-21T18:26:30Z</time>
      </trkpt>
      <trkpt lat="43.66849" lon="1.38102">
        <ele>130</ele>
        <time>2024-03-21T18:26:31Z</time>
      </trkpt>
      <trkpt lat="43.66847" lon="1.38099">
        <ele>130</ele>
        <time>2024-03-21T18:26:32Z</time>
      </trkpt>
      <trkpt lat="43.66845" lon="1.38095">
        <ele>130</ele>
        <time>2024-03-21T18:26:33Z</time>
      </trkpt>
      <trkpt lat="43.66843" lon="1.38091">
        <ele>130</ele>
        <time>2024-03-21T18:26:34Z</time>
      </trkpt>
      <trkpt lat="43.66841" lon="1.38087">
        <ele>131</ele>
        <time>2024-03-21T18:26:35Z</time>
      </trkpt>
      <trkpt lat="43.6684" lon="1.38083">
        <ele>132</ele>
        <time>2024-03-21T18:26:36Z</time>
      </trkpt>
      <trkpt lat="43.66839" lon="1.38079">
        <ele>132</ele>
        <time>2024-03-21T18:26:37Z</time>
      </trkpt>
      <trkpt lat="43.66838" lon="1.38075">
        <ele>133</ele>
        <time>2024-03-21T18:26:38Z</time>
      </trkpt>
      <trkpt lat="43.66836" lon="1.38071">
        <ele>134</ele>
        <time>2024-03-21T18:26:39Z</time>
      </trkpt>
      <trkpt lat="43.66835" lon="1.38067">
        <ele>134</ele>
        <time>2024-03-21T18:26:40Z</time>
      </trkpt>
      <trkpt lat="43.66833" lon="1.38063">
        <ele>134</ele>
        <time>2024-03-21T18:26:41Z</time>
      </trkpt>
      <trkpt lat="43.66831" lon="1.3806">
        <ele>134</ele>
        <time>2024-03-21T18:26:42Z</time>
      </trkpt>
      <trkpt lat="43.66829" lon="1.38057">
        <ele>135</ele>
        <time>2024-03-21T18:26:43Z</time>
      </trkpt>
      <trkpt lat="43.66827" lon="1.38054">
        <ele>135</ele>
        <time>2024-03-21T18:26:44Z</time>
      </trkpt>
      <trkpt lat="43.66824" lon="1.3805">
        <ele>135</ele>
        <time>2024-03-21T18:26:45Z</time>
      </trkpt>
      <trkpt lat="43.66821" lon="1.38046">
        <ele>136</ele>
        <time>2024-03-21T18:26:46Z</time>
      </trkpt>
      <trkpt lat="43.66819" lon="1.38043">
        <ele>136</ele>
        <time>2024-03-21T18:26:47Z</time>
      </trkpt>
      <trkpt lat="43.66816" lon="1.38039">
        <ele>136</ele>
        <time>2024-03-21T18:26:48Z</time>
      </trkpt>
      <trkpt lat="43.66813" lon="1.38035">
        <ele>136</ele>
        <time>2024-03-21T18:26:49Z</time>
      </trkpt>
      <trkpt lat="43.66811" lon="1.38031">
        <ele>136</ele>
        <time>2024-03-21T18:26:50Z</time>
      </trkpt>
      <trkpt lat="43.66809" lon="1.38026">
        <ele>136</ele>
        <time>2024-03-21T18:26:51Z</time>
      </trkpt>
      <trkpt lat="43.66808" lon="1.38024">
        <ele>136</ele>
        <time>2024-03-21T18:26:52Z</time>
      </trkpt>
      <trkpt lat="43.66808" lon="1.38024">
        <ele>137</ele>
        <time>2024-03-21T18:26:53Z</time>
      </trkpt>
      <trkpt lat="43.66808" lon="1.38024">
        <ele>137</ele>
        <time>2024-03-21T18:26:54Z</time>
      </trkpt>
      <trkpt lat="43.66808" lon="1.38024">
        <ele>137</ele>
        <time>2024-03-21T18:26:55Z</time>
      </trkpt>
      <trkpt lat="43.66808" lon="1.38024">
        <ele>137</ele>
        <time>2024-03-21T18:26:56Z</time>
      </trkpt>
      <trkpt lat="43.66811" lon="1.38026">
        <ele>137</ele>
        <time>2024-03-21T18:26:57Z</time>
      </trkpt>
      <trkpt lat="43.66811" lon="1.38026">
        <ele>137</ele>
        <time>2024-03-21T18:26:58Z</time>
      </trkpt>
      <trkpt lat="43.66813" lon="1.3803">
        <ele>136</ele>
        <time>2024-03-21T18:26:59Z</time>
      </trkpt>
      <trkpt lat="43.66814" lon="1.38032">
        <ele>136</ele>
        <time>2024-03-21T18:27:00Z</time>
      </trkpt>
      <trkpt lat="43.66814" lon="1.38032">
        <ele>136</ele>
        <time>2024-03-21T18:27:01Z</time>
      </trkpt>
      <trkpt lat="43.66817" lon="1.38035">
        <ele>136</ele>
        <time>2024-03-21T18:27:02Z</time>
      </trkpt>
      <trkpt lat="43.6682" lon="1.38038">
        <ele>136</ele>
        <time>2024-03-21T18:27:03Z</time>
      </trkpt>
      <trkpt lat="43.66821" lon="1.38038">
        <ele>136</ele>
        <time>2024-03-21T18:27:04Z</time>
      </trkpt>
      <trkpt lat="43.66821" lon="1.38038">
        <ele>136</ele>
        <time>2024-03-21T18:27:05Z</time>
      </trkpt>
      <trkpt lat="43.66823" lon="1.38042">
        <ele>136</ele>
        <time>2024-03-21T18:27:06Z</time>
      </trkpt>
      <trkpt lat="43.66825" lon="1.38043">
        <ele>136</ele>
        <time>2024-03-21T18:27:07Z</time>
      </trkpt>
      <trkpt lat="43.66827" lon="1.38044">
        <ele>136</ele>
        <time>2024-03-21T18:27:08Z</time>
      </trkpt>
      <trkpt lat="43.66829" lon="1.38045">
        <ele>136</ele>
        <time>2024-03-21T18:27:09Z</time>
      </trkpt>
      <trkpt lat="43.66831" lon="1.38046">
        <ele>136</ele>
        <time>2024-03-21T18:27:10Z</time>
      </trkpt>
      <trkpt lat="43.66833" lon="1.38048">
        <ele>136</ele>
        <time>2024-03-21T18:27:11Z</time>
      </trkpt>
      <trkpt lat="43.66835" lon="1.38049">
        <ele>136</ele>
        <time>2024-03-21T18:27:12Z</time>
      </trkpt>
      <trkpt lat="43.66836" lon="1.38051">
        <ele>135</ele>
        <time>2024-03-21T18:27:13Z</time>
      </trkpt>
      <trkpt lat="43.66838" lon="1.38053">
        <ele>135</ele>
        <time>2024-03-21T18:27:14Z</time>
      </trkpt>
      <trkpt lat="43.66839" lon="1.38055">
        <ele>135</ele>
        <time>2024-03-21T18:27:15Z</time>
      </trkpt>
      <trkpt lat="43.66841" lon="1.38057">
        <ele>135</ele>
        <time>2024-03-21T18:27:16Z</time>
      </trkpt>
      <trkpt lat="43.66843" lon="1.38059">
        <ele>135</ele>
        <time>2024-03-21T18:27:17Z</time>
      </trkpt>
      <trkpt lat="43.66844" lon="1.38061">
        <ele>135</ele>
        <time>2024-03-21T18:27:18Z</time>
      </trkpt>
      <trkpt lat="43.66845" lon="1.38064">
        <ele>135</ele>
        <time>2024-03-21T18:27:19Z</time>
      </trkpt>
      <trkpt lat="43.66847" lon="1.38066">
        <ele>135</ele>
        <time>2024-03-21T18:27:20Z</time>
      </trkpt>
      <trkpt lat="43.66848" lon="1.38069">
        <ele>135</ele>
        <time>2024-03-21T18:27:21Z</time>
      </trkpt>
      <trkpt lat="43.66849" lon="1.38071">
        <ele>135</ele>
        <time>2024-03-21T18:27:22Z</time>
      </trkpt>
      <trkpt lat="43.6685" lon="1.38074">
        <ele>133</ele>
        <time>2024-03-21T18:27:23Z</time>
      </trkpt>
      <trkpt lat="43.66851" lon="1.38077">
        <ele>133</ele>
        <time>2024-03-21T18:27:24Z</time>
      </trkpt>
      <trkpt lat="43.66852" lon="1.38079">
        <ele>133</ele>
        <time>2024-03-21T18:27:25Z</time>
      </trkpt>
      <trkpt lat="43.66853" lon="1.38082">
        <ele>132</ele>
        <time>2024-03-21T18:27:26Z</time>
      </trkpt>
      <trkpt lat="43.66854" lon="1.38084">
        <ele>132</ele>
        <time>2024-03-21T18:27:27Z</time>
      </trkpt>
      <trkpt lat="43.66855" lon="1.38087">
        <ele>132</ele>
        <time>2024-03-21T18:27:28Z</time>
      </trkpt>
      <trkpt lat="43.66856" lon="1.3809">
        <ele>132</ele>
        <time>2024-03-21T18:27:29Z</time>
      </trkpt>
      <trkpt lat="43.66858" lon="1.38094">
        <ele>132</ele>
        <time>2024-03-21T18:27:30Z</time>
      </trkpt>
      <trkpt lat="43.66858" lon="1.38096">
        <ele>130</ele>
        <time>2024-03-21T18:27:31Z</time>
      </trkpt>
      <trkpt lat="43.66859" lon="1.38099">
        <ele>130</ele>
        <time>2024-03-21T18:27:32Z</time>
      </trkpt>
      <trkpt lat="43.6686" lon="1.38101">
        <ele>130</ele>
        <time>2024-03-21T18:27:33Z</time>
      </trkpt>
      <trkpt lat="43.66862" lon="1.38104">
        <ele>130</ele>
        <time>2024-03-21T18:27:34Z</time>
      </trkpt>
      <trkpt lat="43.66864" lon="1.38106">
        <ele>130</ele>
        <time>2024-03-21T18:27:35Z</time>
      </trkpt>
      <trkpt lat="43.66865" lon="1.38109">
        <ele>130</ele>
        <time>2024-03-21T18:27:36Z</time>
      </trkpt>
      <trkpt lat="43.66866" lon="1.38112">
        <ele>129</ele>
        <time>2024-03-21T18:27:37Z</time>
      </trkpt>
      <trkpt lat="43.66868" lon="1.38115">
        <ele>129</ele>
        <time>2024-03-21T18:27:38Z</time>
      </trkpt>
      <trkpt lat="43.66868" lon="1.38115">
        <ele>129</ele>
        <time>2024-03-21T18:27:39Z</time>
      </trkpt>
      <trkpt lat="43.66868" lon="1.38115">
        <ele>129</ele>
        <time>2024-03-21T18:27:40Z</time>
      </trkpt>
      <trkpt lat="43.66864" lon="1.38112">
        <ele>129</ele>
        <time>2024-03-21T18:27:42Z</time>
      </trkpt>
      <trkpt lat="43.6686" lon="1.3811">
        <ele>129</ele>
        <time>2024-03-21T18:27:43Z</time>
      </trkpt>
      <trkpt lat="43.66858" lon="1.38108">
        <ele>129</ele>
        <time>2024-03-21T18:27:44Z</time>
      </trkpt>
      <trkpt lat="43.66854" lon="1.38105">
        <ele>129</ele>
        <time>2024-03-21T18:27:45Z</time>
      </trkpt>
      <trkpt lat="43.66852" lon="1.38102">
        <ele>129</ele>
        <time>2024-03-21T18:27:46Z</time>
      </trkpt>
      <trkpt lat="43.66849" lon="1.38098">
        <ele>130</ele>
        <time>2024-03-21T18:27:47Z</time>
      </trkpt>
      <trkpt lat="43.66847" lon="1.38094">
        <ele>130</ele>
        <time>2024-03-21T18:27:48Z</time>
      </trkpt>
      <trkpt lat="43.66845" lon="1.3809">
        <ele>130</ele>
        <time>2024-03-21T18:27:49Z</time>
      </trkpt>
      <trkpt lat="43.66842" lon="1.38084">
        <ele>130</ele>
        <time>2024-03-21T18:27:50Z</time>
      </trkpt>
      <trkpt lat="43.66841" lon="1.38082">
        <ele>131</ele>
        <time>2024-03-21T18:27:51Z</time>
      </trkpt>
      <trkpt lat="43.66839" lon="1.38078">
        <ele>132</ele>
        <time>2024-03-21T18:27:52Z</time>
      </trkpt>
      <trkpt lat="43.66838" lon="1.38074">
        <ele>132</ele>
        <time>2024-03-21T18:27:53Z</time>
      </trkpt>
      <trkpt lat="43.66836" lon="1.3807">
        <ele>132</ele>
        <time>2024-03-21T18:27:54Z</time>
      </trkpt>
      <trkpt lat="43.66834" lon="1.38065">
        <ele>133</ele>
        <time>2024-03-21T18:27:55Z</time>
      </trkpt>
      <trkpt lat="43.66833" lon="1.38061">
        <ele>133</ele>
        <time>2024-03-21T18:27:56Z</time>
      </trkpt>
      <trkpt lat="43.66831" lon="1.38057">
        <ele>134</ele>
        <time>2024-03-21T18:27:57Z</time>
      </trkpt>
      <trkpt lat="43.66828" lon="1.38053">
        <ele>134</ele>
        <time>2024-03-21T18:27:58Z</time>
      </trkpt>
      <trkpt lat="43.66826" lon="1.3805">
        <ele>135</ele>
        <time>2024-03-21T18:27:59Z</time>
      </trkpt>
      <trkpt lat="43.66822" lon="1.38044">
        <ele>135</ele>
        <time>2024-03-21T18:28:00Z</time>
      </trkpt>
      <trkpt lat="43.66821" lon="1.38043">
        <ele>136</ele>
        <time>2024-03-21T18:28:01Z</time>
      </trkpt>
      <trkpt lat="43.66818" lon="1.38039">
        <ele>136</ele>
        <time>2024-03-21T18:28:02Z</time>
      </trkpt>
      <trkpt lat="43.66815" lon="1.38034">
        <ele>136</ele>
        <time>2024-03-21T18:28:03Z</time>
      </trkpt>
      <trkpt lat="43.66811" lon="1.38028">
        <ele>136</ele>
        <time>2024-03-21T18:28:04Z</time>
      </trkpt>
      <trkpt lat="43.6681" lon="1.38027">
        <ele>136</ele>
        <time>2024-03-21T18:28:05Z</time>
      </trkpt>
      <trkpt lat="43.66808" lon="1.38025">
        <ele>136</ele>
        <time>2024-03-21T18:28:06Z</time>
      </trkpt>
      <trkpt lat="43.66808" lon="1.38025">
        <ele>136</ele>
        <time>2024-03-21T18:28:07Z</time>
      </trkpt>
      <trkpt lat="43.66808" lon="1.38025">
        <ele>136</ele>
        <time>2024-03-21T18:28:08Z</time>
      </trkpt>
      <trkpt lat="43.66808" lon="1.38025">
        <ele>136</ele>
        <time>2024-03-21T18:28:09Z</time>
      </trkpt>
      <trkpt lat="43.66809" lon="1.38027">
        <ele>136</ele>
        <time>2024-03-21T18:28:10Z</time>
      </trkpt>
      <trkpt lat="43.66809" lon="1.38027">
        <ele>136</ele>
        <time>2024-03-21T18:28:11Z</time>
      </trkpt>
      <trkpt lat="43.66811" lon="1.38029">
        <ele>136</ele>
        <time>2024-03-21T18:28:12Z</time>
      </trkpt>
      <trkpt lat="43.66811" lon="1.38029">
        <ele>136</ele>
        <time>2024-03-21T18:28:13Z</time>
      </trkpt>
      <trkpt lat="43.66813" lon="1.38031">
        <ele>136</ele>
        <time>2024-03-21T18:28:14Z</time>
      </trkpt>
      <trkpt lat="43.66813" lon="1.38031">
        <ele>136</ele>
        <time>2024-03-21T18:28:15Z</time>
      </trkpt>
      <trkpt lat="43.66816" lon="1.38034">
        <ele>136</ele>
        <time>2024-03-21T18:28:16Z</time>
      </trkpt>
      <trkpt lat="43.66816" lon="1.38034">
        <ele>136</ele>
        <time>2024-03-21T18:28:17Z</time>
      </trkpt>
      <trkpt lat="43.66818" lon="1.38037">
        <ele>136</ele>
        <time>2024-03-21T18:28:18Z</time>
      </trkpt>
      <trkpt lat="43.6682" lon="1.38039">
        <ele>136</ele>
        <time>2024-03-21T18:28:19Z</time>
      </trkpt>
      <trkpt lat="43.6682" lon="1.38039">
        <ele>136</ele>
        <time>2024-03-21T18:28:20Z</time>
      </trkpt>
      <trkpt lat="43.66822" lon="1.38042">
        <ele>136</ele>
        <time>2024-03-21T18:28:21Z</time>
      </trkpt>
      <trkpt lat="43.66822" lon="1.38042">
        <ele>136</ele>
        <time>2024-03-21T18:28:22Z</time>
      </trkpt>
      <trkpt lat="43.66824" lon="1.38044">
        <ele>136</ele>
        <time>2024-03-21T18:28:23Z</time>
      </trkpt>
      <trkpt lat="43.66824" lon="1.38044">
        <ele>136</ele>
        <time>2024-03-21T18:28:24Z</time>
      </trkpt>
      <trkpt lat="43.66827" lon="1.38046">
        <ele>136</ele>
        <time>2024-03-21T18:28:25Z</time>
      </trkpt>
      <trkpt lat="43.66829" lon="1.38047">
        <ele>136</ele>
        <time>2024-03-21T18:28:26Z</time>
      </trkpt>
      <trkpt lat="43.66829" lon="1.38047">
        <ele>136</ele>
        <time>2024-03-21T18:28:27Z</time>
      </trkpt>
      <trkpt lat="43.66832" lon="1.38048">
        <ele>136</ele>
        <time>2024-03-21T18:28:28Z</time>
      </trkpt>
      <trkpt lat="43.66832" lon="1.38048">
        <ele>136</ele>
        <time>2024-03-21T18:28:29Z</time>
      </trkpt>
      <trkpt lat="43.66835" lon="1.3805">
        <ele>135</ele>
        <time>2024-03-21T18:28:30Z</time>
      </trkpt>
      <trkpt lat="43.66837" lon="1.38052">
        <ele>136</ele>
        <time>2024-03-21T18:28:31Z</time>
      </trkpt>
      <trkpt lat="43.66838" lon="1.38055">
        <ele>136</ele>
        <time>2024-03-21T18:28:32Z</time>
      </trkpt>
      <trkpt lat="43.6684" lon="1.38058">
        <ele>135</ele>
        <time>2024-03-21T18:28:33Z</time>
      </trkpt>
      <trkpt lat="43.66841" lon="1.3806">
        <ele>135</ele>
        <time>2024-03-21T18:28:34Z</time>
      </trkpt>
      <trkpt lat="43.66842" lon="1.38062">
        <ele>134</ele>
        <time>2024-03-21T18:28:35Z</time>
      </trkpt>
      <trkpt lat="43.66842" lon="1.38065">
        <ele>134</ele>
        <time>2024-03-21T18:28:36Z</time>
      </trkpt>
      <trkpt lat="43.66844" lon="1.38067">
        <ele>134</ele>
        <time>2024-03-21T18:28:37Z</time>
      </trkpt>
      <trkpt lat="43.66846" lon="1.38071">
        <ele>134</ele>
        <time>2024-03-21T18:28:38Z</time>
      </trkpt>
      <trkpt lat="43.66847" lon="1.38072">
        <ele>134</ele>
        <time>2024-03-21T18:28:39Z</time>
      </trkpt>
      <trkpt lat="43.66848" lon="1.38075">
        <ele>134</ele>
        <time>2024-03-21T18:28:40Z</time>
      </trkpt>
      <trkpt lat="43.66849" lon="1.38077">
        <ele>134</ele>
        <time>2024-03-21T18:28:41Z</time>
      </trkpt>
      <trkpt lat="43.6685" lon="1.3808">
        <ele>133</ele>
        <time>2024-03-21T18:28:42Z</time>
      </trkpt>
      <trkpt lat="43.66851" lon="1.38083">
        <ele>133</ele>
        <time>2024-03-21T18:28:43Z</time>
      </trkpt>
      <trkpt lat="43.66851" lon="1.38086">
        <ele>133</ele>
        <time>2024-03-21T18:28:44Z</time>
      </trkpt>
      <trkpt lat="43.66851" lon="1.38089">
        <ele>132</ele>
        <time>2024-03-21T18:28:45Z</time>
      </trkpt>
      <trkpt lat="43.66852" lon="1.38092">
        <ele>132</ele>
        <time>2024-03-21T18:28:46Z</time>
      </trkpt>
      <trkpt lat="43.66853" lon="1.38094">
        <ele>132</ele>
        <time>2024-03-21T18:28:47Z</time>
      </trkpt>
      <trkpt lat="43.66854" lon="1.38097">
        <ele>131</ele>
        <time>2024-03-21T18:28:48Z</time>
      </trkpt>
      <trkpt lat="43.66855" lon="1.381">
        <ele>130</ele>
        <time>2024-03-21T18:28:49Z</time>
      </trkpt>
      <trkpt lat="43.66856" lon="1.38102">
        <ele>130</ele>
        <time>2024-03-21T18:28:50Z</time>
      </trkpt>
      <trkpt lat="43.66858" lon="1.38104">
        <ele>130</ele>
        <time>2024-03-21T18:28:51Z</time>
      </trkpt>
      <trkpt lat="43.66859" lon="1.38107">
        <ele>130</ele>
        <time>2024-03-21T18:28:52Z</time>
      </trkpt>
      <trkpt lat="43.66861" lon="1.3811">
        <ele>130</ele>
        <time>2024-03-21T18:28:53Z</time>
      </trkpt>
      <trkpt lat="43.66861" lon="1.3811">
        <ele>130</ele>
        <time>2024-03-21T18:28:54Z</time>
      </trkpt>
      <trkpt lat="43.66863" lon="1.38113">
        <ele>129</ele>
        <time>2024-03-21T18:28:55Z</time>
      </trkpt>
      <trkpt lat="43.66864" lon="1.38115">
        <ele>129</ele>
        <time>2024-03-21T18:28:56Z</time>
      </trkpt>
      <trkpt lat="43.66866" lon="1.38118">
        <ele>129</ele>
        <time>2024-03-21T18:28:57Z</time>
      </trkpt>
      <trkpt lat="43.66866" lon="1.38118">
        <ele>129</ele>
        <time>2024-03-21T18:28:58Z</time>
      </trkpt>
      <trkpt lat="43.66867" lon="1.38121">
        <ele>129</ele>
        <time>2024-03-21T18:28:59Z</time>
      </trkpt>
      <trkpt lat="43.66867" lon="1.38121">
        <ele>129</ele>
        <time>2024-03-21T18:29:00Z</time>
      </trkpt>
      <trkpt lat="43.66868" lon="1.38124">
        <ele>129</ele>
        <time>2024-03-21T18:29:01Z</time>
      </trkpt>
      <trkpt lat="43.66868" lon="1.38124">
        <ele>129</ele>
        <time>2024-03-21T18:29:02Z</time>
      </trkpt>
      <trkpt lat="43.66868" lon="1.38124">
        <ele>129</ele>
        <time>2024-03-21T18:29:03Z</time>
      </trkpt>
      <trkpt lat="43.66868" lon="1.38124">
        <ele>129</ele>
        <time>2024-03-21T18:29:04Z</time>
      </trkpt>
      <trkpt lat="43.66868" lon="1.38124">
        <ele>129</ele>
        <time>2024-03-21T18:29:05Z</time>
      </trkpt>
      <trkpt lat="43.66868" lon="1.38124">
        <ele>129</ele>
        <time>2024-03-21T18:29:06Z</time>
      </trkpt>
      <trkpt lat="43.66868" lon="1.38124">
        <ele>129</ele>
        <time>2024-03-21T18:29:07Z</time>
      </trkpt>
      <trkpt lat="43.66869" lon="1.38125">
        <ele>129</ele>
        <time>2024-03-21T18:29:08Z</time>
      </trkpt>
      <trkpt lat="43.66869" lon="1.38125">
        <ele>129</ele>
        <time>2024-03-21T18:29:09Z</time>
      </trkpt>
      <trkpt lat="43.66869" lon="1.38125">
        <ele>129</ele>
        <time>2024-03-21T18:29:10Z</time>
      </trkpt>
      <trkpt lat="43.66869" lon="1.38125">
        <ele>129</ele>
        <time>2024-03-21T18:29:11Z</time>
      </trkpt>
      <trkpt lat="43.66871" lon="1.38127">
        <ele>129</ele>
        <time>2024-03-21T18:29:12Z</time>
      </trkpt>
      <trkpt lat="43.66871" lon="1.38127">
        <ele>129</ele>
        <time>2024-03-21T18:29:13Z</time>
      </trkpt>
      <trkpt lat="43.66871" lon="1.38127">
        <ele>129</ele>
        <time>2024-03-21T18:29:14Z</time>
      </trkpt>
      <trkpt lat="43.66871" lon="1.38124">
        <ele>128</ele>
        <time>2024-03-21T18:29:15Z</time>
      </trkpt>
      <trkpt lat="43.66872" lon="1.38121">
        <ele>128</ele>
        <time>2024-03-21T18:29:17Z</time>
      </trkpt>
      <trkpt lat="43.66872" lon="1.38121">
        <ele>128</ele>
        <time>2024-03-21T18:29:18Z</time>
      </trkpt>
      <trkpt lat="43.66872" lon="1.38121">
        <ele>128</ele>
        <time>2024-03-21T18:29:19Z</time>
      </trkpt>
      <trkpt lat="43.66873" lon="1.38119">
        <ele>128</ele>
        <time>2024-03-21T18:29:20Z</time>
      </trkpt>
      <trkpt lat="43.66873" lon="1.38119">
        <ele>128</ele>
        <time>2024-03-21T18:29:21Z</time>
      </trkpt>
      <trkpt lat="43.66873" lon="1.38119">
        <ele>128</ele>
        <time>2024-03-21T18:29:22Z</time>
      </trkpt>
      <trkpt lat="43.66872" lon="1.3812">
        <ele>128</ele>
        <time>2024-03-21T18:29:23Z</time>
      </trkpt>
      <trkpt lat="43.66872" lon="1.3812">
        <ele>128</ele>
        <time>2024-03-21T18:29:24Z</time>
      </trkpt>
      <trkpt lat="43.6687" lon="1.38122">
        <ele>128</ele>
        <time>2024-03-21T18:29:25Z</time>
      </trkpt>
      <trkpt lat="43.6687" lon="1.38122">
        <ele>128</ele>
        <time>2024-03-21T18:29:26Z</time>
      </trkpt>
      <trkpt lat="43.6687" lon="1.38122">
        <ele>128</ele>
        <time>2024-03-21T18:29:27Z</time>
      </trkpt>
      <trkpt lat="43.66868" lon="1.38122">
        <ele>128</ele>
        <time>2024-03-21T18:29:28Z</time>
      </trkpt>
      <trkpt lat="43.66868" lon="1.38122">
        <ele>129</ele>
        <time>2024-03-21T18:29:29Z</time>
      </trkpt>
      <trkpt lat="43.66868" lon="1.38122">
        <ele>129</ele>
        <time>2024-03-21T18:29:30Z</time>
      </trkpt>
      <trkpt lat="43.66868" lon="1.38122">
        <ele>129</ele>
        <time>2024-03-21T18:29:31Z</time>
      </trkpt>
      <trkpt lat="43.66868" lon="1.38122">
        <ele>129</ele>
        <time>2024-03-21T18:29:32Z</time>
      </trkpt>
      <trkpt lat="43.66868" lon="1.38122">
        <ele>129</ele>
        <time>2024-03-21T18:29:33Z</time>
      </trkpt>
      <trkpt lat="43.66868" lon="1.38122">
        <ele>129</ele>
        <time>2024-03-21T18:29:34Z</time>
      </trkpt>
      <trkpt lat="43.66868" lon="1.38122">
        <ele>129</ele>
        <time>2024-03-21T18:29:36Z</time>
      </trkpt>
      <trkpt lat="43.66868" lon="1.38122">
        <ele>129</ele>
        <time>2024-03-21T18:29:37Z</time>
      </trkpt>
      <trkpt lat="43.66866" lon="1.38121">
        <ele>129</ele>
        <time>2024-03-21T18:29:38Z</time>
      </trkpt>
      <trkpt lat="43.66866" lon="1.38121">
        <ele>129</ele>
        <time>2024-03-21T18:29:39Z</time>
      </trkpt>
      <trkpt lat="43.66866" lon="1.38121">
        <ele>129</ele>
        <time>2024-03-21T18:29:40Z</time>
      </trkpt>
      <trkpt lat="43.66866" lon="1.38121">
        <ele>129</ele>
        <time>2024-03-21T18:29:41Z</time>
      </trkpt>
      <trkpt lat="43.66866" lon="1.38121">
        <ele>129</ele>
        <time>2024-03-21T18:29:42Z</time>
      </trkpt>
      <trkpt lat="43.66866" lon="1.38121">
        <ele>129</ele>
        <time>2024-03-21T18:29:43Z</time>
      </trkpt>
      <trkpt lat="43.66866" lon="1.38121">
        <ele>129</ele>
        <time>2024-03-21T18:29:44Z</time>
      </trkpt>
      <trkpt lat="43.66866" lon="1.38121">
        <ele>129</ele>
        <time>2024-03-21T18:29:45Z</time>
      </trkpt>
      <trkpt lat="43.66866" lon="1.38121">
        <ele>128</ele>
        <time>2024-03-21T18:29:46Z</time>
      </trkpt>
      <trkpt lat="43.66866" lon="1.38121">
        <ele>128</ele>
        <time>2024-03-21T18:29:47Z</time>
      </trkpt>
      <trkpt lat="43.66866" lon="1.38121">
        <ele>128</ele>
        <time>2024-03-21T18:29:48Z</time>
      </trkpt>
      <trkpt lat="43.66866" lon="1.38121">
        <ele>128</ele>
        <time>2024-03-21T18:29:49Z</time>
      </trkpt>
      <trkpt lat="43.66866" lon="1.38121">
        <ele>128</ele>
        <time>2024-03-21T18:29:50Z</time>
      </trkpt>
      <trkpt lat="43.66866" lon="1.38121">
        <ele>128</ele>
        <time>2024-03-21T18:29:51Z</time>
      </trkpt>
      <trkpt lat="43.66866" lon="1.38121">
        <ele>128</ele>
        <time>2024-03-21T18:29:52Z</time>
      </trkpt>
      <trkpt lat="43.66866" lon="1.38121">
        <ele>128</ele>
        <time>2024-03-21T18:29:53Z</time>
      </trkpt>
      <trkpt lat="43.66866" lon="1.38121">
        <ele>128</ele>
        <time>2024-03-21T18:29:55Z</time>
      </trkpt>
      <trkpt lat="43.66866" lon="1.38121">
        <ele>128</ele>
        <time>2024-03-21T18:29:56Z</time>
      </trkpt>
      <trkpt lat="43.66866" lon="1.38121">
        <ele>128</ele>
        <time>2024-03-21T18:29:57Z</time>
      </trkpt>
      <trkpt lat="43.66866" lon="1.38121">
        <ele>128</ele>
        <time>2024-03-21T18:29:58Z</time>
      </trkpt>
      <trkpt lat="43.66866" lon="1.38121">
        <ele>128</ele>
        <time>2024-03-21T18:29:59Z</time>
      </trkpt>
      <trkpt lat="43.66866" lon="1.38121">
        <ele>128</ele>
        <time>2024-03-21T18:30:00Z</time>
      </trkpt>
      <trkpt lat="43.66866" lon="1.38121">
        <ele>128</ele>
        <time>2024-03-21T18:30:01Z</time>
      </trkpt>
      <trkpt lat="43.66866" lon="1.38121">
        <ele>128</ele>
        <time>2024-03-21T18:30:02Z</time>
      </trkpt>
      <trkpt lat="43.66866" lon="1.38121">
        <ele>128</ele>
        <time>2024-03-21T18:30:03Z</time>
      </trkpt>
      <trkpt lat="43.66864" lon="1.38123">
        <ele>128</ele>
        <time>2024-03-21T18:30:04Z</time>
      </trkpt>
      <trkpt lat="43.66864" lon="1.38123">
        <ele>128</ele>
        <time>2024-03-21T18:30:05Z</time>
      </trkpt>
      <trkpt lat="43.66864" lon="1.38123">
        <ele>128</ele>
        <time>2024-03-21T18:30:06Z</time>
      </trkpt>
      <trkpt lat="43.66864" lon="1.38123">
        <ele>128</ele>
        <time>2024-03-21T18:30:07Z</time>
      </trkpt>
      <trkpt lat="43.66864" lon="1.38123">
        <ele>128</ele>
        <time>2024-03-21T18:30:08Z</time>
      </trkpt>
      <trkpt lat="43.66864" lon="1.38123">
        <ele>128</ele>
        <time>2024-03-21T18:30:09Z</time>
      </trkpt>
      <trkpt lat="43.66864" lon="1.38123">
        <ele>128</ele>
        <time>2024-03-21T18:30:10Z</time>
      </trkpt>
      <trkpt lat="43.66864" lon="1.38123">
        <ele>128</ele>
        <time>2024-03-21T18:30:11Z</time>
      </trkpt>
      <trkpt lat="43.66864" lon="1.38123">
        <ele>128</ele>
        <time>2024-03-21T18:30:12Z</time>
      </trkpt>
      <trkpt lat="43.66864" lon="1.38123">
        <ele>129</ele>
        <time>2024-03-21T18:30:14Z</time>
      </trkpt>
      <trkpt lat="43.66864" lon="1.38123">
        <ele>129</ele>
        <time>2024-03-21T18:30:15Z</time>
      </trkpt>
      <trkpt lat="43.66863" lon="1.38125">
        <ele>129</ele>
        <time>2024-03-21T18:30:16Z</time>
      </trkpt>
      <trkpt lat="43.66863" lon="1.38125">
        <ele>129</ele>
        <time>2024-03-21T18:30:17Z</time>
      </trkpt>
      <trkpt lat="43.66863" lon="1.38125">
        <ele>129</ele>
        <time>2024-03-21T18:30:18Z</time>
      </trkpt>
      <trkpt lat="43.66863" lon="1.38125">
        <ele>129</ele>
        <time>2024-03-21T18:30:19Z</time>
      </trkpt>
      <trkpt lat="43.66863" lon="1.38125">
        <ele>129</ele>
        <time>2024-03-21T18:30:20Z</time>
      </trkpt>
      <trkpt lat="43.66863" lon="1.38125">
        <ele>129</ele>
        <time>2024-03-21T18:30:21Z</time>
      </trkpt>
      <trkpt lat="43.66863" lon="1.38125">
        <ele>129</ele>
        <time>2024-03-21T18:30:22Z</time>
      </trkpt>
      <trkpt lat="43.66863" lon="1.38125">
        <ele>129</ele>
        <time>2024-03-21T18:30:23Z</time>
      </trkpt>
      <trkpt lat="43.66863" lon="1.38125">
        <ele>129</ele>
        <time>2024-03-21T18:30:24Z</time>
      </trkpt>
      <trkpt lat="43.66863" lon="1.38125">
        <ele>129</ele>
        <time>2024-03-21T18:30:25Z</time>
      </trkpt>
      <trkpt lat="43.66863" lon="1.38125">
        <ele>129</ele>
        <time>2024-03-21T18:30:26Z</time>
      </trkpt>
      <trkpt lat="43.66863" lon="1.38125">
        <ele>129</ele>
        <time>2024-03-21T18:30:27Z</time>
      </trkpt>
      <trkpt lat="43.66863" lon="1.38125">
        <ele>129</ele>
        <time>2024-03-21T18:30:28Z</time>
      </trkpt>
      <trkpt lat="43.66863" lon="1.38125">
        <ele>129</ele>
        <time>2024-03-21T18:30:29Z</time>
      </trkpt>
      <trkpt lat="43.66863" lon="1.38125">
        <ele>129</ele>
        <time>2024-03-21T18:30:30Z</time>
      </trkpt>
      <trkpt lat="43.66863" lon="1.38125">
        <ele>129</ele>
        <time>2024-03-21T18:30:31Z</time>
      </trkpt>
      <trkpt lat="43.66863" lon="1.38125">
        <ele>129</ele>
        <time>2024-03-21T18:30:33Z</time>
      </trkpt>
      <trkpt lat="43.66863" lon="1.38125">
        <ele>129</ele>
        <time>2024-03-21T18:30:34Z</time>
      </trkpt>
      <trkpt lat="43.66863" lon="1.38125">
        <ele>129</ele>
        <time>2024-03-21T18:30:35Z</time>
      </trkpt>
      <trkpt lat="43.66863" lon="1.38125">
        <ele>129</ele>
        <time>2024-03-21T18:30:36Z</time>
      </trkpt>
      <trkpt lat="43.66863" lon="1.38125">
        <ele>129</ele>
        <time>2024-03-21T18:30:37Z</time>
      </trkpt>
      <trkpt lat="43.66863" lon="1.38125">
        <ele>129</ele>
        <time>2024-03-21T18:30:38Z</time>
      </trkpt>
      <trkpt lat="43.66863" lon="1.38125">
        <ele>129</ele>
        <time>2024-03-21T18:30:39Z</time>
      </trkpt>
      <trkpt lat="43.66863" lon="1.38125">
        <ele>129</ele>
        <time>2024-03-21T18:30:40Z</time>
      </trkpt>
      <trkpt lat="43.66863" lon="1.38125">
        <ele>129</ele>
        <time>2024-03-21T18:30:41Z</time>
      </trkpt>
      <trkpt lat="43.66863" lon="1.38125">
        <ele>129</ele>
        <time>2024-03-21T18:30:42Z</time>
      </trkpt>
      <trkpt lat="43.66863" lon="1.38125">
        <ele>129</ele>
        <time>2024-03-21T18:30:43Z</time>
      </trkpt>
      <trkpt lat="43.66863" lon="1.38125">
        <ele>129</ele>
        <time>2024-03-21T18:30:44Z</time>
      </trkpt>
      <trkpt lat="43.66863" lon="1.38125">
        <ele>129</ele>
        <time>2024-03-21T18:30:45Z</time>
      </trkpt>
      <trkpt lat="43.66863" lon="1.38125">
        <ele>129</ele>
        <time>2024-03-21T18:30:46Z</time>
      </trkpt>
      <trkpt lat="43.66863" lon="1.38125">
        <ele>129</ele>
        <time>2024-03-21T18:30:47Z</time>
      </trkpt>
      <trkpt lat="43.66863" lon="1.38125">
        <ele>129</ele>
        <time>2024-03-21T18:30:48Z</time>
      </trkpt>
      <trkpt lat="43.66863" lon="1.38125">
        <ele>129</ele>
        <time>2024-03-21T18:30:49Z</time>
      </trkpt>
      <trkpt lat="43.66863" lon="1.38125">
        <ele>129</ele>
        <time>2024-03-21T18:30:50Z</time>
      </trkpt>
      <trkpt lat="43.66863" lon="1.38125">
        <ele>129</ele>
        <time>2024-03-21T18:30:52Z</time>
      </trkpt>
      <trkpt lat="43.66863" lon="1.38125">
        <ele>129</ele>
        <time>2024-03-21T18:30:53Z</time>
      </trkpt>
      <trkpt lat="43.66863" lon="1.38125">
        <ele>129</ele>
        <time>2024-03-21T18:30:54Z</time>
      </trkpt>
      <trkpt lat="43.66863" lon="1.38125">
        <ele>129</ele>
        <time>2024-03-21T18:30:55Z</time>
      </trkpt>
      <trkpt lat="43.66863" lon="1.38125">
        <ele>129</ele>
        <time>2024-03-21T18:30:56Z</time>
      </trkpt>
      <trkpt lat="43.66863" lon="1.38125">
        <ele>129</ele>
        <time>2024-03-21T18:30:57Z</time>
      </trkpt>
      <trkpt lat="43.66863" lon="1.38125">
        <ele>129</ele>
        <time>2024-03-21T18:30:58Z</time>
      </trkpt>
      <trkpt lat="43.66863" lon="1.38125">
        <ele>129</ele>
        <time>2024-03-21T18:30:59Z</time>
      </trkpt>
      <trkpt lat="43.66863" lon="1.38125">
        <ele>129</ele>
        <time>2024-03-21T18:31:00Z</time>
      </trkpt>
      <trkpt lat="43.66863" lon="1.38125">
        <ele>129</ele>
        <time>2024-03-21T18:31:01Z</time>
      </trkpt>
      <trkpt lat="43.66863" lon="1.38125">
        <ele>129</ele>
        <time>2024-03-21T18:31:02Z</time>
      </trkpt>
      <trkpt lat="43.66863" lon="1.38125">
        <ele>129</ele>
        <time>2024-03-21T18:31:03Z</time>
      </trkpt>
      <trkpt lat="43.66863" lon="1.38125">
        <ele>129</ele>
        <time>2024-03-21T18:31:04Z</time>
      </trkpt>
      <trkpt lat="43.66863" lon="1.38125">
        <ele>129</ele>
        <time>2024-03-21T18:31:05Z</time>
      </trkpt>
      <trkpt lat="43.66863" lon="1.38125">
        <ele>129</ele>
        <time>2024-03-21T18:31:06Z</time>
      </trkpt>
      <trkpt lat="43.66863" lon="1.38125">
        <ele>129</ele>
        <time>2024-03-21T18:31:07Z</time>
      </trkpt>
      <trkpt lat="43.66863" lon="1.38125">
        <ele>129</ele>
        <time>2024-03-21T18:31:08Z</time>
      </trkpt>
      <trkpt lat="43.66863" lon="1.38125">
        <ele>129</ele>
        <time>2024-03-21T18:31:09Z</time>
      </trkpt>
      <trkpt lat="43.66863" lon="1.38125">
        <ele>129</ele>
        <time>2024-03-21T18:31:11Z</time>
      </trkpt>
      <trkpt lat="43.66863" lon="1.38125">
        <ele>129</ele>
        <time>2024-03-21T18:31:12Z</time>
      </trkpt>
      <trkpt lat="43.66863" lon="1.38125">
        <ele>129</ele>
        <time>2024-03-21T18:31:13Z</time>
      </trkpt>
      <trkpt lat="43.66863" lon="1.38125">
        <ele>129</ele>
        <time>2024-03-21T18:31:14Z</time>
      </trkpt>
      <trkpt lat="43.66863" lon="1.38125">
        <ele>129</ele>
        <time>2024-03-21T18:31:15Z</time>
      </trkpt>
      <trkpt lat="43.66863" lon="1.38125">
        <ele>129</ele>
        <time>2024-03-21T18:31:16Z</time>
      </trkpt>
      <trkpt lat="43.66863" lon="1.38125">
        <ele>129</ele>
        <time>2024-03-21T18:31:17Z</time>
      </trkpt>
      <trkpt lat="43.66863" lon="1.38125">
        <ele>129</ele>
        <time>2024-03-21T18:31:18Z</time>
      </trkpt>
      <trkpt lat="43.66863" lon="1.38125">
        <ele>129</ele>
        <time>2024-03-21T18:31:19Z</time>
      </trkpt>
      <trkpt lat="43.66863" lon="1.38125">
        <ele>129</ele>
        <time>2024-03-21T18:31:20Z</time>
      </trkpt>
      <trkpt lat="43.66863" lon="1.38125">
        <ele>129</ele>
        <time>2024-03-21T18:31:21Z</time>
      </trkpt>
      <trkpt lat="43.66863" lon="1.38125">
        <ele>129</ele>
        <time>2024-03-21T18:31:22Z</time>
      </trkpt>
      <trkpt lat="43.66863" lon="1.38125">
        <ele>129</ele>
        <time>2024-03-21T18:31:23Z</time>
      </trkpt>
      <trkpt lat="43.66863" lon="1.38125">
        <ele>129</ele>
        <time>2024-03-21T18:31:24Z</time>
      </trkpt>
      <trkpt lat="43.66863" lon="1.38125">
        <ele>129</ele>
        <time>2024-03-21T18:31:25Z</time>
      </trkpt>
      <trkpt lat="43.66863" lon="1.38125">
        <ele>129</ele>
        <time>2024-03-21T18:31:26Z</time>
      </trkpt>
      <trkpt lat="43.66863" lon="1.38125">
        <ele>129</ele>
        <time>2024-03-21T18:31:27Z</time>
      </trkpt>
      <trkpt lat="43.66863" lon="1.38125">
        <ele>129</ele>
        <time>2024-03-21T18:31:28Z</time>
      </trkpt>
      <trkpt lat="43.66863" lon="1.38125">
        <ele>129</ele>
        <time>2024-03-21T18:31:30Z</time>
      </trkpt>
      <trkpt lat="43.66863" lon="1.38125">
        <ele>129</ele>
        <time>2024-03-21T18:31:31Z</time>
      </trkpt>
      <trkpt lat="43.66863" lon="1.38125">
        <ele>129</ele>
        <time>2024-03-21T18:31:32Z</time>
      </trkpt>
      <trkpt lat="43.66863" lon="1.38125">
        <ele>129</ele>
        <time>2024-03-21T18:31:33Z</time>
      </trkpt>
      <trkpt lat="43.66863" lon="1.38125">
        <ele>129</ele>
        <time>2024-03-21T18:31:34Z</time>
      </trkpt>
      <trkpt lat="43.66863" lon="1.38125">
        <ele>129</ele>
        <time>2024-03-21T18:31:35Z</time>
      </trkpt>
      <trkpt lat="43.66863" lon="1.38125">
        <ele>129</ele>
        <time>2024-03-21T18:31:36Z</time>
      </trkpt>
      <trkpt lat="43.66863" lon="1.38125">
        <ele>129</ele>
        <time>2024-03-21T18:31:37Z</time>
      </trkpt>
      <trkpt lat="43.66863" lon="1.38125">
        <ele>129</ele>
        <time>2024-03-21T18:31:38Z</time>
      </trkpt>
      <trkpt lat="43.66863" lon="1.38125">
        <ele>129</ele>
        <time>2024-03-21T18:31:39Z</time>
      </trkpt>
      <trkpt lat="43.66863" lon="1.38125">
        <ele>129</ele>
        <time>2024-03-21T18:31:40Z</time>
      </trkpt>
      <trkpt lat="43.66863" lon="1.38125">
        <ele>129</ele>
        <time>2024-03-21T18:31:41Z</time>
      </trkpt>
      <trkpt lat="43.66863" lon="1.38125">
        <ele>129</ele>
        <time>2024-03-21T18:31:42Z</time>
      </trkpt>
      <trkpt lat="43.66863" lon="1.38125">
        <ele>129</ele>
        <time>2024-03-21T18:31:43Z</time>
      </trkpt>
      <trkpt lat="43.66863" lon="1.38125">
        <ele>129</ele>
        <time>2024-03-21T18:31:44Z</time>
      </trkpt>
      <trkpt lat="43.66863" lon="1.38125">
        <ele>129</ele>
        <time>2024-03-21T18:31:45Z</time>
      </trkpt>
      <trkpt lat="43.66863" lon="1.38125">
        <ele>129</ele>
        <time>2024-03-21T18:31:46Z</time>
      </trkpt>
      <trkpt lat="43.66863" lon="1.38125">
        <ele>129</ele>
        <time>2024-03-21T18:31:47Z</time>
      </trkpt>
      <trkpt lat="43.66863" lon="1.38125">
        <ele>129</ele>
        <time>2024-03-21T18:31:49Z</time>
      </trkpt>
      <trkpt lat="43.66863" lon="1.38125">
        <ele>129</ele>
        <time>2024-03-21T18:31:50Z</time>
      </trkpt>
      <trkpt lat="43.66863" lon="1.38125">
        <ele>129</ele>
        <time>2024-03-21T18:31:51Z</time>
      </trkpt>
      <trkpt lat="43.66863" lon="1.38125">
        <ele>129</ele>
        <time>2024-03-21T18:31:52Z</time>
      </trkpt>
      <trkpt lat="43.66863" lon="1.38125">
        <ele>129</ele>
        <time>2024-03-21T18:31:53Z</time>
      </trkpt>
      <trkpt lat="43.66863" lon="1.38125">
        <ele>129</ele>
        <time>2024-03-21T18:31:54Z</time>
      </trkpt>
      <trkpt lat="43.66863" lon="1.38125">
        <ele>129</ele>
        <time>2024-03-21T18:31:55Z</time>
      </trkpt>
      <trkpt lat="43.66863" lon="1.38125">
        <ele>128</ele>
        <time>2024-03-21T18:31:56Z</time>
      </trkpt>
      <trkpt lat="43.66863" lon="1.38125">
        <ele>128</ele>
        <time>2024-03-21T18:31:57Z</time>
      </trkpt>
      <trkpt lat="43.66862" lon="1.38127">
        <ele>129</ele>
        <time>2024-03-21T18:31:58Z</time>
      </trkpt>
      <trkpt lat="43.66862" lon="1.38127">
        <ele>129</ele>
        <time>2024-03-21T18:31:59Z</time>
      </trkpt>
      <trkpt lat="43.66862" lon="1.38127">
        <ele>129</ele>
        <time>2024-03-21T18:32:00Z</time>
      </trkpt>
      <trkpt lat="43.66862" lon="1.38127">
        <ele>128</ele>
        <time>2024-03-21T18:32:01Z</time>
      </trkpt>
      <trkpt lat="43.66862" lon="1.38127">
        <ele>128</ele>
        <time>2024-03-21T18:32:02Z</time>
      </trkpt>
      <trkpt lat="43.66862" lon="1.38127">
        <ele>128</ele>
        <time>2024-03-21T18:32:03Z</time>
      </trkpt>
      <trkpt lat="43.66859" lon="1.38123">
        <ele>128</ele>
        <time>2024-03-21T18:32:04Z</time>
      </trkpt>
      <trkpt lat="43.66857" lon="1.3812">
        <ele>129</ele>
        <time>2024-03-21T18:32:05Z</time>
      </trkpt>
      <trkpt lat="43.66855" lon="1.38117">
        <ele>129</ele>
        <time>2024-03-21T18:32:06Z</time>
      </trkpt>
      <trkpt lat="43.66851" lon="1.38112">
        <ele>129</ele>
        <time>2024-03-21T18:32:07Z</time>
      </trkpt>
      <trkpt lat="43.6685" lon="1.3811">
        <ele>130</ele>
        <time>2024-03-21T18:32:08Z</time>
      </trkpt>
      <trkpt lat="43.66846" lon="1.38105">
        <ele>130</ele>
        <time>2024-03-21T18:32:09Z</time>
      </trkpt>
      <trkpt lat="43.66845" lon="1.38103">
        <ele>130</ele>
        <time>2024-03-21T18:32:10Z</time>
      </trkpt>
      <trkpt lat="43.66843" lon="1.381">
        <ele>130</ele>
        <time>2024-03-21T18:32:11Z</time>
      </trkpt>
      <trkpt lat="43.66841" lon="1.38096">
        <ele>130</ele>
        <time>2024-03-21T18:32:12Z</time>
      </trkpt>
      <trkpt lat="43.6684" lon="1.38092">
        <ele>130</ele>
        <time>2024-03-21T18:32:13Z</time>
      </trkpt>
      <trkpt lat="43.66839" lon="1.38089">
        <ele>131</ele>
        <time>2024-03-21T18:32:14Z</time>
      </trkpt>
      <trkpt lat="43.66838" lon="1.38085">
        <ele>132</ele>
        <time>2024-03-21T18:32:15Z</time>
      </trkpt>
      <trkpt lat="43.66836" lon="1.38081">
        <ele>133</ele>
        <time>2024-03-21T18:32:16Z</time>
      </trkpt>
      <trkpt lat="43.66836" lon="1.38077">
        <ele>134</ele>
        <time>2024-03-21T18:32:17Z</time>
      </trkpt>
      <trkpt lat="43.66835" lon="1.38073">
        <ele>134</ele>
        <time>2024-03-21T18:32:18Z</time>
      </trkpt>
      <trkpt lat="43.66833" lon="1.38068">
        <ele>134</ele>
        <time>2024-03-21T18:32:19Z</time>
      </trkpt>
      <trkpt lat="43.66832" lon="1.38065">
        <ele>134</ele>
        <time>2024-03-21T18:32:20Z</time>
      </trkpt>
      <trkpt lat="43.66831" lon="1.38061">
        <ele>134</ele>
        <time>2024-03-21T18:32:21Z</time>
      </trkpt>
      <trkpt lat="43.6683" lon="1.38057">
        <ele>134</ele>
        <time>2024-03-21T18:32:22Z</time>
      </trkpt>
      <trkpt lat="43.66829" lon="1.38053">
        <ele>135</ele>
        <time>2024-03-21T18:32:23Z</time>
      </trkpt>
      <trkpt lat="43.66829" lon="1.38049">
        <ele>135</ele>
        <time>2024-03-21T18:32:24Z</time>
      </trkpt>
      <trkpt lat="43.66828" lon="1.38046">
        <ele>136</ele>
        <time>2024-03-21T18:32:25Z</time>
      </trkpt>
      <trkpt lat="43.66828" lon="1.38042">
        <ele>136</ele>
        <time>2024-03-21T18:32:26Z</time>
      </trkpt>
      <trkpt lat="43.66827" lon="1.38039">
        <ele>137</ele>
        <time>2024-03-21T18:32:27Z</time>
      </trkpt>
      <trkpt lat="43.66827" lon="1.38033">
        <ele>137</ele>
        <time>2024-03-21T18:32:28Z</time>
      </trkpt>
      <trkpt lat="43.66826" lon="1.38028">
        <ele>137</ele>
        <time>2024-03-21T18:32:29Z</time>
      </trkpt>
      <trkpt lat="43.66826" lon="1.38017">
        <ele>138</ele>
        <time>2024-03-21T18:32:30Z</time>
      </trkpt>
      <trkpt lat="43.66825" lon="1.38012">
        <ele>138</ele>
        <time>2024-03-21T18:32:31Z</time>
      </trkpt>
      <trkpt lat="43.66826" lon="1.38007">
        <ele>139</ele>
        <time>2024-03-21T18:32:32Z</time>
      </trkpt>
      <trkpt lat="43.66827" lon="1.38002">
        <ele>139</ele>
        <time>2024-03-21T18:32:33Z</time>
      </trkpt>
      <trkpt lat="43.66829" lon="1.37997">
        <ele>140</ele>
        <time>2024-03-21T18:32:34Z</time>
      </trkpt>
      <trkpt lat="43.66832" lon="1.37992">
        <ele>140</ele>
        <time>2024-03-21T18:32:35Z</time>
      </trkpt>
      <trkpt lat="43.66835" lon="1.37987">
        <ele>141</ele>
        <time>2024-03-21T18:32:36Z</time>
      </trkpt>
      <trkpt lat="43.66837" lon="1.37983">
        <ele>142</ele>
        <time>2024-03-21T18:32:37Z</time>
      </trkpt>
      <trkpt lat="43.66839" lon="1.37979">
        <ele>142</ele>
        <time>2024-03-21T18:32:38Z</time>
      </trkpt>
      <trkpt lat="43.66839" lon="1.37979">
        <ele>142</ele>
        <time>2024-03-21T18:32:39Z</time>
      </trkpt>
      <trkpt lat="43.66839" lon="1.37979">
        <ele>142</ele>
        <time>2024-03-21T18:32:40Z</time>
      </trkpt>
      <trkpt lat="43.66839" lon="1.37979">
        <ele>142</ele>
        <time>2024-03-21T18:32:41Z</time>
      </trkpt>
      <trkpt lat="43.66838" lon="1.37981">
        <ele>142</ele>
        <time>2024-03-21T18:32:42Z</time>
      </trkpt>
      <trkpt lat="43.66838" lon="1.37981">
        <ele>142</ele>
        <time>2024-03-21T18:32:43Z</time>
      </trkpt>
      <trkpt lat="43.66837" lon="1.37986">
        <ele>142</ele>
        <time>2024-03-21T18:32:44Z</time>
      </trkpt>
      <trkpt lat="43.66835" lon="1.3799">
        <ele>142</ele>
        <time>2024-03-21T18:32:46Z</time>
      </trkpt>
      <trkpt lat="43.66834" lon="1.37992">
        <ele>142</ele>
        <time>2024-03-21T18:32:47Z</time>
      </trkpt>
      <trkpt lat="43.66833" lon="1.37994">
        <ele>142</ele>
        <time>2024-03-21T18:32:48Z</time>
      </trkpt>
      <trkpt lat="43.66832" lon="1.37997">
        <ele>142</ele>
        <time>2024-03-21T18:32:49Z</time>
      </trkpt>
      <trkpt lat="43.6683" lon="1.37999">
        <ele>141</ele>
        <time>2024-03-21T18:32:50Z</time>
      </trkpt>
      <trkpt lat="43.66829" lon="1.38002">
        <ele>141</ele>
        <time>2024-03-21T18:32:51Z</time>
      </trkpt>
      <trkpt lat="43.66829" lon="1.38002">
        <ele>141</ele>
        <time>2024-03-21T18:32:52Z</time>
      </trkpt>
      <trkpt lat="43.66829" lon="1.38007">
        <ele>141</ele>
        <time>2024-03-21T18:32:53Z</time>
      </trkpt>
      <trkpt lat="43.66829" lon="1.38007">
        <ele>141</ele>
        <time>2024-03-21T18:32:54Z</time>
      </trkpt>
      <trkpt lat="43.6683" lon="1.38011">
        <ele>140</ele>
        <time>2024-03-21T18:32:55Z</time>
      </trkpt>
      <trkpt lat="43.66831" lon="1.38014">
        <ele>139</ele>
        <time>2024-03-21T18:32:56Z</time>
      </trkpt>
      <trkpt lat="43.66831" lon="1.38016">
        <ele>139</ele>
        <time>2024-03-21T18:32:57Z</time>
      </trkpt>
      <trkpt lat="43.66831" lon="1.38016">
        <ele>139</ele>
        <time>2024-03-21T18:32:58Z</time>
      </trkpt>
      <trkpt lat="43.66833" lon="1.38021">
        <ele>139</ele>
        <time>2024-03-21T18:32:59Z</time>
      </trkpt>
      <trkpt lat="43.66833" lon="1.38021">
        <ele>139</ele>
        <time>2024-03-21T18:33:00Z</time>
      </trkpt>
      <trkpt lat="43.66834" lon="1.38025">
        <ele>139</ele>
        <time>2024-03-21T18:33:01Z</time>
      </trkpt>
      <trkpt lat="43.66835" lon="1.38027">
        <ele>139</ele>
        <time>2024-03-21T18:33:02Z</time>
      </trkpt>
      <trkpt lat="43.66836" lon="1.38029">
        <ele>138</ele>
        <time>2024-03-21T18:33:03Z</time>
      </trkpt>
      <trkpt lat="43.66838" lon="1.38034">
        <ele>137</ele>
        <time>2024-03-21T18:33:05Z</time>
      </trkpt>
      <trkpt lat="43.66839" lon="1.38037">
        <ele>137</ele>
        <time>2024-03-21T18:33:06Z</time>
      </trkpt>
      <trkpt lat="43.66841" lon="1.38041">
        <ele>137</ele>
        <time>2024-03-21T18:33:07Z</time>
      </trkpt>
      <trkpt lat="43.66841" lon="1.38042">
        <ele>136</ele>
        <time>2024-03-21T18:33:08Z</time>
      </trkpt>
      <trkpt lat="43.66842" lon="1.38045">
        <ele>136</ele>
        <time>2024-03-21T18:33:09Z</time>
      </trkpt>
      <trkpt lat="43.66843" lon="1.38048">
        <ele>136</ele>
        <time>2024-03-21T18:33:10Z</time>
      </trkpt>
      <trkpt lat="43.66844" lon="1.38051">
        <ele>136</ele>
        <time>2024-03-21T18:33:11Z</time>
      </trkpt>
      <trkpt lat="43.66846" lon="1.38054">
        <ele>136</ele>
        <time>2024-03-21T18:33:12Z</time>
      </trkpt>
      <trkpt lat="43.66847" lon="1.38057">
        <ele>135</ele>
        <time>2024-03-21T18:33:13Z</time>
      </trkpt>
      <trkpt lat="43.66847" lon="1.3806">
        <ele>135</ele>
        <time>2024-03-21T18:33:14Z</time>
      </trkpt>
      <trkpt lat="43.66848" lon="1.38063">
        <ele>135</ele>
        <time>2024-03-21T18:33:15Z</time>
      </trkpt>
      <trkpt lat="43.66849" lon="1.38065">
        <ele>134</ele>
        <time>2024-03-21T18:33:16Z</time>
      </trkpt>
      <trkpt lat="43.6685" lon="1.38068">
        <ele>134</ele>
        <time>2024-03-21T18:33:17Z</time>
      </trkpt>
      <trkpt lat="43.66851" lon="1.3807">
        <ele>134</ele>
        <time>2024-03-21T18:33:18Z</time>
      </trkpt>
      <trkpt lat="43.66851" lon="1.38073">
        <ele>134</ele>
        <time>2024-03-21T18:33:19Z</time>
      </trkpt>
      <trkpt lat="43.66852" lon="1.38076">
        <ele>134</ele>
        <time>2024-03-21T18:33:20Z</time>
      </trkpt>
      <trkpt lat="43.66853" lon="1.38079">
        <ele>133</ele>
        <time>2024-03-21T18:33:21Z</time>
      </trkpt>
      <trkpt lat="43.66854" lon="1.38082">
        <ele>133</ele>
        <time>2024-03-21T18:33:22Z</time>
      </trkpt>
      <trkpt lat="43.66855" lon="1.38087">
        <ele>133</ele>
        <time>2024-03-21T18:33:23Z</time>
      </trkpt>
      <trkpt lat="43.66855" lon="1.38088">
        <ele>132</ele>
        <time>2024-03-21T18:33:24Z</time>
      </trkpt>
      <trkpt lat="43.66856" lon="1.38091">
        <ele>132</ele>
        <time>2024-03-21T18:33:25Z</time>
      </trkpt>
      <trkpt lat="43.66857" lon="1.38094">
        <ele>132</ele>
        <time>2024-03-21T18:33:26Z</time>
      </trkpt>
      <trkpt lat="43.66858" lon="1.38097">
        <ele>131</ele>
        <time>2024-03-21T18:33:27Z</time>
      </trkpt>
      <trkpt lat="43.66859" lon="1.381">
        <ele>131</ele>
        <time>2024-03-21T18:33:28Z</time>
      </trkpt>
      <trkpt lat="43.6686" lon="1.38105">
        <ele>131</ele>
        <time>2024-03-21T18:33:29Z</time>
      </trkpt>
      <trkpt lat="43.6686" lon="1.38107">
        <ele>130</ele>
        <time>2024-03-21T18:33:30Z</time>
      </trkpt>
      <trkpt lat="43.66862" lon="1.3811">
        <ele>130</ele>
        <time>2024-03-21T18:33:31Z</time>
      </trkpt>
      <trkpt lat="43.66863" lon="1.38113">
        <ele>129</ele>
        <time>2024-03-21T18:33:32Z</time>
      </trkpt>
      <trkpt lat="43.66864" lon="1.38117">
        <ele>129</ele>
        <time>2024-03-21T18:33:33Z</time>
      </trkpt>
      <trkpt lat="43.66865" lon="1.38119">
        <ele>129</ele>
        <time>2024-03-21T18:33:34Z</time>
      </trkpt>
      <trkpt lat="43.66865" lon="1.38119">
        <ele>129</ele>
        <time>2024-03-21T18:33:35Z</time>
      </trkpt>
      <trkpt lat="43.66865" lon="1.38119">
        <ele>129</ele>
        <time>2024-03-21T18:33:36Z</time>
      </trkpt>
      <trkpt lat="43.66863" lon="1.38119">
        <ele>129</ele>
        <time>2024-03-21T18:33:37Z</time>
      </trkpt>
      <trkpt lat="43.6686" lon="1.38116">
        <ele>129</ele>
        <time>2024-03-21T18:33:38Z</time>
      </trkpt>
      <trkpt lat="43.66857" lon="1.38112">
        <ele>129</ele>
        <time>2024-03-21T18:33:39Z</time>
      </trkpt>
      <trkpt lat="43.66855" lon="1.38109">
        <ele>129</ele>
        <time>2024-03-21T18:33:40Z</time>
      </trkpt>
      <trkpt lat="43.66853" lon="1.38106">
        <ele>130</ele>
        <time>2024-03-21T18:33:41Z</time>
      </trkpt>
      <trkpt lat="43.66849" lon="1.381">
        <ele>130</ele>
        <time>2024-03-21T18:33:42Z</time>
      </trkpt>
      <trkpt lat="43.66848" lon="1.38098">
        <ele>130</ele>
        <time>2024-03-21T18:33:43Z</time>
      </trkpt>
      <trkpt lat="43.66846" lon="1.38095">
        <ele>130</ele>
        <time>2024-03-21T18:33:44Z</time>
      </trkpt>
      <trkpt lat="43.66844" lon="1.3809">
        <ele>130</ele>
        <time>2024-03-21T18:33:45Z</time>
      </trkpt>
      <trkpt lat="43.66842" lon="1.38086">
        <ele>131</ele>
        <time>2024-03-21T18:33:46Z</time>
      </trkpt>
      <trkpt lat="43.6684" lon="1.38081">
        <ele>131</ele>
        <time>2024-03-21T18:33:47Z</time>
      </trkpt>
      <trkpt lat="43.66839" lon="1.38079">
        <ele>132</ele>
        <time>2024-03-21T18:33:48Z</time>
      </trkpt>
      <trkpt lat="43.66837" lon="1.38075">
        <ele>132</ele>
        <time>2024-03-21T18:33:49Z</time>
      </trkpt>
      <trkpt lat="43.66836" lon="1.3807">
        <ele>133</ele>
        <time>2024-03-21T18:33:50Z</time>
      </trkpt>
      <trkpt lat="43.66834" lon="1.38065">
        <ele>133</ele>
        <time>2024-03-21T18:33:51Z</time>
      </trkpt>
      <trkpt lat="43.66832" lon="1.38061">
        <ele>134</ele>
        <time>2024-03-21T18:33:52Z</time>
      </trkpt>
      <trkpt lat="43.66831" lon="1.38057">
        <ele>134</ele>
        <time>2024-03-21T18:33:53Z</time>
      </trkpt>
      <trkpt lat="43.6683" lon="1.38053">
        <ele>136</ele>
        <time>2024-03-21T18:33:54Z</time>
      </trkpt>
      <trkpt lat="43.66829" lon="1.38049">
        <ele>136</ele>
        <time>2024-03-21T18:33:55Z</time>
      </trkpt>
      <trkpt lat="43.66828" lon="1.38045">
        <ele>136</ele>
        <time>2024-03-21T18:33:56Z</time>
      </trkpt>
      <trkpt lat="43.66826" lon="1.3804">
        <ele>136</ele>
        <time>2024-03-21T18:33:57Z</time>
      </trkpt>
      <trkpt lat="43.66824" lon="1.38034">
        <ele>136</ele>
        <time>2024-03-21T18:33:58Z</time>
      </trkpt>
      <trkpt lat="43.66823" lon="1.38029">
        <ele>137</ele>
        <time>2024-03-21T18:33:59Z</time>
      </trkpt>
      <trkpt lat="43.66822" lon="1.38023">
        <ele>138</ele>
        <time>2024-03-21T18:34:00Z</time>
      </trkpt>
      <trkpt lat="43.66822" lon="1.38013">
        <ele>138</ele>
        <time>2024-03-21T18:34:01Z</time>
      </trkpt>
      <trkpt lat="43.66822" lon="1.38009">
        <ele>139</ele>
        <time>2024-03-21T18:34:02Z</time>
      </trkpt>
      <trkpt lat="43.66825" lon="1.38002">
        <ele>139</ele>
        <time>2024-03-21T18:34:03Z</time>
      </trkpt>
      <trkpt lat="43.66828" lon="1.37995">
        <ele>140</ele>
        <time>2024-03-21T18:34:04Z</time>
      </trkpt>
      <trkpt lat="43.6683" lon="1.37991">
        <ele>141</ele>
        <time>2024-03-21T18:34:05Z</time>
      </trkpt>
      <trkpt lat="43.66833" lon="1.37987">
        <ele>141</ele>
        <time>2024-03-21T18:34:06Z</time>
      </trkpt>
      <trkpt lat="43.66837" lon="1.37979">
        <ele>141</ele>
        <time>2024-03-21T18:34:07Z</time>
      </trkpt>
      <trkpt lat="43.66838" lon="1.37976">
        <ele>141</ele>
        <time>2024-03-21T18:34:08Z</time>
      </trkpt>
      <trkpt lat="43.66838" lon="1.37976">
        <ele>141</ele>
        <time>2024-03-21T18:34:09Z</time>
      </trkpt>
      <trkpt lat="43.66838" lon="1.37976">
        <ele>142</ele>
        <time>2024-03-21T18:34:10Z</time>
      </trkpt>
      <trkpt lat="43.66838" lon="1.37976">
        <ele>142</ele>
        <time>2024-03-21T18:34:11Z</time>
      </trkpt>
      <trkpt lat="43.66836" lon="1.37978">
        <ele>142</ele>
        <time>2024-03-21T18:34:12Z</time>
      </trkpt>
      <trkpt lat="43.66835" lon="1.37981">
        <ele>142</ele>
        <time>2024-03-21T18:34:13Z</time>
      </trkpt>
      <trkpt lat="43.66835" lon="1.37981">
        <ele>142</ele>
        <time>2024-03-21T18:34:14Z</time>
      </trkpt>
      <trkpt lat="43.66834" lon="1.37986">
        <ele>142</ele>
        <time>2024-03-21T18:34:15Z</time>
      </trkpt>
      <trkpt lat="43.66833" lon="1.37989">
        <ele>142</ele>
        <time>2024-03-21T18:34:16Z</time>
      </trkpt>
      <trkpt lat="43.66833" lon="1.37991">
        <ele>142</ele>
        <time>2024-03-21T18:34:17Z</time>
      </trkpt>
      <trkpt lat="43.66832" lon="1.37993">
        <ele>142</ele>
        <time>2024-03-21T18:34:18Z</time>
      </trkpt>
      <trkpt lat="43.66831" lon="1.37995">
        <ele>141</ele>
        <time>2024-03-21T18:34:19Z</time>
      </trkpt>
      <trkpt lat="43.6683" lon="1.37998">
        <ele>141</ele>
        <time>2024-03-21T18:34:20Z</time>
      </trkpt>
      <trkpt lat="43.66829" lon="1.38">
        <ele>141</ele>
        <time>2024-03-21T18:34:21Z</time>
      </trkpt>
      <trkpt lat="43.66829" lon="1.38">
        <ele>141</ele>
        <time>2024-03-21T18:34:22Z</time>
      </trkpt>
      <trkpt lat="43.6683" lon="1.38005">
        <ele>140</ele>
        <time>2024-03-21T18:34:23Z</time>
      </trkpt>
      <trkpt lat="43.6683" lon="1.38005">
        <ele>139</ele>
        <time>2024-03-21T18:34:24Z</time>
      </trkpt>
      <trkpt lat="43.66831" lon="1.3801">
        <ele>139</ele>
        <time>2024-03-21T18:34:25Z</time>
      </trkpt>
      <trkpt lat="43.66831" lon="1.3801">
        <ele>139</ele>
        <time>2024-03-21T18:34:26Z</time>
      </trkpt>
      <trkpt lat="43.66833" lon="1.38014">
        <ele>139</ele>
        <time>2024-03-21T18:34:27Z</time>
      </trkpt>
      <trkpt lat="43.66834" lon="1.38016">
        <ele>139</ele>
        <time>2024-03-21T18:34:28Z</time>
      </trkpt>
      <trkpt lat="43.66835" lon="1.38018">
        <ele>139</ele>
        <time>2024-03-21T18:34:29Z</time>
      </trkpt>
      <trkpt lat="43.66837" lon="1.38021">
        <ele>139</ele>
        <time>2024-03-21T18:34:30Z</time>
      </trkpt>
      <trkpt lat="43.66837" lon="1.38023">
        <ele>139</ele>
        <time>2024-03-21T18:34:31Z</time>
      </trkpt>
      <trkpt lat="43.66837" lon="1.38023">
        <ele>139</ele>
        <time>2024-03-21T18:34:32Z</time>
      </trkpt>
      <trkpt lat="43.66839" lon="1.38027">
        <ele>139</ele>
        <time>2024-03-21T18:34:33Z</time>
      </trkpt>
      <trkpt lat="43.66841" lon="1.3803">
        <ele>138</ele>
        <time>2024-03-21T18:34:34Z</time>
      </trkpt>
      <trkpt lat="43.66842" lon="1.38032">
        <ele>137</ele>
        <time>2024-03-21T18:34:35Z</time>
      </trkpt>
      <trkpt lat="43.66842" lon="1.38035">
        <ele>137</ele>
        <time>2024-03-21T18:34:36Z</time>
      </trkpt>
      <trkpt lat="43.66842" lon="1.38035">
        <ele>137</ele>
        <time>2024-03-21T18:34:37Z</time>
      </trkpt>
      <trkpt lat="43.66844" lon="1.38039">
        <ele>137</ele>
        <time>2024-03-21T18:34:38Z</time>
      </trkpt>
      <trkpt lat="43.66845" lon="1.38044">
        <ele>137</ele>
        <time>2024-03-21T18:34:39Z</time>
      </trkpt>
      <trkpt lat="43.66845" lon="1.38045">
        <ele>137</ele>
        <time>2024-03-21T18:34:40Z</time>
      </trkpt>
      <trkpt lat="43.66846" lon="1.38048">
        <ele>137</ele>
        <time>2024-03-21T18:34:41Z</time>
      </trkpt>
      <trkpt lat="43.66847" lon="1.3805">
        <ele>136</ele>
        <time>2024-03-21T18:34:42Z</time>
      </trkpt>
      <trkpt lat="43.66848" lon="1.38052">
        <ele>136</ele>
        <time>2024-03-21T18:34:43Z</time>
      </trkpt>
      <trkpt lat="43.66849" lon="1.38055">
        <ele>136</ele>
        <time>2024-03-21T18:34:44Z</time>
      </trkpt>
      <trkpt lat="43.66849" lon="1.38055">
        <ele>136</ele>
        <time>2024-03-21T18:34:45Z</time>
      </trkpt>
      <trkpt lat="43.6685" lon="1.3806">
        <ele>135</ele>
        <time>2024-03-21T18:34:46Z</time>
      </trkpt>
      <trkpt lat="43.66851" lon="1.38062">
        <ele>134</ele>
        <time>2024-03-21T18:34:47Z</time>
      </trkpt>
      <trkpt lat="43.66852" lon="1.38065">
        <ele>134</ele>
        <time>2024-03-21T18:34:48Z</time>
      </trkpt>
      <trkpt lat="43.66852" lon="1.38068">
        <ele>134</ele>
        <time>2024-03-21T18:34:49Z</time>
      </trkpt>
      <trkpt lat="43.66853" lon="1.3807">
        <ele>134</ele>
        <time>2024-03-21T18:34:50Z</time>
      </trkpt>
      <trkpt lat="43.66854" lon="1.38073">
        <ele>134</ele>
        <time>2024-03-21T18:34:51Z</time>
      </trkpt>
      <trkpt lat="43.66855" lon="1.38076">
        <ele>133</ele>
        <time>2024-03-21T18:34:52Z</time>
      </trkpt>
      <trkpt lat="43.66856" lon="1.38079">
        <ele>133</ele>
        <time>2024-03-21T18:34:53Z</time>
      </trkpt>
      <trkpt lat="43.66857" lon="1.38082">
        <ele>133</ele>
        <time>2024-03-21T18:34:54Z</time>
      </trkpt>
      <trkpt lat="43.66857" lon="1.38085">
        <ele>132</ele>
        <time>2024-03-21T18:34:55Z</time>
      </trkpt>
      <trkpt lat="43.66858" lon="1.38088">
        <ele>131</ele>
        <time>2024-03-21T18:34:56Z</time>
      </trkpt>
      <trkpt lat="43.66859" lon="1.38091">
        <ele>131</ele>
        <time>2024-03-21T18:34:57Z</time>
      </trkpt>
      <trkpt lat="43.66861" lon="1.38095">
        <ele>131</ele>
        <time>2024-03-21T18:34:58Z</time>
      </trkpt>
      <trkpt lat="43.66861" lon="1.38097">
        <ele>131</ele>
        <time>2024-03-21T18:34:59Z</time>
      </trkpt>
      <trkpt lat="43.66862" lon="1.38099">
        <ele>131</ele>
        <time>2024-03-21T18:35:00Z</time>
      </trkpt>
      <trkpt lat="43.66863" lon="1.38102">
        <ele>131</ele>
        <time>2024-03-21T18:35:01Z</time>
      </trkpt>
      <trkpt lat="43.66864" lon="1.38104">
        <ele>131</ele>
        <time>2024-03-21T18:35:02Z</time>
      </trkpt>
      <trkpt lat="43.66865" lon="1.38106">
        <ele>131</ele>
        <time>2024-03-21T18:35:03Z</time>
      </trkpt>
      <trkpt lat="43.66867" lon="1.38108">
        <ele>131</ele>
        <time>2024-03-21T18:35:04Z</time>
      </trkpt>
      <trkpt lat="43.66868" lon="1.3811">
        <ele>130</ele>
        <time>2024-03-21T18:35:05Z</time>
      </trkpt>
      <trkpt lat="43.6687" lon="1.38112">
        <ele>129</ele>
        <time>2024-03-21T18:35:06Z</time>
      </trkpt>
      <trkpt lat="43.66871" lon="1.38114">
        <ele>129</ele>
        <time>2024-03-21T18:35:07Z</time>
      </trkpt>
      <trkpt lat="43.66871" lon="1.38114">
        <ele>129</ele>
        <time>2024-03-21T18:35:08Z</time>
      </trkpt>
      <trkpt lat="43.66869" lon="1.38113">
        <ele>129</ele>
        <time>2024-03-21T18:35:09Z</time>
      </trkpt>
      <trkpt lat="43.66867" lon="1.38112">
        <ele>129</ele>
        <time>2024-03-21T18:35:10Z</time>
      </trkpt>
      <trkpt lat="43.66863" lon="1.3811">
        <ele>129</ele>
        <time>2024-03-21T18:35:11Z</time>
      </trkpt>
      <trkpt lat="43.6686" lon="1.38106">
        <ele>129</ele>
        <time>2024-03-21T18:35:12Z</time>
      </trkpt>
      <trkpt lat="43.66857" lon="1.38103">
        <ele>129</ele>
        <time>2024-03-21T18:35:13Z</time>
      </trkpt>
      <trkpt lat="43.66855" lon="1.38099">
        <ele>130</ele>
        <time>2024-03-21T18:35:14Z</time>
      </trkpt>
      <trkpt lat="43.66851" lon="1.38095">
        <ele>130</ele>
        <time>2024-03-21T18:35:15Z</time>
      </trkpt>
      <trkpt lat="43.66848" lon="1.38092">
        <ele>130</ele>
        <time>2024-03-21T18:35:16Z</time>
      </trkpt>
      <trkpt lat="43.66845" lon="1.38086">
        <ele>130</ele>
        <time>2024-03-21T18:35:17Z</time>
      </trkpt>
      <trkpt lat="43.66844" lon="1.38084">
        <ele>132</ele>
        <time>2024-03-21T18:35:18Z</time>
      </trkpt>
      <trkpt lat="43.66842" lon="1.3808">
        <ele>132</ele>
        <time>2024-03-21T18:35:19Z</time>
      </trkpt>
      <trkpt lat="43.6684" lon="1.38076">
        <ele>132</ele>
        <time>2024-03-21T18:35:20Z</time>
      </trkpt>
      <trkpt lat="43.66838" lon="1.38072">
        <ele>132</ele>
        <time>2024-03-21T18:35:21Z</time>
      </trkpt>
      <trkpt lat="43.66836" lon="1.38068">
        <ele>133</ele>
        <time>2024-03-21T18:35:22Z</time>
      </trkpt>
      <trkpt lat="43.66834" lon="1.38061">
        <ele>133</ele>
        <time>2024-03-21T18:35:23Z</time>
      </trkpt>
      <trkpt lat="43.66833" lon="1.38059">
        <ele>134</ele>
        <time>2024-03-21T18:35:24Z</time>
      </trkpt>
      <trkpt lat="43.66831" lon="1.38055">
        <ele>134</ele>
        <time>2024-03-21T18:35:25Z</time>
      </trkpt>
      <trkpt lat="43.6683" lon="1.38049">
        <ele>135</ele>
        <time>2024-03-21T18:35:26Z</time>
      </trkpt>
      <trkpt lat="43.66829" lon="1.38044">
        <ele>136</ele>
        <time>2024-03-21T18:35:27Z</time>
      </trkpt>
      <trkpt lat="43.66827" lon="1.38039">
        <ele>137</ele>
        <time>2024-03-21T18:35:28Z</time>
      </trkpt>
      <trkpt lat="43.66825" lon="1.38032">
        <ele>137</ele>
        <time>2024-03-21T18:35:29Z</time>
      </trkpt>
      <trkpt lat="43.66824" lon="1.38027">
        <ele>137</ele>
        <time>2024-03-21T18:35:30Z</time>
      </trkpt>
      <trkpt lat="43.66823" lon="1.38022">
        <ele>138</ele>
        <time>2024-03-21T18:35:31Z</time>
      </trkpt>
      <trkpt lat="43.66822" lon="1.38017">
        <ele>138</ele>
        <time>2024-03-21T18:35:32Z</time>
      </trkpt>
      <trkpt lat="43.66824" lon="1.38011">
        <ele>139</ele>
        <time>2024-03-21T18:35:33Z</time>
      </trkpt>
      <trkpt lat="43.66826" lon="1.38004">
        <ele>139</ele>
        <time>2024-03-21T18:35:34Z</time>
      </trkpt>
      <trkpt lat="43.66828" lon="1.37997">
        <ele>140</ele>
        <time>2024-03-21T18:35:35Z</time>
      </trkpt>
      <trkpt lat="43.66833" lon="1.37988">
        <ele>140</ele>
        <time>2024-03-21T18:35:36Z</time>
      </trkpt>
      <trkpt lat="43.66834" lon="1.37986">
        <ele>140</ele>
        <time>2024-03-21T18:35:37Z</time>
      </trkpt>
      <trkpt lat="43.66837" lon="1.37981">
        <ele>140</ele>
        <time>2024-03-21T18:35:38Z</time>
      </trkpt>
      <trkpt lat="43.66838" lon="1.37979">
        <ele>141</ele>
        <time>2024-03-21T18:35:39Z</time>
      </trkpt>
      <trkpt lat="43.66839" lon="1.37977">
        <ele>141</ele>
        <time>2024-03-21T18:35:40Z</time>
      </trkpt>
      <trkpt lat="43.66839" lon="1.37975">
        <ele>141</ele>
        <time>2024-03-21T18:35:41Z</time>
      </trkpt>
      <trkpt lat="43.66839" lon="1.37975">
        <ele>141</ele>
        <time>2024-03-21T18:35:42Z</time>
      </trkpt>
      <trkpt lat="43.66838" lon="1.37978">
        <ele>141</ele>
        <time>2024-03-21T18:35:43Z</time>
      </trkpt>
      <trkpt lat="43.66838" lon="1.37978">
        <ele>141</ele>
        <time>2024-03-21T18:35:44Z</time>
      </trkpt>
      <trkpt lat="43.66837" lon="1.37982">
        <ele>141</ele>
        <time>2024-03-21T18:35:45Z</time>
      </trkpt>
      <trkpt lat="43.66837" lon="1.37982">
        <ele>141</ele>
        <time>2024-03-21T18:35:46Z</time>
      </trkpt>
      <trkpt lat="43.66835" lon="1.37987">
        <ele>141</ele>
        <time>2024-03-21T18:35:47Z</time>
      </trkpt>
      <trkpt lat="43.66834" lon="1.37989">
        <ele>141</ele>
        <time>2024-03-21T18:35:48Z</time>
      </trkpt>
      <trkpt lat="43.66833" lon="1.37991">
        <ele>141</ele>
        <time>2024-03-21T18:35:49Z</time>
      </trkpt>
      <trkpt lat="43.66832" lon="1.37993">
        <ele>141</ele>
        <time>2024-03-21T18:35:50Z</time>
      </trkpt>
      <trkpt lat="43.66832" lon="1.37993">
        <ele>141</ele>
        <time>2024-03-21T18:35:51Z</time>
      </trkpt>
      <trkpt lat="43.66831" lon="1.37998">
        <ele>141</ele>
        <time>2024-03-21T18:35:52Z</time>
      </trkpt>
      <trkpt lat="43.66831" lon="1.37998">
        <ele>141</ele>
        <time>2024-03-21T18:35:53Z</time>
      </trkpt>
      <trkpt lat="43.6683" lon="1.38002">
        <ele>141</ele>
        <time>2024-03-21T18:35:54Z</time>
      </trkpt>
      <trkpt lat="43.66832" lon="1.38006">
        <ele>141</ele>
        <time>2024-03-21T18:35:56Z</time>
      </trkpt>
      <trkpt lat="43.66832" lon="1.38006">
        <ele>140</ele>
        <time>2024-03-21T18:35:57Z</time>
      </trkpt>
      <trkpt lat="43.66832" lon="1.38011">
        <ele>139</ele>
        <time>2024-03-21T18:35:58Z</time>
      </trkpt>
      <trkpt lat="43.66833" lon="1.38013">
        <ele>139</ele>
        <time>2024-03-21T18:35:59Z</time>
      </trkpt>
      <trkpt lat="43.66833" lon="1.38013">
        <ele>139</ele>
        <time>2024-03-21T18:36:00Z</time>
      </trkpt>
      <trkpt lat="43.66834" lon="1.38018">
        <ele>139</ele>
        <time>2024-03-21T18:36:01Z</time>
      </trkpt>
      <trkpt lat="43.66834" lon="1.38018">
        <ele>138</ele>
        <time>2024-03-21T18:36:02Z</time>
      </trkpt>
      <trkpt lat="43.66835" lon="1.38022">
        <ele>138</ele>
        <time>2024-03-21T18:36:03Z</time>
      </trkpt>
      <trkpt lat="43.66835" lon="1.38022">
        <ele>138</ele>
        <time>2024-03-21T18:36:04Z</time>
      </trkpt>
      <trkpt lat="43.66837" lon="1.38025">
        <ele>138</ele>
        <time>2024-03-21T18:36:05Z</time>
      </trkpt>
      <trkpt lat="43.66837" lon="1.38025">
        <ele>138</ele>
        <time>2024-03-21T18:36:06Z</time>
      </trkpt>
      <trkpt lat="43.66839" lon="1.38029">
        <ele>138</ele>
        <time>2024-03-21T18:36:07Z</time>
      </trkpt>
      <trkpt lat="43.6684" lon="1.38032">
        <ele>138</ele>
        <time>2024-03-21T18:36:08Z</time>
      </trkpt>
      <trkpt lat="43.66841" lon="1.38034">
        <ele>138</ele>
        <time>2024-03-21T18:36:09Z</time>
      </trkpt>
      <trkpt lat="43.66841" lon="1.38037">
        <ele>138</ele>
        <time>2024-03-21T18:36:10Z</time>
      </trkpt>
      <trkpt lat="43.66841" lon="1.3804">
        <ele>137</ele>
        <time>2024-03-21T18:36:11Z</time>
      </trkpt>
      <trkpt lat="43.66842" lon="1.38042">
        <ele>137</ele>
        <time>2024-03-21T18:36:12Z</time>
      </trkpt>
      <trkpt lat="43.66843" lon="1.38045">
        <ele>137</ele>
        <time>2024-03-21T18:36:13Z</time>
      </trkpt>
      <trkpt lat="43.66844" lon="1.38048">
        <ele>137</ele>
        <time>2024-03-21T18:36:14Z</time>
      </trkpt>
      <trkpt lat="43.66845" lon="1.3805">
        <ele>136</ele>
        <time>2024-03-21T18:36:15Z</time>
      </trkpt>
      <trkpt lat="43.66846" lon="1.38053">
        <ele>136</ele>
        <time>2024-03-21T18:36:16Z</time>
      </trkpt>
      <trkpt lat="43.66847" lon="1.38056">
        <ele>136</ele>
        <time>2024-03-21T18:36:17Z</time>
      </trkpt>
      <trkpt lat="43.66848" lon="1.38059">
        <ele>135</ele>
        <time>2024-03-21T18:36:18Z</time>
      </trkpt>
      <trkpt lat="43.66849" lon="1.38062">
        <ele>135</ele>
        <time>2024-03-21T18:36:19Z</time>
      </trkpt>
      <trkpt lat="43.6685" lon="1.38065">
        <ele>135</ele>
        <time>2024-03-21T18:36:20Z</time>
      </trkpt>
      <trkpt lat="43.66851" lon="1.3807">
        <ele>135</ele>
        <time>2024-03-21T18:36:21Z</time>
      </trkpt>
      <trkpt lat="43.66851" lon="1.38071">
        <ele>134</ele>
        <time>2024-03-21T18:36:22Z</time>
      </trkpt>
      <trkpt lat="43.66852" lon="1.38074">
        <ele>134</ele>
        <time>2024-03-21T18:36:23Z</time>
      </trkpt>
      <trkpt lat="43.66853" lon="1.38077">
        <ele>134</ele>
        <time>2024-03-21T18:36:24Z</time>
      </trkpt>
      <trkpt lat="43.66854" lon="1.3808">
        <ele>134</ele>
        <time>2024-03-21T18:36:25Z</time>
      </trkpt>
      <trkpt lat="43.66855" lon="1.38083">
        <ele>134</ele>
        <time>2024-03-21T18:36:26Z</time>
      </trkpt>
      <trkpt lat="43.66856" lon="1.38086">
        <ele>133</ele>
        <time>2024-03-21T18:36:27Z</time>
      </trkpt>
      <trkpt lat="43.66857" lon="1.38089">
        <ele>132</ele>
        <time>2024-03-21T18:36:28Z</time>
      </trkpt>
      <trkpt lat="43.66859" lon="1.38092">
        <ele>132</ele>
        <time>2024-03-21T18:36:29Z</time>
      </trkpt>
      <trkpt lat="43.6686" lon="1.38094">
        <ele>132</ele>
        <time>2024-03-21T18:36:30Z</time>
      </trkpt>
      <trkpt lat="43.66861" lon="1.38097">
        <ele>132</ele>
        <time>2024-03-21T18:36:31Z</time>
      </trkpt>
      <trkpt lat="43.66862" lon="1.38101">
        <ele>132</ele>
        <time>2024-03-21T18:36:32Z</time>
      </trkpt>
      <trkpt lat="43.66864" lon="1.38105">
        <ele>132</ele>
        <time>2024-03-21T18:36:33Z</time>
      </trkpt>
      <trkpt lat="43.66864" lon="1.38107">
        <ele>130</ele>
        <time>2024-03-21T18:36:34Z</time>
      </trkpt>
      <trkpt lat="43.66866" lon="1.38109">
        <ele>130</ele>
        <time>2024-03-21T18:36:35Z</time>
      </trkpt>
      <trkpt lat="43.66867" lon="1.38112">
        <ele>130</ele>
        <time>2024-03-21T18:36:36Z</time>
      </trkpt>
      <trkpt lat="43.66868" lon="1.38115">
        <ele>130</ele>
        <time>2024-03-21T18:36:37Z</time>
      </trkpt>
      <trkpt lat="43.66868" lon="1.38115">
        <ele>130</ele>
        <time>2024-03-21T18:36:38Z</time>
      </trkpt>
      <trkpt lat="43.66868" lon="1.38115">
        <ele>129</ele>
        <time>2024-03-21T18:36:39Z</time>
      </trkpt>
      <trkpt lat="43.66864" lon="1.38113">
        <ele>129</ele>
        <time>2024-03-21T18:36:40Z</time>
      </trkpt>
      <trkpt lat="43.66861" lon="1.3811">
        <ele>130</ele>
        <time>2024-03-21T18:36:41Z</time>
      </trkpt>
      <trkpt lat="43.66858" lon="1.38107">
        <ele>130</ele>
        <time>2024-03-21T18:36:42Z</time>
      </trkpt>
      <trkpt lat="43.66854" lon="1.38102">
        <ele>130</ele>
        <time>2024-03-21T18:36:43Z</time>
      </trkpt>
      <trkpt lat="43.66853" lon="1.381">
        <ele>130</ele>
        <time>2024-03-21T18:36:44Z</time>
      </trkpt>
      <trkpt lat="43.6685" lon="1.38096">
        <ele>130</ele>
        <time>2024-03-21T18:36:45Z</time>
      </trkpt>
      <trkpt lat="43.66847" lon="1.38092">
        <ele>131</ele>
        <time>2024-03-21T18:36:46Z</time>
      </trkpt>
      <trkpt lat="43.66845" lon="1.38088">
        <ele>132</ele>
        <time>2024-03-21T18:36:47Z</time>
      </trkpt>
      <trkpt lat="43.66843" lon="1.38084">
        <ele>132</ele>
        <time>2024-03-21T18:36:48Z</time>
      </trkpt>
      <trkpt lat="43.66841" lon="1.3808">
        <ele>133</ele>
        <time>2024-03-21T18:36:49Z</time>
      </trkpt>
      <trkpt lat="43.6684" lon="1.38077">
        <ele>133</ele>
        <time>2024-03-21T18:36:50Z</time>
      </trkpt>
      <trkpt lat="43.66838" lon="1.38072">
        <ele>133</ele>
        <time>2024-03-21T18:36:51Z</time>
      </trkpt>
      <trkpt lat="43.66835" lon="1.38066">
        <ele>133</ele>
        <time>2024-03-21T18:36:52Z</time>
      </trkpt>
      <trkpt lat="43.66834" lon="1.38064">
        <ele>134</ele>
        <time>2024-03-21T18:36:53Z</time>
      </trkpt>
      <trkpt lat="43.66832" lon="1.38059">
        <ele>134</ele>
        <time>2024-03-21T18:36:54Z</time>
      </trkpt>
      <trkpt lat="43.66831" lon="1.38054">
        <ele>136</ele>
        <time>2024-03-21T18:36:55Z</time>
      </trkpt>
      <trkpt lat="43.66828" lon="1.38045">
        <ele>136</ele>
        <time>2024-03-21T18:36:56Z</time>
      </trkpt>
      <trkpt lat="43.66828" lon="1.38042">
        <ele>137</ele>
        <time>2024-03-21T18:36:57Z</time>
      </trkpt>
      <trkpt lat="43.66826" lon="1.38037">
        <ele>137</ele>
        <time>2024-03-21T18:36:58Z</time>
      </trkpt>
      <trkpt lat="43.66825" lon="1.38031">
        <ele>137</ele>
        <time>2024-03-21T18:36:59Z</time>
      </trkpt>
      <trkpt lat="43.66823" lon="1.38025">
        <ele>138</ele>
        <time>2024-03-21T18:37:00Z</time>
      </trkpt>
      <trkpt lat="43.66822" lon="1.38019">
        <ele>139</ele>
        <time>2024-03-21T18:37:01Z</time>
      </trkpt>
      <trkpt lat="43.66821" lon="1.38012">
        <ele>139</ele>
        <time>2024-03-21T18:37:02Z</time>
      </trkpt>
      <trkpt lat="43.66823" lon="1.38004">
        <ele>140</ele>
        <time>2024-03-21T18:37:03Z</time>
      </trkpt>
      <trkpt lat="43.66825" lon="1.38">
        <ele>141</ele>
        <time>2024-03-21T18:37:04Z</time>
      </trkpt>
      <trkpt lat="43.66828" lon="1.37995">
        <ele>141</ele>
        <time>2024-03-21T18:37:05Z</time>
      </trkpt>
      <trkpt lat="43.66835" lon="1.37984">
        <ele>141</ele>
        <time>2024-03-21T18:37:06Z</time>
      </trkpt>
      <trkpt lat="43.66836" lon="1.37982">
        <ele>141</ele>
        <time>2024-03-21T18:37:07Z</time>
      </trkpt>
      <trkpt lat="43.66838" lon="1.37978">
        <ele>141</ele>
        <time>2024-03-21T18:37:08Z</time>
      </trkpt>
      <trkpt lat="43.66838" lon="1.37978">
        <ele>141</ele>
        <time>2024-03-21T18:37:09Z</time>
      </trkpt>
      <trkpt lat="43.66839" lon="1.37976">
        <ele>141</ele>
        <time>2024-03-21T18:37:10Z</time>
      </trkpt>
      <trkpt lat="43.66839" lon="1.37976">
        <ele>141</ele>
        <time>2024-03-21T18:37:12Z</time>
      </trkpt>
      <trkpt lat="43.66837" lon="1.37978">
        <ele>141</ele>
        <time>2024-03-21T18:37:13Z</time>
      </trkpt>
      <trkpt lat="43.66837" lon="1.37978">
        <ele>141</ele>
        <time>2024-03-21T18:37:14Z</time>
      </trkpt>
      <trkpt lat="43.66837" lon="1.3798">
        <ele>141</ele>
        <time>2024-03-21T18:37:15Z</time>
      </trkpt>
      <trkpt lat="43.66837" lon="1.3798">
        <ele>141</ele>
        <time>2024-03-21T18:37:16Z</time>
      </trkpt>
      <trkpt lat="43.66837" lon="1.3798">
        <ele>141</ele>
        <time>2024-03-21T18:37:17Z</time>
      </trkpt>
      <trkpt lat="43.66836" lon="1.37984">
        <ele>141</ele>
        <time>2024-03-21T18:37:18Z</time>
      </trkpt>
      <trkpt lat="43.66836" lon="1.37984">
        <ele>141</ele>
        <time>2024-03-21T18:37:19Z</time>
      </trkpt>
      <trkpt lat="43.66836" lon="1.37984">
        <ele>141</ele>
        <time>2024-03-21T18:37:20Z</time>
      </trkpt>
      <trkpt lat="43.66835" lon="1.37987">
        <ele>141</ele>
        <time>2024-03-21T18:37:21Z</time>
      </trkpt>
      <trkpt lat="43.66835" lon="1.37987">
        <ele>141</ele>
        <time>2024-03-21T18:37:22Z</time>
      </trkpt>
      <trkpt lat="43.66833" lon="1.37989">
        <ele>141</ele>
        <time>2024-03-21T18:37:23Z</time>
      </trkpt>
      <trkpt lat="43.66833" lon="1.37989">
        <ele>141</ele>
        <time>2024-03-21T18:37:24Z</time>
      </trkpt>
      <trkpt lat="43.66833" lon="1.37989">
        <ele>141</ele>
        <time>2024-03-21T18:37:25Z</time>
      </trkpt>
      <trkpt lat="43.66832" lon="1.37992">
        <ele>141</ele>
        <time>2024-03-21T18:37:26Z</time>
      </trkpt>
      <trkpt lat="43.66832" lon="1.37992">
        <ele>141</ele>
        <time>2024-03-21T18:37:27Z</time>
      </trkpt>
      <trkpt lat="43.66832" lon="1.37992">
        <ele>141</ele>
        <time>2024-03-21T18:37:28Z</time>
      </trkpt>
      <trkpt lat="43.66831" lon="1.37995">
        <ele>141</ele>
        <time>2024-03-21T18:37:29Z</time>
      </trkpt>
      <trkpt lat="43.66831" lon="1.37995">
        <ele>140</ele>
        <time>2024-03-21T18:37:31Z</time>
      </trkpt>
      <trkpt lat="43.6683" lon="1.37998">
        <ele>140</ele>
        <time>2024-03-21T18:37:32Z</time>
      </trkpt>
      <trkpt lat="43.6683" lon="1.37998">
        <ele>140</ele>
        <time>2024-03-21T18:37:33Z</time>
      </trkpt>
      <trkpt lat="43.6683" lon="1.37998">
        <ele>140</ele>
        <time>2024-03-21T18:37:34Z</time>
      </trkpt>
      <trkpt lat="43.6683" lon="1.37998">
        <ele>140</ele>
        <time>2024-03-21T18:37:35Z</time>
      </trkpt>
      <trkpt lat="43.6683" lon="1.38001">
        <ele>140</ele>
        <time>2024-03-21T18:37:36Z</time>
      </trkpt>
      <trkpt lat="43.6683" lon="1.38001">
        <ele>140</ele>
        <time>2024-03-21T18:37:37Z</time>
      </trkpt>
      <trkpt lat="43.6683" lon="1.38001">
        <ele>140</ele>
        <time>2024-03-21T18:37:38Z</time>
      </trkpt>
      <trkpt lat="43.66828" lon="1.38003">
        <ele>140</ele>
        <time>2024-03-21T18:37:39Z</time>
      </trkpt>
      <trkpt lat="43.66828" lon="1.38003">
        <ele>140</ele>
        <time>2024-03-21T18:37:40Z</time>
      </trkpt>
      <trkpt lat="43.66828" lon="1.38003">
        <ele>140</ele>
        <time>2024-03-21T18:37:41Z</time>
      </trkpt>
      <trkpt lat="43.66828" lon="1.38003">
        <ele>140</ele>
        <time>2024-03-21T18:37:42Z</time>
      </trkpt>
      <trkpt lat="43.66828" lon="1.38003">
        <ele>140</ele>
        <time>2024-03-21T18:37:43Z</time>
      </trkpt>
      <trkpt lat="43.66828" lon="1.38003">
        <ele>140</ele>
        <time>2024-03-21T18:37:44Z</time>
      </trkpt>
      <trkpt lat="43.66828" lon="1.38003">
        <ele>140</ele>
        <time>2024-03-21T18:37:45Z</time>
      </trkpt>
      <trkpt lat="43.66828" lon="1.38003">
        <ele>140</ele>
        <time>2024-03-21T18:37:46Z</time>
      </trkpt>
      <trkpt lat="43.66828" lon="1.38003">
        <ele>140</ele>
        <time>2024-03-21T18:37:47Z</time>
      </trkpt>
      <trkpt lat="43.66828" lon="1.38003">
        <ele>140</ele>
        <time>2024-03-21T18:37:48Z</time>
      </trkpt>
      <trkpt lat="43.66828" lon="1.38003">
        <ele>140</ele>
        <time>2024-03-21T18:37:50Z</time>
      </trkpt>
      <trkpt lat="43.66828" lon="1.38003">
        <ele>140</ele>
        <time>2024-03-21T18:37:51Z</time>
      </trkpt>
      <trkpt lat="43.66828" lon="1.38003">
        <ele>140</ele>
        <time>2024-03-21T18:37:52Z</time>
      </trkpt>
      <trkpt lat="43.66828" lon="1.38003">
        <ele>140</ele>
        <time>2024-03-21T18:37:53Z</time>
      </trkpt>
      <trkpt lat="43.66828" lon="1.38003">
        <ele>140</ele>
        <time>2024-03-21T18:37:54Z</time>
      </trkpt>
      <trkpt lat="43.66828" lon="1.38003">
        <ele>140</ele>
        <time>2024-03-21T18:37:55Z</time>
      </trkpt>
      <trkpt lat="43.66828" lon="1.38003">
        <ele>140</ele>
        <time>2024-03-21T18:37:56Z</time>
      </trkpt>
      <trkpt lat="43.66828" lon="1.38003">
        <ele>140</ele>
        <time>2024-03-21T18:37:57Z</time>
      </trkpt>
      <trkpt lat="43.66828" lon="1.38003">
        <ele>140</ele>
        <time>2024-03-21T18:37:58Z</time>
      </trkpt>
      <trkpt lat="43.66828" lon="1.38003">
        <ele>140</ele>
        <time>2024-03-21T18:37:59Z</time>
      </trkpt>
      <trkpt lat="43.66828" lon="1.38003">
        <ele>140</ele>
        <time>2024-03-21T18:38:00Z</time>
      </trkpt>
      <trkpt lat="43.66828" lon="1.38003">
        <ele>140</ele>
        <time>2024-03-21T18:38:01Z</time>
      </trkpt>
      <trkpt lat="43.66828" lon="1.38003">
        <ele>140</ele>
        <time>2024-03-21T18:38:02Z</time>
      </trkpt>
      <trkpt lat="43.66828" lon="1.38003">
        <ele>140</ele>
        <time>2024-03-21T18:38:03Z</time>
      </trkpt>
      <trkpt lat="43.66828" lon="1.38003">
        <ele>140</ele>
        <time>2024-03-21T18:38:04Z</time>
      </trkpt>
      <trkpt lat="43.66828" lon="1.38003">
        <ele>140</ele>
        <time>2024-03-21T18:38:05Z</time>
      </trkpt>
      <trkpt lat="43.66828" lon="1.38003">
        <ele>140</ele>
        <time>2024-03-21T18:38:06Z</time>
      </trkpt>
      <trkpt lat="43.66828" lon="1.38003">
        <ele>140</ele>
        <time>2024-03-21T18:38:07Z</time>
      </trkpt>
      <trkpt lat="43.66828" lon="1.38003">
        <ele>140</ele>
        <time>2024-03-21T18:38:09Z</time>
      </trkpt>
      <trkpt lat="43.66828" lon="1.38003">
        <ele>140</ele>
        <time>2024-03-21T18:38:10Z</time>
      </trkpt>
      <trkpt lat="43.66828" lon="1.38003">
        <ele>140</ele>
        <time>2024-03-21T18:38:11Z</time>
      </trkpt>
      <trkpt lat="43.66828" lon="1.38003">
        <ele>140</ele>
        <time>2024-03-21T18:38:12Z</time>
      </trkpt>
      <trkpt lat="43.66828" lon="1.38003">
        <ele>140</ele>
        <time>2024-03-21T18:38:13Z</time>
      </trkpt>
      <trkpt lat="43.66828" lon="1.38003">
        <ele>140</ele>
        <time>2024-03-21T18:38:14Z</time>
      </trkpt>
      <trkpt lat="43.66828" lon="1.38003">
        <ele>140</ele>
        <time>2024-03-21T18:38:15Z</time>
      </trkpt>
      <trkpt lat="43.66828" lon="1.38003">
        <ele>140</ele>
        <time>2024-03-21T18:38:16Z</time>
      </trkpt>
      <trkpt lat="43.66828" lon="1.38">
        <ele>140</ele>
        <time>2024-03-21T18:38:17Z</time>
      </trkpt>
      <trkpt lat="43.66822" lon="1.38002">
        <ele>140</ele>
        <time>2024-03-21T18:38:18Z</time>
      </trkpt>
      <trkpt lat="43.66817" lon="1.38004">
        <ele>140</ele>
        <time>2024-03-21T18:38:19Z</time>
      </trkpt>
      <trkpt lat="43.66811" lon="1.38006">
        <ele>140</ele>
        <time>2024-03-21T18:38:20Z</time>
      </trkpt>
      <trkpt lat="43.66805" lon="1.38007">
        <ele>140</ele>
        <time>2024-03-21T18:38:21Z</time>
      </trkpt>
      <trkpt lat="43.668" lon="1.38009">
        <ele>140</ele>
        <time>2024-03-21T18:38:22Z</time>
      </trkpt>
      <trkpt lat="43.66794" lon="1.38011">
        <ele>140</ele>
        <time>2024-03-21T18:38:23Z</time>
      </trkpt>
      <trkpt lat="43.66788" lon="1.38013">
        <ele>136</ele>
        <time>2024-03-21T18:41:57Z</time>
      </trkpt>
      <trkpt lat="43.66782" lon="1.38014">
        <ele>136</ele>
        <time>2024-03-21T18:41:58Z</time>
      </trkpt>
      <trkpt lat="43.66777" lon="1.38016">
        <ele>136</ele>
        <time>2024-03-21T18:41:59Z</time>
      </trkpt>
      <trkpt lat="43.66771" lon="1.38018">
        <ele>136</ele>
        <time>2024-03-21T18:42:00Z</time>
      </trkpt>
      <trkpt lat="43.66765" lon="1.3802">
        <ele>136</ele>
        <time>2024-03-21T18:42:01Z</time>
      </trkpt>
      <trkpt lat="43.66763" lon="1.38022">
        <ele>136</ele>
        <time>2024-03-21T18:42:02Z</time>
      </trkpt>
      <trkpt lat="43.6676" lon="1.38024">
        <ele>136</ele>
        <time>2024-03-21T18:42:03Z</time>
      </trkpt>
      <trkpt lat="43.66757" lon="1.38026">
        <ele>137</ele>
        <time>2024-03-21T18:42:04Z</time>
      </trkpt>
      <trkpt lat="43.66753" lon="1.38028">
        <ele>138</ele>
        <time>2024-03-21T18:42:05Z</time>
      </trkpt>
      <trkpt lat="43.6675" lon="1.38031">
        <ele>139</ele>
        <time>2024-03-21T18:42:06Z</time>
      </trkpt>
      <trkpt lat="43.66747" lon="1.38033">
        <ele>139</ele>
        <time>2024-03-21T18:42:07Z</time>
      </trkpt>
      <trkpt lat="43.66745" lon="1.38035">
        <ele>139</ele>
        <time>2024-03-21T18:42:08Z</time>
      </trkpt>
      <trkpt lat="43.66743" lon="1.38038">
        <ele>139</ele>
        <time>2024-03-21T18:42:09Z</time>
      </trkpt>
      <trkpt lat="43.66741" lon="1.3804">
        <ele>140</ele>
        <time>2024-03-21T18:42:10Z</time>
      </trkpt>
      <trkpt lat="43.6674" lon="1.38042">
        <ele>140</ele>
        <time>2024-03-21T18:42:11Z</time>
      </trkpt>
      <trkpt lat="43.66739" lon="1.38044">
        <ele>140</ele>
        <time>2024-03-21T18:42:12Z</time>
      </trkpt>
      <trkpt lat="43.66739" lon="1.38044">
        <ele>140</ele>
        <time>2024-03-21T18:42:13Z</time>
      </trkpt>
      <trkpt lat="43.66737" lon="1.38049">
        <ele>141</ele>
        <time>2024-03-21T18:42:14Z</time>
      </trkpt>
      <trkpt lat="43.66737" lon="1.38052">
        <ele>141</ele>
        <time>2024-03-21T18:42:15Z</time>
      </trkpt>
      <trkpt lat="43.66737" lon="1.38052">
        <ele>141</ele>
        <time>2024-03-21T18:42:16Z</time>
      </trkpt>
      <trkpt lat="43.66736" lon="1.38056">
        <ele>141</ele>
        <time>2024-03-21T18:42:17Z</time>
      </trkpt>
      <trkpt lat="43.66736" lon="1.38056">
        <ele>142</ele>
        <time>2024-03-21T18:42:18Z</time>
      </trkpt>
      <trkpt lat="43.66735" lon="1.38061">
        <ele>142</ele>
        <time>2024-03-21T18:42:19Z</time>
      </trkpt>
      <trkpt lat="43.66733" lon="1.38063">
        <ele>142</ele>
        <time>2024-03-21T18:42:20Z</time>
      </trkpt>
      <trkpt lat="43.6673" lon="1.38062">
        <ele>142</ele>
        <time>2024-03-21T18:42:21Z</time>
      </trkpt>
      <trkpt lat="43.66728" lon="1.38061">
        <ele>143</ele>
        <time>2024-03-21T18:42:22Z</time>
      </trkpt>
      <trkpt lat="43.66725" lon="1.38059">
        <ele>143</ele>
        <time>2024-03-21T18:42:23Z</time>
      </trkpt>
      <trkpt lat="43.66724" lon="1.38058">
        <ele>143</ele>
        <time>2024-03-21T18:42:24Z</time>
      </trkpt>
      <trkpt lat="43.66722" lon="1.38057">
        <ele>143</ele>
        <time>2024-03-21T18:42:25Z</time>
      </trkpt>
      <trkpt lat="43.6672" lon="1.38055">
        <ele>143</ele>
        <time>2024-03-21T18:42:26Z</time>
      </trkpt>
      <trkpt lat="43.66719" lon="1.38054">
        <ele>143</ele>
        <time>2024-03-21T18:42:27Z</time>
      </trkpt>
      <trkpt lat="43.66717" lon="1.38052">
        <ele>143</ele>
        <time>2024-03-21T18:42:28Z</time>
      </trkpt>
      <trkpt lat="43.66715" lon="1.38051">
        <ele>143</ele>
        <time>2024-03-21T18:42:29Z</time>
      </trkpt>
      <trkpt lat="43.66715" lon="1.38051">
        <ele>143</ele>
        <time>2024-03-21T18:42:30Z</time>
      </trkpt>
      <trkpt lat="43.66713" lon="1.38049">
        <ele>143</ele>
        <time>2024-03-21T18:42:31Z</time>
      </trkpt>
      <trkpt lat="43.66713" lon="1.38049">
        <ele>143</ele>
        <time>2024-03-21T18:42:32Z</time>
      </trkpt>
      <trkpt lat="43.66711" lon="1.38047">
        <ele>143</ele>
        <time>2024-03-21T18:42:33Z</time>
      </trkpt>
      <trkpt lat="43.66711" lon="1.38047">
        <ele>143</ele>
        <time>2024-03-21T18:42:34Z</time>
      </trkpt>
      <trkpt lat="43.66709" lon="1.38045">
        <ele>143</ele>
        <time>2024-03-21T18:42:35Z</time>
      </trkpt>
      <trkpt lat="43.66707" lon="1.38042">
        <ele>143</ele>
        <time>2024-03-21T18:42:37Z</time>
      </trkpt>
      <trkpt lat="43.66706" lon="1.3804">
        <ele>143</ele>
        <time>2024-03-21T18:42:38Z</time>
      </trkpt>
      <trkpt lat="43.66705" lon="1.38038">
        <ele>143</ele>
        <time>2024-03-21T18:42:39Z</time>
      </trkpt>
      <trkpt lat="43.66703" lon="1.38036">
        <ele>143</ele>
        <time>2024-03-21T18:42:40Z</time>
      </trkpt>
      <trkpt lat="43.66702" lon="1.38034">
        <ele>143</ele>
        <time>2024-03-21T18:42:41Z</time>
      </trkpt>
      <trkpt lat="43.667" lon="1.38032">
        <ele>143</ele>
        <time>2024-03-21T18:42:42Z</time>
      </trkpt>
      <trkpt lat="43.66698" lon="1.3803">
        <ele>143</ele>
        <time>2024-03-21T18:42:43Z</time>
      </trkpt>
      <trkpt lat="43.66697" lon="1.38028">
        <ele>143</ele>
        <time>2024-03-21T18:42:44Z</time>
      </trkpt>
      <trkpt lat="43.66695" lon="1.38026">
        <ele>143</ele>
        <time>2024-03-21T18:42:45Z</time>
      </trkpt>
      <trkpt lat="43.66694" lon="1.38024">
        <ele>143</ele>
        <time>2024-03-21T18:42:46Z</time>
      </trkpt>
      <trkpt lat="43.66693" lon="1.38022">
        <ele>143</ele>
        <time>2024-03-21T18:42:47Z</time>
      </trkpt>
      <trkpt lat="43.66691" lon="1.3802">
        <ele>143</ele>
        <time>2024-03-21T18:42:48Z</time>
      </trkpt>
      <trkpt lat="43.66691" lon="1.3802">
        <ele>142</ele>
        <time>2024-03-21T18:42:49Z</time>
      </trkpt>
      <trkpt lat="43.66688" lon="1.38018">
        <ele>142</ele>
        <time>2024-03-21T18:42:50Z</time>
      </trkpt>
      <trkpt lat="43.66687" lon="1.38018">
        <ele>142</ele>
        <time>2024-03-21T18:42:51Z</time>
      </trkpt>
      <trkpt lat="43.66685" lon="1.38019">
        <ele>142</ele>
        <time>2024-03-21T18:42:52Z</time>
      </trkpt>
      <trkpt lat="43.66683" lon="1.38019">
        <ele>142</ele>
        <time>2024-03-21T18:42:53Z</time>
      </trkpt>
      <trkpt lat="43.66682" lon="1.3802">
        <ele>142</ele>
        <time>2024-03-21T18:42:54Z</time>
      </trkpt>
      <trkpt lat="43.66679" lon="1.38022">
        <ele>142</ele>
        <time>2024-03-21T18:42:55Z</time>
      </trkpt>
      <trkpt lat="43.66678" lon="1.38022">
        <ele>142</ele>
        <time>2024-03-21T18:42:56Z</time>
      </trkpt>
      <trkpt lat="43.66675" lon="1.38024">
        <ele>142</ele>
        <time>2024-03-21T18:42:57Z</time>
      </trkpt>
      <trkpt lat="43.66673" lon="1.38025">
        <ele>142</ele>
        <time>2024-03-21T18:42:58Z</time>
      </trkpt>
      <trkpt lat="43.66672" lon="1.38027">
        <ele>142</ele>
        <time>2024-03-21T18:42:59Z</time>
      </trkpt>
      <trkpt lat="43.66669" lon="1.38029">
        <ele>142</ele>
        <time>2024-03-21T18:43:00Z</time>
      </trkpt>
      <trkpt lat="43.66667" lon="1.38031">
        <ele>142</ele>
        <time>2024-03-21T18:43:01Z</time>
      </trkpt>
      <trkpt lat="43.66665" lon="1.38032">
        <ele>142</ele>
        <time>2024-03-21T18:43:02Z</time>
      </trkpt>
      <trkpt lat="43.66663" lon="1.38034">
        <ele>142</ele>
        <time>2024-03-21T18:43:03Z</time>
      </trkpt>
      <trkpt lat="43.66661" lon="1.38035">
        <ele>142</ele>
        <time>2024-03-21T18:43:04Z</time>
      </trkpt>
      <trkpt lat="43.66659" lon="1.38037">
        <ele>142</ele>
        <time>2024-03-21T18:43:05Z</time>
      </trkpt>
      <trkpt lat="43.66657" lon="1.38039">
        <ele>142</ele>
        <time>2024-03-21T18:43:06Z</time>
      </trkpt>
      <trkpt lat="43.66655" lon="1.38041">
        <ele>143</ele>
        <time>2024-03-21T18:43:07Z</time>
      </trkpt>
      <trkpt lat="43.66653" lon="1.38044">
        <ele>143</ele>
        <time>2024-03-21T18:43:08Z</time>
      </trkpt>
      <trkpt lat="43.66652" lon="1.38046">
        <ele>143</ele>
        <time>2024-03-21T18:43:09Z</time>
      </trkpt>
      <trkpt lat="43.6665" lon="1.38048">
        <ele>143</ele>
        <time>2024-03-21T18:43:10Z</time>
      </trkpt>
      <trkpt lat="43.66648" lon="1.3805">
        <ele>143</ele>
        <time>2024-03-21T18:43:11Z</time>
      </trkpt>
      <trkpt lat="43.66647" lon="1.38052">
        <ele>143</ele>
        <time>2024-03-21T18:43:12Z</time>
      </trkpt>
      <trkpt lat="43.66645" lon="1.38054">
        <ele>142</ele>
        <time>2024-03-21T18:43:13Z</time>
      </trkpt>
      <trkpt lat="43.66642" lon="1.38057">
        <ele>142</ele>
        <time>2024-03-21T18:43:14Z</time>
      </trkpt>
      <trkpt lat="43.66641" lon="1.38058">
        <ele>143</ele>
        <time>2024-03-21T18:43:15Z</time>
      </trkpt>
      <trkpt lat="43.6664" lon="1.3806">
        <ele>143</ele>
        <time>2024-03-21T18:43:16Z</time>
      </trkpt>
      <trkpt lat="43.66638" lon="1.38062">
        <ele>143</ele>
        <time>2024-03-21T18:43:17Z</time>
      </trkpt>
      <trkpt lat="43.66636" lon="1.38064">
        <ele>143</ele>
        <time>2024-03-21T18:43:18Z</time>
      </trkpt>
      <trkpt lat="43.66634" lon="1.38066">
        <ele>143</ele>
        <time>2024-03-21T18:43:19Z</time>
      </trkpt>
      <trkpt lat="43.66632" lon="1.38068">
        <ele>143</ele>
        <time>2024-03-21T18:43:20Z</time>
      </trkpt>
      <trkpt lat="43.6663" lon="1.38071">
        <ele>143</ele>
        <time>2024-03-21T18:43:21Z</time>
      </trkpt>
      <trkpt lat="43.66628" lon="1.38073">
        <ele>143</ele>
        <time>2024-03-21T18:43:22Z</time>
      </trkpt>
      <trkpt lat="43.66626" lon="1.38076">
        <ele>143</ele>
        <time>2024-03-21T18:43:23Z</time>
      </trkpt>
      <trkpt lat="43.66624" lon="1.38078">
        <ele>143</ele>
        <time>2024-03-21T18:43:24Z</time>
      </trkpt>
      <trkpt lat="43.66622" lon="1.3808">
        <ele>143</ele>
        <time>2024-03-21T18:43:25Z</time>
      </trkpt>
      <trkpt lat="43.6662" lon="1.38082">
        <ele>143</ele>
        <time>2024-03-21T18:43:26Z</time>
      </trkpt>
      <trkpt lat="43.66618" lon="1.38085">
        <ele>143</ele>
        <time>2024-03-21T18:43:27Z</time>
      </trkpt>
      <trkpt lat="43.66616" lon="1.38087">
        <ele>143</ele>
        <time>2024-03-21T18:43:28Z</time>
      </trkpt>
      <trkpt lat="43.66614" lon="1.38089">
        <ele>143</ele>
        <time>2024-03-21T18:43:29Z</time>
      </trkpt>
      <trkpt lat="43.66613" lon="1.38091">
        <ele>143</ele>
        <time>2024-03-21T18:43:30Z</time>
      </trkpt>
      <trkpt lat="43.66611" lon="1.38093">
        <ele>143</ele>
        <time>2024-03-21T18:43:31Z</time>
      </trkpt>
      <trkpt lat="43.66609" lon="1.38096">
        <ele>143</ele>
        <time>2024-03-21T18:43:32Z</time>
      </trkpt>
      <trkpt lat="43.66608" lon="1.38098">
        <ele>143</ele>
        <time>2024-03-21T18:43:33Z</time>
      </trkpt>
      <trkpt lat="43.66606" lon="1.381">
        <ele>144</ele>
        <time>2024-03-21T18:43:34Z</time>
      </trkpt>
      <trkpt lat="43.66604" lon="1.38102">
        <ele>144</ele>
        <time>2024-03-21T18:43:35Z</time>
      </trkpt>
      <trkpt lat="43.66602" lon="1.38102">
        <ele>143</ele>
        <time>2024-03-21T18:43:36Z</time>
      </trkpt>
      <trkpt lat="43.66599" lon="1.38102">
        <ele>143</ele>
        <time>2024-03-21T18:43:37Z</time>
      </trkpt>
      <trkpt lat="43.66596" lon="1.38101">
        <ele>143</ele>
        <time>2024-03-21T18:43:38Z</time>
      </trkpt>
      <trkpt lat="43.66594" lon="1.381">
        <ele>143</ele>
        <time>2024-03-21T18:43:39Z</time>
      </trkpt>
      <trkpt lat="43.66591" lon="1.38098">
        <ele>143</ele>
        <time>2024-03-21T18:43:40Z</time>
      </trkpt>
      <trkpt lat="43.66589" lon="1.38096">
        <ele>143</ele>
        <time>2024-03-21T18:43:41Z</time>
      </trkpt>
      <trkpt lat="43.66587" lon="1.38093">
        <ele>143</ele>
        <time>2024-03-21T18:43:42Z</time>
      </trkpt>
      <trkpt lat="43.66585" lon="1.38091">
        <ele>143</ele>
        <time>2024-03-21T18:43:43Z</time>
      </trkpt>
      <trkpt lat="43.66583" lon="1.38088">
        <ele>143</ele>
        <time>2024-03-21T18:43:44Z</time>
      </trkpt>
      <trkpt lat="43.66582" lon="1.38086">
        <ele>143</ele>
        <time>2024-03-21T18:43:45Z</time>
      </trkpt>
      <trkpt lat="43.6658" lon="1.38084">
        <ele>143</ele>
        <time>2024-03-21T18:43:46Z</time>
      </trkpt>
      <trkpt lat="43.66579" lon="1.38082">
        <ele>143</ele>
        <time>2024-03-21T18:43:47Z</time>
      </trkpt>
      <trkpt lat="43.66578" lon="1.38079">
        <ele>143</ele>
        <time>2024-03-21T18:43:48Z</time>
      </trkpt>
      <trkpt lat="43.66576" lon="1.38076">
        <ele>143</ele>
        <time>2024-03-21T18:43:49Z</time>
      </trkpt>
      <trkpt lat="43.66575" lon="1.38073">
        <ele>143</ele>
        <time>2024-03-21T18:43:50Z</time>
      </trkpt>
      <trkpt lat="43.66574" lon="1.38071">
        <ele>143</ele>
        <time>2024-03-21T18:43:51Z</time>
      </trkpt>
      <trkpt lat="43.66572" lon="1.38068">
        <ele>143</ele>
        <time>2024-03-21T18:43:52Z</time>
      </trkpt>
      <trkpt lat="43.66571" lon="1.38065">
        <ele>143</ele>
        <time>2024-03-21T18:43:53Z</time>
      </trkpt>
      <trkpt lat="43.66569" lon="1.38062">
        <ele>143</ele>
        <time>2024-03-21T18:43:54Z</time>
      </trkpt>
      <trkpt lat="43.66568" lon="1.3806">
        <ele>143</ele>
        <time>2024-03-21T18:43:55Z</time>
      </trkpt>
      <trkpt lat="43.66566" lon="1.38057">
        <ele>143</ele>
        <time>2024-03-21T18:43:56Z</time>
      </trkpt>
      <trkpt lat="43.66564" lon="1.38055">
        <ele>143</ele>
        <time>2024-03-21T18:43:57Z</time>
      </trkpt>
      <trkpt lat="43.66562" lon="1.38054">
        <ele>143</ele>
        <time>2024-03-21T18:43:58Z</time>
      </trkpt>
      <trkpt lat="43.6656" lon="1.38052">
        <ele>143</ele>
        <time>2024-03-21T18:43:59Z</time>
      </trkpt>
      <trkpt lat="43.66558" lon="1.38049">
        <ele>143</ele>
        <time>2024-03-21T18:44:00Z</time>
      </trkpt>
      <trkpt lat="43.66556" lon="1.38047">
        <ele>143</ele>
        <time>2024-03-21T18:44:01Z</time>
      </trkpt>
      <trkpt lat="43.66554" lon="1.38044">
        <ele>143</ele>
        <time>2024-03-21T18:44:02Z</time>
      </trkpt>
      <trkpt lat="43.66552" lon="1.38041">
        <ele>143</ele>
        <time>2024-03-21T18:44:03Z</time>
      </trkpt>
      <trkpt lat="43.6655" lon="1.38038">
        <ele>143</ele>
        <time>2024-03-21T18:44:04Z</time>
      </trkpt>
      <trkpt lat="43.66548" lon="1.38035">
        <ele>143</ele>
        <time>2024-03-21T18:44:05Z</time>
      </trkpt>
      <trkpt lat="43.66546" lon="1.38033">
        <ele>143</ele>
        <time>2024-03-21T18:44:06Z</time>
      </trkpt>
      <trkpt lat="43.66545" lon="1.3803">
        <ele>143</ele>
        <time>2024-03-21T18:44:07Z</time>
      </trkpt>
      <trkpt lat="43.66543" lon="1.38028">
        <ele>143</ele>
        <time>2024-03-21T18:44:08Z</time>
      </trkpt>
      <trkpt lat="43.66542" lon="1.38025">
        <ele>143</ele>
        <time>2024-03-21T18:44:09Z</time>
      </trkpt>
      <trkpt lat="43.6654" lon="1.38023">
        <ele>143</ele>
        <time>2024-03-21T18:44:10Z</time>
      </trkpt>
      <trkpt lat="43.66538" lon="1.3802">
        <ele>143</ele>
        <time>2024-03-21T18:44:11Z</time>
      </trkpt>
      <trkpt lat="43.66536" lon="1.38018">
        <ele>143</ele>
        <time>2024-03-21T18:44:12Z</time>
      </trkpt>
      <trkpt lat="43.66534" lon="1.38015">
        <ele>143</ele>
        <time>2024-03-21T18:44:13Z</time>
      </trkpt>
      <trkpt lat="43.66533" lon="1.38013">
        <ele>143</ele>
        <time>2024-03-21T18:44:14Z</time>
      </trkpt>
      <trkpt lat="43.66531" lon="1.3801">
        <ele>143</ele>
        <time>2024-03-21T18:44:15Z</time>
      </trkpt>
      <trkpt lat="43.6653" lon="1.38008">
        <ele>143</ele>
        <time>2024-03-21T18:44:16Z</time>
      </trkpt>
      <trkpt lat="43.66528" lon="1.38005">
        <ele>143</ele>
        <time>2024-03-21T18:44:17Z</time>
      </trkpt>
      <trkpt lat="43.66526" lon="1.38003">
        <ele>143</ele>
        <time>2024-03-21T18:44:18Z</time>
      </trkpt>
      <trkpt lat="43.66524" lon="1.38001">
        <ele>143</ele>
        <time>2024-03-21T18:44:19Z</time>
      </trkpt>
      <trkpt lat="43.66521" lon="1.38">
        <ele>143</ele>
        <time>2024-03-21T18:44:20Z</time>
      </trkpt>
      <trkpt lat="43.66519" lon="1.37999">
        <ele>143</ele>
        <time>2024-03-21T18:44:21Z</time>
      </trkpt>
      <trkpt lat="43.66517" lon="1.37999">
        <ele>143</ele>
        <time>2024-03-21T18:44:22Z</time>
      </trkpt>
      <trkpt lat="43.66514" lon="1.37998">
        <ele>143</ele>
        <time>2024-03-21T18:44:23Z</time>
      </trkpt>
      <trkpt lat="43.66512" lon="1.37998">
        <ele>143</ele>
        <time>2024-03-21T18:44:24Z</time>
      </trkpt>
      <trkpt lat="43.66509" lon="1.37998">
        <ele>143</ele>
        <time>2024-03-21T18:44:25Z</time>
      </trkpt>
      <trkpt lat="43.66507" lon="1.37998">
        <ele>143</ele>
        <time>2024-03-21T18:44:26Z</time>
      </trkpt>
      <trkpt lat="43.66505" lon="1.37998">
        <ele>143</ele>
        <time>2024-03-21T18:44:27Z</time>
      </trkpt>
      <trkpt lat="43.66502" lon="1.37999">
        <ele>143</ele>
        <time>2024-03-21T18:44:28Z</time>
      </trkpt>
      <trkpt lat="43.665" lon="1.38001">
        <ele>143</ele>
        <time>2024-03-21T18:44:29Z</time>
      </trkpt>
      <trkpt lat="43.66499" lon="1.38003">
        <ele>143</ele>
        <time>2024-03-21T18:44:30Z</time>
      </trkpt>
      <trkpt lat="43.66498" lon="1.38007">
        <ele>143</ele>
        <time>2024-03-21T18:44:31Z</time>
      </trkpt>
      <trkpt lat="43.66497" lon="1.38011">
        <ele>143</ele>
        <time>2024-03-21T18:44:32Z</time>
      </trkpt>
      <trkpt lat="43.66497" lon="1.38014">
        <ele>143</ele>
        <time>2024-03-21T18:44:33Z</time>
      </trkpt>
      <trkpt lat="43.66496" lon="1.3802">
        <ele>143</ele>
        <time>2024-03-21T18:44:34Z</time>
      </trkpt>
      <trkpt lat="43.66496" lon="1.38021">
        <ele>143</ele>
        <time>2024-03-21T18:44:35Z</time>
      </trkpt>
      <trkpt lat="43.66496" lon="1.38025">
        <ele>143</ele>
        <time>2024-03-21T18:44:36Z</time>
      </trkpt>
      <trkpt lat="43.66496" lon="1.38029">
        <ele>143</ele>
        <time>2024-03-21T18:44:37Z</time>
      </trkpt>
      <trkpt lat="43.66495" lon="1.38032">
        <ele>144</ele>
        <time>2024-03-21T18:44:38Z</time>
      </trkpt>
      <trkpt lat="43.66495" lon="1.38036">
        <ele>144</ele>
        <time>2024-03-21T18:44:39Z</time>
      </trkpt>
      <trkpt lat="43.66495" lon="1.38039">
        <ele>144</ele>
        <time>2024-03-21T18:44:40Z</time>
      </trkpt>
      <trkpt lat="43.66494" lon="1.38043">
        <ele>144</ele>
        <time>2024-03-21T18:44:41Z</time>
      </trkpt>
      <trkpt lat="43.66493" lon="1.38047">
        <ele>143</ele>
        <time>2024-03-21T18:44:42Z</time>
      </trkpt>
      <trkpt lat="43.66492" lon="1.3805">
        <ele>143</ele>
        <time>2024-03-21T18:44:43Z</time>
      </trkpt>
      <trkpt lat="43.6649" lon="1.38053">
        <ele>143</ele>
        <time>2024-03-21T18:44:44Z</time>
      </trkpt>
      <trkpt lat="43.66487" lon="1.38054">
        <ele>144</ele>
        <time>2024-03-21T18:44:45Z</time>
      </trkpt>
      <trkpt lat="43.66485" lon="1.38055">
        <ele>144</ele>
        <time>2024-03-21T18:44:46Z</time>
      </trkpt>
      <trkpt lat="43.66483" lon="1.38055">
        <ele>144</ele>
        <time>2024-03-21T18:44:47Z</time>
      </trkpt>
      <trkpt lat="43.6648" lon="1.38055">
        <ele>144</ele>
        <time>2024-03-21T18:44:48Z</time>
      </trkpt>
      <trkpt lat="43.66476" lon="1.38055">
        <ele>144</ele>
        <time>2024-03-21T18:44:49Z</time>
      </trkpt>
      <trkpt lat="43.66475" lon="1.38055">
        <ele>144</ele>
        <time>2024-03-21T18:44:50Z</time>
      </trkpt>
      <trkpt lat="43.66472" lon="1.38056">
        <ele>144</ele>
        <time>2024-03-21T18:44:51Z</time>
      </trkpt>
      <trkpt lat="43.66468" lon="1.38056">
        <ele>144</ele>
        <time>2024-03-21T18:44:52Z</time>
      </trkpt>
      <trkpt lat="43.66466" lon="1.38056">
        <ele>144</ele>
        <time>2024-03-21T18:44:53Z</time>
      </trkpt>
      <trkpt lat="43.66463" lon="1.38056">
        <ele>144</ele>
        <time>2024-03-21T18:44:54Z</time>
      </trkpt>
      <trkpt lat="43.66461" lon="1.38056">
        <ele>144</ele>
        <time>2024-03-21T18:44:55Z</time>
      </trkpt>
      <trkpt lat="43.66458" lon="1.38055">
        <ele>144</ele>
        <time>2024-03-21T18:44:56Z</time>
      </trkpt>
      <trkpt lat="43.66456" lon="1.38055">
        <ele>144</ele>
        <time>2024-03-21T18:44:57Z</time>
      </trkpt>
      <trkpt lat="43.66452" lon="1.38055">
        <ele>144</ele>
        <time>2024-03-21T18:44:58Z</time>
      </trkpt>
      <trkpt lat="43.66451" lon="1.38055">
        <ele>144</ele>
        <time>2024-03-21T18:44:59Z</time>
      </trkpt>
      <trkpt lat="43.66448" lon="1.38055">
        <ele>144</ele>
        <time>2024-03-21T18:45:00Z</time>
      </trkpt>
      <trkpt lat="43.66446" lon="1.38055">
        <ele>144</ele>
        <time>2024-03-21T18:45:01Z</time>
      </trkpt>
      <trkpt lat="43.66443" lon="1.38055">
        <ele>144</ele>
        <time>2024-03-21T18:45:02Z</time>
      </trkpt>
      <trkpt lat="43.6644" lon="1.38054">
        <ele>144</ele>
        <time>2024-03-21T18:45:03Z</time>
      </trkpt>
      <trkpt lat="43.66438" lon="1.38054">
        <ele>144</ele>
        <time>2024-03-21T18:45:04Z</time>
      </trkpt>
      <trkpt lat="43.66435" lon="1.38054">
        <ele>144</ele>
        <time>2024-03-21T18:45:05Z</time>
      </trkpt>
      <trkpt lat="43.66432" lon="1.38054">
        <ele>144</ele>
        <time>2024-03-21T18:45:06Z</time>
      </trkpt>
      <trkpt lat="43.6643" lon="1.38054">
        <ele>145</ele>
        <time>2024-03-21T18:45:07Z</time>
      </trkpt>
      <trkpt lat="43.66426" lon="1.38054">
        <ele>145</ele>
        <time>2024-03-21T18:45:08Z</time>
      </trkpt>
      <trkpt lat="43.66424" lon="1.38054">
        <ele>144</ele>
        <time>2024-03-21T18:45:09Z</time>
      </trkpt>
      <trkpt lat="43.66422" lon="1.38053">
        <ele>144</ele>
        <time>2024-03-21T18:45:10Z</time>
      </trkpt>
      <trkpt lat="43.66418" lon="1.38053">
        <ele>144</ele>
        <time>2024-03-21T18:45:11Z</time>
      </trkpt>
      <trkpt lat="43.66416" lon="1.38053">
        <ele>144</ele>
        <time>2024-03-21T18:45:12Z</time>
      </trkpt>
      <trkpt lat="43.66413" lon="1.38053">
        <ele>144</ele>
        <time>2024-03-21T18:45:13Z</time>
      </trkpt>
      <trkpt lat="43.66411" lon="1.38053">
        <ele>144</ele>
        <time>2024-03-21T18:45:14Z</time>
      </trkpt>
      <trkpt lat="43.66408" lon="1.38052">
        <ele>144</ele>
        <time>2024-03-21T18:45:15Z</time>
      </trkpt>
      <trkpt lat="43.66405" lon="1.38052">
        <ele>144</ele>
        <time>2024-03-21T18:45:16Z</time>
      </trkpt>
      <trkpt lat="43.66402" lon="1.38052">
        <ele>144</ele>
        <time>2024-03-21T18:45:17Z</time>
      </trkpt>
      <trkpt lat="43.664" lon="1.38052">
        <ele>144</ele>
        <time>2024-03-21T18:45:18Z</time>
      </trkpt>
      <trkpt lat="43.66397" lon="1.38051">
        <ele>144</ele>
        <time>2024-03-21T18:45:19Z</time>
      </trkpt>
      <trkpt lat="43.66394" lon="1.3805">
        <ele>144</ele>
        <time>2024-03-21T18:45:20Z</time>
      </trkpt>
      <trkpt lat="43.66392" lon="1.38048">
        <ele>144</ele>
        <time>2024-03-21T18:45:21Z</time>
      </trkpt>
      <trkpt lat="43.6639" lon="1.38047">
        <ele>144</ele>
        <time>2024-03-21T18:45:22Z</time>
      </trkpt>
      <trkpt lat="43.66387" lon="1.38045">
        <ele>144</ele>
        <time>2024-03-21T18:45:23Z</time>
      </trkpt>
      <trkpt lat="43.66385" lon="1.38043">
        <ele>144</ele>
        <time>2024-03-21T18:45:24Z</time>
      </trkpt>
      <trkpt lat="43.66383" lon="1.38041">
        <ele>144</ele>
        <time>2024-03-21T18:45:25Z</time>
      </trkpt>
      <trkpt lat="43.66381" lon="1.3804">
        <ele>144</ele>
        <time>2024-03-21T18:45:26Z</time>
      </trkpt>
      <trkpt lat="43.66377" lon="1.38039">
        <ele>144</ele>
        <time>2024-03-21T18:45:27Z</time>
      </trkpt>
      <trkpt lat="43.66376" lon="1.3804">
        <ele>144</ele>
        <time>2024-03-21T18:45:28Z</time>
      </trkpt>
      <trkpt lat="43.66373" lon="1.38041">
        <ele>144</ele>
        <time>2024-03-21T18:45:29Z</time>
      </trkpt>
      <trkpt lat="43.6637" lon="1.38043">
        <ele>144</ele>
        <time>2024-03-21T18:45:30Z</time>
      </trkpt>
      <trkpt lat="43.66369" lon="1.38044">
        <ele>144</ele>
        <time>2024-03-21T18:45:31Z</time>
      </trkpt>
      <trkpt lat="43.66366" lon="1.38045">
        <ele>144</ele>
        <time>2024-03-21T18:45:32Z</time>
      </trkpt>
      <trkpt lat="43.66364" lon="1.38047">
        <ele>144</ele>
        <time>2024-03-21T18:45:33Z</time>
      </trkpt>
      <trkpt lat="43.66361" lon="1.38049">
        <ele>144</ele>
        <time>2024-03-21T18:45:34Z</time>
      </trkpt>
      <trkpt lat="43.66359" lon="1.38051">
        <ele>144</ele>
        <time>2024-03-21T18:45:35Z</time>
      </trkpt>
      <trkpt lat="43.66357" lon="1.38053">
        <ele>144</ele>
        <time>2024-03-21T18:45:36Z</time>
      </trkpt>
      <trkpt lat="43.66355" lon="1.38055">
        <ele>144</ele>
        <time>2024-03-21T18:45:37Z</time>
      </trkpt>
      <trkpt lat="43.66353" lon="1.38058">
        <ele>144</ele>
        <time>2024-03-21T18:45:38Z</time>
      </trkpt>
      <trkpt lat="43.66351" lon="1.3806">
        <ele>144</ele>
        <time>2024-03-21T18:45:39Z</time>
      </trkpt>
      <trkpt lat="43.66349" lon="1.38062">
        <ele>144</ele>
        <time>2024-03-21T18:45:40Z</time>
      </trkpt>
      <trkpt lat="43.66348" lon="1.38065">
        <ele>144</ele>
        <time>2024-03-21T18:45:41Z</time>
      </trkpt>
      <trkpt lat="43.66346" lon="1.38068">
        <ele>144</ele>
        <time>2024-03-21T18:45:42Z</time>
      </trkpt>
      <trkpt lat="43.66344" lon="1.3807">
        <ele>144</ele>
        <time>2024-03-21T18:45:43Z</time>
      </trkpt>
      <trkpt lat="43.66342" lon="1.38073">
        <ele>144</ele>
        <time>2024-03-21T18:45:44Z</time>
      </trkpt>
      <trkpt lat="43.6634" lon="1.38076">
        <ele>144</ele>
        <time>2024-03-21T18:45:45Z</time>
      </trkpt>
      <trkpt lat="43.66336" lon="1.38079">
        <ele>144</ele>
        <time>2024-03-21T18:45:46Z</time>
      </trkpt>
      <trkpt lat="43.66335" lon="1.38081">
        <ele>145</ele>
        <time>2024-03-21T18:45:47Z</time>
      </trkpt>
      <trkpt lat="43.66333" lon="1.38084">
        <ele>145</ele>
        <time>2024-03-21T18:45:48Z</time>
      </trkpt>
      <trkpt lat="43.6633" lon="1.38087">
        <ele>145</ele>
        <time>2024-03-21T18:45:49Z</time>
      </trkpt>
      <trkpt lat="43.66329" lon="1.38089">
        <ele>145</ele>
        <time>2024-03-21T18:45:50Z</time>
      </trkpt>
      <trkpt lat="43.66327" lon="1.38091">
        <ele>145</ele>
        <time>2024-03-21T18:45:51Z</time>
      </trkpt>
      <trkpt lat="43.66325" lon="1.38093">
        <ele>145</ele>
        <time>2024-03-21T18:45:52Z</time>
      </trkpt>
      <trkpt lat="43.66322" lon="1.38095">
        <ele>145</ele>
        <time>2024-03-21T18:45:53Z</time>
      </trkpt>
      <trkpt lat="43.6632" lon="1.38097">
        <ele>145</ele>
        <time>2024-03-21T18:45:54Z</time>
      </trkpt>
      <trkpt lat="43.66318" lon="1.38098">
        <ele>145</ele>
        <time>2024-03-21T18:45:55Z</time>
      </trkpt>
      <trkpt lat="43.66315" lon="1.381">
        <ele>145</ele>
        <time>2024-03-21T18:45:56Z</time>
      </trkpt>
      <trkpt lat="43.66313" lon="1.38102">
        <ele>145</ele>
        <time>2024-03-21T18:45:57Z</time>
      </trkpt>
      <trkpt lat="43.6631" lon="1.38103">
        <ele>145</ele>
        <time>2024-03-21T18:45:58Z</time>
      </trkpt>
      <trkpt lat="43.66308" lon="1.38104">
        <ele>145</ele>
        <time>2024-03-21T18:45:59Z</time>
      </trkpt>
      <trkpt lat="43.66306" lon="1.38106">
        <ele>145</ele>
        <time>2024-03-21T18:46:00Z</time>
      </trkpt>
      <trkpt lat="43.66303" lon="1.38108">
        <ele>145</ele>
        <time>2024-03-21T18:46:01Z</time>
      </trkpt>
      <trkpt lat="43.66301" lon="1.3811">
        <ele>145</ele>
        <time>2024-03-21T18:46:02Z</time>
      </trkpt>
      <trkpt lat="43.66298" lon="1.38112">
        <ele>145</ele>
        <time>2024-03-21T18:46:03Z</time>
      </trkpt>
      <trkpt lat="43.66296" lon="1.38114">
        <ele>145</ele>
        <time>2024-03-21T18:46:04Z</time>
      </trkpt>
      <trkpt lat="43.66292" lon="1.38116">
        <ele>145</ele>
        <time>2024-03-21T18:46:05Z</time>
      </trkpt>
      <trkpt lat="43.66291" lon="1.38117">
        <ele>145</ele>
        <time>2024-03-21T18:46:06Z</time>
      </trkpt>
      <trkpt lat="43.66287" lon="1.3812">
        <ele>145</ele>
        <time>2024-03-21T18:46:07Z</time>
      </trkpt>
      <trkpt lat="43.66286" lon="1.38121">
        <ele>145</ele>
        <time>2024-03-21T18:46:08Z</time>
      </trkpt>
      <trkpt lat="43.66284" lon="1.38123">
        <ele>145</ele>
        <time>2024-03-21T18:46:09Z</time>
      </trkpt>
      <trkpt lat="43.66281" lon="1.38124">
        <ele>145</ele>
        <time>2024-03-21T18:46:10Z</time>
      </trkpt>
      <trkpt lat="43.66279" lon="1.38125">
        <ele>145</ele>
        <time>2024-03-21T18:46:11Z</time>
      </trkpt>
      <trkpt lat="43.66276" lon="1.38127">
        <ele>145</ele>
        <time>2024-03-21T18:46:12Z</time>
      </trkpt>
      <trkpt lat="43.66273" lon="1.38129">
        <ele>145</ele>
        <time>2024-03-21T18:46:13Z</time>
      </trkpt>
      <trkpt lat="43.66271" lon="1.3813">
        <ele>145</ele>
        <time>2024-03-21T18:46:14Z</time>
      </trkpt>
      <trkpt lat="43.66268" lon="1.38132">
        <ele>145</ele>
        <time>2024-03-21T18:46:15Z</time>
      </trkpt>
      <trkpt lat="43.66266" lon="1.38135">
        <ele>145</ele>
        <time>2024-03-21T18:46:16Z</time>
      </trkpt>
      <trkpt lat="43.66263" lon="1.38137">
        <ele>145</ele>
        <time>2024-03-21T18:46:17Z</time>
      </trkpt>
      <trkpt lat="43.66261" lon="1.38139">
        <ele>145</ele>
        <time>2024-03-21T18:46:18Z</time>
      </trkpt>
      <trkpt lat="43.66259" lon="1.3814">
        <ele>145</ele>
        <time>2024-03-21T18:46:19Z</time>
      </trkpt>
      <trkpt lat="43.66256" lon="1.38142">
        <ele>145</ele>
        <time>2024-03-21T18:46:20Z</time>
      </trkpt>
      <trkpt lat="43.66254" lon="1.38144">
        <ele>145</ele>
        <time>2024-03-21T18:46:21Z</time>
      </trkpt>
      <trkpt lat="43.66252" lon="1.38146">
        <ele>145</ele>
        <time>2024-03-21T18:46:22Z</time>
      </trkpt>
      <trkpt lat="43.66249" lon="1.38148">
        <ele>145</ele>
        <time>2024-03-21T18:46:23Z</time>
      </trkpt>
      <trkpt lat="43.66247" lon="1.38149">
        <ele>145</ele>
        <time>2024-03-21T18:46:24Z</time>
      </trkpt>
      <trkpt lat="43.66244" lon="1.38151">
        <ele>145</ele>
        <time>2024-03-21T18:46:25Z</time>
      </trkpt>
      <trkpt lat="43.66241" lon="1.38154">
        <ele>145</ele>
        <time>2024-03-21T18:46:26Z</time>
      </trkpt>
      <trkpt lat="43.66239" lon="1.38155">
        <ele>145</ele>
        <time>2024-03-21T18:46:27Z</time>
      </trkpt>
      <trkpt lat="43.66237" lon="1.38156">
        <ele>145</ele>
        <time>2024-03-21T18:46:28Z</time>
      </trkpt>
      <trkpt lat="43.66234" lon="1.38158">
        <ele>145</ele>
        <time>2024-03-21T18:46:29Z</time>
      </trkpt>
      <trkpt lat="43.66232" lon="1.3816">
        <ele>145</ele>
        <time>2024-03-21T18:46:30Z</time>
      </trkpt>
      <trkpt lat="43.66229" lon="1.38162">
        <ele>145</ele>
        <time>2024-03-21T18:46:31Z</time>
      </trkpt>
      <trkpt lat="43.66227" lon="1.38164">
        <ele>145</ele>
        <time>2024-03-21T18:46:32Z</time>
      </trkpt>
      <trkpt lat="43.66224" lon="1.38166">
        <ele>145</ele>
        <time>2024-03-21T18:46:33Z</time>
      </trkpt>
      <trkpt lat="43.66222" lon="1.38168">
        <ele>145</ele>
        <time>2024-03-21T18:46:34Z</time>
      </trkpt>
      <trkpt lat="43.6622" lon="1.3817">
        <ele>145</ele>
        <time>2024-03-21T18:46:35Z</time>
      </trkpt>
      <trkpt lat="43.66217" lon="1.38172">
        <ele>145</ele>
        <time>2024-03-21T18:46:36Z</time>
      </trkpt>
      <trkpt lat="43.66214" lon="1.38174">
        <ele>145</ele>
        <time>2024-03-21T18:46:37Z</time>
      </trkpt>
      <trkpt lat="43.66212" lon="1.38175">
        <ele>145</ele>
        <time>2024-03-21T18:46:38Z</time>
      </trkpt>
      <trkpt lat="43.6621" lon="1.38177">
        <ele>145</ele>
        <time>2024-03-21T18:46:39Z</time>
      </trkpt>
      <trkpt lat="43.66207" lon="1.38179">
        <ele>145</ele>
        <time>2024-03-21T18:46:40Z</time>
      </trkpt>
      <trkpt lat="43.66206" lon="1.3818">
        <ele>145</ele>
        <time>2024-03-21T18:46:41Z</time>
      </trkpt>
    </trkseg>
  </trk>
</gpx>